<?xml version="1.0" encoding="UTF-8" standalone="no" ?>
<gpx xmlns="http://www.topografix.com/GPX/1/1" xmlns:xsi="http://www.w3.org/2001/XMLSchema-instance" xsi:schemaLocation="http://www.topografix.com/GPX/1/1 http://www.topografix.com/GPX/1/1/gpx.xsd" version="1.1" creator="VisuGPX - https://www.visugpx.com">
  <metadata>
    <name>En passant vers Lentilly</name>
  </metadata>
  <trk>
    <name><![CDATA[2023 04 14 boucle avant la pluie]]></name>
    <trkseg>
      <trkpt lat="45.83318" lon="4.70965">
        <ele>305.82532</ele>
        <time>2023-04-14T11:19:44.277Z</time>
      </trkpt>
      <trkpt lat="45.83317" lon="4.70967">
        <ele>305.78349</ele>
        <time>2023-04-14T11:20:44.000Z</time>
      </trkpt>
      <trkpt lat="45.83316" lon="4.70971">
        <ele>305.65867</ele>
        <time>2023-04-14T11:20:46.000Z</time>
      </trkpt>
      <trkpt lat="45.83315" lon="4.70974">
        <ele>305.55616</ele>
        <time>2023-04-14T11:20:47.000Z</time>
      </trkpt>
      <trkpt lat="45.83314" lon="4.70978">
        <ele>305.44949</ele>
        <time>2023-04-14T11:20:48.000Z</time>
      </trkpt>
      <trkpt lat="45.83313" lon="4.70982">
        <ele>305.30474</ele>
        <time>2023-04-14T11:20:49.000Z</time>
      </trkpt>
      <trkpt lat="45.83312" lon="4.70987">
        <ele>305.16249</ele>
        <time>2023-04-14T11:20:50.000Z</time>
      </trkpt>
      <trkpt lat="45.83311" lon="4.70992">
        <ele>305.06603</ele>
        <time>2023-04-14T11:20:51.000Z</time>
      </trkpt>
      <trkpt lat="45.8331" lon="4.70997">
        <ele>305.01417</ele>
        <time>2023-04-14T11:20:52.000Z</time>
      </trkpt>
      <trkpt lat="45.83308" lon="4.71001">
        <ele>304.99146</ele>
        <time>2023-04-14T11:20:53.000Z</time>
      </trkpt>
      <trkpt lat="45.83307" lon="4.71006">
        <ele>304.98543</ele>
        <time>2023-04-14T11:20:54.000Z</time>
      </trkpt>
      <trkpt lat="45.83305" lon="4.71011">
        <ele>304.97582</ele>
        <time>2023-04-14T11:20:55.000Z</time>
      </trkpt>
      <trkpt lat="45.83304" lon="4.71016">
        <ele>304.97285</ele>
        <time>2023-04-14T11:20:56.000Z</time>
      </trkpt>
      <trkpt lat="45.83302" lon="4.71021">
        <ele>304.97235</ele>
        <time>2023-04-14T11:20:57.000Z</time>
      </trkpt>
      <trkpt lat="45.833" lon="4.71027">
        <ele>304.96443</ele>
        <time>2023-04-14T11:20:58.000Z</time>
      </trkpt>
      <trkpt lat="45.83298" lon="4.71031">
        <ele>304.95666</ele>
        <time>2023-04-14T11:20:59.000Z</time>
      </trkpt>
      <trkpt lat="45.83296" lon="4.71036">
        <ele>304.92558</ele>
        <time>2023-04-14T11:21:00.000Z</time>
      </trkpt>
      <trkpt lat="45.83295" lon="4.71041">
        <ele>304.84428</ele>
        <time>2023-04-14T11:21:01.000Z</time>
      </trkpt>
      <trkpt lat="45.83293" lon="4.71046">
        <ele>304.71509</ele>
        <time>2023-04-14T11:21:02.000Z</time>
      </trkpt>
      <trkpt lat="45.83291" lon="4.71051">
        <ele>304.54354</ele>
        <time>2023-04-14T11:21:03.000Z</time>
      </trkpt>
      <trkpt lat="45.8329" lon="4.71056">
        <ele>304.34916</ele>
        <time>2023-04-14T11:21:04.000Z</time>
      </trkpt>
      <trkpt lat="45.83288" lon="4.71061">
        <ele>304.14617</ele>
        <time>2023-04-14T11:21:05.000Z</time>
      </trkpt>
      <trkpt lat="45.83286" lon="4.71064">
        <ele>303.98858</ele>
        <time>2023-04-14T11:21:06.000Z</time>
      </trkpt>
      <trkpt lat="45.83283" lon="4.71067">
        <ele>303.88459</ele>
        <time>2023-04-14T11:21:07.000Z</time>
      </trkpt>
      <trkpt lat="45.83279" lon="4.71068">
        <ele>303.83733</ele>
        <time>2023-04-14T11:21:08.000Z</time>
      </trkpt>
      <trkpt lat="45.83276" lon="4.71071">
        <ele>303.81289</ele>
        <time>2023-04-14T11:21:09.000Z</time>
      </trkpt>
      <trkpt lat="45.83273" lon="4.71074">
        <ele>303.82066</ele>
        <time>2023-04-14T11:21:10.000Z</time>
      </trkpt>
      <trkpt lat="45.83272" lon="4.71078">
        <ele>303.82449</ele>
        <time>2023-04-14T11:21:11.000Z</time>
      </trkpt>
      <trkpt lat="45.83272" lon="4.71083">
        <ele>303.72542</ele>
        <time>2023-04-14T11:21:12.000Z</time>
      </trkpt>
      <trkpt lat="45.83274" lon="4.71088">
        <ele>303.50215</ele>
        <time>2023-04-14T11:21:13.000Z</time>
      </trkpt>
      <trkpt lat="45.83276" lon="4.71094">
        <ele>303.2057</ele>
        <time>2023-04-14T11:21:14.000Z</time>
      </trkpt>
      <trkpt lat="45.83277" lon="4.71101">
        <ele>302.84477</ele>
        <time>2023-04-14T11:21:15.000Z</time>
      </trkpt>
      <trkpt lat="45.83278" lon="4.71108">
        <ele>302.46717</ele>
        <time>2023-04-14T11:21:16.000Z</time>
      </trkpt>
      <trkpt lat="45.83279" lon="4.71117">
        <ele>302.07699</ele>
        <time>2023-04-14T11:21:17.000Z</time>
      </trkpt>
      <trkpt lat="45.8328" lon="4.71124">
        <ele>301.75094</ele>
        <time>2023-04-14T11:21:18.000Z</time>
      </trkpt>
      <trkpt lat="45.83281" lon="4.71133">
        <ele>301.41742</ele>
        <time>2023-04-14T11:21:19.000Z</time>
      </trkpt>
      <trkpt lat="45.83282" lon="4.71141">
        <ele>301.15168</ele>
        <time>2023-04-14T11:21:20.000Z</time>
      </trkpt>
      <trkpt lat="45.83283" lon="4.71151">
        <ele>300.8881</ele>
        <time>2023-04-14T11:21:21.000Z</time>
      </trkpt>
      <trkpt lat="45.83284" lon="4.7116">
        <ele>300.66583</ele>
        <time>2023-04-14T11:21:22.000Z</time>
      </trkpt>
      <trkpt lat="45.83285" lon="4.71169">
        <ele>300.49524</ele>
        <time>2023-04-14T11:21:23.000Z</time>
      </trkpt>
      <trkpt lat="45.83287" lon="4.71178">
        <ele>300.33701</ele>
        <time>2023-04-14T11:21:24.000Z</time>
      </trkpt>
      <trkpt lat="45.83288" lon="4.71187">
        <ele>300.14365</ele>
        <time>2023-04-14T11:21:25.000Z</time>
      </trkpt>
      <trkpt lat="45.83289" lon="4.71195">
        <ele>299.91641</ele>
        <time>2023-04-14T11:21:26.000Z</time>
      </trkpt>
      <trkpt lat="45.8329" lon="4.71203">
        <ele>299.64481</ele>
        <time>2023-04-14T11:21:27.000Z</time>
      </trkpt>
      <trkpt lat="45.83291" lon="4.71213">
        <ele>299.32014</ele>
        <time>2023-04-14T11:21:28.000Z</time>
      </trkpt>
      <trkpt lat="45.83292" lon="4.71221">
        <ele>298.99923</ele>
        <time>2023-04-14T11:21:29.000Z</time>
      </trkpt>
      <trkpt lat="45.83293" lon="4.7123">
        <ele>298.69223</ele>
        <time>2023-04-14T11:21:30.000Z</time>
      </trkpt>
      <trkpt lat="45.83294" lon="4.71238">
        <ele>298.37145</ele>
        <time>2023-04-14T11:21:31.000Z</time>
      </trkpt>
      <trkpt lat="45.83296" lon="4.71247">
        <ele>298.034</ele>
        <time>2023-04-14T11:21:32.000Z</time>
      </trkpt>
      <trkpt lat="45.83299" lon="4.71257">
        <ele>297.64101</ele>
        <time>2023-04-14T11:21:33.000Z</time>
      </trkpt>
      <trkpt lat="45.83301" lon="4.71267">
        <ele>297.22563</ele>
        <time>2023-04-14T11:21:34.000Z</time>
      </trkpt>
      <trkpt lat="45.83305" lon="4.71275">
        <ele>296.90417</ele>
        <time>2023-04-14T11:21:35.000Z</time>
      </trkpt>
      <trkpt lat="45.83308" lon="4.71284">
        <ele>296.65374</ele>
        <time>2023-04-14T11:21:36.000Z</time>
      </trkpt>
      <trkpt lat="45.83313" lon="4.71293">
        <ele>296.47597</ele>
        <time>2023-04-14T11:21:37.000Z</time>
      </trkpt>
      <trkpt lat="45.83317" lon="4.713">
        <ele>296.28005</ele>
        <time>2023-04-14T11:21:38.000Z</time>
      </trkpt>
      <trkpt lat="45.83322" lon="4.71307">
        <ele>296.04528</ele>
        <time>2023-04-14T11:21:39.000Z</time>
      </trkpt>
      <trkpt lat="45.83327" lon="4.71314">
        <ele>295.86694</ele>
        <time>2023-04-14T11:21:40.000Z</time>
      </trkpt>
      <trkpt lat="45.83332" lon="4.7132">
        <ele>295.77321</ele>
        <time>2023-04-14T11:21:41.000Z</time>
      </trkpt>
      <trkpt lat="45.83337" lon="4.71326">
        <ele>295.71853</ele>
        <time>2023-04-14T11:21:42.000Z</time>
      </trkpt>
      <trkpt lat="45.83341" lon="4.71331">
        <ele>295.62557</ele>
        <time>2023-04-14T11:21:43.000Z</time>
      </trkpt>
      <trkpt lat="45.83344" lon="4.71336">
        <ele>295.49073</ele>
        <time>2023-04-14T11:21:44.000Z</time>
      </trkpt>
      <trkpt lat="45.83346" lon="4.71342">
        <ele>295.2446</ele>
        <time>2023-04-14T11:21:45.000Z</time>
      </trkpt>
      <trkpt lat="45.83346" lon="4.71349">
        <ele>294.95978</ele>
        <time>2023-04-14T11:21:46.000Z</time>
      </trkpt>
      <trkpt lat="45.83343" lon="4.71355">
        <ele>294.67159</ele>
        <time>2023-04-14T11:21:47.000Z</time>
      </trkpt>
      <trkpt lat="45.83339" lon="4.71359">
        <ele>294.40043</ele>
        <time>2023-04-14T11:21:48.000Z</time>
      </trkpt>
      <trkpt lat="45.83333" lon="4.71361">
        <ele>294.11788</ele>
        <time>2023-04-14T11:21:49.000Z</time>
      </trkpt>
      <trkpt lat="45.83328" lon="4.71363">
        <ele>293.83871</ele>
        <time>2023-04-14T11:21:50.000Z</time>
      </trkpt>
      <trkpt lat="45.83322" lon="4.71365">
        <ele>293.48326</ele>
        <time>2023-04-14T11:21:51.000Z</time>
      </trkpt>
      <trkpt lat="45.83316" lon="4.71367">
        <ele>293.12083</ele>
        <time>2023-04-14T11:21:52.000Z</time>
      </trkpt>
      <trkpt lat="45.8331" lon="4.71369">
        <ele>292.76337</ele>
        <time>2023-04-14T11:21:53.000Z</time>
      </trkpt>
      <trkpt lat="45.83303" lon="4.71371">
        <ele>292.48984</ele>
        <time>2023-04-14T11:21:54.000Z</time>
      </trkpt>
      <trkpt lat="45.83297" lon="4.71372">
        <ele>292.2994</ele>
        <time>2023-04-14T11:21:55.000Z</time>
      </trkpt>
      <trkpt lat="45.83291" lon="4.71375">
        <ele>292.12067</ele>
        <time>2023-04-14T11:21:56.000Z</time>
      </trkpt>
      <trkpt lat="45.83285" lon="4.71378">
        <ele>292.01467</ele>
        <time>2023-04-14T11:21:57.000Z</time>
      </trkpt>
      <trkpt lat="45.83279" lon="4.71379">
        <ele>292.0018</ele>
        <time>2023-04-14T11:21:58.000Z</time>
      </trkpt>
      <trkpt lat="45.83273" lon="4.71379">
        <ele>292.07738</ele>
        <time>2023-04-14T11:21:59.000Z</time>
      </trkpt>
      <trkpt lat="45.83268" lon="4.71378">
        <ele>292.20648</ele>
        <time>2023-04-14T11:22:00.000Z</time>
      </trkpt>
      <trkpt lat="45.83262" lon="4.71377">
        <ele>292.38482</ele>
        <time>2023-04-14T11:22:01.000Z</time>
      </trkpt>
      <trkpt lat="45.83258" lon="4.71377">
        <ele>292.57465</ele>
        <time>2023-04-14T11:22:02.000Z</time>
      </trkpt>
      <trkpt lat="45.83253" lon="4.71377">
        <ele>292.85654</ele>
        <time>2023-04-14T11:22:03.000Z</time>
      </trkpt>
      <trkpt lat="45.83248" lon="4.71377">
        <ele>293.13545</ele>
        <time>2023-04-14T11:22:04.000Z</time>
      </trkpt>
      <trkpt lat="45.83244" lon="4.71377">
        <ele>293.41744</ele>
        <time>2023-04-14T11:22:05.000Z</time>
      </trkpt>
      <trkpt lat="45.8324" lon="4.71377">
        <ele>293.6949</ele>
        <time>2023-04-14T11:22:06.000Z</time>
      </trkpt>
      <trkpt lat="45.83235" lon="4.71377">
        <ele>293.93822</ele>
        <time>2023-04-14T11:22:07.000Z</time>
      </trkpt>
      <trkpt lat="45.83232" lon="4.71378">
        <ele>294.0957</ele>
        <time>2023-04-14T11:22:08.000Z</time>
      </trkpt>
      <trkpt lat="45.83228" lon="4.71378">
        <ele>294.23229</ele>
        <time>2023-04-14T11:22:09.000Z</time>
      </trkpt>
      <trkpt lat="45.83224" lon="4.71378">
        <ele>294.34452</ele>
        <time>2023-04-14T11:22:10.000Z</time>
      </trkpt>
      <trkpt lat="45.8322" lon="4.71378">
        <ele>294.4486</ele>
        <time>2023-04-14T11:22:11.000Z</time>
      </trkpt>
      <trkpt lat="45.83217" lon="4.71378">
        <ele>294.55298</ele>
        <time>2023-04-14T11:22:12.000Z</time>
      </trkpt>
      <trkpt lat="45.83213" lon="4.71378">
        <ele>294.67099</ele>
        <time>2023-04-14T11:22:13.000Z</time>
      </trkpt>
      <trkpt lat="45.8321" lon="4.71378">
        <ele>294.80633</ele>
        <time>2023-04-14T11:22:14.000Z</time>
      </trkpt>
      <trkpt lat="45.83207" lon="4.71378">
        <ele>294.97568</ele>
        <time>2023-04-14T11:22:15.000Z</time>
      </trkpt>
      <trkpt lat="45.83203" lon="4.71378">
        <ele>295.15277</ele>
        <time>2023-04-14T11:22:16.000Z</time>
      </trkpt>
      <trkpt lat="45.832" lon="4.71378">
        <ele>295.3174</ele>
        <time>2023-04-14T11:22:17.000Z</time>
      </trkpt>
      <trkpt lat="45.83196" lon="4.71378">
        <ele>295.47258</ele>
        <time>2023-04-14T11:22:18.000Z</time>
      </trkpt>
      <trkpt lat="45.83193" lon="4.71377">
        <ele>295.60451</ele>
        <time>2023-04-14T11:22:19.000Z</time>
      </trkpt>
      <trkpt lat="45.8319" lon="4.71376">
        <ele>295.719</ele>
        <time>2023-04-14T11:22:20.000Z</time>
      </trkpt>
      <trkpt lat="45.83187" lon="4.71374">
        <ele>295.80219</ele>
        <time>2023-04-14T11:22:21.000Z</time>
      </trkpt>
      <trkpt lat="45.83183" lon="4.71372">
        <ele>295.89439</ele>
        <time>2023-04-14T11:22:22.000Z</time>
      </trkpt>
      <trkpt lat="45.8318" lon="4.71369">
        <ele>295.98702</ele>
        <time>2023-04-14T11:22:23.000Z</time>
      </trkpt>
      <trkpt lat="45.83177" lon="4.71367">
        <ele>296.08536</ele>
        <time>2023-04-14T11:22:24.000Z</time>
      </trkpt>
      <trkpt lat="45.83174" lon="4.71364">
        <ele>296.20298</ele>
        <time>2023-04-14T11:22:25.000Z</time>
      </trkpt>
      <trkpt lat="45.83171" lon="4.71361">
        <ele>296.36301</ele>
        <time>2023-04-14T11:22:26.000Z</time>
      </trkpt>
      <trkpt lat="45.83168" lon="4.71357">
        <ele>296.54177</ele>
        <time>2023-04-14T11:22:27.000Z</time>
      </trkpt>
      <trkpt lat="45.83165" lon="4.71354">
        <ele>296.7162</ele>
        <time>2023-04-14T11:22:28.000Z</time>
      </trkpt>
      <trkpt lat="45.83162" lon="4.71351">
        <ele>296.82453</ele>
        <time>2023-04-14T11:22:29.000Z</time>
      </trkpt>
      <trkpt lat="45.8316" lon="4.71349">
        <ele>296.85144</ele>
        <time>2023-04-14T11:22:30.000Z</time>
      </trkpt>
      <trkpt lat="45.83158" lon="4.71348">
        <ele>296.88643</ele>
        <time>2023-04-14T11:22:31.000Z</time>
      </trkpt>
      <trkpt lat="45.83157" lon="4.71344">
        <ele>297.0444</ele>
        <time>2023-04-14T11:22:33.000Z</time>
      </trkpt>
      <trkpt lat="45.83157" lon="4.71341">
        <ele>297.21005</ele>
        <time>2023-04-14T11:22:35.000Z</time>
      </trkpt>
      <trkpt lat="45.83159" lon="4.71341">
        <ele>297.29468</ele>
        <time>2023-04-14T11:22:38.000Z</time>
      </trkpt>
      <trkpt lat="45.8316" lon="4.71345">
        <ele>297.10281</ele>
        <time>2023-04-14T11:22:40.000Z</time>
      </trkpt>
      <trkpt lat="45.83162" lon="4.71349">
        <ele>296.90178</ele>
        <time>2023-04-14T11:22:42.000Z</time>
      </trkpt>
      <trkpt lat="45.83164" lon="4.71352">
        <ele>296.77042</ele>
        <time>2023-04-14T11:22:43.000Z</time>
      </trkpt>
      <trkpt lat="45.83165" lon="4.71356">
        <ele>296.58583</ele>
        <time>2023-04-14T11:22:44.000Z</time>
      </trkpt>
      <trkpt lat="45.83167" lon="4.7136">
        <ele>296.39489</ele>
        <time>2023-04-14T11:22:45.000Z</time>
      </trkpt>
      <trkpt lat="45.8317" lon="4.71363">
        <ele>296.20944</ele>
        <time>2023-04-14T11:22:46.000Z</time>
      </trkpt>
      <trkpt lat="45.83173" lon="4.71367">
        <ele>296.066</ele>
        <time>2023-04-14T11:22:47.000Z</time>
      </trkpt>
      <trkpt lat="45.83176" lon="4.7137">
        <ele>295.93865</ele>
        <time>2023-04-14T11:22:48.000Z</time>
      </trkpt>
      <trkpt lat="45.83179" lon="4.71373">
        <ele>295.85354</ele>
        <time>2023-04-14T11:22:49.000Z</time>
      </trkpt>
      <trkpt lat="45.83183" lon="4.71376">
        <ele>295.78731</ele>
        <time>2023-04-14T11:22:50.000Z</time>
      </trkpt>
      <trkpt lat="45.83187" lon="4.71378">
        <ele>295.71585</ele>
        <time>2023-04-14T11:22:51.000Z</time>
      </trkpt>
      <trkpt lat="45.83191" lon="4.71379">
        <ele>295.62039</ele>
        <time>2023-04-14T11:22:52.000Z</time>
      </trkpt>
      <trkpt lat="45.83194" lon="4.7138">
        <ele>295.50192</ele>
        <time>2023-04-14T11:22:53.000Z</time>
      </trkpt>
      <trkpt lat="45.83198" lon="4.7138">
        <ele>295.37586</ele>
        <time>2023-04-14T11:22:54.000Z</time>
      </trkpt>
      <trkpt lat="45.832" lon="4.71379">
        <ele>295.26539</ele>
        <time>2023-04-14T11:22:55.000Z</time>
      </trkpt>
      <trkpt lat="45.83202" lon="4.71378">
        <ele>295.18148</ele>
        <time>2023-04-14T11:22:56.000Z</time>
      </trkpt>
      <trkpt lat="45.83204" lon="4.71377">
        <ele>295.10465</ele>
        <time>2023-04-14T11:22:57.000Z</time>
      </trkpt>
      <trkpt lat="45.83207" lon="4.71377">
        <ele>294.99282</ele>
        <time>2023-04-14T11:22:58.000Z</time>
      </trkpt>
      <trkpt lat="45.83209" lon="4.71376">
        <ele>294.91628</ele>
        <time>2023-04-14T11:23:03.000Z</time>
      </trkpt>
      <trkpt lat="45.8321" lon="4.71373">
        <ele>294.90981</ele>
        <time>2023-04-14T11:23:06.000Z</time>
      </trkpt>
      <trkpt lat="45.83211" lon="4.71369">
        <ele>295.00141</ele>
        <time>2023-04-14T11:23:13.000Z</time>
      </trkpt>
      <trkpt lat="45.83212" lon="4.71364">
        <ele>295.18879</ele>
        <time>2023-04-14T11:23:15.000Z</time>
      </trkpt>
      <trkpt lat="45.83214" lon="4.71359">
        <ele>295.36372</ele>
        <time>2023-04-14T11:23:17.000Z</time>
      </trkpt>
      <trkpt lat="45.83214" lon="4.71356">
        <ele>295.53046</ele>
        <time>2023-04-14T11:23:18.000Z</time>
      </trkpt>
      <trkpt lat="45.83214" lon="4.71353">
        <ele>295.72115</ele>
        <time>2023-04-14T11:23:19.000Z</time>
      </trkpt>
      <trkpt lat="45.83213" lon="4.7135">
        <ele>295.90149</ele>
        <time>2023-04-14T11:23:20.000Z</time>
      </trkpt>
      <trkpt lat="45.83213" lon="4.71347">
        <ele>296.10828</ele>
        <time>2023-04-14T11:23:21.000Z</time>
      </trkpt>
      <trkpt lat="45.83212" lon="4.71343">
        <ele>296.31259</ele>
        <time>2023-04-14T11:23:22.000Z</time>
      </trkpt>
      <trkpt lat="45.83211" lon="4.7134">
        <ele>296.46507</ele>
        <time>2023-04-14T11:23:23.000Z</time>
      </trkpt>
      <trkpt lat="45.83211" lon="4.71337">
        <ele>296.61472</ele>
        <time>2023-04-14T11:23:24.000Z</time>
      </trkpt>
      <trkpt lat="45.83212" lon="4.71333">
        <ele>296.77851</ele>
        <time>2023-04-14T11:23:25.000Z</time>
      </trkpt>
      <trkpt lat="45.83212" lon="4.71329">
        <ele>296.97646</ele>
        <time>2023-04-14T11:23:26.000Z</time>
      </trkpt>
      <trkpt lat="45.83212" lon="4.71325">
        <ele>297.19817</ele>
        <time>2023-04-14T11:23:27.000Z</time>
      </trkpt>
      <trkpt lat="45.83212" lon="4.7132">
        <ele>297.42399</ele>
        <time>2023-04-14T11:23:28.000Z</time>
      </trkpt>
      <trkpt lat="45.83212" lon="4.71315">
        <ele>297.64104</ele>
        <time>2023-04-14T11:23:29.000Z</time>
      </trkpt>
      <trkpt lat="45.83213" lon="4.7131">
        <ele>297.85644</ele>
        <time>2023-04-14T11:23:30.000Z</time>
      </trkpt>
      <trkpt lat="45.83213" lon="4.71306">
        <ele>298.05051</ele>
        <time>2023-04-14T11:23:31.000Z</time>
      </trkpt>
      <trkpt lat="45.83214" lon="4.71301">
        <ele>298.24101</ele>
        <time>2023-04-14T11:23:32.000Z</time>
      </trkpt>
      <trkpt lat="45.83214" lon="4.71297">
        <ele>298.41451</ele>
        <time>2023-04-14T11:23:33.000Z</time>
      </trkpt>
      <trkpt lat="45.83215" lon="4.71293">
        <ele>298.59274</ele>
        <time>2023-04-14T11:23:34.000Z</time>
      </trkpt>
      <trkpt lat="45.83215" lon="4.71289">
        <ele>298.7568</ele>
        <time>2023-04-14T11:23:35.000Z</time>
      </trkpt>
      <trkpt lat="45.83216" lon="4.71286">
        <ele>298.86447</ele>
        <time>2023-04-14T11:23:36.000Z</time>
      </trkpt>
      <trkpt lat="45.83216" lon="4.71283">
        <ele>298.97339</ele>
        <time>2023-04-14T11:23:37.000Z</time>
      </trkpt>
      <trkpt lat="45.83216" lon="4.7128">
        <ele>299.11521</ele>
        <time>2023-04-14T11:23:38.000Z</time>
      </trkpt>
      <trkpt lat="45.83216" lon="4.71277">
        <ele>299.25228</ele>
        <time>2023-04-14T11:23:39.000Z</time>
      </trkpt>
      <trkpt lat="45.83216" lon="4.71273">
        <ele>299.38791</ele>
        <time>2023-04-14T11:23:40.000Z</time>
      </trkpt>
      <trkpt lat="45.83217" lon="4.7127">
        <ele>299.52258</ele>
        <time>2023-04-14T11:23:41.000Z</time>
      </trkpt>
      <trkpt lat="45.83217" lon="4.71265">
        <ele>299.6714</ele>
        <time>2023-04-14T11:23:42.000Z</time>
      </trkpt>
      <trkpt lat="45.83218" lon="4.71261">
        <ele>299.81455</ele>
        <time>2023-04-14T11:23:43.000Z</time>
      </trkpt>
      <trkpt lat="45.83218" lon="4.71257">
        <ele>299.95287</ele>
        <time>2023-04-14T11:23:44.000Z</time>
      </trkpt>
      <trkpt lat="45.83217" lon="4.71253">
        <ele>300.1232</ele>
        <time>2023-04-14T11:23:45.000Z</time>
      </trkpt>
      <trkpt lat="45.83216" lon="4.71249">
        <ele>300.27328</ele>
        <time>2023-04-14T11:23:46.000Z</time>
      </trkpt>
      <trkpt lat="45.83216" lon="4.71246">
        <ele>300.41991</ele>
        <time>2023-04-14T11:23:47.000Z</time>
      </trkpt>
      <trkpt lat="45.83214" lon="4.71242">
        <ele>300.59474</ele>
        <time>2023-04-14T11:23:48.000Z</time>
      </trkpt>
      <trkpt lat="45.83213" lon="4.71238">
        <ele>300.79471</ele>
        <time>2023-04-14T11:23:49.000Z</time>
      </trkpt>
      <trkpt lat="45.83211" lon="4.71234">
        <ele>301.01722</ele>
        <time>2023-04-14T11:23:50.000Z</time>
      </trkpt>
      <trkpt lat="45.8321" lon="4.7123">
        <ele>301.2222</ele>
        <time>2023-04-14T11:23:51.000Z</time>
      </trkpt>
      <trkpt lat="45.83209" lon="4.71227">
        <ele>301.38296</ele>
        <time>2023-04-14T11:23:52.000Z</time>
      </trkpt>
      <trkpt lat="45.83207" lon="4.71224">
        <ele>301.55809</ele>
        <time>2023-04-14T11:23:53.000Z</time>
      </trkpt>
      <trkpt lat="45.83205" lon="4.71221">
        <ele>301.71133</ele>
        <time>2023-04-14T11:23:54.000Z</time>
      </trkpt>
      <trkpt lat="45.83202" lon="4.71218">
        <ele>301.84591</ele>
        <time>2023-04-14T11:23:55.000Z</time>
      </trkpt>
      <trkpt lat="45.832" lon="4.71216">
        <ele>301.9545</ele>
        <time>2023-04-14T11:23:56.000Z</time>
      </trkpt>
      <trkpt lat="45.83198" lon="4.71214">
        <ele>302.05402</ele>
        <time>2023-04-14T11:23:57.000Z</time>
      </trkpt>
      <trkpt lat="45.83195" lon="4.71212">
        <ele>302.156</ele>
        <time>2023-04-14T11:23:58.000Z</time>
      </trkpt>
      <trkpt lat="45.83193" lon="4.71209">
        <ele>302.26869</ele>
        <time>2023-04-14T11:23:59.000Z</time>
      </trkpt>
      <trkpt lat="45.83191" lon="4.71206">
        <ele>302.37256</ele>
        <time>2023-04-14T11:24:00.000Z</time>
      </trkpt>
      <trkpt lat="45.83188" lon="4.71204">
        <ele>302.46185</ele>
        <time>2023-04-14T11:24:01.000Z</time>
      </trkpt>
      <trkpt lat="45.83187" lon="4.71202">
        <ele>302.53264</ele>
        <time>2023-04-14T11:24:02.000Z</time>
      </trkpt>
      <trkpt lat="45.83185" lon="4.712">
        <ele>302.60651</ele>
        <time>2023-04-14T11:24:03.000Z</time>
      </trkpt>
      <trkpt lat="45.83183" lon="4.71198">
        <ele>302.68305</ele>
        <time>2023-04-14T11:24:04.000Z</time>
      </trkpt>
      <trkpt lat="45.83181" lon="4.71195">
        <ele>302.77266</ele>
        <time>2023-04-14T11:24:05.000Z</time>
      </trkpt>
      <trkpt lat="45.83179" lon="4.71193">
        <ele>302.86049</ele>
        <time>2023-04-14T11:24:06.000Z</time>
      </trkpt>
      <trkpt lat="45.83178" lon="4.71189">
        <ele>302.96128</ele>
        <time>2023-04-14T11:24:07.000Z</time>
      </trkpt>
      <trkpt lat="45.83178" lon="4.71185">
        <ele>303.0858</ele>
        <time>2023-04-14T11:24:08.000Z</time>
      </trkpt>
      <trkpt lat="45.83177" lon="4.7118">
        <ele>303.19384</ele>
        <time>2023-04-14T11:24:09.000Z</time>
      </trkpt>
      <trkpt lat="45.83177" lon="4.71176">
        <ele>303.31313</ele>
        <time>2023-04-14T11:24:10.000Z</time>
      </trkpt>
      <trkpt lat="45.83176" lon="4.71172">
        <ele>303.42733</ele>
        <time>2023-04-14T11:24:11.000Z</time>
      </trkpt>
      <trkpt lat="45.83175" lon="4.71168">
        <ele>303.5296</ele>
        <time>2023-04-14T11:24:12.000Z</time>
      </trkpt>
      <trkpt lat="45.83174" lon="4.71164">
        <ele>303.60907</ele>
        <time>2023-04-14T11:24:13.000Z</time>
      </trkpt>
      <trkpt lat="45.83173" lon="4.71161">
        <ele>303.67834</ele>
        <time>2023-04-14T11:24:14.000Z</time>
      </trkpt>
      <trkpt lat="45.83172" lon="4.71158">
        <ele>303.75516</ele>
        <time>2023-04-14T11:24:15.000Z</time>
      </trkpt>
      <trkpt lat="45.83172" lon="4.71156">
        <ele>303.81003</ele>
        <time>2023-04-14T11:24:16.000Z</time>
      </trkpt>
      <trkpt lat="45.83171" lon="4.71152">
        <ele>303.90078</ele>
        <time>2023-04-14T11:24:18.000Z</time>
      </trkpt>
      <trkpt lat="45.8317" lon="4.71148">
        <ele>303.9772</ele>
        <time>2023-04-14T11:24:20.000Z</time>
      </trkpt>
      <trkpt lat="45.83169" lon="4.71144">
        <ele>304.0756</ele>
        <time>2023-04-14T11:24:22.000Z</time>
      </trkpt>
      <trkpt lat="45.8317" lon="4.7114">
        <ele>304.14848</ele>
        <time>2023-04-14T11:24:24.000Z</time>
      </trkpt>
      <trkpt lat="45.83169" lon="4.71136">
        <ele>304.25422</ele>
        <time>2023-04-14T11:24:26.000Z</time>
      </trkpt>
      <trkpt lat="45.83167" lon="4.71133">
        <ele>304.33421</ele>
        <time>2023-04-14T11:24:27.000Z</time>
      </trkpt>
      <trkpt lat="45.83165" lon="4.71131">
        <ele>304.40878</ele>
        <time>2023-04-14T11:24:28.000Z</time>
      </trkpt>
      <trkpt lat="45.83165" lon="4.71128">
        <ele>304.48574</ele>
        <time>2023-04-14T11:24:29.000Z</time>
      </trkpt>
      <trkpt lat="45.83165" lon="4.71123">
        <ele>304.58701</ele>
        <time>2023-04-14T11:24:30.000Z</time>
      </trkpt>
      <trkpt lat="45.83164" lon="4.7112">
        <ele>304.68071</ele>
        <time>2023-04-14T11:24:31.000Z</time>
      </trkpt>
      <trkpt lat="45.83164" lon="4.71116">
        <ele>304.76996</ele>
        <time>2023-04-14T11:24:32.000Z</time>
      </trkpt>
      <trkpt lat="45.83163" lon="4.71112">
        <ele>304.87398</ele>
        <time>2023-04-14T11:24:33.000Z</time>
      </trkpt>
      <trkpt lat="45.83162" lon="4.71108">
        <ele>304.98487</ele>
        <time>2023-04-14T11:24:34.000Z</time>
      </trkpt>
      <trkpt lat="45.83161" lon="4.71104">
        <ele>305.10119</ele>
        <time>2023-04-14T11:24:35.000Z</time>
      </trkpt>
      <trkpt lat="45.8316" lon="4.71101">
        <ele>305.21043</ele>
        <time>2023-04-14T11:24:36.000Z</time>
      </trkpt>
      <trkpt lat="45.83159" lon="4.71097">
        <ele>305.32177</ele>
        <time>2023-04-14T11:24:37.000Z</time>
      </trkpt>
      <trkpt lat="45.83158" lon="4.71094">
        <ele>305.43893</ele>
        <time>2023-04-14T11:24:38.000Z</time>
      </trkpt>
      <trkpt lat="45.83157" lon="4.71091">
        <ele>305.55075</ele>
        <time>2023-04-14T11:24:39.000Z</time>
      </trkpt>
      <trkpt lat="45.83156" lon="4.71087">
        <ele>305.67212</ele>
        <time>2023-04-14T11:24:40.000Z</time>
      </trkpt>
      <trkpt lat="45.83155" lon="4.71084">
        <ele>305.80592</ele>
        <time>2023-04-14T11:24:41.000Z</time>
      </trkpt>
      <trkpt lat="45.83154" lon="4.7108">
        <ele>305.93137</ele>
        <time>2023-04-14T11:24:42.000Z</time>
      </trkpt>
      <trkpt lat="45.83154" lon="4.71076">
        <ele>306.05845</ele>
        <time>2023-04-14T11:24:43.000Z</time>
      </trkpt>
      <trkpt lat="45.83153" lon="4.71072">
        <ele>306.18833</ele>
        <time>2023-04-14T11:24:44.000Z</time>
      </trkpt>
      <trkpt lat="45.83152" lon="4.71069">
        <ele>306.30294</ele>
        <time>2023-04-14T11:24:45.000Z</time>
      </trkpt>
      <trkpt lat="45.83151" lon="4.71065">
        <ele>306.42365</ele>
        <time>2023-04-14T11:24:46.000Z</time>
      </trkpt>
      <trkpt lat="45.83151" lon="4.71062">
        <ele>306.52701</ele>
        <time>2023-04-14T11:24:47.000Z</time>
      </trkpt>
      <trkpt lat="45.83151" lon="4.71058">
        <ele>306.62738</ele>
        <time>2023-04-14T11:24:48.000Z</time>
      </trkpt>
      <trkpt lat="45.8315" lon="4.71055">
        <ele>306.73421</ele>
        <time>2023-04-14T11:24:49.000Z</time>
      </trkpt>
      <trkpt lat="45.8315" lon="4.71051">
        <ele>306.84471</ele>
        <time>2023-04-14T11:24:50.000Z</time>
      </trkpt>
      <trkpt lat="45.83149" lon="4.71047">
        <ele>306.96777</ele>
        <time>2023-04-14T11:24:51.000Z</time>
      </trkpt>
      <trkpt lat="45.83148" lon="4.71044">
        <ele>307.09752</ele>
        <time>2023-04-14T11:24:52.000Z</time>
      </trkpt>
      <trkpt lat="45.83147" lon="4.7104">
        <ele>307.22178</ele>
        <time>2023-04-14T11:24:53.000Z</time>
      </trkpt>
      <trkpt lat="45.83147" lon="4.71036">
        <ele>307.35151</ele>
        <time>2023-04-14T11:24:54.000Z</time>
      </trkpt>
      <trkpt lat="45.83146" lon="4.71033">
        <ele>307.47283</ele>
        <time>2023-04-14T11:24:55.000Z</time>
      </trkpt>
      <trkpt lat="45.83145" lon="4.71029">
        <ele>307.59732</ele>
        <time>2023-04-14T11:24:56.000Z</time>
      </trkpt>
      <trkpt lat="45.83145" lon="4.71026">
        <ele>307.71549</ele>
        <time>2023-04-14T11:24:57.000Z</time>
      </trkpt>
      <trkpt lat="45.83144" lon="4.71023">
        <ele>307.83566</ele>
        <time>2023-04-14T11:24:58.000Z</time>
      </trkpt>
      <trkpt lat="45.83143" lon="4.7102">
        <ele>307.96162</ele>
        <time>2023-04-14T11:24:59.000Z</time>
      </trkpt>
      <trkpt lat="45.83142" lon="4.71017">
        <ele>308.09383</ele>
        <time>2023-04-14T11:25:00.000Z</time>
      </trkpt>
      <trkpt lat="45.83141" lon="4.71013">
        <ele>308.2245</ele>
        <time>2023-04-14T11:25:01.000Z</time>
      </trkpt>
      <trkpt lat="45.83141" lon="4.7101">
        <ele>308.34658</ele>
        <time>2023-04-14T11:25:02.000Z</time>
      </trkpt>
      <trkpt lat="45.8314" lon="4.71007">
        <ele>308.4701</ele>
        <time>2023-04-14T11:25:03.000Z</time>
      </trkpt>
      <trkpt lat="45.8314" lon="4.71003">
        <ele>308.59344</ele>
        <time>2023-04-14T11:25:04.000Z</time>
      </trkpt>
      <trkpt lat="45.83139" lon="4.70999">
        <ele>308.71687</ele>
        <time>2023-04-14T11:25:05.000Z</time>
      </trkpt>
      <trkpt lat="45.83138" lon="4.70996">
        <ele>308.83075</ele>
        <time>2023-04-14T11:25:06.000Z</time>
      </trkpt>
      <trkpt lat="45.83137" lon="4.70992">
        <ele>308.93799</ele>
        <time>2023-04-14T11:25:07.000Z</time>
      </trkpt>
      <trkpt lat="45.83136" lon="4.70988">
        <ele>309.04417</ele>
        <time>2023-04-14T11:25:08.000Z</time>
      </trkpt>
      <trkpt lat="45.83135" lon="4.70985">
        <ele>309.14902</ele>
        <time>2023-04-14T11:25:09.000Z</time>
      </trkpt>
      <trkpt lat="45.83134" lon="4.7098">
        <ele>309.28509</ele>
        <time>2023-04-14T11:25:10.000Z</time>
      </trkpt>
      <trkpt lat="45.83133" lon="4.70976">
        <ele>309.37378</ele>
        <time>2023-04-14T11:25:11.000Z</time>
      </trkpt>
      <trkpt lat="45.83131" lon="4.70974">
        <ele>309.45408</ele>
        <time>2023-04-14T11:25:12.000Z</time>
      </trkpt>
      <trkpt lat="45.83131" lon="4.70971">
        <ele>309.52631</ele>
        <time>2023-04-14T11:25:13.000Z</time>
      </trkpt>
      <trkpt lat="45.8313" lon="4.70968">
        <ele>309.61236</ele>
        <time>2023-04-14T11:25:14.000Z</time>
      </trkpt>
      <trkpt lat="45.83129" lon="4.70964">
        <ele>309.70091</ele>
        <time>2023-04-14T11:25:15.000Z</time>
      </trkpt>
      <trkpt lat="45.83128" lon="4.70961">
        <ele>309.79869</ele>
        <time>2023-04-14T11:25:16.000Z</time>
      </trkpt>
      <trkpt lat="45.83127" lon="4.70958">
        <ele>309.88212</ele>
        <time>2023-04-14T11:25:17.000Z</time>
      </trkpt>
      <trkpt lat="45.83126" lon="4.70955">
        <ele>309.96709</ele>
        <time>2023-04-14T11:25:18.000Z</time>
      </trkpt>
      <trkpt lat="45.83125" lon="4.70953">
        <ele>310.05519</ele>
        <time>2023-04-14T11:25:19.000Z</time>
      </trkpt>
      <trkpt lat="45.83125" lon="4.7095">
        <ele>310.14291</ele>
        <time>2023-04-14T11:25:20.000Z</time>
      </trkpt>
      <trkpt lat="45.83125" lon="4.70946">
        <ele>310.23296</ele>
        <time>2023-04-14T11:25:21.000Z</time>
      </trkpt>
      <trkpt lat="45.83126" lon="4.70943">
        <ele>310.30515</ele>
        <time>2023-04-14T11:25:22.000Z</time>
      </trkpt>
      <trkpt lat="45.83128" lon="4.70941">
        <ele>310.33635</ele>
        <time>2023-04-14T11:25:23.000Z</time>
      </trkpt>
      <trkpt lat="45.8313" lon="4.7094">
        <ele>310.33076</ele>
        <time>2023-04-14T11:25:24.000Z</time>
      </trkpt>
      <trkpt lat="45.83132" lon="4.70939">
        <ele>310.31709</ele>
        <time>2023-04-14T11:25:25.000Z</time>
      </trkpt>
      <trkpt lat="45.83134" lon="4.70938">
        <ele>310.30294</ele>
        <time>2023-04-14T11:25:26.000Z</time>
      </trkpt>
      <trkpt lat="45.83136" lon="4.70937">
        <ele>310.27088</ele>
        <time>2023-04-14T11:25:27.000Z</time>
      </trkpt>
      <trkpt lat="45.83138" lon="4.70937">
        <ele>310.25104</ele>
        <time>2023-04-14T11:25:28.000Z</time>
      </trkpt>
      <trkpt lat="45.8314" lon="4.70936">
        <ele>310.2328</ele>
        <time>2023-04-14T11:25:29.000Z</time>
      </trkpt>
      <trkpt lat="45.83142" lon="4.70934">
        <ele>310.21406</ele>
        <time>2023-04-14T11:25:30.000Z</time>
      </trkpt>
      <trkpt lat="45.83144" lon="4.70933">
        <ele>310.19445</ele>
        <time>2023-04-14T11:25:31.000Z</time>
      </trkpt>
      <trkpt lat="45.83146" lon="4.70932">
        <ele>310.1904</ele>
        <time>2023-04-14T11:25:32.000Z</time>
      </trkpt>
      <trkpt lat="45.83148" lon="4.70931">
        <ele>310.2016</ele>
        <time>2023-04-14T11:25:33.000Z</time>
      </trkpt>
      <trkpt lat="45.8315" lon="4.7093">
        <ele>310.19565</ele>
        <time>2023-04-14T11:25:34.000Z</time>
      </trkpt>
      <trkpt lat="45.83152" lon="4.7093">
        <ele>310.17379</ele>
        <time>2023-04-14T11:25:35.000Z</time>
      </trkpt>
      <trkpt lat="45.83155" lon="4.70929">
        <ele>310.17643</ele>
        <time>2023-04-14T11:25:36.000Z</time>
      </trkpt>
      <trkpt lat="45.83157" lon="4.70928">
        <ele>310.19916</ele>
        <time>2023-04-14T11:25:37.000Z</time>
      </trkpt>
      <trkpt lat="45.8316" lon="4.70927">
        <ele>310.22094</ele>
        <time>2023-04-14T11:25:38.000Z</time>
      </trkpt>
      <trkpt lat="45.83163" lon="4.70926">
        <ele>310.23654</ele>
        <time>2023-04-14T11:25:39.000Z</time>
      </trkpt>
      <trkpt lat="45.83165" lon="4.70926">
        <ele>310.24747</ele>
        <time>2023-04-14T11:25:40.000Z</time>
      </trkpt>
      <trkpt lat="45.83167" lon="4.70925">
        <ele>310.26627</ele>
        <time>2023-04-14T11:25:41.000Z</time>
      </trkpt>
      <trkpt lat="45.8317" lon="4.70923">
        <ele>310.26937</ele>
        <time>2023-04-14T11:25:42.000Z</time>
      </trkpt>
      <trkpt lat="45.83172" lon="4.70922">
        <ele>310.23722</ele>
        <time>2023-04-14T11:25:43.000Z</time>
      </trkpt>
      <trkpt lat="45.83175" lon="4.70921">
        <ele>310.17028</ele>
        <time>2023-04-14T11:25:44.000Z</time>
      </trkpt>
      <trkpt lat="45.83177" lon="4.70921">
        <ele>310.08388</ele>
        <time>2023-04-14T11:25:45.000Z</time>
      </trkpt>
      <trkpt lat="45.8318" lon="4.7092">
        <ele>309.97408</ele>
        <time>2023-04-14T11:25:46.000Z</time>
      </trkpt>
      <trkpt lat="45.83182" lon="4.70919">
        <ele>309.84174</ele>
        <time>2023-04-14T11:25:47.000Z</time>
      </trkpt>
      <trkpt lat="45.83184" lon="4.70918">
        <ele>309.70871</ele>
        <time>2023-04-14T11:25:48.000Z</time>
      </trkpt>
      <trkpt lat="45.83186" lon="4.70917">
        <ele>309.58165</ele>
        <time>2023-04-14T11:25:49.000Z</time>
      </trkpt>
      <trkpt lat="45.83188" lon="4.70916">
        <ele>309.4398</ele>
        <time>2023-04-14T11:25:50.000Z</time>
      </trkpt>
      <trkpt lat="45.8319" lon="4.70915">
        <ele>309.31425</ele>
        <time>2023-04-14T11:25:51.000Z</time>
      </trkpt>
      <trkpt lat="45.83193" lon="4.70913">
        <ele>309.16045</ele>
        <time>2023-04-14T11:25:53.000Z</time>
      </trkpt>
      <trkpt lat="45.83196" lon="4.7091">
        <ele>309.01285</ele>
        <time>2023-04-14T11:25:55.000Z</time>
      </trkpt>
      <trkpt lat="45.83197" lon="4.70906">
        <ele>309.03674</ele>
        <time>2023-04-14T11:25:56.000Z</time>
      </trkpt>
      <trkpt lat="45.83196" lon="4.70902">
        <ele>309.11712</ele>
        <time>2023-04-14T11:25:57.000Z</time>
      </trkpt>
      <trkpt lat="45.83195" lon="4.70897">
        <ele>309.21018</ele>
        <time>2023-04-14T11:25:58.000Z</time>
      </trkpt>
      <trkpt lat="45.83194" lon="4.70894">
        <ele>309.31299</ele>
        <time>2023-04-14T11:25:59.000Z</time>
      </trkpt>
      <trkpt lat="45.83192" lon="4.7089">
        <ele>309.42541</ele>
        <time>2023-04-14T11:26:00.000Z</time>
      </trkpt>
      <trkpt lat="45.83191" lon="4.70886">
        <ele>309.54067</ele>
        <time>2023-04-14T11:26:01.000Z</time>
      </trkpt>
      <trkpt lat="45.83189" lon="4.70883">
        <ele>309.64771</ele>
        <time>2023-04-14T11:26:02.000Z</time>
      </trkpt>
      <trkpt lat="45.83187" lon="4.7088">
        <ele>309.74706</ele>
        <time>2023-04-14T11:26:03.000Z</time>
      </trkpt>
      <trkpt lat="45.83185" lon="4.70879">
        <ele>309.84123</ele>
        <time>2023-04-14T11:26:04.000Z</time>
      </trkpt>
      <trkpt lat="45.83182" lon="4.70878">
        <ele>309.9477</ele>
        <time>2023-04-14T11:26:05.000Z</time>
      </trkpt>
      <trkpt lat="45.8318" lon="4.70874">
        <ele>310.05096</ele>
        <time>2023-04-14T11:26:06.000Z</time>
      </trkpt>
      <trkpt lat="45.83178" lon="4.70871">
        <ele>310.1406</ele>
        <time>2023-04-14T11:26:07.000Z</time>
      </trkpt>
      <trkpt lat="45.83176" lon="4.70867">
        <ele>310.22574</ele>
        <time>2023-04-14T11:26:08.000Z</time>
      </trkpt>
      <trkpt lat="45.83174" lon="4.70864">
        <ele>310.306</ele>
        <time>2023-04-14T11:26:09.000Z</time>
      </trkpt>
      <trkpt lat="45.83173" lon="4.70861">
        <ele>310.39252</ele>
        <time>2023-04-14T11:26:10.000Z</time>
      </trkpt>
      <trkpt lat="45.83172" lon="4.70857">
        <ele>310.49392</ele>
        <time>2023-04-14T11:26:11.000Z</time>
      </trkpt>
      <trkpt lat="45.83171" lon="4.70854">
        <ele>310.61984</ele>
        <time>2023-04-14T11:26:12.000Z</time>
      </trkpt>
      <trkpt lat="45.83169" lon="4.7085">
        <ele>310.76004</ele>
        <time>2023-04-14T11:26:13.000Z</time>
      </trkpt>
      <trkpt lat="45.83167" lon="4.70847">
        <ele>310.90802</ele>
        <time>2023-04-14T11:26:14.000Z</time>
      </trkpt>
      <trkpt lat="45.83166" lon="4.70843">
        <ele>311.05755</ele>
        <time>2023-04-14T11:26:15.000Z</time>
      </trkpt>
      <trkpt lat="45.83164" lon="4.7084">
        <ele>311.19905</ele>
        <time>2023-04-14T11:26:16.000Z</time>
      </trkpt>
      <trkpt lat="45.83163" lon="4.70836">
        <ele>311.32769</ele>
        <time>2023-04-14T11:26:17.000Z</time>
      </trkpt>
      <trkpt lat="45.83162" lon="4.70832">
        <ele>311.45515</ele>
        <time>2023-04-14T11:26:18.000Z</time>
      </trkpt>
      <trkpt lat="45.8316" lon="4.70828">
        <ele>311.57515</ele>
        <time>2023-04-14T11:26:19.000Z</time>
      </trkpt>
      <trkpt lat="45.83159" lon="4.70824">
        <ele>311.69747</ele>
        <time>2023-04-14T11:26:20.000Z</time>
      </trkpt>
      <trkpt lat="45.83158" lon="4.7082">
        <ele>311.82594</ele>
        <time>2023-04-14T11:26:21.000Z</time>
      </trkpt>
      <trkpt lat="45.83156" lon="4.70815">
        <ele>311.96968</ele>
        <time>2023-04-14T11:26:22.000Z</time>
      </trkpt>
      <trkpt lat="45.83155" lon="4.70811">
        <ele>312.11904</ele>
        <time>2023-04-14T11:26:23.000Z</time>
      </trkpt>
      <trkpt lat="45.83154" lon="4.70806">
        <ele>312.26596</ele>
        <time>2023-04-14T11:26:24.000Z</time>
      </trkpt>
      <trkpt lat="45.83152" lon="4.70802">
        <ele>312.41956</ele>
        <time>2023-04-14T11:26:25.000Z</time>
      </trkpt>
      <trkpt lat="45.83151" lon="4.70797">
        <ele>312.58356</ele>
        <time>2023-04-14T11:26:26.000Z</time>
      </trkpt>
      <trkpt lat="45.8315" lon="4.70793">
        <ele>312.73782</ele>
        <time>2023-04-14T11:26:27.000Z</time>
      </trkpt>
      <trkpt lat="45.83149" lon="4.70788">
        <ele>312.89887</ele>
        <time>2023-04-14T11:26:28.000Z</time>
      </trkpt>
      <trkpt lat="45.83147" lon="4.70783">
        <ele>313.0678</ele>
        <time>2023-04-14T11:26:29.000Z</time>
      </trkpt>
      <trkpt lat="45.83146" lon="4.70779">
        <ele>313.23387</ele>
        <time>2023-04-14T11:26:30.000Z</time>
      </trkpt>
      <trkpt lat="45.83144" lon="4.70774">
        <ele>313.40541</ele>
        <time>2023-04-14T11:26:31.000Z</time>
      </trkpt>
      <trkpt lat="45.83143" lon="4.7077">
        <ele>313.55479</ele>
        <time>2023-04-14T11:26:32.000Z</time>
      </trkpt>
      <trkpt lat="45.83141" lon="4.70765">
        <ele>313.70527</ele>
        <time>2023-04-14T11:26:33.000Z</time>
      </trkpt>
      <trkpt lat="45.8314" lon="4.70761">
        <ele>313.83574</ele>
        <time>2023-04-14T11:26:34.000Z</time>
      </trkpt>
      <trkpt lat="45.83139" lon="4.70758">
        <ele>313.96952</ele>
        <time>2023-04-14T11:26:35.000Z</time>
      </trkpt>
      <trkpt lat="45.83138" lon="4.70754">
        <ele>314.08418</ele>
        <time>2023-04-14T11:26:36.000Z</time>
      </trkpt>
      <trkpt lat="45.83136" lon="4.7075">
        <ele>314.22404</ele>
        <time>2023-04-14T11:26:37.000Z</time>
      </trkpt>
      <trkpt lat="45.83135" lon="4.70745">
        <ele>314.404</ele>
        <time>2023-04-14T11:26:38.000Z</time>
      </trkpt>
      <trkpt lat="45.83134" lon="4.70741">
        <ele>314.58433</ele>
        <time>2023-04-14T11:26:39.000Z</time>
      </trkpt>
      <trkpt lat="45.83132" lon="4.70736">
        <ele>314.76007</ele>
        <time>2023-04-14T11:26:40.000Z</time>
      </trkpt>
      <trkpt lat="45.83131" lon="4.70731">
        <ele>314.94483</ele>
        <time>2023-04-14T11:26:41.000Z</time>
      </trkpt>
      <trkpt lat="45.8313" lon="4.70727">
        <ele>315.11799</ele>
        <time>2023-04-14T11:26:42.000Z</time>
      </trkpt>
      <trkpt lat="45.83128" lon="4.70722">
        <ele>315.27029</ele>
        <time>2023-04-14T11:26:43.000Z</time>
      </trkpt>
      <trkpt lat="45.83127" lon="4.70718">
        <ele>315.42714</ele>
        <time>2023-04-14T11:26:44.000Z</time>
      </trkpt>
      <trkpt lat="45.83125" lon="4.70713">
        <ele>315.5766</ele>
        <time>2023-04-14T11:26:45.000Z</time>
      </trkpt>
      <trkpt lat="45.83124" lon="4.70709">
        <ele>315.68756</ele>
        <time>2023-04-14T11:26:46.000Z</time>
      </trkpt>
      <trkpt lat="45.83122" lon="4.70704">
        <ele>315.78904</ele>
        <time>2023-04-14T11:26:47.000Z</time>
      </trkpt>
      <trkpt lat="45.83121" lon="4.707">
        <ele>315.85342</ele>
        <time>2023-04-14T11:26:48.000Z</time>
      </trkpt>
      <trkpt lat="45.8312" lon="4.70696">
        <ele>315.89994</ele>
        <time>2023-04-14T11:26:49.000Z</time>
      </trkpt>
      <trkpt lat="45.83118" lon="4.70692">
        <ele>315.94002</ele>
        <time>2023-04-14T11:26:50.000Z</time>
      </trkpt>
      <trkpt lat="45.83118" lon="4.70687">
        <ele>316.03592</ele>
        <time>2023-04-14T11:26:51.000Z</time>
      </trkpt>
      <trkpt lat="45.83119" lon="4.70683">
        <ele>316.16543</ele>
        <time>2023-04-14T11:26:52.000Z</time>
      </trkpt>
      <trkpt lat="45.83119" lon="4.70678">
        <ele>316.24596</ele>
        <time>2023-04-14T11:26:53.000Z</time>
      </trkpt>
      <trkpt lat="45.83118" lon="4.70674">
        <ele>316.28684</ele>
        <time>2023-04-14T11:26:54.000Z</time>
      </trkpt>
      <trkpt lat="45.83116" lon="4.70669">
        <ele>316.33508</ele>
        <time>2023-04-14T11:26:55.000Z</time>
      </trkpt>
      <trkpt lat="45.83115" lon="4.70664">
        <ele>316.41035</ele>
        <time>2023-04-14T11:26:56.000Z</time>
      </trkpt>
      <trkpt lat="45.83114" lon="4.7066">
        <ele>316.51763</ele>
        <time>2023-04-14T11:26:57.000Z</time>
      </trkpt>
      <trkpt lat="45.83114" lon="4.70655">
        <ele>316.64697</ele>
        <time>2023-04-14T11:26:58.000Z</time>
      </trkpt>
      <trkpt lat="45.83114" lon="4.70651">
        <ele>316.76217</ele>
        <time>2023-04-14T11:26:59.000Z</time>
      </trkpt>
      <trkpt lat="45.83113" lon="4.70647">
        <ele>316.86315</ele>
        <time>2023-04-14T11:27:00.000Z</time>
      </trkpt>
      <trkpt lat="45.83112" lon="4.70643">
        <ele>316.9902</ele>
        <time>2023-04-14T11:27:01.000Z</time>
      </trkpt>
      <trkpt lat="45.83113" lon="4.70639">
        <ele>317.11176</ele>
        <time>2023-04-14T11:27:02.000Z</time>
      </trkpt>
      <trkpt lat="45.83115" lon="4.70635">
        <ele>317.21377</ele>
        <time>2023-04-14T11:27:03.000Z</time>
      </trkpt>
      <trkpt lat="45.83117" lon="4.70632">
        <ele>317.28861</ele>
        <time>2023-04-14T11:27:04.000Z</time>
      </trkpt>
      <trkpt lat="45.8312" lon="4.70628">
        <ele>317.34151</ele>
        <time>2023-04-14T11:27:05.000Z</time>
      </trkpt>
      <trkpt lat="45.83122" lon="4.70624">
        <ele>317.38663</ele>
        <time>2023-04-14T11:27:06.000Z</time>
      </trkpt>
      <trkpt lat="45.83125" lon="4.7062">
        <ele>317.40309</ele>
        <time>2023-04-14T11:27:07.000Z</time>
      </trkpt>
      <trkpt lat="45.83128" lon="4.70617">
        <ele>317.39785</ele>
        <time>2023-04-14T11:27:08.000Z</time>
      </trkpt>
      <trkpt lat="45.83131" lon="4.70613">
        <ele>317.3876</ele>
        <time>2023-04-14T11:27:09.000Z</time>
      </trkpt>
      <trkpt lat="45.83134" lon="4.70609">
        <ele>317.37723</ele>
        <time>2023-04-14T11:27:10.000Z</time>
      </trkpt>
      <trkpt lat="45.83137" lon="4.70605">
        <ele>317.403</ele>
        <time>2023-04-14T11:27:11.000Z</time>
      </trkpt>
      <trkpt lat="45.8314" lon="4.70601">
        <ele>317.42754</ele>
        <time>2023-04-14T11:27:12.000Z</time>
      </trkpt>
      <trkpt lat="45.83144" lon="4.70596">
        <ele>317.40958</ele>
        <time>2023-04-14T11:27:13.000Z</time>
      </trkpt>
      <trkpt lat="45.83147" lon="4.70591">
        <ele>317.2702</ele>
        <time>2023-04-14T11:27:14.000Z</time>
      </trkpt>
      <trkpt lat="45.83151" lon="4.70585">
        <ele>316.98642</ele>
        <time>2023-04-14T11:27:15.000Z</time>
      </trkpt>
      <trkpt lat="45.83155" lon="4.70579">
        <ele>316.54404</ele>
        <time>2023-04-14T11:27:16.000Z</time>
      </trkpt>
      <trkpt lat="45.83159" lon="4.70574">
        <ele>316.15757</ele>
        <time>2023-04-14T11:27:17.000Z</time>
      </trkpt>
      <trkpt lat="45.83163" lon="4.70568">
        <ele>315.9497</ele>
        <time>2023-04-14T11:27:18.000Z</time>
      </trkpt>
      <trkpt lat="45.83167" lon="4.70562">
        <ele>315.91609</ele>
        <time>2023-04-14T11:27:19.000Z</time>
      </trkpt>
      <trkpt lat="45.83171" lon="4.70556">
        <ele>315.90326</ele>
        <time>2023-04-14T11:27:20.000Z</time>
      </trkpt>
      <trkpt lat="45.83174" lon="4.7055">
        <ele>315.78607</ele>
        <time>2023-04-14T11:27:21.000Z</time>
      </trkpt>
      <trkpt lat="45.83178" lon="4.70543">
        <ele>315.52172</ele>
        <time>2023-04-14T11:27:22.000Z</time>
      </trkpt>
      <trkpt lat="45.83182" lon="4.70537">
        <ele>315.22617</ele>
        <time>2023-04-14T11:27:23.000Z</time>
      </trkpt>
      <trkpt lat="45.83187" lon="4.7053">
        <ele>314.93918</ele>
        <time>2023-04-14T11:27:24.000Z</time>
      </trkpt>
      <trkpt lat="45.83192" lon="4.70523">
        <ele>314.60302</ele>
        <time>2023-04-14T11:27:25.000Z</time>
      </trkpt>
      <trkpt lat="45.83196" lon="4.70516">
        <ele>314.12905</ele>
        <time>2023-04-14T11:27:26.000Z</time>
      </trkpt>
      <trkpt lat="45.83201" lon="4.70509">
        <ele>313.60811</ele>
        <time>2023-04-14T11:27:27.000Z</time>
      </trkpt>
      <trkpt lat="45.83206" lon="4.70501">
        <ele>313.23975</ele>
        <time>2023-04-14T11:27:28.000Z</time>
      </trkpt>
      <trkpt lat="45.8321" lon="4.70494">
        <ele>313.00553</ele>
        <time>2023-04-14T11:27:29.000Z</time>
      </trkpt>
      <trkpt lat="45.83215" lon="4.70487">
        <ele>312.73146</ele>
        <time>2023-04-14T11:27:30.000Z</time>
      </trkpt>
      <trkpt lat="45.83219" lon="4.70479">
        <ele>312.3184</ele>
        <time>2023-04-14T11:27:31.000Z</time>
      </trkpt>
      <trkpt lat="45.83224" lon="4.70473">
        <ele>311.79343</ele>
        <time>2023-04-14T11:27:32.000Z</time>
      </trkpt>
      <trkpt lat="45.83229" lon="4.70465">
        <ele>311.35787</ele>
        <time>2023-04-14T11:27:33.000Z</time>
      </trkpt>
      <trkpt lat="45.83234" lon="4.70457">
        <ele>310.98863</ele>
        <time>2023-04-14T11:27:34.000Z</time>
      </trkpt>
      <trkpt lat="45.83239" lon="4.70449">
        <ele>310.50962</ele>
        <time>2023-04-14T11:27:35.000Z</time>
      </trkpt>
      <trkpt lat="45.83244" lon="4.7044">
        <ele>309.91777</ele>
        <time>2023-04-14T11:27:36.000Z</time>
      </trkpt>
      <trkpt lat="45.83249" lon="4.7043">
        <ele>309.32098</ele>
        <time>2023-04-14T11:27:37.000Z</time>
      </trkpt>
      <trkpt lat="45.83255" lon="4.70421">
        <ele>308.80734</ele>
        <time>2023-04-14T11:27:38.000Z</time>
      </trkpt>
      <trkpt lat="45.8326" lon="4.70413">
        <ele>308.23342</ele>
        <time>2023-04-14T11:27:39.000Z</time>
      </trkpt>
      <trkpt lat="45.83266" lon="4.70404">
        <ele>307.7384</ele>
        <time>2023-04-14T11:27:40.000Z</time>
      </trkpt>
      <trkpt lat="45.83271" lon="4.70395">
        <ele>307.44838</ele>
        <time>2023-04-14T11:27:41.000Z</time>
      </trkpt>
      <trkpt lat="45.83276" lon="4.70387">
        <ele>307.20467</ele>
        <time>2023-04-14T11:27:42.000Z</time>
      </trkpt>
      <trkpt lat="45.83282" lon="4.70379">
        <ele>306.77884</ele>
        <time>2023-04-14T11:27:43.000Z</time>
      </trkpt>
      <trkpt lat="45.83286" lon="4.70371">
        <ele>306.32966</ele>
        <time>2023-04-14T11:27:44.000Z</time>
      </trkpt>
      <trkpt lat="45.83291" lon="4.70363">
        <ele>305.95855</ele>
        <time>2023-04-14T11:27:45.000Z</time>
      </trkpt>
      <trkpt lat="45.83295" lon="4.70356">
        <ele>305.76645</ele>
        <time>2023-04-14T11:27:46.000Z</time>
      </trkpt>
      <trkpt lat="45.83299" lon="4.70351">
        <ele>305.64267</ele>
        <time>2023-04-14T11:27:47.000Z</time>
      </trkpt>
      <trkpt lat="45.83302" lon="4.70346">
        <ele>305.51272</ele>
        <time>2023-04-14T11:27:48.000Z</time>
      </trkpt>
      <trkpt lat="45.83305" lon="4.70341">
        <ele>305.36866</ele>
        <time>2023-04-14T11:27:49.000Z</time>
      </trkpt>
      <trkpt lat="45.83309" lon="4.70338">
        <ele>305.19563</ele>
        <time>2023-04-14T11:27:50.000Z</time>
      </trkpt>
      <trkpt lat="45.83312" lon="4.70335">
        <ele>305.01805</ele>
        <time>2023-04-14T11:27:51.000Z</time>
      </trkpt>
      <trkpt lat="45.83315" lon="4.70334">
        <ele>304.85455</ele>
        <time>2023-04-14T11:27:52.000Z</time>
      </trkpt>
      <trkpt lat="45.83318" lon="4.70335">
        <ele>304.74451</ele>
        <time>2023-04-14T11:27:53.000Z</time>
      </trkpt>
      <trkpt lat="45.83321" lon="4.70338">
        <ele>304.69641</ele>
        <time>2023-04-14T11:27:54.000Z</time>
      </trkpt>
      <trkpt lat="45.83323" lon="4.70342">
        <ele>304.70711</ele>
        <time>2023-04-14T11:27:55.000Z</time>
      </trkpt>
      <trkpt lat="45.83324" lon="4.70347">
        <ele>304.744</ele>
        <time>2023-04-14T11:27:56.000Z</time>
      </trkpt>
      <trkpt lat="45.83325" lon="4.70352">
        <ele>304.7923</ele>
        <time>2023-04-14T11:27:57.000Z</time>
      </trkpt>
      <trkpt lat="45.83327" lon="4.70358">
        <ele>304.84169</ele>
        <time>2023-04-14T11:27:58.000Z</time>
      </trkpt>
      <trkpt lat="45.83327" lon="4.70363">
        <ele>304.89217</ele>
        <time>2023-04-14T11:27:59.000Z</time>
      </trkpt>
      <trkpt lat="45.83328" lon="4.70368">
        <ele>304.9412</ele>
        <time>2023-04-14T11:28:00.000Z</time>
      </trkpt>
      <trkpt lat="45.83329" lon="4.70373">
        <ele>304.99931</ele>
        <time>2023-04-14T11:28:01.000Z</time>
      </trkpt>
      <trkpt lat="45.8333" lon="4.70378">
        <ele>305.03865</ele>
        <time>2023-04-14T11:28:02.000Z</time>
      </trkpt>
      <trkpt lat="45.83331" lon="4.70383">
        <ele>305.07648</ele>
        <time>2023-04-14T11:28:03.000Z</time>
      </trkpt>
      <trkpt lat="45.83332" lon="4.70389">
        <ele>305.11985</ele>
        <time>2023-04-14T11:28:04.000Z</time>
      </trkpt>
      <trkpt lat="45.83333" lon="4.70395">
        <ele>305.13999</ele>
        <time>2023-04-14T11:28:05.000Z</time>
      </trkpt>
      <trkpt lat="45.83334" lon="4.704">
        <ele>305.14844</ele>
        <time>2023-04-14T11:28:06.000Z</time>
      </trkpt>
      <trkpt lat="45.83335" lon="4.70406">
        <ele>305.16431</ele>
        <time>2023-04-14T11:28:07.000Z</time>
      </trkpt>
      <trkpt lat="45.83336" lon="4.70412">
        <ele>305.18034</ele>
        <time>2023-04-14T11:28:08.000Z</time>
      </trkpt>
      <trkpt lat="45.83337" lon="4.70418">
        <ele>305.24561</ele>
        <time>2023-04-14T11:28:09.000Z</time>
      </trkpt>
      <trkpt lat="45.83337" lon="4.70424">
        <ele>305.31597</ele>
        <time>2023-04-14T11:28:10.000Z</time>
      </trkpt>
      <trkpt lat="45.83337" lon="4.70429">
        <ele>305.4065</ele>
        <time>2023-04-14T11:28:11.000Z</time>
      </trkpt>
      <trkpt lat="45.83337" lon="4.70435">
        <ele>305.51682</ele>
        <time>2023-04-14T11:28:12.000Z</time>
      </trkpt>
      <trkpt lat="45.83338" lon="4.70441">
        <ele>305.58139</ele>
        <time>2023-04-14T11:28:13.000Z</time>
      </trkpt>
      <trkpt lat="45.83339" lon="4.70447">
        <ele>305.6171</ele>
        <time>2023-04-14T11:28:14.000Z</time>
      </trkpt>
      <trkpt lat="45.83339" lon="4.70453">
        <ele>305.6565</ele>
        <time>2023-04-14T11:28:15.000Z</time>
      </trkpt>
      <trkpt lat="45.8334" lon="4.70459">
        <ele>305.6861</ele>
        <time>2023-04-14T11:28:16.000Z</time>
      </trkpt>
      <trkpt lat="45.83341" lon="4.70465">
        <ele>305.72098</ele>
        <time>2023-04-14T11:28:17.000Z</time>
      </trkpt>
      <trkpt lat="45.83342" lon="4.70472">
        <ele>305.75691</ele>
        <time>2023-04-14T11:28:18.000Z</time>
      </trkpt>
      <trkpt lat="45.83342" lon="4.70478">
        <ele>305.80488</ele>
        <time>2023-04-14T11:28:19.000Z</time>
      </trkpt>
      <trkpt lat="45.83343" lon="4.70485">
        <ele>305.83807</ele>
        <time>2023-04-14T11:28:20.000Z</time>
      </trkpt>
      <trkpt lat="45.83344" lon="4.70491">
        <ele>305.85161</ele>
        <time>2023-04-14T11:28:21.000Z</time>
      </trkpt>
      <trkpt lat="45.83345" lon="4.70497">
        <ele>305.85701</ele>
        <time>2023-04-14T11:28:22.000Z</time>
      </trkpt>
      <trkpt lat="45.83345" lon="4.70504">
        <ele>305.9064</ele>
        <time>2023-04-14T11:28:23.000Z</time>
      </trkpt>
      <trkpt lat="45.83346" lon="4.7051">
        <ele>305.90771</ele>
        <time>2023-04-14T11:28:24.000Z</time>
      </trkpt>
      <trkpt lat="45.83346" lon="4.70517">
        <ele>305.89739</ele>
        <time>2023-04-14T11:28:25.000Z</time>
      </trkpt>
      <trkpt lat="45.83347" lon="4.70523">
        <ele>305.86691</ele>
        <time>2023-04-14T11:28:26.000Z</time>
      </trkpt>
      <trkpt lat="45.83347" lon="4.7053">
        <ele>305.83987</ele>
        <time>2023-04-14T11:28:27.000Z</time>
      </trkpt>
      <trkpt lat="45.83348" lon="4.70537">
        <ele>305.82886</ele>
        <time>2023-04-14T11:28:28.000Z</time>
      </trkpt>
      <trkpt lat="45.83348" lon="4.70544">
        <ele>305.86259</ele>
        <time>2023-04-14T11:28:29.000Z</time>
      </trkpt>
      <trkpt lat="45.83349" lon="4.70551">
        <ele>305.92187</ele>
        <time>2023-04-14T11:28:30.000Z</time>
      </trkpt>
      <trkpt lat="45.83349" lon="4.70557">
        <ele>306.00283</ele>
        <time>2023-04-14T11:28:31.000Z</time>
      </trkpt>
      <trkpt lat="45.83349" lon="4.70563">
        <ele>306.12696</ele>
        <time>2023-04-14T11:28:32.000Z</time>
      </trkpt>
      <trkpt lat="45.8335" lon="4.70569">
        <ele>306.18782</ele>
        <time>2023-04-14T11:28:33.000Z</time>
      </trkpt>
      <trkpt lat="45.8335" lon="4.70575">
        <ele>306.27242</ele>
        <time>2023-04-14T11:28:34.000Z</time>
      </trkpt>
      <trkpt lat="45.83351" lon="4.70581">
        <ele>306.32984</ele>
        <time>2023-04-14T11:28:35.000Z</time>
      </trkpt>
      <trkpt lat="45.83351" lon="4.70585">
        <ele>306.39339</ele>
        <time>2023-04-14T11:28:36.000Z</time>
      </trkpt>
      <trkpt lat="45.83351" lon="4.70589">
        <ele>306.44941</ele>
        <time>2023-04-14T11:28:37.000Z</time>
      </trkpt>
      <trkpt lat="45.83351" lon="4.70593">
        <ele>306.50369</ele>
        <time>2023-04-14T11:28:38.000Z</time>
      </trkpt>
      <trkpt lat="45.83351" lon="4.70597">
        <ele>306.54256</ele>
        <time>2023-04-14T11:28:39.000Z</time>
      </trkpt>
      <trkpt lat="45.83352" lon="4.70601">
        <ele>306.55143</ele>
        <time>2023-04-14T11:28:40.000Z</time>
      </trkpt>
      <trkpt lat="45.83354" lon="4.70603">
        <ele>306.53857</ele>
        <time>2023-04-14T11:28:41.000Z</time>
      </trkpt>
      <trkpt lat="45.83356" lon="4.70604">
        <ele>306.49949</ele>
        <time>2023-04-14T11:28:42.000Z</time>
      </trkpt>
      <trkpt lat="45.83359" lon="4.70605">
        <ele>306.40551</ele>
        <time>2023-04-14T11:28:43.000Z</time>
      </trkpt>
      <trkpt lat="45.83362" lon="4.70605">
        <ele>306.2634</ele>
        <time>2023-04-14T11:28:44.000Z</time>
      </trkpt>
      <trkpt lat="45.83366" lon="4.70606">
        <ele>306.06862</ele>
        <time>2023-04-14T11:28:45.000Z</time>
      </trkpt>
      <trkpt lat="45.83371" lon="4.70605">
        <ele>305.81812</ele>
        <time>2023-04-14T11:28:46.000Z</time>
      </trkpt>
      <trkpt lat="45.83376" lon="4.70605">
        <ele>305.5407</ele>
        <time>2023-04-14T11:28:47.000Z</time>
      </trkpt>
      <trkpt lat="45.83381" lon="4.70605">
        <ele>305.23713</ele>
        <time>2023-04-14T11:28:48.000Z</time>
      </trkpt>
      <trkpt lat="45.83386" lon="4.70606">
        <ele>304.90382</ele>
        <time>2023-04-14T11:28:49.000Z</time>
      </trkpt>
      <trkpt lat="45.83392" lon="4.70607">
        <ele>304.54686</ele>
        <time>2023-04-14T11:28:50.000Z</time>
      </trkpt>
      <trkpt lat="45.83398" lon="4.70608">
        <ele>304.17832</ele>
        <time>2023-04-14T11:28:51.000Z</time>
      </trkpt>
      <trkpt lat="45.83403" lon="4.70609">
        <ele>303.88241</ele>
        <time>2023-04-14T11:28:52.000Z</time>
      </trkpt>
      <trkpt lat="45.8341" lon="4.7061">
        <ele>303.72239</ele>
        <time>2023-04-14T11:28:53.000Z</time>
      </trkpt>
      <trkpt lat="45.83416" lon="4.70611">
        <ele>303.64607</ele>
        <time>2023-04-14T11:28:54.000Z</time>
      </trkpt>
      <trkpt lat="45.83422" lon="4.70612">
        <ele>303.58888</ele>
        <time>2023-04-14T11:28:55.000Z</time>
      </trkpt>
      <trkpt lat="45.83428" lon="4.70612">
        <ele>303.54193</ele>
        <time>2023-04-14T11:28:56.000Z</time>
      </trkpt>
      <trkpt lat="45.83433" lon="4.70613">
        <ele>303.49847</ele>
        <time>2023-04-14T11:28:57.000Z</time>
      </trkpt>
      <trkpt lat="45.83439" lon="4.70613">
        <ele>303.48688</ele>
        <time>2023-04-14T11:28:58.000Z</time>
      </trkpt>
      <trkpt lat="45.83445" lon="4.70614">
        <ele>303.4523</ele>
        <time>2023-04-14T11:28:59.000Z</time>
      </trkpt>
      <trkpt lat="45.83451" lon="4.70615">
        <ele>303.3335</ele>
        <time>2023-04-14T11:29:00.000Z</time>
      </trkpt>
      <trkpt lat="45.83456" lon="4.70615">
        <ele>303.1652</ele>
        <time>2023-04-14T11:29:01.000Z</time>
      </trkpt>
      <trkpt lat="45.83463" lon="4.70616">
        <ele>302.93517</ele>
        <time>2023-04-14T11:29:02.000Z</time>
      </trkpt>
      <trkpt lat="45.83469" lon="4.70616">
        <ele>302.65181</ele>
        <time>2023-04-14T11:29:03.000Z</time>
      </trkpt>
      <trkpt lat="45.83475" lon="4.70615">
        <ele>302.29388</ele>
        <time>2023-04-14T11:29:04.000Z</time>
      </trkpt>
      <trkpt lat="45.83482" lon="4.70614">
        <ele>301.85943</ele>
        <time>2023-04-14T11:29:05.000Z</time>
      </trkpt>
      <trkpt lat="45.83489" lon="4.70614">
        <ele>301.37939</ele>
        <time>2023-04-14T11:29:06.000Z</time>
      </trkpt>
      <trkpt lat="45.83496" lon="4.70613">
        <ele>300.87131</ele>
        <time>2023-04-14T11:29:07.000Z</time>
      </trkpt>
      <trkpt lat="45.83504" lon="4.70612">
        <ele>300.28988</ele>
        <time>2023-04-14T11:29:08.000Z</time>
      </trkpt>
      <trkpt lat="45.83511" lon="4.70612">
        <ele>299.75328</ele>
        <time>2023-04-14T11:29:09.000Z</time>
      </trkpt>
      <trkpt lat="45.83518" lon="4.70612">
        <ele>299.37173</ele>
        <time>2023-04-14T11:29:10.000Z</time>
      </trkpt>
      <trkpt lat="45.83526" lon="4.70611">
        <ele>299.16504</ele>
        <time>2023-04-14T11:29:11.000Z</time>
      </trkpt>
      <trkpt lat="45.83534" lon="4.70611">
        <ele>299.06636</ele>
        <time>2023-04-14T11:29:12.000Z</time>
      </trkpt>
      <trkpt lat="45.83541" lon="4.70611">
        <ele>298.97168</ele>
        <time>2023-04-14T11:29:13.000Z</time>
      </trkpt>
      <trkpt lat="45.83548" lon="4.70611">
        <ele>298.91196</ele>
        <time>2023-04-14T11:29:14.000Z</time>
      </trkpt>
      <trkpt lat="45.83555" lon="4.7061">
        <ele>298.83582</ele>
        <time>2023-04-14T11:29:15.000Z</time>
      </trkpt>
      <trkpt lat="45.83562" lon="4.7061">
        <ele>298.75097</ele>
        <time>2023-04-14T11:29:16.000Z</time>
      </trkpt>
      <trkpt lat="45.83569" lon="4.70611">
        <ele>298.58167</ele>
        <time>2023-04-14T11:29:17.000Z</time>
      </trkpt>
      <trkpt lat="45.83575" lon="4.70612">
        <ele>298.37939</ele>
        <time>2023-04-14T11:29:18.000Z</time>
      </trkpt>
      <trkpt lat="45.83582" lon="4.70613">
        <ele>298.17291</ele>
        <time>2023-04-14T11:29:19.000Z</time>
      </trkpt>
      <trkpt lat="45.83588" lon="4.70615">
        <ele>298.05205</ele>
        <time>2023-04-14T11:29:20.000Z</time>
      </trkpt>
      <trkpt lat="45.83595" lon="4.70617">
        <ele>297.97748</ele>
        <time>2023-04-14T11:29:21.000Z</time>
      </trkpt>
      <trkpt lat="45.83601" lon="4.70619">
        <ele>297.90884</ele>
        <time>2023-04-14T11:29:22.000Z</time>
      </trkpt>
      <trkpt lat="45.83606" lon="4.70622">
        <ele>297.80358</ele>
        <time>2023-04-14T11:29:23.000Z</time>
      </trkpt>
      <trkpt lat="45.83612" lon="4.70624">
        <ele>297.66278</ele>
        <time>2023-04-14T11:29:24.000Z</time>
      </trkpt>
      <trkpt lat="45.83619" lon="4.70625">
        <ele>297.48348</ele>
        <time>2023-04-14T11:29:25.000Z</time>
      </trkpt>
      <trkpt lat="45.83625" lon="4.70624">
        <ele>297.31222</ele>
        <time>2023-04-14T11:29:26.000Z</time>
      </trkpt>
      <trkpt lat="45.83631" lon="4.70622">
        <ele>297.14557</ele>
        <time>2023-04-14T11:29:27.000Z</time>
      </trkpt>
      <trkpt lat="45.83637" lon="4.7062">
        <ele>297.01239</ele>
        <time>2023-04-14T11:29:28.000Z</time>
      </trkpt>
      <trkpt lat="45.83643" lon="4.70616">
        <ele>296.88361</ele>
        <time>2023-04-14T11:29:29.000Z</time>
      </trkpt>
      <trkpt lat="45.83649" lon="4.70613">
        <ele>296.76411</ele>
        <time>2023-04-14T11:29:30.000Z</time>
      </trkpt>
      <trkpt lat="45.83656" lon="4.70609">
        <ele>296.61552</ele>
        <time>2023-04-14T11:29:31.000Z</time>
      </trkpt>
      <trkpt lat="45.83662" lon="4.70606">
        <ele>296.47436</ele>
        <time>2023-04-14T11:29:32.000Z</time>
      </trkpt>
      <trkpt lat="45.83669" lon="4.70603">
        <ele>296.32245</ele>
        <time>2023-04-14T11:29:33.000Z</time>
      </trkpt>
      <trkpt lat="45.83676" lon="4.706">
        <ele>296.14829</ele>
        <time>2023-04-14T11:29:34.000Z</time>
      </trkpt>
      <trkpt lat="45.83682" lon="4.70598">
        <ele>295.92462</ele>
        <time>2023-04-14T11:29:35.000Z</time>
      </trkpt>
      <trkpt lat="45.83689" lon="4.70596">
        <ele>295.66907</ele>
        <time>2023-04-14T11:29:36.000Z</time>
      </trkpt>
      <trkpt lat="45.83695" lon="4.70594">
        <ele>295.40537</ele>
        <time>2023-04-14T11:29:37.000Z</time>
      </trkpt>
      <trkpt lat="45.83702" lon="4.70592">
        <ele>295.25259</ele>
        <time>2023-04-14T11:29:38.000Z</time>
      </trkpt>
      <trkpt lat="45.83708" lon="4.7059">
        <ele>295.16764</ele>
        <time>2023-04-14T11:29:39.000Z</time>
      </trkpt>
      <trkpt lat="45.83715" lon="4.70588">
        <ele>295.09944</ele>
        <time>2023-04-14T11:29:40.000Z</time>
      </trkpt>
      <trkpt lat="45.83722" lon="4.70588">
        <ele>294.99388</ele>
        <time>2023-04-14T11:29:41.000Z</time>
      </trkpt>
      <trkpt lat="45.83729" lon="4.70586">
        <ele>294.82642</ele>
        <time>2023-04-14T11:29:42.000Z</time>
      </trkpt>
      <trkpt lat="45.83737" lon="4.70584">
        <ele>294.58145</ele>
        <time>2023-04-14T11:29:43.000Z</time>
      </trkpt>
      <trkpt lat="45.83744" lon="4.70583">
        <ele>294.22378</ele>
        <time>2023-04-14T11:29:44.000Z</time>
      </trkpt>
      <trkpt lat="45.83751" lon="4.7058">
        <ele>293.65429</ele>
        <time>2023-04-14T11:29:45.000Z</time>
      </trkpt>
      <trkpt lat="45.83758" lon="4.70577">
        <ele>292.99498</ele>
        <time>2023-04-14T11:29:46.000Z</time>
      </trkpt>
      <trkpt lat="45.83765" lon="4.70573">
        <ele>292.46656</ele>
        <time>2023-04-14T11:29:47.000Z</time>
      </trkpt>
      <trkpt lat="45.83773" lon="4.70569">
        <ele>292.10359</ele>
        <time>2023-04-14T11:29:48.000Z</time>
      </trkpt>
      <trkpt lat="45.8378" lon="4.70565">
        <ele>291.75924</ele>
        <time>2023-04-14T11:29:49.000Z</time>
      </trkpt>
      <trkpt lat="45.83787" lon="4.70561">
        <ele>291.42981</ele>
        <time>2023-04-14T11:29:50.000Z</time>
      </trkpt>
      <trkpt lat="45.83793" lon="4.70557">
        <ele>291.08782</ele>
        <time>2023-04-14T11:29:51.000Z</time>
      </trkpt>
      <trkpt lat="45.838" lon="4.70552">
        <ele>290.76566</ele>
        <time>2023-04-14T11:29:52.000Z</time>
      </trkpt>
      <trkpt lat="45.83807" lon="4.70547">
        <ele>290.46748</ele>
        <time>2023-04-14T11:29:53.000Z</time>
      </trkpt>
      <trkpt lat="45.83813" lon="4.70542">
        <ele>290.16769</ele>
        <time>2023-04-14T11:29:54.000Z</time>
      </trkpt>
      <trkpt lat="45.8382" lon="4.70537">
        <ele>289.86183</ele>
        <time>2023-04-14T11:29:55.000Z</time>
      </trkpt>
      <trkpt lat="45.83825" lon="4.70533">
        <ele>289.58083</ele>
        <time>2023-04-14T11:29:56.000Z</time>
      </trkpt>
      <trkpt lat="45.83831" lon="4.70528">
        <ele>289.33832</ele>
        <time>2023-04-14T11:29:57.000Z</time>
      </trkpt>
      <trkpt lat="45.83836" lon="4.70524">
        <ele>289.1477</ele>
        <time>2023-04-14T11:29:58.000Z</time>
      </trkpt>
      <trkpt lat="45.8384" lon="4.7052">
        <ele>289.01461</ele>
        <time>2023-04-14T11:29:59.000Z</time>
      </trkpt>
      <trkpt lat="45.83844" lon="4.70517">
        <ele>288.92147</ele>
        <time>2023-04-14T11:30:00.000Z</time>
      </trkpt>
      <trkpt lat="45.83848" lon="4.70514">
        <ele>288.85539</ele>
        <time>2023-04-14T11:30:01.000Z</time>
      </trkpt>
      <trkpt lat="45.83852" lon="4.70511">
        <ele>288.79817</ele>
        <time>2023-04-14T11:30:02.000Z</time>
      </trkpt>
      <trkpt lat="45.83855" lon="4.70509">
        <ele>288.73836</ele>
        <time>2023-04-14T11:30:03.000Z</time>
      </trkpt>
      <trkpt lat="45.83858" lon="4.70507">
        <ele>288.68804</ele>
        <time>2023-04-14T11:30:04.000Z</time>
      </trkpt>
      <trkpt lat="45.8386" lon="4.70505">
        <ele>288.6373</ele>
        <time>2023-04-14T11:30:05.000Z</time>
      </trkpt>
      <trkpt lat="45.83862" lon="4.705">
        <ele>288.58077</ele>
        <time>2023-04-14T11:30:06.000Z</time>
      </trkpt>
      <trkpt lat="45.83862" lon="4.70496">
        <ele>288.54054</ele>
        <time>2023-04-14T11:30:07.000Z</time>
      </trkpt>
      <trkpt lat="45.83861" lon="4.70491">
        <ele>288.50349</ele>
        <time>2023-04-14T11:30:08.000Z</time>
      </trkpt>
      <trkpt lat="45.8386" lon="4.70486">
        <ele>288.45897</ele>
        <time>2023-04-14T11:30:09.000Z</time>
      </trkpt>
      <trkpt lat="45.83859" lon="4.7048">
        <ele>288.40768</ele>
        <time>2023-04-14T11:30:10.000Z</time>
      </trkpt>
      <trkpt lat="45.83858" lon="4.70474">
        <ele>288.35529</ele>
        <time>2023-04-14T11:30:11.000Z</time>
      </trkpt>
      <trkpt lat="45.83857" lon="4.70468">
        <ele>288.29735</ele>
        <time>2023-04-14T11:30:12.000Z</time>
      </trkpt>
      <trkpt lat="45.83855" lon="4.70462">
        <ele>288.22571</ele>
        <time>2023-04-14T11:30:13.000Z</time>
      </trkpt>
      <trkpt lat="45.83853" lon="4.70456">
        <ele>288.14802</ele>
        <time>2023-04-14T11:30:14.000Z</time>
      </trkpt>
      <trkpt lat="45.83852" lon="4.70451">
        <ele>288.05617</ele>
        <time>2023-04-14T11:30:15.000Z</time>
      </trkpt>
      <trkpt lat="45.83851" lon="4.70444">
        <ele>287.95744</ele>
        <time>2023-04-14T11:30:16.000Z</time>
      </trkpt>
      <trkpt lat="45.8385" lon="4.70438">
        <ele>287.8729</ele>
        <time>2023-04-14T11:30:17.000Z</time>
      </trkpt>
      <trkpt lat="45.83848" lon="4.70431">
        <ele>287.79777</ele>
        <time>2023-04-14T11:30:18.000Z</time>
      </trkpt>
      <trkpt lat="45.83847" lon="4.70425">
        <ele>287.74166</ele>
        <time>2023-04-14T11:30:19.000Z</time>
      </trkpt>
      <trkpt lat="45.83846" lon="4.70418">
        <ele>287.68474</ele>
        <time>2023-04-14T11:30:20.000Z</time>
      </trkpt>
      <trkpt lat="45.83844" lon="4.70412">
        <ele>287.63959</ele>
        <time>2023-04-14T11:30:21.000Z</time>
      </trkpt>
      <trkpt lat="45.83843" lon="4.70406">
        <ele>287.58245</ele>
        <time>2023-04-14T11:30:22.000Z</time>
      </trkpt>
      <trkpt lat="45.83842" lon="4.704">
        <ele>287.52865</ele>
        <time>2023-04-14T11:30:23.000Z</time>
      </trkpt>
      <trkpt lat="45.83841" lon="4.70394">
        <ele>287.45563</ele>
        <time>2023-04-14T11:30:24.000Z</time>
      </trkpt>
      <trkpt lat="45.83839" lon="4.70388">
        <ele>287.40138</ele>
        <time>2023-04-14T11:30:25.000Z</time>
      </trkpt>
      <trkpt lat="45.83838" lon="4.70382">
        <ele>287.32168</ele>
        <time>2023-04-14T11:30:26.000Z</time>
      </trkpt>
      <trkpt lat="45.83837" lon="4.70376">
        <ele>287.24147</ele>
        <time>2023-04-14T11:30:27.000Z</time>
      </trkpt>
      <trkpt lat="45.83836" lon="4.7037">
        <ele>287.14742</ele>
        <time>2023-04-14T11:30:28.000Z</time>
      </trkpt>
      <trkpt lat="45.83834" lon="4.70364">
        <ele>287.04915</ele>
        <time>2023-04-14T11:30:29.000Z</time>
      </trkpt>
      <trkpt lat="45.83833" lon="4.70359">
        <ele>286.95846</ele>
        <time>2023-04-14T11:30:30.000Z</time>
      </trkpt>
      <trkpt lat="45.83831" lon="4.70354">
        <ele>286.86901</ele>
        <time>2023-04-14T11:30:31.000Z</time>
      </trkpt>
      <trkpt lat="45.8383" lon="4.70349">
        <ele>286.76062</ele>
        <time>2023-04-14T11:30:32.000Z</time>
      </trkpt>
      <trkpt lat="45.83829" lon="4.70344">
        <ele>286.65129</ele>
        <time>2023-04-14T11:30:33.000Z</time>
      </trkpt>
      <trkpt lat="45.83828" lon="4.70339">
        <ele>286.52417</ele>
        <time>2023-04-14T11:30:34.000Z</time>
      </trkpt>
      <trkpt lat="45.83827" lon="4.70333">
        <ele>286.35394</ele>
        <time>2023-04-14T11:30:35.000Z</time>
      </trkpt>
      <trkpt lat="45.83826" lon="4.70328">
        <ele>286.17324</ele>
        <time>2023-04-14T11:30:36.000Z</time>
      </trkpt>
      <trkpt lat="45.83825" lon="4.70323">
        <ele>285.99491</ele>
        <time>2023-04-14T11:30:37.000Z</time>
      </trkpt>
      <trkpt lat="45.83824" lon="4.7032">
        <ele>285.84756</ele>
        <time>2023-04-14T11:30:38.000Z</time>
      </trkpt>
      <trkpt lat="45.83824" lon="4.70316">
        <ele>285.69322</ele>
        <time>2023-04-14T11:30:39.000Z</time>
      </trkpt>
      <trkpt lat="45.83823" lon="4.70313">
        <ele>285.50803</ele>
        <time>2023-04-14T11:30:40.000Z</time>
      </trkpt>
      <trkpt lat="45.83822" lon="4.70308">
        <ele>285.28538</ele>
        <time>2023-04-14T11:30:41.000Z</time>
      </trkpt>
      <trkpt lat="45.83821" lon="4.70305">
        <ele>285.09145</ele>
        <time>2023-04-14T11:30:42.000Z</time>
      </trkpt>
      <trkpt lat="45.8382" lon="4.703">
        <ele>284.79095</ele>
        <time>2023-04-14T11:30:43.000Z</time>
      </trkpt>
      <trkpt lat="45.83819" lon="4.70295">
        <ele>284.49762</ele>
        <time>2023-04-14T11:30:44.000Z</time>
      </trkpt>
      <trkpt lat="45.83818" lon="4.7029">
        <ele>284.13491</ele>
        <time>2023-04-14T11:30:45.000Z</time>
      </trkpt>
      <trkpt lat="45.83817" lon="4.70285">
        <ele>283.71271</ele>
        <time>2023-04-14T11:30:46.000Z</time>
      </trkpt>
      <trkpt lat="45.83816" lon="4.7028">
        <ele>283.26185</ele>
        <time>2023-04-14T11:30:47.000Z</time>
      </trkpt>
      <trkpt lat="45.83815" lon="4.70275">
        <ele>282.81185</ele>
        <time>2023-04-14T11:30:48.000Z</time>
      </trkpt>
      <trkpt lat="45.83813" lon="4.7027">
        <ele>282.38264</ele>
        <time>2023-04-14T11:30:49.000Z</time>
      </trkpt>
      <trkpt lat="45.83812" lon="4.70265">
        <ele>281.97964</ele>
        <time>2023-04-14T11:30:50.000Z</time>
      </trkpt>
      <trkpt lat="45.83811" lon="4.70261">
        <ele>281.5798</ele>
        <time>2023-04-14T11:30:51.000Z</time>
      </trkpt>
      <trkpt lat="45.8381" lon="4.70256">
        <ele>281.21964</ele>
        <time>2023-04-14T11:30:52.000Z</time>
      </trkpt>
      <trkpt lat="45.8381" lon="4.70253">
        <ele>280.93337</ele>
        <time>2023-04-14T11:30:53.000Z</time>
      </trkpt>
      <trkpt lat="45.83809" lon="4.70249">
        <ele>280.58967</ele>
        <time>2023-04-14T11:30:54.000Z</time>
      </trkpt>
      <trkpt lat="45.83808" lon="4.70245">
        <ele>280.2461</ele>
        <time>2023-04-14T11:30:55.000Z</time>
      </trkpt>
      <trkpt lat="45.83807" lon="4.70241">
        <ele>279.92464</ele>
        <time>2023-04-14T11:30:56.000Z</time>
      </trkpt>
      <trkpt lat="45.83806" lon="4.70237">
        <ele>279.65134</ele>
        <time>2023-04-14T11:30:57.000Z</time>
      </trkpt>
      <trkpt lat="45.83805" lon="4.70232">
        <ele>279.29103</ele>
        <time>2023-04-14T11:30:58.000Z</time>
      </trkpt>
      <trkpt lat="45.83803" lon="4.70227">
        <ele>278.9448</ele>
        <time>2023-04-14T11:30:59.000Z</time>
      </trkpt>
      <trkpt lat="45.83801" lon="4.70221">
        <ele>278.63759</ele>
        <time>2023-04-14T11:31:00.000Z</time>
      </trkpt>
      <trkpt lat="45.838" lon="4.70216">
        <ele>278.40677</ele>
        <time>2023-04-14T11:31:01.000Z</time>
      </trkpt>
      <trkpt lat="45.83799" lon="4.70211">
        <ele>278.19159</ele>
        <time>2023-04-14T11:31:02.000Z</time>
      </trkpt>
      <trkpt lat="45.83798" lon="4.70206">
        <ele>278.0473</ele>
        <time>2023-04-14T11:31:03.000Z</time>
      </trkpt>
      <trkpt lat="45.83798" lon="4.70201">
        <ele>277.8975</ele>
        <time>2023-04-14T11:31:04.000Z</time>
      </trkpt>
      <trkpt lat="45.838" lon="4.70197">
        <ele>277.73507</ele>
        <time>2023-04-14T11:31:05.000Z</time>
      </trkpt>
      <trkpt lat="45.83802" lon="4.70195">
        <ele>277.579</ele>
        <time>2023-04-14T11:31:06.000Z</time>
      </trkpt>
      <trkpt lat="45.83805" lon="4.70193">
        <ele>277.38016</ele>
        <time>2023-04-14T11:31:07.000Z</time>
      </trkpt>
      <trkpt lat="45.83809" lon="4.70191">
        <ele>277.14197</ele>
        <time>2023-04-14T11:31:08.000Z</time>
      </trkpt>
      <trkpt lat="45.83812" lon="4.70188">
        <ele>276.87291</ele>
        <time>2023-04-14T11:31:09.000Z</time>
      </trkpt>
      <trkpt lat="45.83815" lon="4.70185">
        <ele>276.57972</ele>
        <time>2023-04-14T11:31:10.000Z</time>
      </trkpt>
      <trkpt lat="45.83818" lon="4.7018">
        <ele>276.23249</ele>
        <time>2023-04-14T11:31:11.000Z</time>
      </trkpt>
      <trkpt lat="45.83821" lon="4.70177">
        <ele>276.03693</ele>
        <time>2023-04-14T11:31:12.000Z</time>
      </trkpt>
      <trkpt lat="45.83825" lon="4.70173">
        <ele>275.85761</ele>
        <time>2023-04-14T11:31:13.000Z</time>
      </trkpt>
      <trkpt lat="45.83828" lon="4.70169">
        <ele>275.75546</ele>
        <time>2023-04-14T11:31:14.000Z</time>
      </trkpt>
      <trkpt lat="45.83831" lon="4.70163">
        <ele>275.71881</ele>
        <time>2023-04-14T11:31:15.000Z</time>
      </trkpt>
      <trkpt lat="45.83834" lon="4.70158">
        <ele>275.73122</ele>
        <time>2023-04-14T11:31:16.000Z</time>
      </trkpt>
      <trkpt lat="45.83837" lon="4.70153">
        <ele>275.69671</ele>
        <time>2023-04-14T11:31:17.000Z</time>
      </trkpt>
      <trkpt lat="45.8384" lon="4.70146">
        <ele>275.73628</ele>
        <time>2023-04-14T11:31:18.000Z</time>
      </trkpt>
      <trkpt lat="45.83842" lon="4.70142">
        <ele>275.76896</ele>
        <time>2023-04-14T11:31:19.000Z</time>
      </trkpt>
      <trkpt lat="45.83843" lon="4.70137">
        <ele>275.84028</ele>
        <time>2023-04-14T11:31:20.000Z</time>
      </trkpt>
      <trkpt lat="45.83845" lon="4.70133">
        <ele>275.91133</ele>
        <time>2023-04-14T11:31:21.000Z</time>
      </trkpt>
      <trkpt lat="45.83846" lon="4.70129">
        <ele>276.08773</ele>
        <time>2023-04-14T11:31:22.000Z</time>
      </trkpt>
      <trkpt lat="45.83847" lon="4.70126">
        <ele>276.27271</ele>
        <time>2023-04-14T11:31:23.000Z</time>
      </trkpt>
      <trkpt lat="45.83848" lon="4.70122">
        <ele>276.48644</ele>
        <time>2023-04-14T11:31:24.000Z</time>
      </trkpt>
      <trkpt lat="45.83849" lon="4.70117">
        <ele>276.76132</ele>
        <time>2023-04-14T11:31:25.000Z</time>
      </trkpt>
      <trkpt lat="45.8385" lon="4.70111">
        <ele>277.02912</ele>
        <time>2023-04-14T11:31:26.000Z</time>
      </trkpt>
      <trkpt lat="45.83851" lon="4.70106">
        <ele>277.25071</ele>
        <time>2023-04-14T11:31:27.000Z</time>
      </trkpt>
      <trkpt lat="45.83852" lon="4.70101">
        <ele>277.38047</ele>
        <time>2023-04-14T11:31:28.000Z</time>
      </trkpt>
      <trkpt lat="45.83854" lon="4.70095">
        <ele>277.48162</ele>
        <time>2023-04-14T11:31:29.000Z</time>
      </trkpt>
      <trkpt lat="45.83855" lon="4.7009">
        <ele>277.59223</ele>
        <time>2023-04-14T11:31:30.000Z</time>
      </trkpt>
      <trkpt lat="45.83856" lon="4.70084">
        <ele>277.6888</ele>
        <time>2023-04-14T11:31:31.000Z</time>
      </trkpt>
      <trkpt lat="45.83856" lon="4.7008">
        <ele>277.74792</ele>
        <time>2023-04-14T11:31:32.000Z</time>
      </trkpt>
      <trkpt lat="45.83857" lon="4.70075">
        <ele>277.76471</ele>
        <time>2023-04-14T11:31:33.000Z</time>
      </trkpt>
      <trkpt lat="45.83858" lon="4.70071">
        <ele>277.73075</ele>
        <time>2023-04-14T11:31:34.000Z</time>
      </trkpt>
      <trkpt lat="45.83859" lon="4.70067">
        <ele>277.63381</ele>
        <time>2023-04-14T11:31:35.000Z</time>
      </trkpt>
      <trkpt lat="45.83859" lon="4.70063">
        <ele>277.47981</ele>
        <time>2023-04-14T11:31:36.000Z</time>
      </trkpt>
      <trkpt lat="45.8386" lon="4.70058">
        <ele>277.24758</ele>
        <time>2023-04-14T11:31:37.000Z</time>
      </trkpt>
      <trkpt lat="45.83862" lon="4.70052">
        <ele>276.95144</ele>
        <time>2023-04-14T11:31:38.000Z</time>
      </trkpt>
      <trkpt lat="45.83863" lon="4.70046">
        <ele>276.63827</ele>
        <time>2023-04-14T11:31:39.000Z</time>
      </trkpt>
      <trkpt lat="45.83864" lon="4.7004">
        <ele>276.4051</ele>
        <time>2023-04-14T11:31:40.000Z</time>
      </trkpt>
      <trkpt lat="45.83866" lon="4.70034">
        <ele>276.26866</ele>
        <time>2023-04-14T11:31:41.000Z</time>
      </trkpt>
      <trkpt lat="45.83867" lon="4.70028">
        <ele>276.19531</ele>
        <time>2023-04-14T11:31:42.000Z</time>
      </trkpt>
      <trkpt lat="45.83869" lon="4.70023">
        <ele>276.14383</ele>
        <time>2023-04-14T11:31:43.000Z</time>
      </trkpt>
      <trkpt lat="45.83872" lon="4.70018">
        <ele>276.10003</ele>
        <time>2023-04-14T11:31:44.000Z</time>
      </trkpt>
      <trkpt lat="45.83875" lon="4.70013">
        <ele>276.05502</ele>
        <time>2023-04-14T11:31:45.000Z</time>
      </trkpt>
      <trkpt lat="45.83878" lon="4.70008">
        <ele>276.02118</ele>
        <time>2023-04-14T11:31:46.000Z</time>
      </trkpt>
      <trkpt lat="45.8388" lon="4.70004">
        <ele>276.00147</ele>
        <time>2023-04-14T11:31:47.000Z</time>
      </trkpt>
      <trkpt lat="45.83882" lon="4.70001">
        <ele>275.98383</ele>
        <time>2023-04-14T11:31:48.000Z</time>
      </trkpt>
      <trkpt lat="45.83884" lon="4.69998">
        <ele>275.97524</ele>
        <time>2023-04-14T11:31:49.000Z</time>
      </trkpt>
      <trkpt lat="45.83886" lon="4.69995">
        <ele>275.95189</ele>
        <time>2023-04-14T11:31:50.000Z</time>
      </trkpt>
      <trkpt lat="45.83888" lon="4.69991">
        <ele>275.92491</ele>
        <time>2023-04-14T11:31:51.000Z</time>
      </trkpt>
      <trkpt lat="45.83891" lon="4.69987">
        <ele>275.88273</ele>
        <time>2023-04-14T11:31:52.000Z</time>
      </trkpt>
      <trkpt lat="45.83893" lon="4.69983">
        <ele>275.80662</ele>
        <time>2023-04-14T11:31:53.000Z</time>
      </trkpt>
      <trkpt lat="45.83896" lon="4.69979">
        <ele>275.71869</ele>
        <time>2023-04-14T11:31:54.000Z</time>
      </trkpt>
      <trkpt lat="45.83899" lon="4.69975">
        <ele>275.62041</ele>
        <time>2023-04-14T11:31:55.000Z</time>
      </trkpt>
      <trkpt lat="45.83902" lon="4.6997">
        <ele>275.51877</ele>
        <time>2023-04-14T11:31:56.000Z</time>
      </trkpt>
      <trkpt lat="45.83905" lon="4.69966">
        <ele>275.40723</ele>
        <time>2023-04-14T11:31:57.000Z</time>
      </trkpt>
      <trkpt lat="45.83908" lon="4.69961">
        <ele>275.29963</ele>
        <time>2023-04-14T11:31:58.000Z</time>
      </trkpt>
      <trkpt lat="45.83911" lon="4.69957">
        <ele>275.18669</ele>
        <time>2023-04-14T11:31:59.000Z</time>
      </trkpt>
      <trkpt lat="45.83913" lon="4.69953">
        <ele>275.0803</ele>
        <time>2023-04-14T11:32:00.000Z</time>
      </trkpt>
      <trkpt lat="45.83916" lon="4.69949">
        <ele>274.96439</ele>
        <time>2023-04-14T11:32:01.000Z</time>
      </trkpt>
      <trkpt lat="45.83919" lon="4.69944">
        <ele>274.85823</ele>
        <time>2023-04-14T11:32:02.000Z</time>
      </trkpt>
      <trkpt lat="45.83921" lon="4.69939">
        <ele>274.75524</ele>
        <time>2023-04-14T11:32:03.000Z</time>
      </trkpt>
      <trkpt lat="45.83924" lon="4.69935">
        <ele>274.66522</ele>
        <time>2023-04-14T11:32:04.000Z</time>
      </trkpt>
      <trkpt lat="45.83926" lon="4.69932">
        <ele>274.57663</ele>
        <time>2023-04-14T11:32:05.000Z</time>
      </trkpt>
      <trkpt lat="45.83928" lon="4.69928">
        <ele>274.51314</ele>
        <time>2023-04-14T11:32:06.000Z</time>
      </trkpt>
      <trkpt lat="45.83931" lon="4.69925">
        <ele>274.45982</ele>
        <time>2023-04-14T11:32:07.000Z</time>
      </trkpt>
      <trkpt lat="45.83933" lon="4.69921">
        <ele>274.4221</ele>
        <time>2023-04-14T11:32:08.000Z</time>
      </trkpt>
      <trkpt lat="45.83935" lon="4.69917">
        <ele>274.38747</ele>
        <time>2023-04-14T11:32:09.000Z</time>
      </trkpt>
      <trkpt lat="45.83937" lon="4.69913">
        <ele>274.35421</ele>
        <time>2023-04-14T11:32:10.000Z</time>
      </trkpt>
      <trkpt lat="45.8394" lon="4.69909">
        <ele>274.34002</ele>
        <time>2023-04-14T11:32:11.000Z</time>
      </trkpt>
      <trkpt lat="45.83942" lon="4.69905">
        <ele>274.35689</ele>
        <time>2023-04-14T11:32:12.000Z</time>
      </trkpt>
      <trkpt lat="45.83944" lon="4.699">
        <ele>274.41884</ele>
        <time>2023-04-14T11:32:13.000Z</time>
      </trkpt>
      <trkpt lat="45.83947" lon="4.69896">
        <ele>274.53298</ele>
        <time>2023-04-14T11:32:14.000Z</time>
      </trkpt>
      <trkpt lat="45.83949" lon="4.69892">
        <ele>274.67213</ele>
        <time>2023-04-14T11:32:15.000Z</time>
      </trkpt>
      <trkpt lat="45.83951" lon="4.69889">
        <ele>274.82347</ele>
        <time>2023-04-14T11:32:16.000Z</time>
      </trkpt>
      <trkpt lat="45.83953" lon="4.69885">
        <ele>274.97351</ele>
        <time>2023-04-14T11:32:17.000Z</time>
      </trkpt>
      <trkpt lat="45.83955" lon="4.69881">
        <ele>275.1012</ele>
        <time>2023-04-14T11:32:18.000Z</time>
      </trkpt>
      <trkpt lat="45.83957" lon="4.69877">
        <ele>275.19985</ele>
        <time>2023-04-14T11:32:19.000Z</time>
      </trkpt>
      <trkpt lat="45.83959" lon="4.69873">
        <ele>275.27684</ele>
        <time>2023-04-14T11:32:20.000Z</time>
      </trkpt>
      <trkpt lat="45.83961" lon="4.69869">
        <ele>275.31908</ele>
        <time>2023-04-14T11:32:21.000Z</time>
      </trkpt>
      <trkpt lat="45.83963" lon="4.69865">
        <ele>275.33454</ele>
        <time>2023-04-14T11:32:22.000Z</time>
      </trkpt>
      <trkpt lat="45.83965" lon="4.69861">
        <ele>275.32668</ele>
        <time>2023-04-14T11:32:23.000Z</time>
      </trkpt>
      <trkpt lat="45.83967" lon="4.69859">
        <ele>275.30883</ele>
        <time>2023-04-14T11:32:24.000Z</time>
      </trkpt>
      <trkpt lat="45.83968" lon="4.69857">
        <ele>275.29224</ele>
        <time>2023-04-14T11:32:25.000Z</time>
      </trkpt>
      <trkpt lat="45.8397" lon="4.69853">
        <ele>275.26994</ele>
        <time>2023-04-14T11:32:27.000Z</time>
      </trkpt>
      <trkpt lat="45.83972" lon="4.69849">
        <ele>275.26623</ele>
        <time>2023-04-14T11:33:55.000Z</time>
      </trkpt>
      <trkpt lat="45.83973" lon="4.69846">
        <ele>275.27005</ele>
        <time>2023-04-14T11:33:56.000Z</time>
      </trkpt>
      <trkpt lat="45.83974" lon="4.69844">
        <ele>275.2731</ele>
        <time>2023-04-14T11:33:57.000Z</time>
      </trkpt>
      <trkpt lat="45.83976" lon="4.69841">
        <ele>275.2755</ele>
        <time>2023-04-14T11:33:58.000Z</time>
      </trkpt>
      <trkpt lat="45.83977" lon="4.69838">
        <ele>275.28131</ele>
        <time>2023-04-14T11:33:59.000Z</time>
      </trkpt>
      <trkpt lat="45.83979" lon="4.69835">
        <ele>275.28347</ele>
        <time>2023-04-14T11:34:00.000Z</time>
      </trkpt>
      <trkpt lat="45.8398" lon="4.69832">
        <ele>275.28572</ele>
        <time>2023-04-14T11:34:01.000Z</time>
      </trkpt>
      <trkpt lat="45.83982" lon="4.69829">
        <ele>275.26012</ele>
        <time>2023-04-14T11:34:02.000Z</time>
      </trkpt>
      <trkpt lat="45.83984" lon="4.69827">
        <ele>275.2397</ele>
        <time>2023-04-14T11:34:03.000Z</time>
      </trkpt>
      <trkpt lat="45.83986" lon="4.69824">
        <ele>275.19531</ele>
        <time>2023-04-14T11:34:04.000Z</time>
      </trkpt>
      <trkpt lat="45.83988" lon="4.6982">
        <ele>275.13004</ele>
        <time>2023-04-14T11:34:05.000Z</time>
      </trkpt>
      <trkpt lat="45.8399" lon="4.69816">
        <ele>275.06656</ele>
        <time>2023-04-14T11:34:06.000Z</time>
      </trkpt>
      <trkpt lat="45.83992" lon="4.69812">
        <ele>275.0091</ele>
        <time>2023-04-14T11:34:07.000Z</time>
      </trkpt>
      <trkpt lat="45.83994" lon="4.69807">
        <ele>274.91909</ele>
        <time>2023-04-14T11:34:08.000Z</time>
      </trkpt>
      <trkpt lat="45.83997" lon="4.69803">
        <ele>274.78703</ele>
        <time>2023-04-14T11:34:09.000Z</time>
      </trkpt>
      <trkpt lat="45.83999" lon="4.69799">
        <ele>274.60133</ele>
        <time>2023-04-14T11:34:10.000Z</time>
      </trkpt>
      <trkpt lat="45.84001" lon="4.69796">
        <ele>274.40576</ele>
        <time>2023-04-14T11:34:11.000Z</time>
      </trkpt>
      <trkpt lat="45.84004" lon="4.69793">
        <ele>274.20362</ele>
        <time>2023-04-14T11:34:12.000Z</time>
      </trkpt>
      <trkpt lat="45.84006" lon="4.69789">
        <ele>273.96432</ele>
        <time>2023-04-14T11:34:13.000Z</time>
      </trkpt>
      <trkpt lat="45.84008" lon="4.69785">
        <ele>273.69637</ele>
        <time>2023-04-14T11:34:14.000Z</time>
      </trkpt>
      <trkpt lat="45.8401" lon="4.6978">
        <ele>273.37019</ele>
        <time>2023-04-14T11:34:15.000Z</time>
      </trkpt>
      <trkpt lat="45.84013" lon="4.69776">
        <ele>273.02843</ele>
        <time>2023-04-14T11:34:16.000Z</time>
      </trkpt>
      <trkpt lat="45.84016" lon="4.69771">
        <ele>272.68478</ele>
        <time>2023-04-14T11:34:17.000Z</time>
      </trkpt>
      <trkpt lat="45.84018" lon="4.69768">
        <ele>272.41535</ele>
        <time>2023-04-14T11:34:18.000Z</time>
      </trkpt>
      <trkpt lat="45.84021" lon="4.69764">
        <ele>272.16286</ele>
        <time>2023-04-14T11:34:19.000Z</time>
      </trkpt>
      <trkpt lat="45.84023" lon="4.69761">
        <ele>271.92133</ele>
        <time>2023-04-14T11:34:20.000Z</time>
      </trkpt>
      <trkpt lat="45.84025" lon="4.69757">
        <ele>271.64086</ele>
        <time>2023-04-14T11:34:21.000Z</time>
      </trkpt>
      <trkpt lat="45.84028" lon="4.69753">
        <ele>271.33735</ele>
        <time>2023-04-14T11:34:22.000Z</time>
      </trkpt>
      <trkpt lat="45.8403" lon="4.69749">
        <ele>270.94354</ele>
        <time>2023-04-14T11:34:23.000Z</time>
      </trkpt>
      <trkpt lat="45.84033" lon="4.69745">
        <ele>270.46566</ele>
        <time>2023-04-14T11:34:24.000Z</time>
      </trkpt>
      <trkpt lat="45.84036" lon="4.69741">
        <ele>269.99722</ele>
        <time>2023-04-14T11:34:25.000Z</time>
      </trkpt>
      <trkpt lat="45.84038" lon="4.69738">
        <ele>269.5761</ele>
        <time>2023-04-14T11:34:26.000Z</time>
      </trkpt>
      <trkpt lat="45.8404" lon="4.69734">
        <ele>269.18661</ele>
        <time>2023-04-14T11:34:27.000Z</time>
      </trkpt>
      <trkpt lat="45.84043" lon="4.6973">
        <ele>268.81164</ele>
        <time>2023-04-14T11:34:28.000Z</time>
      </trkpt>
      <trkpt lat="45.84045" lon="4.69726">
        <ele>268.60128</ele>
        <time>2023-04-14T11:34:29.000Z</time>
      </trkpt>
      <trkpt lat="45.84046" lon="4.69723">
        <ele>268.54672</ele>
        <time>2023-04-14T11:34:30.000Z</time>
      </trkpt>
      <trkpt lat="45.84048" lon="4.69721">
        <ele>268.54497</ele>
        <time>2023-04-14T11:34:31.000Z</time>
      </trkpt>
      <trkpt lat="45.84049" lon="4.69718">
        <ele>268.59635</ele>
        <time>2023-04-14T11:34:32.000Z</time>
      </trkpt>
      <trkpt lat="45.8405" lon="4.69715">
        <ele>268.67578</ele>
        <time>2023-04-14T11:34:33.000Z</time>
      </trkpt>
      <trkpt lat="45.84051" lon="4.69713">
        <ele>268.78317</ele>
        <time>2023-04-14T11:34:34.000Z</time>
      </trkpt>
      <trkpt lat="45.84053" lon="4.69711">
        <ele>268.8905</ele>
        <time>2023-04-14T11:34:35.000Z</time>
      </trkpt>
      <trkpt lat="45.84054" lon="4.69709">
        <ele>269.03682</ele>
        <time>2023-04-14T11:34:36.000Z</time>
      </trkpt>
      <trkpt lat="45.84056" lon="4.69706">
        <ele>269.21915</ele>
        <time>2023-04-14T11:34:37.000Z</time>
      </trkpt>
      <trkpt lat="45.84058" lon="4.69703">
        <ele>269.46855</ele>
        <time>2023-04-14T11:34:38.000Z</time>
      </trkpt>
      <trkpt lat="45.84061" lon="4.69699">
        <ele>269.73632</ele>
        <time>2023-04-14T11:34:39.000Z</time>
      </trkpt>
      <trkpt lat="45.84064" lon="4.69696">
        <ele>269.96291</ele>
        <time>2023-04-14T11:34:40.000Z</time>
      </trkpt>
      <trkpt lat="45.84067" lon="4.69693">
        <ele>270.20977</ele>
        <time>2023-04-14T11:34:41.000Z</time>
      </trkpt>
      <trkpt lat="45.84069" lon="4.69689">
        <ele>270.46981</ele>
        <time>2023-04-14T11:34:42.000Z</time>
      </trkpt>
      <trkpt lat="45.84072" lon="4.69686">
        <ele>270.76159</ele>
        <time>2023-04-14T11:34:43.000Z</time>
      </trkpt>
      <trkpt lat="45.84075" lon="4.69683">
        <ele>271.02139</ele>
        <time>2023-04-14T11:34:44.000Z</time>
      </trkpt>
      <trkpt lat="45.84077" lon="4.69681">
        <ele>271.20623</ele>
        <time>2023-04-14T11:34:45.000Z</time>
      </trkpt>
      <trkpt lat="45.8408" lon="4.69679">
        <ele>271.36119</ele>
        <time>2023-04-14T11:34:46.000Z</time>
      </trkpt>
      <trkpt lat="45.84083" lon="4.69678">
        <ele>271.48292</ele>
        <time>2023-04-14T11:34:47.000Z</time>
      </trkpt>
      <trkpt lat="45.84085" lon="4.69676">
        <ele>271.58648</ele>
        <time>2023-04-14T11:34:48.000Z</time>
      </trkpt>
      <trkpt lat="45.84088" lon="4.69676">
        <ele>271.64023</ele>
        <time>2023-04-14T11:34:49.000Z</time>
      </trkpt>
      <trkpt lat="45.84091" lon="4.69675">
        <ele>271.64001</ele>
        <time>2023-04-14T11:34:50.000Z</time>
      </trkpt>
      <trkpt lat="45.84094" lon="4.69675">
        <ele>271.67851</ele>
        <time>2023-04-14T11:34:51.000Z</time>
      </trkpt>
      <trkpt lat="45.84097" lon="4.69673">
        <ele>271.75376</ele>
        <time>2023-04-14T11:34:52.000Z</time>
      </trkpt>
      <trkpt lat="45.841" lon="4.69673">
        <ele>271.76066</ele>
        <time>2023-04-14T11:34:53.000Z</time>
      </trkpt>
      <trkpt lat="45.84103" lon="4.69674">
        <ele>271.66862</ele>
        <time>2023-04-14T11:34:54.000Z</time>
      </trkpt>
      <trkpt lat="45.84107" lon="4.69675">
        <ele>271.56772</ele>
        <time>2023-04-14T11:34:55.000Z</time>
      </trkpt>
      <trkpt lat="45.8411" lon="4.69675">
        <ele>271.52911</ele>
        <time>2023-04-14T11:34:56.000Z</time>
      </trkpt>
      <trkpt lat="45.84114" lon="4.69675">
        <ele>271.46439</ele>
        <time>2023-04-14T11:34:57.000Z</time>
      </trkpt>
      <trkpt lat="45.84118" lon="4.69676">
        <ele>271.32559</ele>
        <time>2023-04-14T11:34:58.000Z</time>
      </trkpt>
      <trkpt lat="45.84122" lon="4.69677">
        <ele>271.17147</ele>
        <time>2023-04-14T11:34:59.000Z</time>
      </trkpt>
      <trkpt lat="45.84126" lon="4.69678">
        <ele>271.01297</ele>
        <time>2023-04-14T11:35:00.000Z</time>
      </trkpt>
      <trkpt lat="45.8413" lon="4.69678">
        <ele>270.88009</ele>
        <time>2023-04-14T11:35:01.000Z</time>
      </trkpt>
      <trkpt lat="45.84133" lon="4.69679">
        <ele>270.76741</ele>
        <time>2023-04-14T11:35:02.000Z</time>
      </trkpt>
      <trkpt lat="45.84136" lon="4.69679">
        <ele>270.6615</ele>
        <time>2023-04-14T11:35:03.000Z</time>
      </trkpt>
      <trkpt lat="45.8414" lon="4.6968">
        <ele>270.49846</ele>
        <time>2023-04-14T11:35:04.000Z</time>
      </trkpt>
      <trkpt lat="45.84143" lon="4.69681">
        <ele>270.34177</ele>
        <time>2023-04-14T11:35:05.000Z</time>
      </trkpt>
      <trkpt lat="45.84146" lon="4.69681">
        <ele>270.27553</ele>
        <time>2023-04-14T11:35:06.000Z</time>
      </trkpt>
      <trkpt lat="45.84149" lon="4.69681">
        <ele>270.23587</ele>
        <time>2023-04-14T11:35:07.000Z</time>
      </trkpt>
      <trkpt lat="45.84152" lon="4.6968">
        <ele>270.18969</ele>
        <time>2023-04-14T11:35:08.000Z</time>
      </trkpt>
      <trkpt lat="45.84156" lon="4.6968">
        <ele>270.15029</ele>
        <time>2023-04-14T11:35:09.000Z</time>
      </trkpt>
      <trkpt lat="45.8416" lon="4.6968">
        <ele>270.10482</ele>
        <time>2023-04-14T11:35:10.000Z</time>
      </trkpt>
      <trkpt lat="45.84163" lon="4.69681">
        <ele>270.04371</ele>
        <time>2023-04-14T11:35:11.000Z</time>
      </trkpt>
      <trkpt lat="45.84168" lon="4.69682">
        <ele>269.99486</ele>
        <time>2023-04-14T11:35:12.000Z</time>
      </trkpt>
      <trkpt lat="45.84171" lon="4.69683">
        <ele>270.01408</ele>
        <time>2023-04-14T11:35:13.000Z</time>
      </trkpt>
      <trkpt lat="45.84175" lon="4.69684">
        <ele>270.04843</ele>
        <time>2023-04-14T11:35:14.000Z</time>
      </trkpt>
      <trkpt lat="45.84178" lon="4.69685">
        <ele>270.05507</ele>
        <time>2023-04-14T11:35:15.000Z</time>
      </trkpt>
      <trkpt lat="45.84181" lon="4.69685">
        <ele>270.13291</ele>
        <time>2023-04-14T11:35:16.000Z</time>
      </trkpt>
      <trkpt lat="45.84183" lon="4.69685">
        <ele>270.20312</ele>
        <time>2023-04-14T11:35:17.000Z</time>
      </trkpt>
      <trkpt lat="45.84185" lon="4.69685">
        <ele>270.23953</ele>
        <time>2023-04-14T11:35:18.000Z</time>
      </trkpt>
      <trkpt lat="45.84188" lon="4.69686">
        <ele>270.29654</ele>
        <time>2023-04-14T11:35:19.000Z</time>
      </trkpt>
      <trkpt lat="45.84191" lon="4.69686">
        <ele>270.3929</ele>
        <time>2023-04-14T11:35:20.000Z</time>
      </trkpt>
      <trkpt lat="45.84193" lon="4.69686">
        <ele>270.53359</ele>
        <time>2023-04-14T11:35:21.000Z</time>
      </trkpt>
      <trkpt lat="45.84195" lon="4.69685">
        <ele>270.64696</ele>
        <time>2023-04-14T11:35:22.000Z</time>
      </trkpt>
      <trkpt lat="45.84199" lon="4.69685">
        <ele>270.81815</ele>
        <time>2023-04-14T11:35:24.000Z</time>
      </trkpt>
      <trkpt lat="45.84202" lon="4.69685">
        <ele>270.90118</ele>
        <time>2023-04-14T11:35:25.000Z</time>
      </trkpt>
      <trkpt lat="45.84204" lon="4.69686">
        <ele>270.96825</ele>
        <time>2023-04-14T11:35:26.000Z</time>
      </trkpt>
      <trkpt lat="45.84206" lon="4.69686">
        <ele>271.02477</ele>
        <time>2023-04-14T11:35:27.000Z</time>
      </trkpt>
      <trkpt lat="45.84209" lon="4.69688">
        <ele>271.04864</ele>
        <time>2023-04-14T11:35:28.000Z</time>
      </trkpt>
      <trkpt lat="45.84212" lon="4.69688">
        <ele>271.09042</ele>
        <time>2023-04-14T11:35:29.000Z</time>
      </trkpt>
      <trkpt lat="45.84215" lon="4.69689">
        <ele>271.17184</ele>
        <time>2023-04-14T11:35:30.000Z</time>
      </trkpt>
      <trkpt lat="45.84218" lon="4.69689">
        <ele>271.24437</ele>
        <time>2023-04-14T11:35:31.000Z</time>
      </trkpt>
      <trkpt lat="45.84221" lon="4.6969">
        <ele>271.31516</ele>
        <time>2023-04-14T11:35:32.000Z</time>
      </trkpt>
      <trkpt lat="45.84224" lon="4.69691">
        <ele>271.37831</ele>
        <time>2023-04-14T11:35:33.000Z</time>
      </trkpt>
      <trkpt lat="45.84227" lon="4.69691">
        <ele>271.42532</ele>
        <time>2023-04-14T11:35:34.000Z</time>
      </trkpt>
      <trkpt lat="45.84231" lon="4.69692">
        <ele>271.48016</ele>
        <time>2023-04-14T11:35:35.000Z</time>
      </trkpt>
      <trkpt lat="45.84234" lon="4.69692">
        <ele>271.55467</ele>
        <time>2023-04-14T11:35:36.000Z</time>
      </trkpt>
      <trkpt lat="45.84238" lon="4.69691">
        <ele>271.65176</ele>
        <time>2023-04-14T11:35:37.000Z</time>
      </trkpt>
      <trkpt lat="45.84241" lon="4.6969">
        <ele>271.75392</ele>
        <time>2023-04-14T11:35:38.000Z</time>
      </trkpt>
      <trkpt lat="45.84244" lon="4.69689">
        <ele>271.86247</ele>
        <time>2023-04-14T11:35:39.000Z</time>
      </trkpt>
      <trkpt lat="45.84246" lon="4.69688">
        <ele>271.95735</ele>
        <time>2023-04-14T11:35:40.000Z</time>
      </trkpt>
      <trkpt lat="45.84249" lon="4.69686">
        <ele>272.09447</ele>
        <time>2023-04-14T11:35:41.000Z</time>
      </trkpt>
      <trkpt lat="45.84252" lon="4.69684">
        <ele>272.23831</ele>
        <time>2023-04-14T11:35:42.000Z</time>
      </trkpt>
      <trkpt lat="45.84256" lon="4.69682">
        <ele>272.34434</ele>
        <time>2023-04-14T11:35:43.000Z</time>
      </trkpt>
      <trkpt lat="45.8426" lon="4.69681">
        <ele>272.42039</ele>
        <time>2023-04-14T11:35:44.000Z</time>
      </trkpt>
      <trkpt lat="45.84264" lon="4.69679">
        <ele>272.45891</ele>
        <time>2023-04-14T11:35:45.000Z</time>
      </trkpt>
      <trkpt lat="45.84269" lon="4.69678">
        <ele>272.47296</ele>
        <time>2023-04-14T11:35:46.000Z</time>
      </trkpt>
      <trkpt lat="45.84273" lon="4.69676">
        <ele>272.46443</ele>
        <time>2023-04-14T11:35:47.000Z</time>
      </trkpt>
      <trkpt lat="45.84277" lon="4.69676">
        <ele>272.40362</ele>
        <time>2023-04-14T11:35:48.000Z</time>
      </trkpt>
      <trkpt lat="45.84282" lon="4.69675">
        <ele>272.32837</ele>
        <time>2023-04-14T11:35:49.000Z</time>
      </trkpt>
      <trkpt lat="45.84286" lon="4.69673">
        <ele>272.2511</ele>
        <time>2023-04-14T11:35:50.000Z</time>
      </trkpt>
      <trkpt lat="45.84291" lon="4.69671">
        <ele>272.15362</ele>
        <time>2023-04-14T11:35:51.000Z</time>
      </trkpt>
      <trkpt lat="45.84296" lon="4.69669">
        <ele>272.04648</ele>
        <time>2023-04-14T11:35:52.000Z</time>
      </trkpt>
      <trkpt lat="45.84302" lon="4.69667">
        <ele>271.88603</ele>
        <time>2023-04-14T11:35:53.000Z</time>
      </trkpt>
      <trkpt lat="45.84307" lon="4.69665">
        <ele>271.73332</ele>
        <time>2023-04-14T11:35:54.000Z</time>
      </trkpt>
      <trkpt lat="45.84312" lon="4.69664">
        <ele>271.54807</ele>
        <time>2023-04-14T11:35:55.000Z</time>
      </trkpt>
      <trkpt lat="45.84316" lon="4.69662">
        <ele>271.42421</ele>
        <time>2023-04-14T11:35:56.000Z</time>
      </trkpt>
      <trkpt lat="45.8432" lon="4.69661">
        <ele>271.29425</ele>
        <time>2023-04-14T11:35:57.000Z</time>
      </trkpt>
      <trkpt lat="45.84324" lon="4.69659">
        <ele>271.19024</ele>
        <time>2023-04-14T11:35:58.000Z</time>
      </trkpt>
      <trkpt lat="45.84327" lon="4.69657">
        <ele>271.09842</ele>
        <time>2023-04-14T11:35:59.000Z</time>
      </trkpt>
      <trkpt lat="45.84332" lon="4.69655">
        <ele>270.98097</ele>
        <time>2023-04-14T11:36:00.000Z</time>
      </trkpt>
      <trkpt lat="45.84336" lon="4.69652">
        <ele>270.88546</ele>
        <time>2023-04-14T11:36:01.000Z</time>
      </trkpt>
      <trkpt lat="45.8434" lon="4.6965">
        <ele>270.8168</ele>
        <time>2023-04-14T11:36:02.000Z</time>
      </trkpt>
      <trkpt lat="45.84344" lon="4.69648">
        <ele>270.75853</ele>
        <time>2023-04-14T11:36:03.000Z</time>
      </trkpt>
      <trkpt lat="45.84349" lon="4.69645">
        <ele>270.67778</ele>
        <time>2023-04-14T11:36:04.000Z</time>
      </trkpt>
      <trkpt lat="45.84354" lon="4.69643">
        <ele>270.59619</ele>
        <time>2023-04-14T11:36:05.000Z</time>
      </trkpt>
      <trkpt lat="45.84358" lon="4.69641">
        <ele>270.53959</ele>
        <time>2023-04-14T11:36:06.000Z</time>
      </trkpt>
      <trkpt lat="45.84362" lon="4.69639">
        <ele>270.48856</ele>
        <time>2023-04-14T11:36:07.000Z</time>
      </trkpt>
      <trkpt lat="45.84365" lon="4.69637">
        <ele>270.4466</ele>
        <time>2023-04-14T11:36:08.000Z</time>
      </trkpt>
      <trkpt lat="45.84369" lon="4.69634">
        <ele>270.42292</ele>
        <time>2023-04-14T11:36:09.000Z</time>
      </trkpt>
      <trkpt lat="45.84373" lon="4.69633">
        <ele>270.40015</ele>
        <time>2023-04-14T11:36:10.000Z</time>
      </trkpt>
      <trkpt lat="45.84377" lon="4.69631">
        <ele>270.38289</ele>
        <time>2023-04-14T11:36:11.000Z</time>
      </trkpt>
      <trkpt lat="45.8438" lon="4.69629">
        <ele>270.36132</ele>
        <time>2023-04-14T11:36:12.000Z</time>
      </trkpt>
      <trkpt lat="45.84383" lon="4.69627">
        <ele>270.33394</ele>
        <time>2023-04-14T11:36:13.000Z</time>
      </trkpt>
      <trkpt lat="45.84386" lon="4.69624">
        <ele>270.30352</ele>
        <time>2023-04-14T11:36:14.000Z</time>
      </trkpt>
      <trkpt lat="45.84387" lon="4.6962">
        <ele>270.27211</ele>
        <time>2023-04-14T11:36:15.000Z</time>
      </trkpt>
      <trkpt lat="45.84387" lon="4.69616">
        <ele>270.25398</ele>
        <time>2023-04-14T11:36:16.000Z</time>
      </trkpt>
      <trkpt lat="45.84386" lon="4.69611">
        <ele>270.244</ele>
        <time>2023-04-14T11:36:17.000Z</time>
      </trkpt>
      <trkpt lat="45.84385" lon="4.69606">
        <ele>270.22494</ele>
        <time>2023-04-14T11:36:18.000Z</time>
      </trkpt>
      <trkpt lat="45.84384" lon="4.69602">
        <ele>270.21107</ele>
        <time>2023-04-14T11:36:19.000Z</time>
      </trkpt>
      <trkpt lat="45.84383" lon="4.69596">
        <ele>270.17606</ele>
        <time>2023-04-14T11:36:20.000Z</time>
      </trkpt>
      <trkpt lat="45.84382" lon="4.6959">
        <ele>270.1364</ele>
        <time>2023-04-14T11:36:21.000Z</time>
      </trkpt>
      <trkpt lat="45.84381" lon="4.69584">
        <ele>270.1022</ele>
        <time>2023-04-14T11:36:22.000Z</time>
      </trkpt>
      <trkpt lat="45.8438" lon="4.69578">
        <ele>270.07795</ele>
        <time>2023-04-14T11:36:23.000Z</time>
      </trkpt>
      <trkpt lat="45.84379" lon="4.69572">
        <ele>270.04578</ele>
        <time>2023-04-14T11:36:24.000Z</time>
      </trkpt>
      <trkpt lat="45.84379" lon="4.69567">
        <ele>270.01423</ele>
        <time>2023-04-14T11:36:25.000Z</time>
      </trkpt>
      <trkpt lat="45.84378" lon="4.69562">
        <ele>269.99894</ele>
        <time>2023-04-14T11:36:26.000Z</time>
      </trkpt>
      <trkpt lat="45.84378" lon="4.69557">
        <ele>269.99032</ele>
        <time>2023-04-14T11:36:27.000Z</time>
      </trkpt>
      <trkpt lat="45.84378" lon="4.69553">
        <ele>269.97709</ele>
        <time>2023-04-14T11:36:28.000Z</time>
      </trkpt>
      <trkpt lat="45.84377" lon="4.69549">
        <ele>269.96689</ele>
        <time>2023-04-14T11:36:29.000Z</time>
      </trkpt>
      <trkpt lat="45.84377" lon="4.69546">
        <ele>269.97428</ele>
        <time>2023-04-14T11:36:30.000Z</time>
      </trkpt>
      <trkpt lat="45.84377" lon="4.69544">
        <ele>269.98067</ele>
        <time>2023-04-14T11:36:31.000Z</time>
      </trkpt>
      <trkpt lat="45.84377" lon="4.69539">
        <ele>269.94771</ele>
        <time>2023-04-14T11:36:33.000Z</time>
      </trkpt>
      <trkpt lat="45.84377" lon="4.69536">
        <ele>269.90108</ele>
        <time>2023-04-14T11:36:34.000Z</time>
      </trkpt>
      <trkpt lat="45.84378" lon="4.69533">
        <ele>269.78175</ele>
        <time>2023-04-14T11:36:35.000Z</time>
      </trkpt>
      <trkpt lat="45.84381" lon="4.69531">
        <ele>269.57026</ele>
        <time>2023-04-14T11:36:36.000Z</time>
      </trkpt>
      <trkpt lat="45.84384" lon="4.69529">
        <ele>269.27372</ele>
        <time>2023-04-14T11:36:37.000Z</time>
      </trkpt>
      <trkpt lat="45.84389" lon="4.69527">
        <ele>268.8979</ele>
        <time>2023-04-14T11:36:38.000Z</time>
      </trkpt>
      <trkpt lat="45.84394" lon="4.69527">
        <ele>268.51076</ele>
        <time>2023-04-14T11:36:39.000Z</time>
      </trkpt>
      <trkpt lat="45.84399" lon="4.69526">
        <ele>268.07501</ele>
        <time>2023-04-14T11:36:40.000Z</time>
      </trkpt>
      <trkpt lat="45.84404" lon="4.69525">
        <ele>267.65921</ele>
        <time>2023-04-14T11:36:41.000Z</time>
      </trkpt>
      <trkpt lat="45.8441" lon="4.69523">
        <ele>267.2597</ele>
        <time>2023-04-14T11:36:42.000Z</time>
      </trkpt>
      <trkpt lat="45.84415" lon="4.69521">
        <ele>266.90501</ele>
        <time>2023-04-14T11:36:43.000Z</time>
      </trkpt>
      <trkpt lat="45.8442" lon="4.69519">
        <ele>266.63775</ele>
        <time>2023-04-14T11:36:44.000Z</time>
      </trkpt>
      <trkpt lat="45.84424" lon="4.69518">
        <ele>266.40556</ele>
        <time>2023-04-14T11:36:45.000Z</time>
      </trkpt>
      <trkpt lat="45.84429" lon="4.69515">
        <ele>266.20144</ele>
        <time>2023-04-14T11:36:46.000Z</time>
      </trkpt>
      <trkpt lat="45.84434" lon="4.69513">
        <ele>265.95205</ele>
        <time>2023-04-14T11:36:47.000Z</time>
      </trkpt>
      <trkpt lat="45.84438" lon="4.69512">
        <ele>265.66105</ele>
        <time>2023-04-14T11:36:48.000Z</time>
      </trkpt>
      <trkpt lat="45.84443" lon="4.6951">
        <ele>265.36516</ele>
        <time>2023-04-14T11:36:49.000Z</time>
      </trkpt>
      <trkpt lat="45.84447" lon="4.69509">
        <ele>265.05019</ele>
        <time>2023-04-14T11:36:50.000Z</time>
      </trkpt>
      <trkpt lat="45.84452" lon="4.69507">
        <ele>264.73305</ele>
        <time>2023-04-14T11:36:51.000Z</time>
      </trkpt>
      <trkpt lat="45.84456" lon="4.69506">
        <ele>264.36396</ele>
        <time>2023-04-14T11:36:52.000Z</time>
      </trkpt>
      <trkpt lat="45.8446" lon="4.69505">
        <ele>264.02577</ele>
        <time>2023-04-14T11:36:53.000Z</time>
      </trkpt>
      <trkpt lat="45.84464" lon="4.69504">
        <ele>263.67726</ele>
        <time>2023-04-14T11:36:54.000Z</time>
      </trkpt>
      <trkpt lat="45.84468" lon="4.69503">
        <ele>263.33688</ele>
        <time>2023-04-14T11:36:55.000Z</time>
      </trkpt>
      <trkpt lat="45.84471" lon="4.69502">
        <ele>263.03612</ele>
        <time>2023-04-14T11:36:56.000Z</time>
      </trkpt>
      <trkpt lat="45.84475" lon="4.695">
        <ele>262.70507</ele>
        <time>2023-04-14T11:36:57.000Z</time>
      </trkpt>
      <trkpt lat="45.84477" lon="4.69499">
        <ele>262.54923</ele>
        <time>2023-04-14T11:36:58.000Z</time>
      </trkpt>
      <trkpt lat="45.84479" lon="4.69497">
        <ele>262.39613</ele>
        <time>2023-04-14T11:36:59.000Z</time>
      </trkpt>
      <trkpt lat="45.84481" lon="4.69495">
        <ele>262.26635</ele>
        <time>2023-04-14T11:37:00.000Z</time>
      </trkpt>
      <trkpt lat="45.84484" lon="4.69492">
        <ele>262.16768</ele>
        <time>2023-04-14T11:37:01.000Z</time>
      </trkpt>
      <trkpt lat="45.84485" lon="4.6949">
        <ele>262.12257</ele>
        <time>2023-04-14T11:37:02.000Z</time>
      </trkpt>
      <trkpt lat="45.84487" lon="4.69489">
        <ele>262.04703</ele>
        <time>2023-04-14T11:37:03.000Z</time>
      </trkpt>
      <trkpt lat="45.8449" lon="4.69487">
        <ele>261.9064</ele>
        <time>2023-04-14T11:37:04.000Z</time>
      </trkpt>
      <trkpt lat="45.84492" lon="4.69487">
        <ele>261.73566</ele>
        <time>2023-04-14T11:37:05.000Z</time>
      </trkpt>
      <trkpt lat="45.84495" lon="4.69487">
        <ele>261.61416</ele>
        <time>2023-04-14T11:37:06.000Z</time>
      </trkpt>
      <trkpt lat="45.84498" lon="4.69484">
        <ele>261.56549</ele>
        <time>2023-04-14T11:37:08.000Z</time>
      </trkpt>
      <trkpt lat="45.845" lon="4.69482">
        <ele>261.51644</ele>
        <time>2023-04-14T11:37:10.000Z</time>
      </trkpt>
      <trkpt lat="45.84502" lon="4.6948">
        <ele>261.46977</ele>
        <time>2023-04-14T11:37:12.000Z</time>
      </trkpt>
      <trkpt lat="45.84504" lon="4.69478">
        <ele>261.42835</ele>
        <time>2023-04-14T11:37:14.000Z</time>
      </trkpt>
      <trkpt lat="45.84505" lon="4.69476">
        <ele>261.40134</ele>
        <time>2023-04-14T11:37:16.000Z</time>
      </trkpt>
      <trkpt lat="45.84507" lon="4.69475">
        <ele>261.36942</ele>
        <time>2023-04-14T11:37:22.000Z</time>
      </trkpt>
      <trkpt lat="45.8451" lon="4.69474">
        <ele>261.32566</ele>
        <time>2023-04-14T11:37:33.000Z</time>
      </trkpt>
      <trkpt lat="45.84511" lon="4.69471">
        <ele>261.30861</ele>
        <time>2023-04-14T11:37:41.000Z</time>
      </trkpt>
      <trkpt lat="45.84513" lon="4.6947">
        <ele>261.26498</ele>
        <time>2023-04-14T11:37:48.000Z</time>
      </trkpt>
      <trkpt lat="45.84515" lon="4.69468">
        <ele>261.21866</ele>
        <time>2023-04-14T11:37:50.000Z</time>
      </trkpt>
      <trkpt lat="45.84519" lon="4.69465">
        <ele>261.14371</ele>
        <time>2023-04-14T11:37:52.000Z</time>
      </trkpt>
      <trkpt lat="45.84521" lon="4.69464">
        <ele>261.09843</ele>
        <time>2023-04-14T11:37:53.000Z</time>
      </trkpt>
      <trkpt lat="45.84523" lon="4.69462">
        <ele>261.04337</ele>
        <time>2023-04-14T11:37:54.000Z</time>
      </trkpt>
      <trkpt lat="45.84525" lon="4.6946">
        <ele>260.97336</ele>
        <time>2023-04-14T11:37:55.000Z</time>
      </trkpt>
      <trkpt lat="45.84527" lon="4.69459">
        <ele>260.91224</ele>
        <time>2023-04-14T11:37:56.000Z</time>
      </trkpt>
      <trkpt lat="45.8453" lon="4.69457">
        <ele>260.86051</ele>
        <time>2023-04-14T11:37:57.000Z</time>
      </trkpt>
      <trkpt lat="45.84532" lon="4.69455">
        <ele>260.80263</ele>
        <time>2023-04-14T11:37:58.000Z</time>
      </trkpt>
      <trkpt lat="45.84535" lon="4.69453">
        <ele>260.74735</ele>
        <time>2023-04-14T11:37:59.000Z</time>
      </trkpt>
      <trkpt lat="45.84537" lon="4.6945">
        <ele>260.694</ele>
        <time>2023-04-14T11:38:00.000Z</time>
      </trkpt>
      <trkpt lat="45.84538" lon="4.69448">
        <ele>260.64036</ele>
        <time>2023-04-14T11:38:01.000Z</time>
      </trkpt>
      <trkpt lat="45.8454" lon="4.69446">
        <ele>260.58919</ele>
        <time>2023-04-14T11:38:02.000Z</time>
      </trkpt>
      <trkpt lat="45.84542" lon="4.69445">
        <ele>260.5444</ele>
        <time>2023-04-14T11:38:03.000Z</time>
      </trkpt>
      <trkpt lat="45.84545" lon="4.69442">
        <ele>260.44354</ele>
        <time>2023-04-14T11:38:05.000Z</time>
      </trkpt>
      <trkpt lat="45.84548" lon="4.6944">
        <ele>260.31691</ele>
        <time>2023-04-14T11:38:07.000Z</time>
      </trkpt>
      <trkpt lat="45.8455" lon="4.69438">
        <ele>260.21938</ele>
        <time>2023-04-14T11:38:09.000Z</time>
      </trkpt>
      <trkpt lat="45.84552" lon="4.69437">
        <ele>260.13469</ele>
        <time>2023-04-14T11:38:16.000Z</time>
      </trkpt>
      <trkpt lat="45.84553" lon="4.69435">
        <ele>260.02689</ele>
        <time>2023-04-14T11:38:46.000Z</time>
      </trkpt>
      <trkpt lat="45.84556" lon="4.69433">
        <ele>259.8511</ele>
        <time>2023-04-14T11:38:48.000Z</time>
      </trkpt>
      <trkpt lat="45.84558" lon="4.69431">
        <ele>259.75639</ele>
        <time>2023-04-14T11:38:49.000Z</time>
      </trkpt>
      <trkpt lat="45.84559" lon="4.6943">
        <ele>259.66868</ele>
        <time>2023-04-14T11:38:50.000Z</time>
      </trkpt>
      <trkpt lat="45.84561" lon="4.69428">
        <ele>259.56716</ele>
        <time>2023-04-14T11:38:51.000Z</time>
      </trkpt>
      <trkpt lat="45.84562" lon="4.69426">
        <ele>259.46082</ele>
        <time>2023-04-14T11:38:52.000Z</time>
      </trkpt>
      <trkpt lat="45.84564" lon="4.69424">
        <ele>259.35232</ele>
        <time>2023-04-14T11:38:53.000Z</time>
      </trkpt>
      <trkpt lat="45.84567" lon="4.69422">
        <ele>259.19841</ele>
        <time>2023-04-14T11:38:55.000Z</time>
      </trkpt>
      <trkpt lat="45.84569" lon="4.69421">
        <ele>259.10201</ele>
        <time>2023-04-14T11:38:56.000Z</time>
      </trkpt>
      <trkpt lat="45.8457" lon="4.6942">
        <ele>259.02422</ele>
        <time>2023-04-14T11:38:57.000Z</time>
      </trkpt>
      <trkpt lat="45.84572" lon="4.69419">
        <ele>258.92259</ele>
        <time>2023-04-14T11:38:58.000Z</time>
      </trkpt>
      <trkpt lat="45.84575" lon="4.69417">
        <ele>258.77994</ele>
        <time>2023-04-14T11:38:59.000Z</time>
      </trkpt>
      <trkpt lat="45.84577" lon="4.69415">
        <ele>258.61015</ele>
        <time>2023-04-14T11:39:00.000Z</time>
      </trkpt>
      <trkpt lat="45.8458" lon="4.69413">
        <ele>258.44624</ele>
        <time>2023-04-14T11:39:01.000Z</time>
      </trkpt>
      <trkpt lat="45.84583" lon="4.69411">
        <ele>258.26481</ele>
        <time>2023-04-14T11:39:02.000Z</time>
      </trkpt>
      <trkpt lat="45.84586" lon="4.69409">
        <ele>258.04858</ele>
        <time>2023-04-14T11:39:03.000Z</time>
      </trkpt>
      <trkpt lat="45.84588" lon="4.69406">
        <ele>257.8561</ele>
        <time>2023-04-14T11:39:04.000Z</time>
      </trkpt>
      <trkpt lat="45.8459" lon="4.69403">
        <ele>257.63083</ele>
        <time>2023-04-14T11:39:05.000Z</time>
      </trkpt>
      <trkpt lat="45.84593" lon="4.69401">
        <ele>257.40349</ele>
        <time>2023-04-14T11:39:06.000Z</time>
      </trkpt>
      <trkpt lat="45.84595" lon="4.69397">
        <ele>257.16578</ele>
        <time>2023-04-14T11:39:07.000Z</time>
      </trkpt>
      <trkpt lat="45.84597" lon="4.69394">
        <ele>256.95412</ele>
        <time>2023-04-14T11:39:08.000Z</time>
      </trkpt>
      <trkpt lat="45.84599" lon="4.69391">
        <ele>256.72387</ele>
        <time>2023-04-14T11:39:09.000Z</time>
      </trkpt>
      <trkpt lat="45.84601" lon="4.69388">
        <ele>256.48743</ele>
        <time>2023-04-14T11:39:10.000Z</time>
      </trkpt>
      <trkpt lat="45.84604" lon="4.69386">
        <ele>256.26366</ele>
        <time>2023-04-14T11:39:11.000Z</time>
      </trkpt>
      <trkpt lat="45.84607" lon="4.69383">
        <ele>256.06216</ele>
        <time>2023-04-14T11:39:12.000Z</time>
      </trkpt>
      <trkpt lat="45.8461" lon="4.69381">
        <ele>255.8476</ele>
        <time>2023-04-14T11:39:13.000Z</time>
      </trkpt>
      <trkpt lat="45.84613" lon="4.69378">
        <ele>255.6828</ele>
        <time>2023-04-14T11:39:14.000Z</time>
      </trkpt>
      <trkpt lat="45.84616" lon="4.69376">
        <ele>255.542</ele>
        <time>2023-04-14T11:39:15.000Z</time>
      </trkpt>
      <trkpt lat="45.84619" lon="4.69372">
        <ele>255.42026</ele>
        <time>2023-04-14T11:39:16.000Z</time>
      </trkpt>
      <trkpt lat="45.84621" lon="4.6937">
        <ele>255.33453</ele>
        <time>2023-04-14T11:39:17.000Z</time>
      </trkpt>
      <trkpt lat="45.84623" lon="4.69367">
        <ele>255.24467</ele>
        <time>2023-04-14T11:39:18.000Z</time>
      </trkpt>
      <trkpt lat="45.84625" lon="4.69364">
        <ele>255.15007</ele>
        <time>2023-04-14T11:39:19.000Z</time>
      </trkpt>
      <trkpt lat="45.84628" lon="4.69361">
        <ele>255.07639</ele>
        <time>2023-04-14T11:39:20.000Z</time>
      </trkpt>
      <trkpt lat="45.8463" lon="4.69358">
        <ele>254.97052</ele>
        <time>2023-04-14T11:39:21.000Z</time>
      </trkpt>
      <trkpt lat="45.84631" lon="4.69355">
        <ele>254.84945</ele>
        <time>2023-04-14T11:39:22.000Z</time>
      </trkpt>
      <trkpt lat="45.84633" lon="4.69351">
        <ele>254.71292</ele>
        <time>2023-04-14T11:39:23.000Z</time>
      </trkpt>
      <trkpt lat="45.84635" lon="4.69347">
        <ele>254.54835</ele>
        <time>2023-04-14T11:39:24.000Z</time>
      </trkpt>
      <trkpt lat="45.84637" lon="4.69343">
        <ele>254.36832</ele>
        <time>2023-04-14T11:39:25.000Z</time>
      </trkpt>
      <trkpt lat="45.84638" lon="4.69338">
        <ele>254.18784</ele>
        <time>2023-04-14T11:39:26.000Z</time>
      </trkpt>
      <trkpt lat="45.84639" lon="4.69334">
        <ele>253.98</ele>
        <time>2023-04-14T11:39:27.000Z</time>
      </trkpt>
      <trkpt lat="45.8464" lon="4.6933">
        <ele>253.77459</ele>
        <time>2023-04-14T11:39:28.000Z</time>
      </trkpt>
      <trkpt lat="45.84641" lon="4.69325">
        <ele>253.56647</ele>
        <time>2023-04-14T11:39:29.000Z</time>
      </trkpt>
      <trkpt lat="45.84643" lon="4.69321">
        <ele>253.33239</ele>
        <time>2023-04-14T11:39:30.000Z</time>
      </trkpt>
      <trkpt lat="45.84644" lon="4.69317">
        <ele>253.0957</ele>
        <time>2023-04-14T11:39:31.000Z</time>
      </trkpt>
      <trkpt lat="45.84645" lon="4.69313">
        <ele>252.88667</ele>
        <time>2023-04-14T11:39:32.000Z</time>
      </trkpt>
      <trkpt lat="45.84646" lon="4.69309">
        <ele>252.68055</ele>
        <time>2023-04-14T11:39:33.000Z</time>
      </trkpt>
      <trkpt lat="45.84647" lon="4.69305">
        <ele>252.40637</ele>
        <time>2023-04-14T11:39:34.000Z</time>
      </trkpt>
      <trkpt lat="45.84647" lon="4.69301">
        <ele>252.13506</ele>
        <time>2023-04-14T11:39:35.000Z</time>
      </trkpt>
      <trkpt lat="45.84648" lon="4.69297">
        <ele>251.86313</ele>
        <time>2023-04-14T11:39:36.000Z</time>
      </trkpt>
      <trkpt lat="45.84649" lon="4.69292">
        <ele>251.53587</ele>
        <time>2023-04-14T11:39:37.000Z</time>
      </trkpt>
      <trkpt lat="45.8465" lon="4.69286">
        <ele>251.12774</ele>
        <time>2023-04-14T11:39:38.000Z</time>
      </trkpt>
      <trkpt lat="45.84651" lon="4.69281">
        <ele>250.70566</ele>
        <time>2023-04-14T11:39:39.000Z</time>
      </trkpt>
      <trkpt lat="45.84651" lon="4.69275">
        <ele>250.17596</ele>
        <time>2023-04-14T11:39:40.000Z</time>
      </trkpt>
      <trkpt lat="45.84652" lon="4.69269">
        <ele>249.65026</ele>
        <time>2023-04-14T11:39:41.000Z</time>
      </trkpt>
      <trkpt lat="45.84653" lon="4.69263">
        <ele>249.16008</ele>
        <time>2023-04-14T11:39:42.000Z</time>
      </trkpt>
      <trkpt lat="45.84655" lon="4.69258">
        <ele>248.703</ele>
        <time>2023-04-14T11:39:43.000Z</time>
      </trkpt>
      <trkpt lat="45.84656" lon="4.69253">
        <ele>248.18772</ele>
        <time>2023-04-14T11:39:44.000Z</time>
      </trkpt>
      <trkpt lat="45.84656" lon="4.69249">
        <ele>247.71535</ele>
        <time>2023-04-14T11:39:45.000Z</time>
      </trkpt>
      <trkpt lat="45.84657" lon="4.69244">
        <ele>247.20898</ele>
        <time>2023-04-14T11:39:46.000Z</time>
      </trkpt>
      <trkpt lat="45.84658" lon="4.6924">
        <ele>246.74175</ele>
        <time>2023-04-14T11:39:47.000Z</time>
      </trkpt>
      <trkpt lat="45.84659" lon="4.69236">
        <ele>246.35361</ele>
        <time>2023-04-14T11:39:48.000Z</time>
      </trkpt>
      <trkpt lat="45.8466" lon="4.69232">
        <ele>245.97761</ele>
        <time>2023-04-14T11:39:49.000Z</time>
      </trkpt>
      <trkpt lat="45.84661" lon="4.69228">
        <ele>245.60257</ele>
        <time>2023-04-14T11:39:50.000Z</time>
      </trkpt>
      <trkpt lat="45.84662" lon="4.69224">
        <ele>245.28731</ele>
        <time>2023-04-14T11:39:51.000Z</time>
      </trkpt>
      <trkpt lat="45.84663" lon="4.6922">
        <ele>244.99967</ele>
        <time>2023-04-14T11:39:52.000Z</time>
      </trkpt>
      <trkpt lat="45.84664" lon="4.69217">
        <ele>244.78818</ele>
        <time>2023-04-14T11:39:53.000Z</time>
      </trkpt>
      <trkpt lat="45.84665" lon="4.69213">
        <ele>244.60115</ele>
        <time>2023-04-14T11:39:54.000Z</time>
      </trkpt>
      <trkpt lat="45.84666" lon="4.69209">
        <ele>244.39819</ele>
        <time>2023-04-14T11:39:55.000Z</time>
      </trkpt>
      <trkpt lat="45.84666" lon="4.69205">
        <ele>244.15917</ele>
        <time>2023-04-14T11:39:56.000Z</time>
      </trkpt>
      <trkpt lat="45.84667" lon="4.69201">
        <ele>243.87299</ele>
        <time>2023-04-14T11:39:57.000Z</time>
      </trkpt>
      <trkpt lat="45.84667" lon="4.69197">
        <ele>243.53053</ele>
        <time>2023-04-14T11:39:58.000Z</time>
      </trkpt>
      <trkpt lat="45.84668" lon="4.69193">
        <ele>243.11341</ele>
        <time>2023-04-14T11:39:59.000Z</time>
      </trkpt>
      <trkpt lat="45.84668" lon="4.69189">
        <ele>242.65024</ele>
        <time>2023-04-14T11:40:00.000Z</time>
      </trkpt>
      <trkpt lat="45.84669" lon="4.69184">
        <ele>242.08109</ele>
        <time>2023-04-14T11:40:01.000Z</time>
      </trkpt>
      <trkpt lat="45.84668" lon="4.69179">
        <ele>241.37156</ele>
        <time>2023-04-14T11:40:02.000Z</time>
      </trkpt>
      <trkpt lat="45.84668" lon="4.69174">
        <ele>240.68851</ele>
        <time>2023-04-14T11:40:03.000Z</time>
      </trkpt>
      <trkpt lat="45.84668" lon="4.6917">
        <ele>240.0761</ele>
        <time>2023-04-14T11:40:04.000Z</time>
      </trkpt>
      <trkpt lat="45.84668" lon="4.69165">
        <ele>239.50825</ele>
        <time>2023-04-14T11:40:05.000Z</time>
      </trkpt>
      <trkpt lat="45.84668" lon="4.6916">
        <ele>238.97909</ele>
        <time>2023-04-14T11:40:06.000Z</time>
      </trkpt>
      <trkpt lat="45.84668" lon="4.69156">
        <ele>238.48253</ele>
        <time>2023-04-14T11:40:07.000Z</time>
      </trkpt>
      <trkpt lat="45.84668" lon="4.69151">
        <ele>238.004</ele>
        <time>2023-04-14T11:40:08.000Z</time>
      </trkpt>
      <trkpt lat="45.84668" lon="4.69146">
        <ele>237.53927</ele>
        <time>2023-04-14T11:40:09.000Z</time>
      </trkpt>
      <trkpt lat="45.84668" lon="4.69141">
        <ele>237.11158</ele>
        <time>2023-04-14T11:40:10.000Z</time>
      </trkpt>
      <trkpt lat="45.84667" lon="4.69136">
        <ele>236.69123</ele>
        <time>2023-04-14T11:40:11.000Z</time>
      </trkpt>
      <trkpt lat="45.84667" lon="4.69131">
        <ele>236.29319</ele>
        <time>2023-04-14T11:40:12.000Z</time>
      </trkpt>
      <trkpt lat="45.84667" lon="4.69126">
        <ele>235.95048</ele>
        <time>2023-04-14T11:40:13.000Z</time>
      </trkpt>
      <trkpt lat="45.84667" lon="4.69121">
        <ele>235.77359</ele>
        <time>2023-04-14T11:40:14.000Z</time>
      </trkpt>
      <trkpt lat="45.84667" lon="4.69115">
        <ele>235.64288</ele>
        <time>2023-04-14T11:40:15.000Z</time>
      </trkpt>
      <trkpt lat="45.84667" lon="4.69109">
        <ele>235.50651</ele>
        <time>2023-04-14T11:40:16.000Z</time>
      </trkpt>
      <trkpt lat="45.84667" lon="4.69104">
        <ele>235.27714</ele>
        <time>2023-04-14T11:40:17.000Z</time>
      </trkpt>
      <trkpt lat="45.84667" lon="4.69098">
        <ele>234.93404</ele>
        <time>2023-04-14T11:40:18.000Z</time>
      </trkpt>
      <trkpt lat="45.84668" lon="4.69093">
        <ele>234.5665</ele>
        <time>2023-04-14T11:40:19.000Z</time>
      </trkpt>
      <trkpt lat="45.84668" lon="4.69088">
        <ele>234.14508</ele>
        <time>2023-04-14T11:40:20.000Z</time>
      </trkpt>
      <trkpt lat="45.84669" lon="4.69083">
        <ele>233.6826</ele>
        <time>2023-04-14T11:40:21.000Z</time>
      </trkpt>
      <trkpt lat="45.8467" lon="4.69078">
        <ele>233.11731</ele>
        <time>2023-04-14T11:40:22.000Z</time>
      </trkpt>
      <trkpt lat="45.84671" lon="4.69072">
        <ele>232.47058</ele>
        <time>2023-04-14T11:40:23.000Z</time>
      </trkpt>
      <trkpt lat="45.84674" lon="4.69067">
        <ele>231.82699</ele>
        <time>2023-04-14T11:40:24.000Z</time>
      </trkpt>
      <trkpt lat="45.84677" lon="4.69062">
        <ele>231.06914</ele>
        <time>2023-04-14T11:40:25.000Z</time>
      </trkpt>
      <trkpt lat="45.8468" lon="4.69057">
        <ele>230.1837</ele>
        <time>2023-04-14T11:40:26.000Z</time>
      </trkpt>
      <trkpt lat="45.84684" lon="4.69053">
        <ele>229.53661</ele>
        <time>2023-04-14T11:40:27.000Z</time>
      </trkpt>
      <trkpt lat="45.84688" lon="4.69049">
        <ele>228.95845</ele>
        <time>2023-04-14T11:40:28.000Z</time>
      </trkpt>
      <trkpt lat="45.84692" lon="4.69044">
        <ele>228.48866</ele>
        <time>2023-04-14T11:40:29.000Z</time>
      </trkpt>
      <trkpt lat="45.84697" lon="4.69041">
        <ele>228.35461</ele>
        <time>2023-04-14T11:40:30.000Z</time>
      </trkpt>
      <trkpt lat="45.84702" lon="4.69038">
        <ele>228.16219</ele>
        <time>2023-04-14T11:40:31.000Z</time>
      </trkpt>
      <trkpt lat="45.84707" lon="4.69036">
        <ele>228.0926</ele>
        <time>2023-04-14T11:40:32.000Z</time>
      </trkpt>
      <trkpt lat="45.84713" lon="4.69034">
        <ele>227.94586</ele>
        <time>2023-04-14T11:40:33.000Z</time>
      </trkpt>
      <trkpt lat="45.84718" lon="4.69032">
        <ele>227.58395</ele>
        <time>2023-04-14T11:40:34.000Z</time>
      </trkpt>
      <trkpt lat="45.84723" lon="4.69029">
        <ele>227.03937</ele>
        <time>2023-04-14T11:40:35.000Z</time>
      </trkpt>
      <trkpt lat="45.84729" lon="4.69027">
        <ele>226.63085</ele>
        <time>2023-04-14T11:40:36.000Z</time>
      </trkpt>
      <trkpt lat="45.84734" lon="4.69025">
        <ele>226.2264</ele>
        <time>2023-04-14T11:40:37.000Z</time>
      </trkpt>
      <trkpt lat="45.84739" lon="4.69022">
        <ele>225.8844</ele>
        <time>2023-04-14T11:40:38.000Z</time>
      </trkpt>
      <trkpt lat="45.84743" lon="4.69018">
        <ele>225.50186</ele>
        <time>2023-04-14T11:40:39.000Z</time>
      </trkpt>
      <trkpt lat="45.84748" lon="4.69014">
        <ele>225.03125</ele>
        <time>2023-04-14T11:40:40.000Z</time>
      </trkpt>
      <trkpt lat="45.84753" lon="4.6901">
        <ele>224.59616</ele>
        <time>2023-04-14T11:40:41.000Z</time>
      </trkpt>
      <trkpt lat="45.84758" lon="4.69005">
        <ele>224.07666</ele>
        <time>2023-04-14T11:40:42.000Z</time>
      </trkpt>
      <trkpt lat="45.84762" lon="4.69">
        <ele>223.67216</ele>
        <time>2023-04-14T11:40:43.000Z</time>
      </trkpt>
      <trkpt lat="45.84767" lon="4.68996">
        <ele>223.28568</ele>
        <time>2023-04-14T11:40:44.000Z</time>
      </trkpt>
      <trkpt lat="45.84772" lon="4.68992">
        <ele>222.9188</ele>
        <time>2023-04-14T11:40:45.000Z</time>
      </trkpt>
      <trkpt lat="45.84776" lon="4.68987">
        <ele>222.44085</ele>
        <time>2023-04-14T11:40:46.000Z</time>
      </trkpt>
      <trkpt lat="45.8478" lon="4.68982">
        <ele>221.83459</ele>
        <time>2023-04-14T11:40:47.000Z</time>
      </trkpt>
      <trkpt lat="45.84785" lon="4.68977">
        <ele>221.28491</ele>
        <time>2023-04-14T11:40:48.000Z</time>
      </trkpt>
      <trkpt lat="45.8479" lon="4.68972">
        <ele>220.85749</ele>
        <time>2023-04-14T11:40:49.000Z</time>
      </trkpt>
      <trkpt lat="45.84795" lon="4.68968">
        <ele>220.47427</ele>
        <time>2023-04-14T11:40:50.000Z</time>
      </trkpt>
      <trkpt lat="45.848" lon="4.68964">
        <ele>220.18343</ele>
        <time>2023-04-14T11:40:51.000Z</time>
      </trkpt>
      <trkpt lat="45.84805" lon="4.6896">
        <ele>219.83804</ele>
        <time>2023-04-14T11:40:52.000Z</time>
      </trkpt>
      <trkpt lat="45.8481" lon="4.68956">
        <ele>219.3527</ele>
        <time>2023-04-14T11:40:53.000Z</time>
      </trkpt>
      <trkpt lat="45.84814" lon="4.68953">
        <ele>218.89143</ele>
        <time>2023-04-14T11:40:54.000Z</time>
      </trkpt>
      <trkpt lat="45.84818" lon="4.6895">
        <ele>218.41323</ele>
        <time>2023-04-14T11:40:55.000Z</time>
      </trkpt>
      <trkpt lat="45.84823" lon="4.68946">
        <ele>217.92562</ele>
        <time>2023-04-14T11:40:56.000Z</time>
      </trkpt>
      <trkpt lat="45.84827" lon="4.68942">
        <ele>217.54171</ele>
        <time>2023-04-14T11:40:57.000Z</time>
      </trkpt>
      <trkpt lat="45.84831" lon="4.68939">
        <ele>217.2613</ele>
        <time>2023-04-14T11:40:58.000Z</time>
      </trkpt>
      <trkpt lat="45.84835" lon="4.68935">
        <ele>217.04057</ele>
        <time>2023-04-14T11:40:59.000Z</time>
      </trkpt>
      <trkpt lat="45.8484" lon="4.6893">
        <ele>216.85908</ele>
        <time>2023-04-14T11:41:00.000Z</time>
      </trkpt>
      <trkpt lat="45.84845" lon="4.68926">
        <ele>216.77858</ele>
        <time>2023-04-14T11:41:01.000Z</time>
      </trkpt>
      <trkpt lat="45.8485" lon="4.68923">
        <ele>216.68952</ele>
        <time>2023-04-14T11:41:02.000Z</time>
      </trkpt>
      <trkpt lat="45.84854" lon="4.6892">
        <ele>216.59124</ele>
        <time>2023-04-14T11:41:03.000Z</time>
      </trkpt>
      <trkpt lat="45.84858" lon="4.68916">
        <ele>216.40344</ele>
        <time>2023-04-14T11:41:04.000Z</time>
      </trkpt>
      <trkpt lat="45.84863" lon="4.68913">
        <ele>216.2045</ele>
        <time>2023-04-14T11:41:05.000Z</time>
      </trkpt>
      <trkpt lat="45.84867" lon="4.68911">
        <ele>215.98643</ele>
        <time>2023-04-14T11:41:06.000Z</time>
      </trkpt>
      <trkpt lat="45.84871" lon="4.68909">
        <ele>215.69691</ele>
        <time>2023-04-14T11:41:07.000Z</time>
      </trkpt>
      <trkpt lat="45.84875" lon="4.68906">
        <ele>215.36875</ele>
        <time>2023-04-14T11:41:08.000Z</time>
      </trkpt>
      <trkpt lat="45.84879" lon="4.68903">
        <ele>215.15637</ele>
        <time>2023-04-14T11:41:09.000Z</time>
      </trkpt>
      <trkpt lat="45.84882" lon="4.689">
        <ele>215.04311</ele>
        <time>2023-04-14T11:41:10.000Z</time>
      </trkpt>
      <trkpt lat="45.84885" lon="4.68898">
        <ele>214.99723</ele>
        <time>2023-04-14T11:41:11.000Z</time>
      </trkpt>
      <trkpt lat="45.84888" lon="4.68896">
        <ele>214.9864</ele>
        <time>2023-04-14T11:41:12.000Z</time>
      </trkpt>
      <trkpt lat="45.84891" lon="4.68895">
        <ele>215.03416</ele>
        <time>2023-04-14T11:41:13.000Z</time>
      </trkpt>
      <trkpt lat="45.84893" lon="4.68896">
        <ele>215.07342</ele>
        <time>2023-04-14T11:41:14.000Z</time>
      </trkpt>
      <trkpt lat="45.84895" lon="4.68899">
        <ele>215.13259</ele>
        <time>2023-04-14T11:41:16.000Z</time>
      </trkpt>
      <trkpt lat="45.84898" lon="4.68902">
        <ele>214.96229</ele>
        <time>2023-04-14T11:41:18.000Z</time>
      </trkpt>
      <trkpt lat="45.849" lon="4.689">
        <ele>214.64237</ele>
        <time>2023-04-14T11:41:20.000Z</time>
      </trkpt>
      <trkpt lat="45.849" lon="4.689">
        <ele>214.64237</ele>
        <time>2023-04-14T11:41:20.000Z</time>
      </trkpt>
      <trkpt lat="45.849" lon="4.68897">
        <ele>214.66776</ele>
        <time>2023-04-14T11:41:21.000Z</time>
      </trkpt>
      <trkpt lat="45.849" lon="4.68893">
        <ele>214.6792</ele>
        <time>2023-04-14T11:41:22.000Z</time>
      </trkpt>
      <trkpt lat="45.84901" lon="4.6889">
        <ele>214.62041</ele>
        <time>2023-04-14T11:41:23.000Z</time>
      </trkpt>
      <trkpt lat="45.84904" lon="4.68887">
        <ele>214.5315</ele>
        <time>2023-04-14T11:41:24.000Z</time>
      </trkpt>
      <trkpt lat="45.84906" lon="4.68883">
        <ele>214.44329</ele>
        <time>2023-04-14T11:41:25.000Z</time>
      </trkpt>
      <trkpt lat="45.84908" lon="4.68879">
        <ele>214.28659</ele>
        <time>2023-04-14T11:41:26.000Z</time>
      </trkpt>
      <trkpt lat="45.84912" lon="4.68876">
        <ele>214.06414</ele>
        <time>2023-04-14T11:41:27.000Z</time>
      </trkpt>
      <trkpt lat="45.84915" lon="4.68872">
        <ele>213.80076</ele>
        <time>2023-04-14T11:41:28.000Z</time>
      </trkpt>
      <trkpt lat="45.84919" lon="4.68869">
        <ele>213.49695</ele>
        <time>2023-04-14T11:41:29.000Z</time>
      </trkpt>
      <trkpt lat="45.84924" lon="4.68866">
        <ele>213.20607</ele>
        <time>2023-04-14T11:41:30.000Z</time>
      </trkpt>
      <trkpt lat="45.84928" lon="4.68863">
        <ele>213.1794</ele>
        <time>2023-04-14T11:41:31.000Z</time>
      </trkpt>
      <trkpt lat="45.84932" lon="4.68859">
        <ele>213.46956</ele>
        <time>2023-04-14T11:41:32.000Z</time>
      </trkpt>
      <trkpt lat="45.84936" lon="4.68855">
        <ele>213.7836</ele>
        <time>2023-04-14T11:41:33.000Z</time>
      </trkpt>
      <trkpt lat="45.8494" lon="4.68852">
        <ele>213.87677</ele>
        <time>2023-04-14T11:41:34.000Z</time>
      </trkpt>
      <trkpt lat="45.84944" lon="4.68848">
        <ele>213.50981</ele>
        <time>2023-04-14T11:41:35.000Z</time>
      </trkpt>
      <trkpt lat="45.84949" lon="4.68844">
        <ele>212.82315</ele>
        <time>2023-04-14T11:41:36.000Z</time>
      </trkpt>
      <trkpt lat="45.84953" lon="4.68841">
        <ele>212.2821</ele>
        <time>2023-04-14T11:41:37.000Z</time>
      </trkpt>
      <trkpt lat="45.84957" lon="4.68836">
        <ele>212.24673</ele>
        <time>2023-04-14T11:41:38.000Z</time>
      </trkpt>
      <trkpt lat="45.84961" lon="4.68832">
        <ele>212.58753</ele>
        <time>2023-04-14T11:41:39.000Z</time>
      </trkpt>
      <trkpt lat="45.84965" lon="4.68828">
        <ele>213.09075</ele>
        <time>2023-04-14T11:41:40.000Z</time>
      </trkpt>
      <trkpt lat="45.84969" lon="4.68824">
        <ele>213.17563</ele>
        <time>2023-04-14T11:41:41.000Z</time>
      </trkpt>
      <trkpt lat="45.84973" lon="4.68819">
        <ele>212.9739</ele>
        <time>2023-04-14T11:41:42.000Z</time>
      </trkpt>
      <trkpt lat="45.84977" lon="4.68814">
        <ele>212.55426</ele>
        <time>2023-04-14T11:41:43.000Z</time>
      </trkpt>
      <trkpt lat="45.84981" lon="4.68809">
        <ele>212.48578</ele>
        <time>2023-04-14T11:41:44.000Z</time>
      </trkpt>
      <trkpt lat="45.84985" lon="4.68804">
        <ele>212.98844</ele>
        <time>2023-04-14T11:41:45.000Z</time>
      </trkpt>
      <trkpt lat="45.84989" lon="4.68798">
        <ele>213.8055</ele>
        <time>2023-04-14T11:41:46.000Z</time>
      </trkpt>
      <trkpt lat="45.84993" lon="4.68793">
        <ele>214.4538</ele>
        <time>2023-04-14T11:41:47.000Z</time>
      </trkpt>
      <trkpt lat="45.84996" lon="4.68787">
        <ele>214.80285</ele>
        <time>2023-04-14T11:41:48.000Z</time>
      </trkpt>
      <trkpt lat="45.85" lon="4.68781">
        <ele>214.83891</ele>
        <time>2023-04-14T11:41:49.000Z</time>
      </trkpt>
      <trkpt lat="45.85003" lon="4.68775">
        <ele>214.78387</ele>
        <time>2023-04-14T11:41:50.000Z</time>
      </trkpt>
      <trkpt lat="45.85006" lon="4.68769">
        <ele>214.87883</ele>
        <time>2023-04-14T11:41:51.000Z</time>
      </trkpt>
      <trkpt lat="45.85009" lon="4.68764">
        <ele>215.18823</ele>
        <time>2023-04-14T11:41:52.000Z</time>
      </trkpt>
      <trkpt lat="45.85012" lon="4.68758">
        <ele>215.6958</ele>
        <time>2023-04-14T11:41:53.000Z</time>
      </trkpt>
      <trkpt lat="45.85014" lon="4.68751">
        <ele>216.57484</ele>
        <time>2023-04-14T11:41:54.000Z</time>
      </trkpt>
      <trkpt lat="45.85017" lon="4.68745">
        <ele>217.52319</ele>
        <time>2023-04-14T11:41:55.000Z</time>
      </trkpt>
      <trkpt lat="45.85019" lon="4.68739">
        <ele>218.39741</ele>
        <time>2023-04-14T11:41:56.000Z</time>
      </trkpt>
      <trkpt lat="45.85022" lon="4.68734">
        <ele>219.05464</ele>
        <time>2023-04-14T11:41:57.000Z</time>
      </trkpt>
      <trkpt lat="45.85024" lon="4.68728">
        <ele>219.49621</ele>
        <time>2023-04-14T11:41:58.000Z</time>
      </trkpt>
      <trkpt lat="45.85027" lon="4.68723">
        <ele>219.62125</ele>
        <time>2023-04-14T11:41:59.000Z</time>
      </trkpt>
      <trkpt lat="45.85029" lon="4.68717">
        <ele>219.33092</ele>
        <time>2023-04-14T11:42:00.000Z</time>
      </trkpt>
      <trkpt lat="45.85031" lon="4.68711">
        <ele>218.8096</ele>
        <time>2023-04-14T11:42:01.000Z</time>
      </trkpt>
      <trkpt lat="45.85033" lon="4.68706">
        <ele>218.2724</ele>
        <time>2023-04-14T11:42:02.000Z</time>
      </trkpt>
      <trkpt lat="45.85036" lon="4.687">
        <ele>217.87317</ele>
        <time>2023-04-14T11:42:03.000Z</time>
      </trkpt>
      <trkpt lat="45.85038" lon="4.68695">
        <ele>217.77496</ele>
        <time>2023-04-14T11:42:04.000Z</time>
      </trkpt>
      <trkpt lat="45.8504" lon="4.6869">
        <ele>218.00262</ele>
        <time>2023-04-14T11:42:05.000Z</time>
      </trkpt>
      <trkpt lat="45.85042" lon="4.68685">
        <ele>218.37783</ele>
        <time>2023-04-14T11:42:06.000Z</time>
      </trkpt>
      <trkpt lat="45.85043" lon="4.68681">
        <ele>218.72557</ele>
        <time>2023-04-14T11:42:07.000Z</time>
      </trkpt>
      <trkpt lat="45.85045" lon="4.68678">
        <ele>218.98354</ele>
        <time>2023-04-14T11:42:08.000Z</time>
      </trkpt>
      <trkpt lat="45.85046" lon="4.68674">
        <ele>219.16257</ele>
        <time>2023-04-14T11:42:09.000Z</time>
      </trkpt>
      <trkpt lat="45.85046" lon="4.68671">
        <ele>219.27244</ele>
        <time>2023-04-14T11:42:10.000Z</time>
      </trkpt>
      <trkpt lat="45.85044" lon="4.68669">
        <ele>219.4041</ele>
        <time>2023-04-14T11:42:11.000Z</time>
      </trkpt>
      <trkpt lat="45.85041" lon="4.68668">
        <ele>219.56965</ele>
        <time>2023-04-14T11:42:12.000Z</time>
      </trkpt>
      <trkpt lat="45.85037" lon="4.68669">
        <ele>219.59039</ele>
        <time>2023-04-14T11:42:13.000Z</time>
      </trkpt>
      <trkpt lat="45.85034" lon="4.6867">
        <ele>219.51032</ele>
        <time>2023-04-14T11:42:14.000Z</time>
      </trkpt>
      <trkpt lat="45.8503" lon="4.68671">
        <ele>219.44297</ele>
        <time>2023-04-14T11:42:15.000Z</time>
      </trkpt>
      <trkpt lat="45.85027" lon="4.68672">
        <ele>219.51095</ele>
        <time>2023-04-14T11:42:16.000Z</time>
      </trkpt>
      <trkpt lat="45.85024" lon="4.68671">
        <ele>219.76699</ele>
        <time>2023-04-14T11:42:17.000Z</time>
      </trkpt>
      <trkpt lat="45.85021" lon="4.68671">
        <ele>220.09784</ele>
        <time>2023-04-14T11:42:18.000Z</time>
      </trkpt>
      <trkpt lat="45.85017" lon="4.6867">
        <ele>220.38844</ele>
        <time>2023-04-14T11:42:19.000Z</time>
      </trkpt>
      <trkpt lat="45.85014" lon="4.68669">
        <ele>220.61935</ele>
        <time>2023-04-14T11:42:20.000Z</time>
      </trkpt>
      <trkpt lat="45.85011" lon="4.68669">
        <ele>220.77789</ele>
        <time>2023-04-14T11:42:21.000Z</time>
      </trkpt>
      <trkpt lat="45.85008" lon="4.68668">
        <ele>220.90328</ele>
        <time>2023-04-14T11:42:22.000Z</time>
      </trkpt>
      <trkpt lat="45.85005" lon="4.68667">
        <ele>220.97213</ele>
        <time>2023-04-14T11:42:23.000Z</time>
      </trkpt>
      <trkpt lat="45.85002" lon="4.68667">
        <ele>220.94472</ele>
        <time>2023-04-14T11:42:24.000Z</time>
      </trkpt>
      <trkpt lat="45.84999" lon="4.68667">
        <ele>220.91001</ele>
        <time>2023-04-14T11:42:25.000Z</time>
      </trkpt>
      <trkpt lat="45.84996" lon="4.68666">
        <ele>220.86563</ele>
        <time>2023-04-14T11:42:26.000Z</time>
      </trkpt>
      <trkpt lat="45.84993" lon="4.68665">
        <ele>220.82142</ele>
        <time>2023-04-14T11:42:27.000Z</time>
      </trkpt>
      <trkpt lat="45.8499" lon="4.68665">
        <ele>220.74908</ele>
        <time>2023-04-14T11:42:28.000Z</time>
      </trkpt>
      <trkpt lat="45.84987" lon="4.68665">
        <ele>220.67671</ele>
        <time>2023-04-14T11:42:29.000Z</time>
      </trkpt>
      <trkpt lat="45.84984" lon="4.68664">
        <ele>220.62724</ele>
        <time>2023-04-14T11:42:30.000Z</time>
      </trkpt>
      <trkpt lat="45.84981" lon="4.68664">
        <ele>220.55495</ele>
        <time>2023-04-14T11:42:31.000Z</time>
      </trkpt>
      <trkpt lat="45.84979" lon="4.68665">
        <ele>220.46638</ele>
        <time>2023-04-14T11:42:32.000Z</time>
      </trkpt>
      <trkpt lat="45.84976" lon="4.68665">
        <ele>220.39365</ele>
        <time>2023-04-14T11:42:33.000Z</time>
      </trkpt>
      <trkpt lat="45.84973" lon="4.68665">
        <ele>220.31145</ele>
        <time>2023-04-14T11:42:34.000Z</time>
      </trkpt>
      <trkpt lat="45.84969" lon="4.68665">
        <ele>220.18267</ele>
        <time>2023-04-14T11:42:35.000Z</time>
      </trkpt>
      <trkpt lat="45.84964" lon="4.68665">
        <ele>219.98325</ele>
        <time>2023-04-14T11:42:36.000Z</time>
      </trkpt>
      <trkpt lat="45.84959" lon="4.68666">
        <ele>219.72249</ele>
        <time>2023-04-14T11:42:37.000Z</time>
      </trkpt>
      <trkpt lat="45.84954" lon="4.68666">
        <ele>219.44332</ele>
        <time>2023-04-14T11:42:38.000Z</time>
      </trkpt>
      <trkpt lat="45.84949" lon="4.68666">
        <ele>219.15984</ele>
        <time>2023-04-14T11:42:39.000Z</time>
      </trkpt>
      <trkpt lat="45.84944" lon="4.68665">
        <ele>218.94384</ele>
        <time>2023-04-14T11:42:40.000Z</time>
      </trkpt>
      <trkpt lat="45.84938" lon="4.68665">
        <ele>218.71099</ele>
        <time>2023-04-14T11:42:41.000Z</time>
      </trkpt>
      <trkpt lat="45.84932" lon="4.68665">
        <ele>218.59106</ele>
        <time>2023-04-14T11:42:42.000Z</time>
      </trkpt>
      <trkpt lat="45.84927" lon="4.68665">
        <ele>218.4652</ele>
        <time>2023-04-14T11:42:43.000Z</time>
      </trkpt>
      <trkpt lat="45.84921" lon="4.68665">
        <ele>218.32151</ele>
        <time>2023-04-14T11:42:44.000Z</time>
      </trkpt>
      <trkpt lat="45.84915" lon="4.68664">
        <ele>218.18159</ele>
        <time>2023-04-14T11:42:45.000Z</time>
      </trkpt>
      <trkpt lat="45.84909" lon="4.68664">
        <ele>217.97514</ele>
        <time>2023-04-14T11:42:46.000Z</time>
      </trkpt>
      <trkpt lat="45.84903" lon="4.68664">
        <ele>217.76308</ele>
        <time>2023-04-14T11:42:47.000Z</time>
      </trkpt>
      <trkpt lat="45.84896" lon="4.68664">
        <ele>217.4973</ele>
        <time>2023-04-14T11:42:48.000Z</time>
      </trkpt>
      <trkpt lat="45.84889" lon="4.68665">
        <ele>217.25984</ele>
        <time>2023-04-14T11:42:49.000Z</time>
      </trkpt>
      <trkpt lat="45.84882" lon="4.68665">
        <ele>217.06589</ele>
        <time>2023-04-14T11:42:50.000Z</time>
      </trkpt>
      <trkpt lat="45.84874" lon="4.68666">
        <ele>216.68872</ele>
        <time>2023-04-14T11:42:51.000Z</time>
      </trkpt>
      <trkpt lat="45.84867" lon="4.68668">
        <ele>216.19303</ele>
        <time>2023-04-14T11:42:52.000Z</time>
      </trkpt>
      <trkpt lat="45.84861" lon="4.68671">
        <ele>215.73677</ele>
        <time>2023-04-14T11:42:53.000Z</time>
      </trkpt>
      <trkpt lat="45.84854" lon="4.68674">
        <ele>215.34148</ele>
        <time>2023-04-14T11:42:54.000Z</time>
      </trkpt>
      <trkpt lat="45.84847" lon="4.68676">
        <ele>214.92864</ele>
        <time>2023-04-14T11:42:55.000Z</time>
      </trkpt>
      <trkpt lat="45.84841" lon="4.68679">
        <ele>214.45611</ele>
        <time>2023-04-14T11:42:56.000Z</time>
      </trkpt>
      <trkpt lat="45.84834" lon="4.68682">
        <ele>214.01303</ele>
        <time>2023-04-14T11:42:57.000Z</time>
      </trkpt>
      <trkpt lat="45.84827" lon="4.68683">
        <ele>213.76424</ele>
        <time>2023-04-14T11:42:58.000Z</time>
      </trkpt>
      <trkpt lat="45.84821" lon="4.68685">
        <ele>213.59236</ele>
        <time>2023-04-14T11:42:59.000Z</time>
      </trkpt>
      <trkpt lat="45.84814" lon="4.68687">
        <ele>213.50681</ele>
        <time>2023-04-14T11:43:00.000Z</time>
      </trkpt>
      <trkpt lat="45.84808" lon="4.6869">
        <ele>213.50571</ele>
        <time>2023-04-14T11:43:01.000Z</time>
      </trkpt>
      <trkpt lat="45.84802" lon="4.68692">
        <ele>213.57836</ele>
        <time>2023-04-14T11:43:02.000Z</time>
      </trkpt>
      <trkpt lat="45.84797" lon="4.68694">
        <ele>213.73562</ele>
        <time>2023-04-14T11:43:03.000Z</time>
      </trkpt>
      <trkpt lat="45.84791" lon="4.68696">
        <ele>214.03653</ele>
        <time>2023-04-14T11:43:04.000Z</time>
      </trkpt>
      <trkpt lat="45.84785" lon="4.68696">
        <ele>214.46858</ele>
        <time>2023-04-14T11:43:05.000Z</time>
      </trkpt>
      <trkpt lat="45.8478" lon="4.68698">
        <ele>215.00399</ele>
        <time>2023-04-14T11:43:06.000Z</time>
      </trkpt>
      <trkpt lat="45.84775" lon="4.68699">
        <ele>215.60003</ele>
        <time>2023-04-14T11:43:07.000Z</time>
      </trkpt>
      <trkpt lat="45.8477" lon="4.68701">
        <ele>216.1996</ele>
        <time>2023-04-14T11:43:08.000Z</time>
      </trkpt>
      <trkpt lat="45.84765" lon="4.68703">
        <ele>216.74368</ele>
        <time>2023-04-14T11:43:09.000Z</time>
      </trkpt>
      <trkpt lat="45.84761" lon="4.68705">
        <ele>217.14938</ele>
        <time>2023-04-14T11:43:10.000Z</time>
      </trkpt>
      <trkpt lat="45.84757" lon="4.6871">
        <ele>217.47003</ele>
        <time>2023-04-14T11:43:11.000Z</time>
      </trkpt>
      <trkpt lat="45.84755" lon="4.68713">
        <ele>217.70652</ele>
        <time>2023-04-14T11:43:12.000Z</time>
      </trkpt>
      <trkpt lat="45.84752" lon="4.68718">
        <ele>217.95672</ele>
        <time>2023-04-14T11:43:13.000Z</time>
      </trkpt>
      <trkpt lat="45.84751" lon="4.68723">
        <ele>218.17391</ele>
        <time>2023-04-14T11:43:14.000Z</time>
      </trkpt>
      <trkpt lat="45.84749" lon="4.68728">
        <ele>218.40537</ele>
        <time>2023-04-14T11:43:15.000Z</time>
      </trkpt>
      <trkpt lat="45.84747" lon="4.68732">
        <ele>218.5741</ele>
        <time>2023-04-14T11:43:16.000Z</time>
      </trkpt>
      <trkpt lat="45.84745" lon="4.68736">
        <ele>218.72153</ele>
        <time>2023-04-14T11:43:17.000Z</time>
      </trkpt>
      <trkpt lat="45.84743" lon="4.6874">
        <ele>218.86875</ele>
        <time>2023-04-14T11:43:18.000Z</time>
      </trkpt>
      <trkpt lat="45.84741" lon="4.68744">
        <ele>218.97119</ele>
        <time>2023-04-14T11:43:19.000Z</time>
      </trkpt>
      <trkpt lat="45.84739" lon="4.68748">
        <ele>219.0789</ele>
        <time>2023-04-14T11:43:20.000Z</time>
      </trkpt>
      <trkpt lat="45.84736" lon="4.68751">
        <ele>219.16446</ele>
        <time>2023-04-14T11:43:21.000Z</time>
      </trkpt>
      <trkpt lat="45.84734" lon="4.68755">
        <ele>219.20668</ele>
        <time>2023-04-14T11:43:22.000Z</time>
      </trkpt>
      <trkpt lat="45.84732" lon="4.68759">
        <ele>219.29055</ele>
        <time>2023-04-14T11:43:23.000Z</time>
      </trkpt>
      <trkpt lat="45.84729" lon="4.68763">
        <ele>219.38636</ele>
        <time>2023-04-14T11:43:24.000Z</time>
      </trkpt>
      <trkpt lat="45.84726" lon="4.68766">
        <ele>219.5312</ele>
        <time>2023-04-14T11:43:25.000Z</time>
      </trkpt>
      <trkpt lat="45.84723" lon="4.68769">
        <ele>219.71891</ele>
        <time>2023-04-14T11:43:26.000Z</time>
      </trkpt>
      <trkpt lat="45.84721" lon="4.68773">
        <ele>219.87212</ele>
        <time>2023-04-14T11:43:27.000Z</time>
      </trkpt>
      <trkpt lat="45.84718" lon="4.68777">
        <ele>220.00565</ele>
        <time>2023-04-14T11:43:28.000Z</time>
      </trkpt>
      <trkpt lat="45.84716" lon="4.68781">
        <ele>220.0926</ele>
        <time>2023-04-14T11:43:29.000Z</time>
      </trkpt>
      <trkpt lat="45.84714" lon="4.68784">
        <ele>220.14013</ele>
        <time>2023-04-14T11:43:30.000Z</time>
      </trkpt>
      <trkpt lat="45.84711" lon="4.68787">
        <ele>220.26019</ele>
        <time>2023-04-14T11:43:31.000Z</time>
      </trkpt>
      <trkpt lat="45.84707" lon="4.68788">
        <ele>220.48697</ele>
        <time>2023-04-14T11:43:32.000Z</time>
      </trkpt>
      <trkpt lat="45.84704" lon="4.68789">
        <ele>220.81281</ele>
        <time>2023-04-14T11:43:33.000Z</time>
      </trkpt>
      <trkpt lat="45.847" lon="4.68787">
        <ele>221.1779</ele>
        <time>2023-04-14T11:43:34.000Z</time>
      </trkpt>
      <trkpt lat="45.84697" lon="4.68785">
        <ele>221.55114</ele>
        <time>2023-04-14T11:43:35.000Z</time>
      </trkpt>
      <trkpt lat="45.84693" lon="4.68782">
        <ele>221.94907</ele>
        <time>2023-04-14T11:43:36.000Z</time>
      </trkpt>
      <trkpt lat="45.8469" lon="4.6878">
        <ele>222.38162</ele>
        <time>2023-04-14T11:43:37.000Z</time>
      </trkpt>
      <trkpt lat="45.84686" lon="4.68777">
        <ele>222.84511</ele>
        <time>2023-04-14T11:43:38.000Z</time>
      </trkpt>
      <trkpt lat="45.84683" lon="4.68774">
        <ele>223.35757</ele>
        <time>2023-04-14T11:43:39.000Z</time>
      </trkpt>
      <trkpt lat="45.8468" lon="4.68771">
        <ele>223.85208</ele>
        <time>2023-04-14T11:43:40.000Z</time>
      </trkpt>
      <trkpt lat="45.84677" lon="4.68768">
        <ele>224.32737</ele>
        <time>2023-04-14T11:43:41.000Z</time>
      </trkpt>
      <trkpt lat="45.84674" lon="4.68765">
        <ele>224.76182</ele>
        <time>2023-04-14T11:43:42.000Z</time>
      </trkpt>
      <trkpt lat="45.84671" lon="4.68762">
        <ele>225.14188</ele>
        <time>2023-04-14T11:43:43.000Z</time>
      </trkpt>
      <trkpt lat="45.84668" lon="4.6876">
        <ele>225.48683</ele>
        <time>2023-04-14T11:43:44.000Z</time>
      </trkpt>
      <trkpt lat="45.84665" lon="4.68757">
        <ele>225.80754</ele>
        <time>2023-04-14T11:43:45.000Z</time>
      </trkpt>
      <trkpt lat="45.84662" lon="4.68755">
        <ele>226.11234</ele>
        <time>2023-04-14T11:43:46.000Z</time>
      </trkpt>
      <trkpt lat="45.84659" lon="4.68753">
        <ele>226.43435</ele>
        <time>2023-04-14T11:43:47.000Z</time>
      </trkpt>
      <trkpt lat="45.84656" lon="4.68751">
        <ele>226.77546</ele>
        <time>2023-04-14T11:43:48.000Z</time>
      </trkpt>
      <trkpt lat="45.84653" lon="4.68749">
        <ele>227.14689</ele>
        <time>2023-04-14T11:43:49.000Z</time>
      </trkpt>
      <trkpt lat="45.8465" lon="4.68747">
        <ele>227.52893</ele>
        <time>2023-04-14T11:43:50.000Z</time>
      </trkpt>
      <trkpt lat="45.84646" lon="4.68745">
        <ele>227.9838</ele>
        <time>2023-04-14T11:43:51.000Z</time>
      </trkpt>
      <trkpt lat="45.84643" lon="4.68743">
        <ele>228.48115</ele>
        <time>2023-04-14T11:43:52.000Z</time>
      </trkpt>
      <trkpt lat="45.8464" lon="4.68741">
        <ele>229.03999</ele>
        <time>2023-04-14T11:43:53.000Z</time>
      </trkpt>
      <trkpt lat="45.84637" lon="4.68738">
        <ele>229.62934</ele>
        <time>2023-04-14T11:43:54.000Z</time>
      </trkpt>
      <trkpt lat="45.84634" lon="4.68735">
        <ele>230.26801</ele>
        <time>2023-04-14T11:43:55.000Z</time>
      </trkpt>
      <trkpt lat="45.84631" lon="4.68731">
        <ele>230.91878</ele>
        <time>2023-04-14T11:43:56.000Z</time>
      </trkpt>
      <trkpt lat="45.84628" lon="4.68728">
        <ele>231.50928</ele>
        <time>2023-04-14T11:43:57.000Z</time>
      </trkpt>
      <trkpt lat="45.84625" lon="4.68724">
        <ele>232.10219</ele>
        <time>2023-04-14T11:43:58.000Z</time>
      </trkpt>
      <trkpt lat="45.84623" lon="4.68721">
        <ele>232.71444</ele>
        <time>2023-04-14T11:43:59.000Z</time>
      </trkpt>
      <trkpt lat="45.8462" lon="4.68717">
        <ele>233.31232</ele>
        <time>2023-04-14T11:44:00.000Z</time>
      </trkpt>
      <trkpt lat="45.84617" lon="4.68713">
        <ele>233.93006</ele>
        <time>2023-04-14T11:44:01.000Z</time>
      </trkpt>
      <trkpt lat="45.84614" lon="4.6871">
        <ele>234.54692</ele>
        <time>2023-04-14T11:44:02.000Z</time>
      </trkpt>
      <trkpt lat="45.84611" lon="4.68706">
        <ele>235.13381</ele>
        <time>2023-04-14T11:44:03.000Z</time>
      </trkpt>
      <trkpt lat="45.84609" lon="4.68702">
        <ele>235.71314</ele>
        <time>2023-04-14T11:44:04.000Z</time>
      </trkpt>
      <trkpt lat="45.84607" lon="4.68698">
        <ele>236.22005</ele>
        <time>2023-04-14T11:44:05.000Z</time>
      </trkpt>
      <trkpt lat="45.84605" lon="4.68693">
        <ele>236.64582</ele>
        <time>2023-04-14T11:44:06.000Z</time>
      </trkpt>
      <trkpt lat="45.84603" lon="4.68688">
        <ele>237.09336</ele>
        <time>2023-04-14T11:44:07.000Z</time>
      </trkpt>
      <trkpt lat="45.84601" lon="4.68684">
        <ele>237.57442</ele>
        <time>2023-04-14T11:44:08.000Z</time>
      </trkpt>
      <trkpt lat="45.846" lon="4.68679">
        <ele>238.02224</ele>
        <time>2023-04-14T11:44:09.000Z</time>
      </trkpt>
      <trkpt lat="45.84598" lon="4.68674">
        <ele>238.5538</ele>
        <time>2023-04-14T11:44:10.000Z</time>
      </trkpt>
      <trkpt lat="45.84596" lon="4.6867">
        <ele>239.09167</ele>
        <time>2023-04-14T11:44:11.000Z</time>
      </trkpt>
      <trkpt lat="45.84594" lon="4.68666">
        <ele>239.61297</ele>
        <time>2023-04-14T11:44:12.000Z</time>
      </trkpt>
      <trkpt lat="45.84591" lon="4.68663">
        <ele>240.15504</ele>
        <time>2023-04-14T11:44:13.000Z</time>
      </trkpt>
      <trkpt lat="45.84588" lon="4.68661">
        <ele>240.70108</ele>
        <time>2023-04-14T11:44:14.000Z</time>
      </trkpt>
      <trkpt lat="45.84585" lon="4.68659">
        <ele>241.23104</ele>
        <time>2023-04-14T11:44:15.000Z</time>
      </trkpt>
      <trkpt lat="45.84582" lon="4.68656">
        <ele>241.69946</ele>
        <time>2023-04-14T11:44:16.000Z</time>
      </trkpt>
      <trkpt lat="45.84579" lon="4.68654">
        <ele>242.14497</ele>
        <time>2023-04-14T11:44:17.000Z</time>
      </trkpt>
      <trkpt lat="45.84576" lon="4.68652">
        <ele>242.57459</ele>
        <time>2023-04-14T11:44:18.000Z</time>
      </trkpt>
      <trkpt lat="45.84572" lon="4.6865">
        <ele>242.96909</ele>
        <time>2023-04-14T11:44:19.000Z</time>
      </trkpt>
      <trkpt lat="45.84569" lon="4.68648">
        <ele>243.34115</ele>
        <time>2023-04-14T11:44:20.000Z</time>
      </trkpt>
      <trkpt lat="45.84566" lon="4.68645">
        <ele>243.67807</ele>
        <time>2023-04-14T11:44:21.000Z</time>
      </trkpt>
      <trkpt lat="45.84563" lon="4.68642">
        <ele>243.99793</ele>
        <time>2023-04-14T11:44:22.000Z</time>
      </trkpt>
      <trkpt lat="45.8456" lon="4.68639">
        <ele>244.28931</ele>
        <time>2023-04-14T11:44:23.000Z</time>
      </trkpt>
      <trkpt lat="45.84556" lon="4.68636">
        <ele>244.55966</ele>
        <time>2023-04-14T11:44:24.000Z</time>
      </trkpt>
      <trkpt lat="45.84553" lon="4.68632">
        <ele>244.767</ele>
        <time>2023-04-14T11:44:25.000Z</time>
      </trkpt>
      <trkpt lat="45.84551" lon="4.68628">
        <ele>244.92995</ele>
        <time>2023-04-14T11:44:26.000Z</time>
      </trkpt>
      <trkpt lat="45.84548" lon="4.68624">
        <ele>245.04585</ele>
        <time>2023-04-14T11:44:27.000Z</time>
      </trkpt>
      <trkpt lat="45.84545" lon="4.6862">
        <ele>245.14027</ele>
        <time>2023-04-14T11:44:28.000Z</time>
      </trkpt>
      <trkpt lat="45.84542" lon="4.68616">
        <ele>245.25042</ele>
        <time>2023-04-14T11:44:29.000Z</time>
      </trkpt>
      <trkpt lat="45.84539" lon="4.68613">
        <ele>245.38673</ele>
        <time>2023-04-14T11:44:30.000Z</time>
      </trkpt>
      <trkpt lat="45.84536" lon="4.6861">
        <ele>245.50445</ele>
        <time>2023-04-14T11:44:31.000Z</time>
      </trkpt>
      <trkpt lat="45.84534" lon="4.68607">
        <ele>245.55963</ele>
        <time>2023-04-14T11:44:32.000Z</time>
      </trkpt>
      <trkpt lat="45.84531" lon="4.68603">
        <ele>245.62677</ele>
        <time>2023-04-14T11:44:33.000Z</time>
      </trkpt>
      <trkpt lat="45.84527" lon="4.686">
        <ele>245.72522</ele>
        <time>2023-04-14T11:44:34.000Z</time>
      </trkpt>
      <trkpt lat="45.84524" lon="4.68597">
        <ele>245.83227</ele>
        <time>2023-04-14T11:44:35.000Z</time>
      </trkpt>
      <trkpt lat="45.84521" lon="4.68595">
        <ele>245.94052</ele>
        <time>2023-04-14T11:44:36.000Z</time>
      </trkpt>
      <trkpt lat="45.84517" lon="4.68592">
        <ele>246.05478</ele>
        <time>2023-04-14T11:44:37.000Z</time>
      </trkpt>
      <trkpt lat="45.84515" lon="4.6859">
        <ele>246.1486</ele>
        <time>2023-04-14T11:44:38.000Z</time>
      </trkpt>
      <trkpt lat="45.84512" lon="4.68588">
        <ele>246.21277</ele>
        <time>2023-04-14T11:44:39.000Z</time>
      </trkpt>
      <trkpt lat="45.8451" lon="4.68587">
        <ele>246.27825</ele>
        <time>2023-04-14T11:44:40.000Z</time>
      </trkpt>
      <trkpt lat="45.84509" lon="4.68586">
        <ele>246.32458</ele>
        <time>2023-04-14T11:44:41.000Z</time>
      </trkpt>
      <trkpt lat="45.84506" lon="4.68583">
        <ele>246.42541</ele>
        <time>2023-04-14T11:44:43.000Z</time>
      </trkpt>
      <trkpt lat="45.84504" lon="4.68582">
        <ele>246.48736</ele>
        <time>2023-04-14T11:44:44.000Z</time>
      </trkpt>
      <trkpt lat="45.84502" lon="4.68581">
        <ele>246.55226</ele>
        <time>2023-04-14T11:44:45.000Z</time>
      </trkpt>
      <trkpt lat="45.84501" lon="4.6858">
        <ele>246.60636</ele>
        <time>2023-04-14T11:44:46.000Z</time>
      </trkpt>
      <trkpt lat="45.84499" lon="4.68578">
        <ele>246.66498</ele>
        <time>2023-04-14T11:44:48.000Z</time>
      </trkpt>
      <trkpt lat="45.84497" lon="4.68578">
        <ele>246.7725</ele>
        <time>2023-04-14T11:46:10.000Z</time>
      </trkpt>
      <trkpt lat="45.84494" lon="4.68577">
        <ele>246.88342</ele>
        <time>2023-04-14T11:46:16.000Z</time>
      </trkpt>
      <trkpt lat="45.84492" lon="4.68575">
        <ele>246.93869</ele>
        <time>2023-04-14T11:46:18.000Z</time>
      </trkpt>
      <trkpt lat="45.8449" lon="4.68573">
        <ele>246.97993</ele>
        <time>2023-04-14T11:46:19.000Z</time>
      </trkpt>
      <trkpt lat="45.84488" lon="4.68571">
        <ele>247.02505</ele>
        <time>2023-04-14T11:46:20.000Z</time>
      </trkpt>
      <trkpt lat="45.84486" lon="4.6857">
        <ele>247.08772</ele>
        <time>2023-04-14T11:46:21.000Z</time>
      </trkpt>
      <trkpt lat="45.84485" lon="4.68568">
        <ele>247.12323</ele>
        <time>2023-04-14T11:46:22.000Z</time>
      </trkpt>
      <trkpt lat="45.84483" lon="4.68565">
        <ele>247.14408</ele>
        <time>2023-04-14T11:46:23.000Z</time>
      </trkpt>
      <trkpt lat="45.84481" lon="4.68563">
        <ele>247.17421</ele>
        <time>2023-04-14T11:46:24.000Z</time>
      </trkpt>
      <trkpt lat="45.84479" lon="4.68561">
        <ele>247.21446</ele>
        <time>2023-04-14T11:46:25.000Z</time>
      </trkpt>
      <trkpt lat="45.84478" lon="4.68559">
        <ele>247.2275</ele>
        <time>2023-04-14T11:46:26.000Z</time>
      </trkpt>
      <trkpt lat="45.84476" lon="4.68557">
        <ele>247.22937</ele>
        <time>2023-04-14T11:46:27.000Z</time>
      </trkpt>
      <trkpt lat="45.84475" lon="4.68555">
        <ele>247.24882</ele>
        <time>2023-04-14T11:46:28.000Z</time>
      </trkpt>
      <trkpt lat="45.84472" lon="4.68553">
        <ele>247.26175</ele>
        <time>2023-04-14T11:46:29.000Z</time>
      </trkpt>
      <trkpt lat="45.84471" lon="4.6855">
        <ele>247.24382</ele>
        <time>2023-04-14T11:46:30.000Z</time>
      </trkpt>
      <trkpt lat="45.84469" lon="4.68547">
        <ele>247.16469</ele>
        <time>2023-04-14T11:46:31.000Z</time>
      </trkpt>
      <trkpt lat="45.84467" lon="4.68544">
        <ele>247.03718</ele>
        <time>2023-04-14T11:46:32.000Z</time>
      </trkpt>
      <trkpt lat="45.84466" lon="4.6854">
        <ele>246.8563</ele>
        <time>2023-04-14T11:46:33.000Z</time>
      </trkpt>
      <trkpt lat="45.84465" lon="4.68536">
        <ele>246.64666</ele>
        <time>2023-04-14T11:46:34.000Z</time>
      </trkpt>
      <trkpt lat="45.84464" lon="4.68532">
        <ele>246.38515</ele>
        <time>2023-04-14T11:46:35.000Z</time>
      </trkpt>
      <trkpt lat="45.84463" lon="4.68527">
        <ele>246.08123</ele>
        <time>2023-04-14T11:46:36.000Z</time>
      </trkpt>
      <trkpt lat="45.84462" lon="4.68522">
        <ele>245.73112</ele>
        <time>2023-04-14T11:46:37.000Z</time>
      </trkpt>
      <trkpt lat="45.84461" lon="4.68517">
        <ele>245.38484</ele>
        <time>2023-04-14T11:46:38.000Z</time>
      </trkpt>
      <trkpt lat="45.8446" lon="4.68512">
        <ele>245.05327</ele>
        <time>2023-04-14T11:46:39.000Z</time>
      </trkpt>
      <trkpt lat="45.84459" lon="4.68506">
        <ele>244.64617</ele>
        <time>2023-04-14T11:46:40.000Z</time>
      </trkpt>
      <trkpt lat="45.84458" lon="4.68501">
        <ele>244.23347</ele>
        <time>2023-04-14T11:46:41.000Z</time>
      </trkpt>
      <trkpt lat="45.84456" lon="4.68495">
        <ele>243.87106</ele>
        <time>2023-04-14T11:46:42.000Z</time>
      </trkpt>
      <trkpt lat="45.84454" lon="4.6849">
        <ele>243.5688</ele>
        <time>2023-04-14T11:46:43.000Z</time>
      </trkpt>
      <trkpt lat="45.84451" lon="4.68485">
        <ele>243.27289</ele>
        <time>2023-04-14T11:46:44.000Z</time>
      </trkpt>
      <trkpt lat="45.84449" lon="4.6848">
        <ele>243.03851</ele>
        <time>2023-04-14T11:46:45.000Z</time>
      </trkpt>
      <trkpt lat="45.84446" lon="4.68476">
        <ele>242.88525</ele>
        <time>2023-04-14T11:46:46.000Z</time>
      </trkpt>
      <trkpt lat="45.84444" lon="4.68472">
        <ele>242.76304</ele>
        <time>2023-04-14T11:46:47.000Z</time>
      </trkpt>
      <trkpt lat="45.84441" lon="4.68469">
        <ele>242.65398</ele>
        <time>2023-04-14T11:46:48.000Z</time>
      </trkpt>
      <trkpt lat="45.84438" lon="4.68465">
        <ele>242.54241</ele>
        <time>2023-04-14T11:46:49.000Z</time>
      </trkpt>
      <trkpt lat="45.84435" lon="4.68461">
        <ele>242.46173</ele>
        <time>2023-04-14T11:46:50.000Z</time>
      </trkpt>
      <trkpt lat="45.8443" lon="4.68456">
        <ele>242.42399</ele>
        <time>2023-04-14T11:46:51.000Z</time>
      </trkpt>
      <trkpt lat="45.84426" lon="4.68453">
        <ele>242.4185</ele>
        <time>2023-04-14T11:46:52.000Z</time>
      </trkpt>
      <trkpt lat="45.84423" lon="4.68449">
        <ele>242.3421</ele>
        <time>2023-04-14T11:46:53.000Z</time>
      </trkpt>
      <trkpt lat="45.8442" lon="4.68445">
        <ele>242.38133</ele>
        <time>2023-04-14T11:46:54.000Z</time>
      </trkpt>
      <trkpt lat="45.84416" lon="4.68441">
        <ele>242.39598</ele>
        <time>2023-04-14T11:46:55.000Z</time>
      </trkpt>
      <trkpt lat="45.84413" lon="4.68438">
        <ele>242.45094</ele>
        <time>2023-04-14T11:46:56.000Z</time>
      </trkpt>
      <trkpt lat="45.84409" lon="4.68434">
        <ele>242.47503</ele>
        <time>2023-04-14T11:46:57.000Z</time>
      </trkpt>
      <trkpt lat="45.84406" lon="4.68431">
        <ele>242.48008</ele>
        <time>2023-04-14T11:46:58.000Z</time>
      </trkpt>
      <trkpt lat="45.84402" lon="4.68425">
        <ele>242.35183</ele>
        <time>2023-04-14T11:46:59.000Z</time>
      </trkpt>
      <trkpt lat="45.844" lon="4.68422">
        <ele>242.23506</ele>
        <time>2023-04-14T11:47:00.000Z</time>
      </trkpt>
      <trkpt lat="45.84396" lon="4.68418">
        <ele>242.21337</ele>
        <time>2023-04-14T11:47:01.000Z</time>
      </trkpt>
      <trkpt lat="45.84393" lon="4.68415">
        <ele>242.23219</ele>
        <time>2023-04-14T11:47:02.000Z</time>
      </trkpt>
      <trkpt lat="45.84389" lon="4.68411">
        <ele>242.18021</ele>
        <time>2023-04-14T11:47:03.000Z</time>
      </trkpt>
      <trkpt lat="45.84385" lon="4.68407">
        <ele>242.10825</ele>
        <time>2023-04-14T11:47:04.000Z</time>
      </trkpt>
      <trkpt lat="45.84381" lon="4.68403">
        <ele>242.02456</ele>
        <time>2023-04-14T11:47:05.000Z</time>
      </trkpt>
      <trkpt lat="45.84378" lon="4.684">
        <ele>241.97729</ele>
        <time>2023-04-14T11:47:06.000Z</time>
      </trkpt>
      <trkpt lat="45.84374" lon="4.68397">
        <ele>241.93373</ele>
        <time>2023-04-14T11:47:07.000Z</time>
      </trkpt>
      <trkpt lat="45.8437" lon="4.68394">
        <ele>241.9037</ele>
        <time>2023-04-14T11:47:08.000Z</time>
      </trkpt>
      <trkpt lat="45.84367" lon="4.6839">
        <ele>241.86751</ele>
        <time>2023-04-14T11:47:09.000Z</time>
      </trkpt>
      <trkpt lat="45.84363" lon="4.68386">
        <ele>241.79894</ele>
        <time>2023-04-14T11:47:10.000Z</time>
      </trkpt>
      <trkpt lat="45.84359" lon="4.68383">
        <ele>241.76092</ele>
        <time>2023-04-14T11:47:11.000Z</time>
      </trkpt>
      <trkpt lat="45.84356" lon="4.68379">
        <ele>241.77394</ele>
        <time>2023-04-14T11:47:12.000Z</time>
      </trkpt>
      <trkpt lat="45.84352" lon="4.68376">
        <ele>241.77673</ele>
        <time>2023-04-14T11:47:13.000Z</time>
      </trkpt>
      <trkpt lat="45.84349" lon="4.68372">
        <ele>241.70944</ele>
        <time>2023-04-14T11:47:14.000Z</time>
      </trkpt>
      <trkpt lat="45.84346" lon="4.68369">
        <ele>241.6814</ele>
        <time>2023-04-14T11:47:15.000Z</time>
      </trkpt>
      <trkpt lat="45.84343" lon="4.68367">
        <ele>241.72133</ele>
        <time>2023-04-14T11:47:16.000Z</time>
      </trkpt>
      <trkpt lat="45.8434" lon="4.68364">
        <ele>241.72609</ele>
        <time>2023-04-14T11:47:17.000Z</time>
      </trkpt>
      <trkpt lat="45.84337" lon="4.68361">
        <ele>241.712</ele>
        <time>2023-04-14T11:47:18.000Z</time>
      </trkpt>
      <trkpt lat="45.84334" lon="4.68358">
        <ele>241.73621</ele>
        <time>2023-04-14T11:47:19.000Z</time>
      </trkpt>
      <trkpt lat="45.8433" lon="4.68355">
        <ele>241.72349</ele>
        <time>2023-04-14T11:47:20.000Z</time>
      </trkpt>
      <trkpt lat="45.84327" lon="4.68352">
        <ele>241.71523</ele>
        <time>2023-04-14T11:47:21.000Z</time>
      </trkpt>
      <trkpt lat="45.84324" lon="4.68349">
        <ele>241.7088</ele>
        <time>2023-04-14T11:47:22.000Z</time>
      </trkpt>
      <trkpt lat="45.84321" lon="4.68347">
        <ele>241.70029</ele>
        <time>2023-04-14T11:47:23.000Z</time>
      </trkpt>
      <trkpt lat="45.84318" lon="4.68344">
        <ele>241.72687</ele>
        <time>2023-04-14T11:47:24.000Z</time>
      </trkpt>
      <trkpt lat="45.84314" lon="4.68341">
        <ele>241.72895</ele>
        <time>2023-04-14T11:47:25.000Z</time>
      </trkpt>
      <trkpt lat="45.84311" lon="4.68338">
        <ele>241.70194</ele>
        <time>2023-04-14T11:47:26.000Z</time>
      </trkpt>
      <trkpt lat="45.84307" lon="4.68336">
        <ele>241.67782</ele>
        <time>2023-04-14T11:47:27.000Z</time>
      </trkpt>
      <trkpt lat="45.84304" lon="4.68333">
        <ele>241.60789</ele>
        <time>2023-04-14T11:47:28.000Z</time>
      </trkpt>
      <trkpt lat="45.84301" lon="4.6833">
        <ele>241.58199</ele>
        <time>2023-04-14T11:47:29.000Z</time>
      </trkpt>
      <trkpt lat="45.84297" lon="4.68328">
        <ele>241.61716</ele>
        <time>2023-04-14T11:47:30.000Z</time>
      </trkpt>
      <trkpt lat="45.84293" lon="4.68326">
        <ele>241.70801</ele>
        <time>2023-04-14T11:47:31.000Z</time>
      </trkpt>
      <trkpt lat="45.8429" lon="4.68325">
        <ele>241.86929</ele>
        <time>2023-04-14T11:47:32.000Z</time>
      </trkpt>
      <trkpt lat="45.84287" lon="4.68325">
        <ele>242.09786</ele>
        <time>2023-04-14T11:47:33.000Z</time>
      </trkpt>
      <trkpt lat="45.84284" lon="4.68325">
        <ele>242.32734</ele>
        <time>2023-04-14T11:47:34.000Z</time>
      </trkpt>
      <trkpt lat="45.84281" lon="4.68324">
        <ele>242.51315</ele>
        <time>2023-04-14T11:47:35.000Z</time>
      </trkpt>
      <trkpt lat="45.84278" lon="4.68324">
        <ele>242.69115</ele>
        <time>2023-04-14T11:47:36.000Z</time>
      </trkpt>
      <trkpt lat="45.84275" lon="4.68324">
        <ele>242.99705</ele>
        <time>2023-04-14T11:47:37.000Z</time>
      </trkpt>
      <trkpt lat="45.84271" lon="4.68325">
        <ele>243.39053</ele>
        <time>2023-04-14T11:47:38.000Z</time>
      </trkpt>
      <trkpt lat="45.84267" lon="4.68327">
        <ele>243.82159</ele>
        <time>2023-04-14T11:47:39.000Z</time>
      </trkpt>
      <trkpt lat="45.84264" lon="4.68328">
        <ele>244.18572</ele>
        <time>2023-04-14T11:47:40.000Z</time>
      </trkpt>
      <trkpt lat="45.84259" lon="4.68329">
        <ele>244.62269</ele>
        <time>2023-04-14T11:47:41.000Z</time>
      </trkpt>
      <trkpt lat="45.84256" lon="4.6833">
        <ele>244.96758</ele>
        <time>2023-04-14T11:47:42.000Z</time>
      </trkpt>
      <trkpt lat="45.84252" lon="4.6833">
        <ele>245.2358</ele>
        <time>2023-04-14T11:47:43.000Z</time>
      </trkpt>
      <trkpt lat="45.84248" lon="4.6833">
        <ele>245.49223</ele>
        <time>2023-04-14T11:47:44.000Z</time>
      </trkpt>
      <trkpt lat="45.84245" lon="4.6833">
        <ele>245.6846</ele>
        <time>2023-04-14T11:47:45.000Z</time>
      </trkpt>
      <trkpt lat="45.84241" lon="4.68329">
        <ele>245.83297</ele>
        <time>2023-04-14T11:47:46.000Z</time>
      </trkpt>
      <trkpt lat="45.84237" lon="4.68329">
        <ele>246.00622</ele>
        <time>2023-04-14T11:47:47.000Z</time>
      </trkpt>
      <trkpt lat="45.84234" lon="4.68328">
        <ele>246.14881</ele>
        <time>2023-04-14T11:47:48.000Z</time>
      </trkpt>
      <trkpt lat="45.8423" lon="4.68327">
        <ele>246.18804</ele>
        <time>2023-04-14T11:47:49.000Z</time>
      </trkpt>
      <trkpt lat="45.84226" lon="4.68326">
        <ele>246.24315</ele>
        <time>2023-04-14T11:47:50.000Z</time>
      </trkpt>
      <trkpt lat="45.84222" lon="4.68325">
        <ele>246.42118</ele>
        <time>2023-04-14T11:47:51.000Z</time>
      </trkpt>
      <trkpt lat="45.84218" lon="4.68325">
        <ele>246.61098</ele>
        <time>2023-04-14T11:47:52.000Z</time>
      </trkpt>
      <trkpt lat="45.84214" lon="4.68324">
        <ele>246.69028</ele>
        <time>2023-04-14T11:47:53.000Z</time>
      </trkpt>
      <trkpt lat="45.8421" lon="4.68322">
        <ele>246.66471</ele>
        <time>2023-04-14T11:47:54.000Z</time>
      </trkpt>
      <trkpt lat="45.84206" lon="4.68321">
        <ele>246.69024</ele>
        <time>2023-04-14T11:47:55.000Z</time>
      </trkpt>
      <trkpt lat="45.84203" lon="4.6832">
        <ele>246.74922</ele>
        <time>2023-04-14T11:47:56.000Z</time>
      </trkpt>
      <trkpt lat="45.84199" lon="4.68318">
        <ele>246.68704</ele>
        <time>2023-04-14T11:47:57.000Z</time>
      </trkpt>
      <trkpt lat="45.84196" lon="4.68315">
        <ele>246.56731</ele>
        <time>2023-04-14T11:47:58.000Z</time>
      </trkpt>
      <trkpt lat="45.84193" lon="4.68313">
        <ele>246.44377</ele>
        <time>2023-04-14T11:47:59.000Z</time>
      </trkpt>
      <trkpt lat="45.8419" lon="4.68311">
        <ele>246.33052</ele>
        <time>2023-04-14T11:48:00.000Z</time>
      </trkpt>
      <trkpt lat="45.84186" lon="4.68308">
        <ele>246.24902</ele>
        <time>2023-04-14T11:48:01.000Z</time>
      </trkpt>
      <trkpt lat="45.84182" lon="4.68306">
        <ele>246.17994</ele>
        <time>2023-04-14T11:48:02.000Z</time>
      </trkpt>
      <trkpt lat="45.84178" lon="4.68303">
        <ele>246.12286</ele>
        <time>2023-04-14T11:48:03.000Z</time>
      </trkpt>
      <trkpt lat="45.84175" lon="4.68301">
        <ele>246.09015</ele>
        <time>2023-04-14T11:48:04.000Z</time>
      </trkpt>
      <trkpt lat="45.84172" lon="4.68299">
        <ele>246.09659</ele>
        <time>2023-04-14T11:48:05.000Z</time>
      </trkpt>
      <trkpt lat="45.84168" lon="4.68297">
        <ele>246.17331</ele>
        <time>2023-04-14T11:48:06.000Z</time>
      </trkpt>
      <trkpt lat="45.84165" lon="4.68294">
        <ele>246.16739</ele>
        <time>2023-04-14T11:48:07.000Z</time>
      </trkpt>
      <trkpt lat="45.84161" lon="4.68292">
        <ele>246.18984</ele>
        <time>2023-04-14T11:48:08.000Z</time>
      </trkpt>
      <trkpt lat="45.84158" lon="4.6829">
        <ele>246.31368</ele>
        <time>2023-04-14T11:48:09.000Z</time>
      </trkpt>
      <trkpt lat="45.84154" lon="4.68288">
        <ele>246.47843</ele>
        <time>2023-04-14T11:48:10.000Z</time>
      </trkpt>
      <trkpt lat="45.8415" lon="4.68286">
        <ele>246.57569</ele>
        <time>2023-04-14T11:48:11.000Z</time>
      </trkpt>
      <trkpt lat="45.84146" lon="4.68284">
        <ele>246.64477</ele>
        <time>2023-04-14T11:48:12.000Z</time>
      </trkpt>
      <trkpt lat="45.84142" lon="4.68281">
        <ele>246.68963</ele>
        <time>2023-04-14T11:48:13.000Z</time>
      </trkpt>
      <trkpt lat="45.84138" lon="4.68279">
        <ele>246.79093</ele>
        <time>2023-04-14T11:48:14.000Z</time>
      </trkpt>
      <trkpt lat="45.84134" lon="4.68277">
        <ele>246.93187</ele>
        <time>2023-04-14T11:48:15.000Z</time>
      </trkpt>
      <trkpt lat="45.8413" lon="4.68275">
        <ele>247.0494</ele>
        <time>2023-04-14T11:48:16.000Z</time>
      </trkpt>
      <trkpt lat="45.84126" lon="4.68273">
        <ele>247.21437</ele>
        <time>2023-04-14T11:48:17.000Z</time>
      </trkpt>
      <trkpt lat="45.84122" lon="4.68272">
        <ele>247.43254</ele>
        <time>2023-04-14T11:48:18.000Z</time>
      </trkpt>
      <trkpt lat="45.84117" lon="4.68272">
        <ele>247.71433</ele>
        <time>2023-04-14T11:48:19.000Z</time>
      </trkpt>
      <trkpt lat="45.84113" lon="4.68271">
        <ele>248.00552</ele>
        <time>2023-04-14T11:48:20.000Z</time>
      </trkpt>
      <trkpt lat="45.84109" lon="4.6827">
        <ele>248.30118</ele>
        <time>2023-04-14T11:48:21.000Z</time>
      </trkpt>
      <trkpt lat="45.84105" lon="4.68269">
        <ele>248.64619</ele>
        <time>2023-04-14T11:48:22.000Z</time>
      </trkpt>
      <trkpt lat="45.84102" lon="4.68269">
        <ele>248.96481</ele>
        <time>2023-04-14T11:48:23.000Z</time>
      </trkpt>
      <trkpt lat="45.84098" lon="4.68268">
        <ele>249.21198</ele>
        <time>2023-04-14T11:48:24.000Z</time>
      </trkpt>
      <trkpt lat="45.84095" lon="4.68267">
        <ele>249.49014</ele>
        <time>2023-04-14T11:48:25.000Z</time>
      </trkpt>
      <trkpt lat="45.84091" lon="4.68267">
        <ele>249.75587</ele>
        <time>2023-04-14T11:48:26.000Z</time>
      </trkpt>
      <trkpt lat="45.84087" lon="4.68266">
        <ele>250.00475</ele>
        <time>2023-04-14T11:48:27.000Z</time>
      </trkpt>
      <trkpt lat="45.84083" lon="4.68265">
        <ele>250.21818</ele>
        <time>2023-04-14T11:48:28.000Z</time>
      </trkpt>
      <trkpt lat="45.84079" lon="4.68264">
        <ele>250.42802</ele>
        <time>2023-04-14T11:48:29.000Z</time>
      </trkpt>
      <trkpt lat="45.84075" lon="4.68264">
        <ele>250.59942</ele>
        <time>2023-04-14T11:48:30.000Z</time>
      </trkpt>
      <trkpt lat="45.84071" lon="4.68263">
        <ele>250.79</ele>
        <time>2023-04-14T11:48:31.000Z</time>
      </trkpt>
      <trkpt lat="45.84067" lon="4.68262">
        <ele>251.02226</ele>
        <time>2023-04-14T11:48:32.000Z</time>
      </trkpt>
      <trkpt lat="45.84063" lon="4.68262">
        <ele>251.25429</ele>
        <time>2023-04-14T11:48:33.000Z</time>
      </trkpt>
      <trkpt lat="45.84058" lon="4.68261">
        <ele>251.44266</ele>
        <time>2023-04-14T11:48:34.000Z</time>
      </trkpt>
      <trkpt lat="45.84054" lon="4.6826">
        <ele>251.56986</ele>
        <time>2023-04-14T11:48:35.000Z</time>
      </trkpt>
      <trkpt lat="45.84049" lon="4.6826">
        <ele>251.78423</ele>
        <time>2023-04-14T11:48:36.000Z</time>
      </trkpt>
      <trkpt lat="45.84045" lon="4.68258">
        <ele>251.90812</ele>
        <time>2023-04-14T11:48:37.000Z</time>
      </trkpt>
      <trkpt lat="45.8404" lon="4.68258">
        <ele>252.09603</ele>
        <time>2023-04-14T11:48:38.000Z</time>
      </trkpt>
      <trkpt lat="45.84036" lon="4.68258">
        <ele>252.2711</ele>
        <time>2023-04-14T11:48:39.000Z</time>
      </trkpt>
      <trkpt lat="45.84032" lon="4.68256">
        <ele>252.29685</ele>
        <time>2023-04-14T11:48:40.000Z</time>
      </trkpt>
      <trkpt lat="45.84028" lon="4.68253">
        <ele>252.30117</ele>
        <time>2023-04-14T11:48:41.000Z</time>
      </trkpt>
      <trkpt lat="45.84023" lon="4.68253">
        <ele>252.42128</ele>
        <time>2023-04-14T11:48:42.000Z</time>
      </trkpt>
      <trkpt lat="45.84019" lon="4.68252">
        <ele>252.47367</ele>
        <time>2023-04-14T11:48:43.000Z</time>
      </trkpt>
      <trkpt lat="45.84014" lon="4.68251">
        <ele>252.5162</ele>
        <time>2023-04-14T11:48:44.000Z</time>
      </trkpt>
      <trkpt lat="45.84009" lon="4.68251">
        <ele>252.52275</ele>
        <time>2023-04-14T11:48:45.000Z</time>
      </trkpt>
      <trkpt lat="45.84005" lon="4.6825">
        <ele>252.53802</ele>
        <time>2023-04-14T11:48:46.000Z</time>
      </trkpt>
      <trkpt lat="45.84" lon="4.6825">
        <ele>252.58542</ele>
        <time>2023-04-14T11:48:47.000Z</time>
      </trkpt>
      <trkpt lat="45.83995" lon="4.68249">
        <ele>252.66157</ele>
        <time>2023-04-14T11:48:48.000Z</time>
      </trkpt>
      <trkpt lat="45.8399" lon="4.68248">
        <ele>252.73166</ele>
        <time>2023-04-14T11:48:49.000Z</time>
      </trkpt>
      <trkpt lat="45.83985" lon="4.68248">
        <ele>252.75875</ele>
        <time>2023-04-14T11:48:50.000Z</time>
      </trkpt>
      <trkpt lat="45.8398" lon="4.68248">
        <ele>252.79075</ele>
        <time>2023-04-14T11:48:51.000Z</time>
      </trkpt>
      <trkpt lat="45.83975" lon="4.68248">
        <ele>252.7242</ele>
        <time>2023-04-14T11:48:52.000Z</time>
      </trkpt>
      <trkpt lat="45.8397" lon="4.68247">
        <ele>252.5926</ele>
        <time>2023-04-14T11:48:53.000Z</time>
      </trkpt>
      <trkpt lat="45.83965" lon="4.68247">
        <ele>252.4422</ele>
        <time>2023-04-14T11:48:54.000Z</time>
      </trkpt>
      <trkpt lat="45.83959" lon="4.68248">
        <ele>252.3418</ele>
        <time>2023-04-14T11:48:55.000Z</time>
      </trkpt>
      <trkpt lat="45.83955" lon="4.68248">
        <ele>252.31925</ele>
        <time>2023-04-14T11:48:56.000Z</time>
      </trkpt>
      <trkpt lat="45.8395" lon="4.68248">
        <ele>252.20933</ele>
        <time>2023-04-14T11:48:57.000Z</time>
      </trkpt>
      <trkpt lat="45.83944" lon="4.68248">
        <ele>252.06794</ele>
        <time>2023-04-14T11:48:58.000Z</time>
      </trkpt>
      <trkpt lat="45.83939" lon="4.68249">
        <ele>252.10619</ele>
        <time>2023-04-14T11:48:59.000Z</time>
      </trkpt>
      <trkpt lat="45.83935" lon="4.68249">
        <ele>252.1355</ele>
        <time>2023-04-14T11:49:00.000Z</time>
      </trkpt>
      <trkpt lat="45.83929" lon="4.6825">
        <ele>252.33768</ele>
        <time>2023-04-14T11:49:01.000Z</time>
      </trkpt>
      <trkpt lat="45.83925" lon="4.68249">
        <ele>252.411</ele>
        <time>2023-04-14T11:49:02.000Z</time>
      </trkpt>
      <trkpt lat="45.8392" lon="4.68248">
        <ele>252.55472</ele>
        <time>2023-04-14T11:49:03.000Z</time>
      </trkpt>
      <trkpt lat="45.83916" lon="4.68248">
        <ele>252.68123</ele>
        <time>2023-04-14T11:49:04.000Z</time>
      </trkpt>
      <trkpt lat="45.83912" lon="4.68248">
        <ele>252.83257</ele>
        <time>2023-04-14T11:49:05.000Z</time>
      </trkpt>
      <trkpt lat="45.83908" lon="4.68247">
        <ele>252.81624</ele>
        <time>2023-04-14T11:49:06.000Z</time>
      </trkpt>
      <trkpt lat="45.83904" lon="4.68248">
        <ele>252.97643</ele>
        <time>2023-04-14T11:49:07.000Z</time>
      </trkpt>
      <trkpt lat="45.83901" lon="4.68247">
        <ele>252.99485</ele>
        <time>2023-04-14T11:49:08.000Z</time>
      </trkpt>
      <trkpt lat="45.83898" lon="4.68246">
        <ele>253.00338</ele>
        <time>2023-04-14T11:49:09.000Z</time>
      </trkpt>
      <trkpt lat="45.83894" lon="4.68247">
        <ele>253.07458</ele>
        <time>2023-04-14T11:49:10.000Z</time>
      </trkpt>
      <trkpt lat="45.83891" lon="4.68247">
        <ele>253.13467</ele>
        <time>2023-04-14T11:49:11.000Z</time>
      </trkpt>
      <trkpt lat="45.83888" lon="4.68248">
        <ele>253.16326</ele>
        <time>2023-04-14T11:49:12.000Z</time>
      </trkpt>
      <trkpt lat="45.83885" lon="4.68249">
        <ele>253.15959</ele>
        <time>2023-04-14T11:49:13.000Z</time>
      </trkpt>
      <trkpt lat="45.83881" lon="4.68249">
        <ele>253.07018</ele>
        <time>2023-04-14T11:49:14.000Z</time>
      </trkpt>
      <trkpt lat="45.83878" lon="4.68249">
        <ele>252.94374</ele>
        <time>2023-04-14T11:49:15.000Z</time>
      </trkpt>
      <trkpt lat="45.83873" lon="4.6825">
        <ele>252.88944</ele>
        <time>2023-04-14T11:49:16.000Z</time>
      </trkpt>
      <trkpt lat="45.83869" lon="4.6825">
        <ele>252.96511</ele>
        <time>2023-04-14T11:49:17.000Z</time>
      </trkpt>
      <trkpt lat="45.83865" lon="4.6825">
        <ele>253.1754</ele>
        <time>2023-04-14T11:49:18.000Z</time>
      </trkpt>
      <trkpt lat="45.8386" lon="4.6825">
        <ele>253.5247</ele>
        <time>2023-04-14T11:49:19.000Z</time>
      </trkpt>
      <trkpt lat="45.83856" lon="4.68251">
        <ele>253.97894</ele>
        <time>2023-04-14T11:49:20.000Z</time>
      </trkpt>
      <trkpt lat="45.83852" lon="4.68252">
        <ele>254.49282</ele>
        <time>2023-04-14T11:49:21.000Z</time>
      </trkpt>
      <trkpt lat="45.83848" lon="4.68253">
        <ele>254.8816</ele>
        <time>2023-04-14T11:49:22.000Z</time>
      </trkpt>
      <trkpt lat="45.83843" lon="4.68252">
        <ele>255.0264</ele>
        <time>2023-04-14T11:49:23.000Z</time>
      </trkpt>
      <trkpt lat="45.83839" lon="4.68251">
        <ele>254.96776</ele>
        <time>2023-04-14T11:49:24.000Z</time>
      </trkpt>
      <trkpt lat="45.83835" lon="4.68252">
        <ele>254.89436</ele>
        <time>2023-04-14T11:49:25.000Z</time>
      </trkpt>
      <trkpt lat="45.83831" lon="4.68253">
        <ele>254.99735</ele>
        <time>2023-04-14T11:49:26.000Z</time>
      </trkpt>
      <trkpt lat="45.83827" lon="4.68255">
        <ele>255.31505</ele>
        <time>2023-04-14T11:49:27.000Z</time>
      </trkpt>
      <trkpt lat="45.83823" lon="4.68257">
        <ele>255.80653</ele>
        <time>2023-04-14T11:49:28.000Z</time>
      </trkpt>
      <trkpt lat="45.83819" lon="4.68258">
        <ele>256.38631</ele>
        <time>2023-04-14T11:49:29.000Z</time>
      </trkpt>
      <trkpt lat="45.83816" lon="4.6826">
        <ele>256.84277</ele>
        <time>2023-04-14T11:49:30.000Z</time>
      </trkpt>
      <trkpt lat="45.83812" lon="4.68263">
        <ele>257.02737</ele>
        <time>2023-04-14T11:49:31.000Z</time>
      </trkpt>
      <trkpt lat="45.83809" lon="4.68266">
        <ele>256.96434</ele>
        <time>2023-04-14T11:49:32.000Z</time>
      </trkpt>
      <trkpt lat="45.83806" lon="4.6827">
        <ele>256.99888</ele>
        <time>2023-04-14T11:49:33.000Z</time>
      </trkpt>
      <trkpt lat="45.83803" lon="4.68273">
        <ele>257.28369</ele>
        <time>2023-04-14T11:49:34.000Z</time>
      </trkpt>
      <trkpt lat="45.838" lon="4.68276">
        <ele>257.84668</ele>
        <time>2023-04-14T11:49:35.000Z</time>
      </trkpt>
      <trkpt lat="45.83797" lon="4.6828">
        <ele>258.63539</ele>
        <time>2023-04-14T11:49:36.000Z</time>
      </trkpt>
      <trkpt lat="45.83794" lon="4.68284">
        <ele>259.39071</ele>
        <time>2023-04-14T11:49:37.000Z</time>
      </trkpt>
      <trkpt lat="45.83791" lon="4.68288">
        <ele>259.85276</ele>
        <time>2023-04-14T11:49:38.000Z</time>
      </trkpt>
      <trkpt lat="45.83789" lon="4.68291">
        <ele>259.97019</ele>
        <time>2023-04-14T11:49:39.000Z</time>
      </trkpt>
      <trkpt lat="45.83786" lon="4.68295">
        <ele>259.8085</ele>
        <time>2023-04-14T11:49:40.000Z</time>
      </trkpt>
      <trkpt lat="45.83784" lon="4.68299">
        <ele>259.62196</ele>
        <time>2023-04-14T11:49:41.000Z</time>
      </trkpt>
      <trkpt lat="45.83782" lon="4.68303">
        <ele>259.63624</ele>
        <time>2023-04-14T11:49:42.000Z</time>
      </trkpt>
      <trkpt lat="45.83779" lon="4.68307">
        <ele>259.9268</ele>
        <time>2023-04-14T11:49:43.000Z</time>
      </trkpt>
      <trkpt lat="45.83777" lon="4.68312">
        <ele>260.46529</ele>
        <time>2023-04-14T11:49:44.000Z</time>
      </trkpt>
      <trkpt lat="45.83774" lon="4.68316">
        <ele>261.1957</ele>
        <time>2023-04-14T11:49:45.000Z</time>
      </trkpt>
      <trkpt lat="45.83771" lon="4.68321">
        <ele>261.82176</ele>
        <time>2023-04-14T11:49:46.000Z</time>
      </trkpt>
      <trkpt lat="45.83769" lon="4.68325">
        <ele>262.14646</ele>
        <time>2023-04-14T11:49:47.000Z</time>
      </trkpt>
      <trkpt lat="45.83766" lon="4.6833">
        <ele>262.22533</ele>
        <time>2023-04-14T11:49:48.000Z</time>
      </trkpt>
      <trkpt lat="45.83763" lon="4.68334">
        <ele>262.31339</ele>
        <time>2023-04-14T11:49:49.000Z</time>
      </trkpt>
      <trkpt lat="45.83761" lon="4.68339">
        <ele>262.54469</ele>
        <time>2023-04-14T11:49:50.000Z</time>
      </trkpt>
      <trkpt lat="45.83758" lon="4.68344">
        <ele>262.96127</ele>
        <time>2023-04-14T11:49:51.000Z</time>
      </trkpt>
      <trkpt lat="45.83756" lon="4.68348">
        <ele>263.53238</ele>
        <time>2023-04-14T11:49:52.000Z</time>
      </trkpt>
      <trkpt lat="45.83753" lon="4.68353">
        <ele>264.10499</ele>
        <time>2023-04-14T11:49:53.000Z</time>
      </trkpt>
      <trkpt lat="45.8375" lon="4.68357">
        <ele>264.57469</ele>
        <time>2023-04-14T11:49:54.000Z</time>
      </trkpt>
      <trkpt lat="45.83748" lon="4.68361">
        <ele>264.84837</ele>
        <time>2023-04-14T11:49:55.000Z</time>
      </trkpt>
      <trkpt lat="45.83745" lon="4.68365">
        <ele>265.04003</ele>
        <time>2023-04-14T11:49:56.000Z</time>
      </trkpt>
      <trkpt lat="45.83743" lon="4.68369">
        <ele>265.26241</ele>
        <time>2023-04-14T11:49:57.000Z</time>
      </trkpt>
      <trkpt lat="45.83741" lon="4.68374">
        <ele>265.60609</ele>
        <time>2023-04-14T11:49:58.000Z</time>
      </trkpt>
      <trkpt lat="45.83738" lon="4.68378">
        <ele>266.04798</ele>
        <time>2023-04-14T11:49:59.000Z</time>
      </trkpt>
      <trkpt lat="45.83736" lon="4.68382">
        <ele>266.51046</ele>
        <time>2023-04-14T11:50:00.000Z</time>
      </trkpt>
      <trkpt lat="45.83733" lon="4.68386">
        <ele>266.97648</ele>
        <time>2023-04-14T11:50:01.000Z</time>
      </trkpt>
      <trkpt lat="45.83731" lon="4.68391">
        <ele>267.52751</ele>
        <time>2023-04-14T11:50:02.000Z</time>
      </trkpt>
      <trkpt lat="45.83729" lon="4.68395">
        <ele>267.94533</ele>
        <time>2023-04-14T11:50:03.000Z</time>
      </trkpt>
      <trkpt lat="45.83727" lon="4.68399">
        <ele>268.26724</ele>
        <time>2023-04-14T11:50:04.000Z</time>
      </trkpt>
      <trkpt lat="45.83724" lon="4.68403">
        <ele>268.60915</ele>
        <time>2023-04-14T11:50:05.000Z</time>
      </trkpt>
      <trkpt lat="45.83722" lon="4.68407">
        <ele>269.01383</ele>
        <time>2023-04-14T11:50:06.000Z</time>
      </trkpt>
      <trkpt lat="45.8372" lon="4.68412">
        <ele>269.52946</ele>
        <time>2023-04-14T11:50:07.000Z</time>
      </trkpt>
      <trkpt lat="45.83718" lon="4.68416">
        <ele>269.97255</ele>
        <time>2023-04-14T11:50:08.000Z</time>
      </trkpt>
      <trkpt lat="45.83716" lon="4.6842">
        <ele>270.40361</ele>
        <time>2023-04-14T11:50:09.000Z</time>
      </trkpt>
      <trkpt lat="45.83714" lon="4.68424">
        <ele>270.76255</ele>
        <time>2023-04-14T11:50:10.000Z</time>
      </trkpt>
      <trkpt lat="45.83713" lon="4.68428">
        <ele>271.02231</ele>
        <time>2023-04-14T11:50:11.000Z</time>
      </trkpt>
      <trkpt lat="45.83711" lon="4.68431">
        <ele>271.21321</ele>
        <time>2023-04-14T11:50:12.000Z</time>
      </trkpt>
      <trkpt lat="45.83709" lon="4.68434">
        <ele>271.38775</ele>
        <time>2023-04-14T11:50:13.000Z</time>
      </trkpt>
      <trkpt lat="45.83708" lon="4.68437">
        <ele>271.53347</ele>
        <time>2023-04-14T11:50:14.000Z</time>
      </trkpt>
      <trkpt lat="45.83707" lon="4.68441">
        <ele>271.70005</ele>
        <time>2023-04-14T11:50:15.000Z</time>
      </trkpt>
      <trkpt lat="45.83706" lon="4.68444">
        <ele>271.8348</ele>
        <time>2023-04-14T11:50:16.000Z</time>
      </trkpt>
      <trkpt lat="45.83705" lon="4.68447">
        <ele>271.89945</ele>
        <time>2023-04-14T11:50:17.000Z</time>
      </trkpt>
      <trkpt lat="45.83703" lon="4.68449">
        <ele>271.91283</ele>
        <time>2023-04-14T11:50:18.000Z</time>
      </trkpt>
      <trkpt lat="45.83702" lon="4.68451">
        <ele>271.88869</ele>
        <time>2023-04-14T11:50:19.000Z</time>
      </trkpt>
      <trkpt lat="45.83699" lon="4.68451">
        <ele>271.75797</ele>
        <time>2023-04-14T11:50:20.000Z</time>
      </trkpt>
      <trkpt lat="45.83697" lon="4.6845">
        <ele>271.58948</ele>
        <time>2023-04-14T11:50:21.000Z</time>
      </trkpt>
      <trkpt lat="45.83697" lon="4.6845">
        <ele>271.58948</ele>
        <time>2023-04-14T11:50:21.000Z</time>
      </trkpt>
      <trkpt lat="45.83695" lon="4.68449">
        <ele>271.40753</ele>
        <time>2023-04-14T11:50:22.000Z</time>
      </trkpt>
      <trkpt lat="45.83693" lon="4.68448">
        <ele>271.20098</ele>
        <time>2023-04-14T11:50:23.000Z</time>
      </trkpt>
      <trkpt lat="45.83692" lon="4.68446">
        <ele>270.97573</ele>
        <time>2023-04-14T11:50:24.000Z</time>
      </trkpt>
      <trkpt lat="45.8369" lon="4.68444">
        <ele>270.73939</ele>
        <time>2023-04-14T11:50:25.000Z</time>
      </trkpt>
      <trkpt lat="45.83689" lon="4.68442">
        <ele>270.48033</ele>
        <time>2023-04-14T11:50:26.000Z</time>
      </trkpt>
      <trkpt lat="45.83687" lon="4.68439">
        <ele>270.22254</ele>
        <time>2023-04-14T11:50:27.000Z</time>
      </trkpt>
      <trkpt lat="45.83685" lon="4.68437">
        <ele>270.02201</ele>
        <time>2023-04-14T11:50:28.000Z</time>
      </trkpt>
      <trkpt lat="45.83682" lon="4.68435">
        <ele>269.95037</ele>
        <time>2023-04-14T11:50:29.000Z</time>
      </trkpt>
      <trkpt lat="45.8368" lon="4.68433">
        <ele>270.00603</ele>
        <time>2023-04-14T11:50:30.000Z</time>
      </trkpt>
      <trkpt lat="45.83678" lon="4.6843">
        <ele>270.11098</ele>
        <time>2023-04-14T11:50:31.000Z</time>
      </trkpt>
      <trkpt lat="45.83676" lon="4.68427">
        <ele>270.29902</ele>
        <time>2023-04-14T11:50:32.000Z</time>
      </trkpt>
      <trkpt lat="45.83674" lon="4.68425">
        <ele>270.51713</ele>
        <time>2023-04-14T11:50:33.000Z</time>
      </trkpt>
      <trkpt lat="45.83672" lon="4.68422">
        <ele>270.6462</ele>
        <time>2023-04-14T11:50:34.000Z</time>
      </trkpt>
      <trkpt lat="45.8367" lon="4.68419">
        <ele>270.58394</ele>
        <time>2023-04-14T11:50:35.000Z</time>
      </trkpt>
      <trkpt lat="45.83668" lon="4.68416">
        <ele>270.19781</ele>
        <time>2023-04-14T11:50:36.000Z</time>
      </trkpt>
      <trkpt lat="45.83666" lon="4.68413">
        <ele>269.60517</ele>
        <time>2023-04-14T11:50:37.000Z</time>
      </trkpt>
      <trkpt lat="45.83664" lon="4.6841">
        <ele>268.89597</ele>
        <time>2023-04-14T11:50:38.000Z</time>
      </trkpt>
      <trkpt lat="45.83662" lon="4.68408">
        <ele>268.12461</ele>
        <time>2023-04-14T11:50:39.000Z</time>
      </trkpt>
      <trkpt lat="45.8366" lon="4.68405">
        <ele>267.32272</ele>
        <time>2023-04-14T11:50:40.000Z</time>
      </trkpt>
      <trkpt lat="45.83659" lon="4.68402">
        <ele>266.49467</ele>
        <time>2023-04-14T11:50:41.000Z</time>
      </trkpt>
      <trkpt lat="45.83658" lon="4.68399">
        <ele>265.74949</ele>
        <time>2023-04-14T11:50:42.000Z</time>
      </trkpt>
      <trkpt lat="45.83656" lon="4.68396">
        <ele>265.19001</ele>
        <time>2023-04-14T11:50:43.000Z</time>
      </trkpt>
      <trkpt lat="45.83655" lon="4.68392">
        <ele>264.8343</ele>
        <time>2023-04-14T11:50:44.000Z</time>
      </trkpt>
      <trkpt lat="45.83653" lon="4.68389">
        <ele>264.76013</ele>
        <time>2023-04-14T11:50:45.000Z</time>
      </trkpt>
      <trkpt lat="45.8365" lon="4.68387">
        <ele>264.83463</ele>
        <time>2023-04-14T11:50:46.000Z</time>
      </trkpt>
      <trkpt lat="45.83649" lon="4.68383">
        <ele>264.88113</ele>
        <time>2023-04-14T11:50:47.000Z</time>
      </trkpt>
      <trkpt lat="45.83647" lon="4.6838">
        <ele>264.8718</ele>
        <time>2023-04-14T11:50:48.000Z</time>
      </trkpt>
      <trkpt lat="45.83645" lon="4.68376">
        <ele>264.87972</ele>
        <time>2023-04-14T11:50:49.000Z</time>
      </trkpt>
      <trkpt lat="45.83643" lon="4.68373">
        <ele>264.9272</ele>
        <time>2023-04-14T11:50:50.000Z</time>
      </trkpt>
      <trkpt lat="45.83642" lon="4.6837">
        <ele>265.0296</ele>
        <time>2023-04-14T11:50:51.000Z</time>
      </trkpt>
      <trkpt lat="45.8364" lon="4.68367">
        <ele>265.23386</ele>
        <time>2023-04-14T11:50:52.000Z</time>
      </trkpt>
      <trkpt lat="45.83638" lon="4.68364">
        <ele>265.56641</ele>
        <time>2023-04-14T11:50:53.000Z</time>
      </trkpt>
      <trkpt lat="45.83636" lon="4.68361">
        <ele>266.02681</ele>
        <time>2023-04-14T11:50:54.000Z</time>
      </trkpt>
      <trkpt lat="45.83635" lon="4.68358">
        <ele>266.59076</ele>
        <time>2023-04-14T11:50:55.000Z</time>
      </trkpt>
      <trkpt lat="45.83634" lon="4.68354">
        <ele>267.23369</ele>
        <time>2023-04-14T11:50:56.000Z</time>
      </trkpt>
      <trkpt lat="45.83632" lon="4.68351">
        <ele>268.05826</ele>
        <time>2023-04-14T11:50:57.000Z</time>
      </trkpt>
      <trkpt lat="45.83631" lon="4.68347">
        <ele>268.89646</ele>
        <time>2023-04-14T11:50:58.000Z</time>
      </trkpt>
      <trkpt lat="45.83629" lon="4.68344">
        <ele>269.61765</ele>
        <time>2023-04-14T11:50:59.000Z</time>
      </trkpt>
      <trkpt lat="45.83627" lon="4.6834">
        <ele>270.17039</ele>
        <time>2023-04-14T11:51:00.000Z</time>
      </trkpt>
      <trkpt lat="45.83625" lon="4.68336">
        <ele>270.49794</ele>
        <time>2023-04-14T11:51:01.000Z</time>
      </trkpt>
      <trkpt lat="45.83623" lon="4.68332">
        <ele>270.62939</ele>
        <time>2023-04-14T11:51:02.000Z</time>
      </trkpt>
      <trkpt lat="45.83621" lon="4.68329">
        <ele>270.65573</ele>
        <time>2023-04-14T11:51:03.000Z</time>
      </trkpt>
      <trkpt lat="45.83619" lon="4.68325">
        <ele>270.69275</ele>
        <time>2023-04-14T11:51:04.000Z</time>
      </trkpt>
      <trkpt lat="45.83617" lon="4.68321">
        <ele>270.76709</ele>
        <time>2023-04-14T11:51:05.000Z</time>
      </trkpt>
      <trkpt lat="45.83615" lon="4.68318">
        <ele>270.86527</ele>
        <time>2023-04-14T11:51:06.000Z</time>
      </trkpt>
      <trkpt lat="45.83613" lon="4.68314">
        <ele>270.96936</ele>
        <time>2023-04-14T11:51:07.000Z</time>
      </trkpt>
      <trkpt lat="45.83611" lon="4.68311">
        <ele>271.07182</ele>
        <time>2023-04-14T11:51:08.000Z</time>
      </trkpt>
      <trkpt lat="45.83609" lon="4.68308">
        <ele>271.15476</ele>
        <time>2023-04-14T11:51:09.000Z</time>
      </trkpt>
      <trkpt lat="45.83607" lon="4.68305">
        <ele>271.21543</ele>
        <time>2023-04-14T11:51:10.000Z</time>
      </trkpt>
      <trkpt lat="45.83606" lon="4.68302">
        <ele>271.24782</ele>
        <time>2023-04-14T11:51:11.000Z</time>
      </trkpt>
      <trkpt lat="45.83604" lon="4.68299">
        <ele>271.25984</ele>
        <time>2023-04-14T11:51:12.000Z</time>
      </trkpt>
      <trkpt lat="45.83603" lon="4.68296">
        <ele>271.25281</ele>
        <time>2023-04-14T11:51:13.000Z</time>
      </trkpt>
      <trkpt lat="45.83601" lon="4.68293">
        <ele>271.23187</ele>
        <time>2023-04-14T11:51:14.000Z</time>
      </trkpt>
      <trkpt lat="45.83599" lon="4.6829">
        <ele>271.19227</ele>
        <time>2023-04-14T11:51:15.000Z</time>
      </trkpt>
      <trkpt lat="45.83598" lon="4.68287">
        <ele>271.12841</ele>
        <time>2023-04-14T11:51:16.000Z</time>
      </trkpt>
      <trkpt lat="45.83597" lon="4.68283">
        <ele>271.04821</ele>
        <time>2023-04-14T11:51:17.000Z</time>
      </trkpt>
      <trkpt lat="45.83596" lon="4.68279">
        <ele>270.9242</ele>
        <time>2023-04-14T11:51:18.000Z</time>
      </trkpt>
      <trkpt lat="45.83595" lon="4.68275">
        <ele>270.74671</ele>
        <time>2023-04-14T11:51:19.000Z</time>
      </trkpt>
      <trkpt lat="45.83595" lon="4.6827">
        <ele>270.52707</ele>
        <time>2023-04-14T11:51:20.000Z</time>
      </trkpt>
      <trkpt lat="45.83595" lon="4.68265">
        <ele>270.2478</ele>
        <time>2023-04-14T11:51:21.000Z</time>
      </trkpt>
      <trkpt lat="45.83595" lon="4.68258">
        <ele>269.91319</ele>
        <time>2023-04-14T11:51:22.000Z</time>
      </trkpt>
      <trkpt lat="45.83597" lon="4.68251">
        <ele>269.4701</ele>
        <time>2023-04-14T11:51:23.000Z</time>
      </trkpt>
      <trkpt lat="45.83598" lon="4.68244">
        <ele>268.91368</ele>
        <time>2023-04-14T11:51:24.000Z</time>
      </trkpt>
      <trkpt lat="45.83601" lon="4.68235">
        <ele>268.40641</ele>
        <time>2023-04-14T11:51:25.000Z</time>
      </trkpt>
      <trkpt lat="45.83603" lon="4.68227">
        <ele>268.06204</ele>
        <time>2023-04-14T11:51:26.000Z</time>
      </trkpt>
      <trkpt lat="45.83607" lon="4.68218">
        <ele>267.86488</ele>
        <time>2023-04-14T11:51:27.000Z</time>
      </trkpt>
      <trkpt lat="45.8361" lon="4.6821">
        <ele>267.66053</ele>
        <time>2023-04-14T11:51:28.000Z</time>
      </trkpt>
      <trkpt lat="45.83614" lon="4.68201">
        <ele>267.40779</ele>
        <time>2023-04-14T11:51:29.000Z</time>
      </trkpt>
      <trkpt lat="45.83618" lon="4.68193">
        <ele>267.22249</ele>
        <time>2023-04-14T11:51:30.000Z</time>
      </trkpt>
      <trkpt lat="45.83622" lon="4.68184">
        <ele>267.07444</ele>
        <time>2023-04-14T11:51:31.000Z</time>
      </trkpt>
      <trkpt lat="45.83625" lon="4.68176">
        <ele>267.00478</ele>
        <time>2023-04-14T11:51:32.000Z</time>
      </trkpt>
      <trkpt lat="45.83629" lon="4.68168">
        <ele>267.06241</ele>
        <time>2023-04-14T11:51:33.000Z</time>
      </trkpt>
      <trkpt lat="45.83633" lon="4.6816">
        <ele>267.1522</ele>
        <time>2023-04-14T11:51:34.000Z</time>
      </trkpt>
      <trkpt lat="45.83636" lon="4.68152">
        <ele>267.03596</ele>
        <time>2023-04-14T11:51:35.000Z</time>
      </trkpt>
      <trkpt lat="45.8364" lon="4.68144">
        <ele>266.74272</ele>
        <time>2023-04-14T11:51:36.000Z</time>
      </trkpt>
      <trkpt lat="45.83644" lon="4.68136">
        <ele>266.44934</ele>
        <time>2023-04-14T11:51:37.000Z</time>
      </trkpt>
      <trkpt lat="45.83648" lon="4.68129">
        <ele>266.45234</ele>
        <time>2023-04-14T11:51:38.000Z</time>
      </trkpt>
      <trkpt lat="45.83653" lon="4.68123">
        <ele>266.57636</ele>
        <time>2023-04-14T11:51:39.000Z</time>
      </trkpt>
      <trkpt lat="45.83657" lon="4.68117">
        <ele>266.52271</ele>
        <time>2023-04-14T11:51:40.000Z</time>
      </trkpt>
      <trkpt lat="45.83662" lon="4.68112">
        <ele>266.20975</ele>
        <time>2023-04-14T11:51:41.000Z</time>
      </trkpt>
      <trkpt lat="45.83666" lon="4.68107">
        <ele>265.83209</ele>
        <time>2023-04-14T11:51:42.000Z</time>
      </trkpt>
      <trkpt lat="45.83671" lon="4.68101">
        <ele>265.58313</ele>
        <time>2023-04-14T11:51:43.000Z</time>
      </trkpt>
      <trkpt lat="45.83675" lon="4.68095">
        <ele>265.53407</ele>
        <time>2023-04-14T11:51:44.000Z</time>
      </trkpt>
      <trkpt lat="45.83679" lon="4.6809">
        <ele>265.44512</ele>
        <time>2023-04-14T11:51:45.000Z</time>
      </trkpt>
      <trkpt lat="45.83683" lon="4.68086">
        <ele>265.15637</ele>
        <time>2023-04-14T11:51:46.000Z</time>
      </trkpt>
      <trkpt lat="45.83687" lon="4.68082">
        <ele>264.66597</ele>
        <time>2023-04-14T11:51:47.000Z</time>
      </trkpt>
      <trkpt lat="45.83689" lon="4.68078">
        <ele>264.04116</ele>
        <time>2023-04-14T11:51:48.000Z</time>
      </trkpt>
      <trkpt lat="45.83692" lon="4.68074">
        <ele>263.33771</ele>
        <time>2023-04-14T11:51:49.000Z</time>
      </trkpt>
      <trkpt lat="45.83694" lon="4.68069">
        <ele>262.74892</ele>
        <time>2023-04-14T11:51:50.000Z</time>
      </trkpt>
      <trkpt lat="45.83695" lon="4.68065">
        <ele>262.37657</ele>
        <time>2023-04-14T11:51:51.000Z</time>
      </trkpt>
      <trkpt lat="45.83696" lon="4.68059">
        <ele>262.17821</ele>
        <time>2023-04-14T11:51:52.000Z</time>
      </trkpt>
      <trkpt lat="45.83696" lon="4.68054">
        <ele>262.27159</ele>
        <time>2023-04-14T11:51:53.000Z</time>
      </trkpt>
      <trkpt lat="45.83694" lon="4.68049">
        <ele>262.5342</ele>
        <time>2023-04-14T11:51:54.000Z</time>
      </trkpt>
      <trkpt lat="45.83691" lon="4.68043">
        <ele>262.87105</ele>
        <time>2023-04-14T11:51:55.000Z</time>
      </trkpt>
      <trkpt lat="45.83688" lon="4.68039">
        <ele>263.19512</ele>
        <time>2023-04-14T11:51:56.000Z</time>
      </trkpt>
      <trkpt lat="45.83685" lon="4.68034">
        <ele>263.53649</ele>
        <time>2023-04-14T11:51:57.000Z</time>
      </trkpt>
      <trkpt lat="45.83682" lon="4.6803">
        <ele>263.80335</ele>
        <time>2023-04-14T11:51:58.000Z</time>
      </trkpt>
      <trkpt lat="45.83679" lon="4.68026">
        <ele>263.99815</ele>
        <time>2023-04-14T11:51:59.000Z</time>
      </trkpt>
      <trkpt lat="45.83674" lon="4.68022">
        <ele>264.39858</ele>
        <time>2023-04-14T11:52:00.000Z</time>
      </trkpt>
      <trkpt lat="45.83671" lon="4.68018">
        <ele>264.47657</ele>
        <time>2023-04-14T11:52:01.000Z</time>
      </trkpt>
      <trkpt lat="45.83668" lon="4.68014">
        <ele>264.60038</ele>
        <time>2023-04-14T11:52:02.000Z</time>
      </trkpt>
      <trkpt lat="45.83665" lon="4.6801">
        <ele>264.67795</ele>
        <time>2023-04-14T11:52:03.000Z</time>
      </trkpt>
      <trkpt lat="45.83662" lon="4.68006">
        <ele>264.78664</ele>
        <time>2023-04-14T11:52:04.000Z</time>
      </trkpt>
      <trkpt lat="45.83659" lon="4.68003">
        <ele>264.94608</ele>
        <time>2023-04-14T11:52:05.000Z</time>
      </trkpt>
      <trkpt lat="45.83656" lon="4.67998">
        <ele>264.96873</ele>
        <time>2023-04-14T11:52:06.000Z</time>
      </trkpt>
      <trkpt lat="45.83653" lon="4.67994">
        <ele>265.06921</ele>
        <time>2023-04-14T11:52:07.000Z</time>
      </trkpt>
      <trkpt lat="45.8365" lon="4.6799">
        <ele>265.18862</ele>
        <time>2023-04-14T11:52:08.000Z</time>
      </trkpt>
      <trkpt lat="45.83647" lon="4.67985">
        <ele>265.2644</ele>
        <time>2023-04-14T11:52:09.000Z</time>
      </trkpt>
      <trkpt lat="45.83644" lon="4.67982">
        <ele>265.36196</ele>
        <time>2023-04-14T11:52:10.000Z</time>
      </trkpt>
      <trkpt lat="45.8364" lon="4.67978">
        <ele>265.49737</ele>
        <time>2023-04-14T11:52:11.000Z</time>
      </trkpt>
      <trkpt lat="45.83637" lon="4.67974">
        <ele>265.60491</ele>
        <time>2023-04-14T11:52:12.000Z</time>
      </trkpt>
      <trkpt lat="45.83634" lon="4.67971">
        <ele>265.71923</ele>
        <time>2023-04-14T11:52:13.000Z</time>
      </trkpt>
      <trkpt lat="45.8363" lon="4.67967">
        <ele>265.84045</ele>
        <time>2023-04-14T11:52:14.000Z</time>
      </trkpt>
      <trkpt lat="45.83627" lon="4.67963">
        <ele>265.92534</ele>
        <time>2023-04-14T11:52:15.000Z</time>
      </trkpt>
      <trkpt lat="45.83623" lon="4.67959">
        <ele>265.98379</ele>
        <time>2023-04-14T11:52:16.000Z</time>
      </trkpt>
      <trkpt lat="45.83619" lon="4.67956">
        <ele>266.00267</ele>
        <time>2023-04-14T11:52:17.000Z</time>
      </trkpt>
      <trkpt lat="45.83616" lon="4.67952">
        <ele>266.03641</ele>
        <time>2023-04-14T11:52:18.000Z</time>
      </trkpt>
      <trkpt lat="45.83612" lon="4.67947">
        <ele>266.00439</ele>
        <time>2023-04-14T11:52:19.000Z</time>
      </trkpt>
      <trkpt lat="45.83608" lon="4.67944">
        <ele>266.05387</ele>
        <time>2023-04-14T11:52:20.000Z</time>
      </trkpt>
      <trkpt lat="45.83604" lon="4.67941">
        <ele>266.10953</ele>
        <time>2023-04-14T11:52:21.000Z</time>
      </trkpt>
      <trkpt lat="45.836" lon="4.67938">
        <ele>266.20433</ele>
        <time>2023-04-14T11:52:22.000Z</time>
      </trkpt>
      <trkpt lat="45.83596" lon="4.67935">
        <ele>266.27168</ele>
        <time>2023-04-14T11:52:23.000Z</time>
      </trkpt>
      <trkpt lat="45.83592" lon="4.67932">
        <ele>266.41927</ele>
        <time>2023-04-14T11:52:24.000Z</time>
      </trkpt>
      <trkpt lat="45.83588" lon="4.67929">
        <ele>266.41563</ele>
        <time>2023-04-14T11:52:25.000Z</time>
      </trkpt>
      <trkpt lat="45.83584" lon="4.67926">
        <ele>266.46498</ele>
        <time>2023-04-14T11:52:26.000Z</time>
      </trkpt>
      <trkpt lat="45.8358" lon="4.67923">
        <ele>266.59201</ele>
        <time>2023-04-14T11:52:27.000Z</time>
      </trkpt>
      <trkpt lat="45.83576" lon="4.67919">
        <ele>266.51801</ele>
        <time>2023-04-14T11:52:28.000Z</time>
      </trkpt>
      <trkpt lat="45.83573" lon="4.67915">
        <ele>266.39081</ele>
        <time>2023-04-14T11:52:29.000Z</time>
      </trkpt>
      <trkpt lat="45.83568" lon="4.67911">
        <ele>266.36143</ele>
        <time>2023-04-14T11:52:30.000Z</time>
      </trkpt>
      <trkpt lat="45.83564" lon="4.67907">
        <ele>266.34981</ele>
        <time>2023-04-14T11:52:31.000Z</time>
      </trkpt>
      <trkpt lat="45.83559" lon="4.67903">
        <ele>266.26622</ele>
        <time>2023-04-14T11:52:32.000Z</time>
      </trkpt>
      <trkpt lat="45.83555" lon="4.67899">
        <ele>266.26258</ele>
        <time>2023-04-14T11:52:33.000Z</time>
      </trkpt>
      <trkpt lat="45.83552" lon="4.67895">
        <ele>266.20872</ele>
        <time>2023-04-14T11:52:34.000Z</time>
      </trkpt>
      <trkpt lat="45.83548" lon="4.67891">
        <ele>266.22385</ele>
        <time>2023-04-14T11:52:35.000Z</time>
      </trkpt>
      <trkpt lat="45.83544" lon="4.67886">
        <ele>266.2248</ele>
        <time>2023-04-14T11:52:36.000Z</time>
      </trkpt>
      <trkpt lat="45.83541" lon="4.67881">
        <ele>266.29994</ele>
        <time>2023-04-14T11:52:37.000Z</time>
      </trkpt>
      <trkpt lat="45.83537" lon="4.67876">
        <ele>266.42959</ele>
        <time>2023-04-14T11:52:38.000Z</time>
      </trkpt>
      <trkpt lat="45.83534" lon="4.6787">
        <ele>266.44938</ele>
        <time>2023-04-14T11:52:39.000Z</time>
      </trkpt>
      <trkpt lat="45.8353" lon="4.67866">
        <ele>266.58713</ele>
        <time>2023-04-14T11:52:40.000Z</time>
      </trkpt>
      <trkpt lat="45.83528" lon="4.67861">
        <ele>266.56246</ele>
        <time>2023-04-14T11:52:41.000Z</time>
      </trkpt>
      <trkpt lat="45.83524" lon="4.67857">
        <ele>266.73871</ele>
        <time>2023-04-14T11:52:42.000Z</time>
      </trkpt>
      <trkpt lat="45.83522" lon="4.67852">
        <ele>266.80837</ele>
        <time>2023-04-14T11:52:43.000Z</time>
      </trkpt>
      <trkpt lat="45.83518" lon="4.67849">
        <ele>267.01857</ele>
        <time>2023-04-14T11:52:44.000Z</time>
      </trkpt>
      <trkpt lat="45.83515" lon="4.67845">
        <ele>267.13368</ele>
        <time>2023-04-14T11:52:45.000Z</time>
      </trkpt>
      <trkpt lat="45.83513" lon="4.67842">
        <ele>267.17702</ele>
        <time>2023-04-14T11:52:46.000Z</time>
      </trkpt>
      <trkpt lat="45.8351" lon="4.67838">
        <ele>267.19497</ele>
        <time>2023-04-14T11:52:47.000Z</time>
      </trkpt>
      <trkpt lat="45.83506" lon="4.67834">
        <ele>267.18024</ele>
        <time>2023-04-14T11:52:48.000Z</time>
      </trkpt>
      <trkpt lat="45.83503" lon="4.67831">
        <ele>267.15143</ele>
        <time>2023-04-14T11:52:49.000Z</time>
      </trkpt>
      <trkpt lat="45.835" lon="4.67828">
        <ele>267.07612</ele>
        <time>2023-04-14T11:52:50.000Z</time>
      </trkpt>
      <trkpt lat="45.83496" lon="4.67824">
        <ele>266.97878</ele>
        <time>2023-04-14T11:52:51.000Z</time>
      </trkpt>
      <trkpt lat="45.83492" lon="4.67822">
        <ele>266.95745</ele>
        <time>2023-04-14T11:52:52.000Z</time>
      </trkpt>
      <trkpt lat="45.83488" lon="4.67819">
        <ele>266.932</ele>
        <time>2023-04-14T11:52:53.000Z</time>
      </trkpt>
      <trkpt lat="45.83483" lon="4.67816">
        <ele>266.94881</ele>
        <time>2023-04-14T11:52:54.000Z</time>
      </trkpt>
      <trkpt lat="45.83479" lon="4.67815">
        <ele>266.98642</ele>
        <time>2023-04-14T11:52:55.000Z</time>
      </trkpt>
      <trkpt lat="45.83474" lon="4.67814">
        <ele>267.09342</ele>
        <time>2023-04-14T11:52:56.000Z</time>
      </trkpt>
      <trkpt lat="45.8347" lon="4.67812">
        <ele>267.10687</ele>
        <time>2023-04-14T11:52:57.000Z</time>
      </trkpt>
      <trkpt lat="45.83465" lon="4.6781">
        <ele>267.12016</ele>
        <time>2023-04-14T11:52:58.000Z</time>
      </trkpt>
      <trkpt lat="45.8346" lon="4.67808">
        <ele>267.05655</ele>
        <time>2023-04-14T11:52:59.000Z</time>
      </trkpt>
      <trkpt lat="45.83456" lon="4.67805">
        <ele>266.87521</ele>
        <time>2023-04-14T11:53:00.000Z</time>
      </trkpt>
      <trkpt lat="45.83452" lon="4.67801">
        <ele>266.69433</ele>
        <time>2023-04-14T11:53:01.000Z</time>
      </trkpt>
      <trkpt lat="45.83448" lon="4.67796">
        <ele>266.49771</ele>
        <time>2023-04-14T11:53:02.000Z</time>
      </trkpt>
      <trkpt lat="45.83445" lon="4.6779">
        <ele>266.32834</ele>
        <time>2023-04-14T11:53:03.000Z</time>
      </trkpt>
      <trkpt lat="45.83443" lon="4.67784">
        <ele>266.18564</ele>
        <time>2023-04-14T11:53:04.000Z</time>
      </trkpt>
      <trkpt lat="45.83442" lon="4.67777">
        <ele>266.03958</ele>
        <time>2023-04-14T11:53:05.000Z</time>
      </trkpt>
      <trkpt lat="45.83441" lon="4.67771">
        <ele>265.9136</ele>
        <time>2023-04-14T11:53:06.000Z</time>
      </trkpt>
      <trkpt lat="45.8344" lon="4.67764">
        <ele>265.8081</ele>
        <time>2023-04-14T11:53:07.000Z</time>
      </trkpt>
      <trkpt lat="45.8344" lon="4.67758">
        <ele>265.68537</ele>
        <time>2023-04-14T11:53:08.000Z</time>
      </trkpt>
      <trkpt lat="45.83438" lon="4.67751">
        <ele>265.7497</ele>
        <time>2023-04-14T11:53:09.000Z</time>
      </trkpt>
      <trkpt lat="45.83437" lon="4.67745">
        <ele>265.81447</ele>
        <time>2023-04-14T11:53:10.000Z</time>
      </trkpt>
      <trkpt lat="45.83435" lon="4.67739">
        <ele>265.91028</ele>
        <time>2023-04-14T11:53:11.000Z</time>
      </trkpt>
      <trkpt lat="45.83433" lon="4.67734">
        <ele>266.03922</ele>
        <time>2023-04-14T11:53:12.000Z</time>
      </trkpt>
      <trkpt lat="45.83431" lon="4.67729">
        <ele>266.10603</ele>
        <time>2023-04-14T11:53:13.000Z</time>
      </trkpt>
      <trkpt lat="45.83429" lon="4.67724">
        <ele>266.22473</ele>
        <time>2023-04-14T11:53:14.000Z</time>
      </trkpt>
      <trkpt lat="45.83426" lon="4.67721">
        <ele>266.40258</ele>
        <time>2023-04-14T11:53:15.000Z</time>
      </trkpt>
      <trkpt lat="45.83424" lon="4.67716">
        <ele>266.45357</ele>
        <time>2023-04-14T11:53:16.000Z</time>
      </trkpt>
      <trkpt lat="45.83421" lon="4.67713">
        <ele>266.62318</ele>
        <time>2023-04-14T11:53:17.000Z</time>
      </trkpt>
      <trkpt lat="45.83418" lon="4.67709">
        <ele>266.82658</ele>
        <time>2023-04-14T11:53:18.000Z</time>
      </trkpt>
      <trkpt lat="45.83415" lon="4.67706">
        <ele>267.0381</ele>
        <time>2023-04-14T11:53:19.000Z</time>
      </trkpt>
      <trkpt lat="45.83412" lon="4.67703">
        <ele>267.20561</ele>
        <time>2023-04-14T11:53:20.000Z</time>
      </trkpt>
      <trkpt lat="45.83409" lon="4.677">
        <ele>267.40462</ele>
        <time>2023-04-14T11:53:21.000Z</time>
      </trkpt>
      <trkpt lat="45.83406" lon="4.67698">
        <ele>267.57733</ele>
        <time>2023-04-14T11:53:22.000Z</time>
      </trkpt>
      <trkpt lat="45.83403" lon="4.67696">
        <ele>267.67778</ele>
        <time>2023-04-14T11:53:23.000Z</time>
      </trkpt>
      <trkpt lat="45.834" lon="4.67693">
        <ele>267.73582</ele>
        <time>2023-04-14T11:53:24.000Z</time>
      </trkpt>
      <trkpt lat="45.83397" lon="4.67691">
        <ele>267.78514</ele>
        <time>2023-04-14T11:53:25.000Z</time>
      </trkpt>
      <trkpt lat="45.83393" lon="4.67689">
        <ele>267.82621</ele>
        <time>2023-04-14T11:53:26.000Z</time>
      </trkpt>
      <trkpt lat="45.8339" lon="4.67687">
        <ele>267.89688</ele>
        <time>2023-04-14T11:53:27.000Z</time>
      </trkpt>
      <trkpt lat="45.83386" lon="4.67685">
        <ele>268.01296</ele>
        <time>2023-04-14T11:53:28.000Z</time>
      </trkpt>
      <trkpt lat="45.83382" lon="4.67683">
        <ele>268.0889</ele>
        <time>2023-04-14T11:53:29.000Z</time>
      </trkpt>
      <trkpt lat="45.83379" lon="4.6768">
        <ele>268.19341</ele>
        <time>2023-04-14T11:53:30.000Z</time>
      </trkpt>
      <trkpt lat="45.83375" lon="4.67678">
        <ele>268.28613</ele>
        <time>2023-04-14T11:53:31.000Z</time>
      </trkpt>
      <trkpt lat="45.83372" lon="4.67675">
        <ele>268.40023</ele>
        <time>2023-04-14T11:53:32.000Z</time>
      </trkpt>
      <trkpt lat="45.83368" lon="4.67673">
        <ele>268.58331</ele>
        <time>2023-04-14T11:53:33.000Z</time>
      </trkpt>
      <trkpt lat="45.83365" lon="4.67671">
        <ele>268.75501</ele>
        <time>2023-04-14T11:53:34.000Z</time>
      </trkpt>
      <trkpt lat="45.83361" lon="4.67669">
        <ele>268.8172</ele>
        <time>2023-04-14T11:53:35.000Z</time>
      </trkpt>
      <trkpt lat="45.83357" lon="4.67667">
        <ele>268.84286</ele>
        <time>2023-04-14T11:53:36.000Z</time>
      </trkpt>
      <trkpt lat="45.83353" lon="4.67664">
        <ele>268.946</ele>
        <time>2023-04-14T11:53:37.000Z</time>
      </trkpt>
      <trkpt lat="45.83349" lon="4.67662">
        <ele>269.12755</ele>
        <time>2023-04-14T11:53:38.000Z</time>
      </trkpt>
      <trkpt lat="45.83345" lon="4.6766">
        <ele>269.53344</ele>
        <time>2023-04-14T11:53:39.000Z</time>
      </trkpt>
      <trkpt lat="45.83341" lon="4.67658">
        <ele>269.64231</ele>
        <time>2023-04-14T11:53:40.000Z</time>
      </trkpt>
      <trkpt lat="45.83338" lon="4.67656">
        <ele>269.81723</ele>
        <time>2023-04-14T11:53:41.000Z</time>
      </trkpt>
      <trkpt lat="45.83334" lon="4.67654">
        <ele>269.97289</ele>
        <time>2023-04-14T11:53:42.000Z</time>
      </trkpt>
      <trkpt lat="45.8333" lon="4.67652">
        <ele>270.28179</ele>
        <time>2023-04-14T11:53:43.000Z</time>
      </trkpt>
      <trkpt lat="45.83326" lon="4.6765">
        <ele>270.52821</ele>
        <time>2023-04-14T11:53:44.000Z</time>
      </trkpt>
      <trkpt lat="45.83322" lon="4.67648">
        <ele>270.91648</ele>
        <time>2023-04-14T11:53:45.000Z</time>
      </trkpt>
      <trkpt lat="45.83319" lon="4.67646">
        <ele>271.19202</ele>
        <time>2023-04-14T11:53:46.000Z</time>
      </trkpt>
      <trkpt lat="45.83315" lon="4.67644">
        <ele>271.42894</ele>
        <time>2023-04-14T11:53:47.000Z</time>
      </trkpt>
      <trkpt lat="45.83311" lon="4.67642">
        <ele>271.68601</ele>
        <time>2023-04-14T11:53:48.000Z</time>
      </trkpt>
      <trkpt lat="45.83307" lon="4.6764">
        <ele>271.86968</ele>
        <time>2023-04-14T11:53:49.000Z</time>
      </trkpt>
      <trkpt lat="45.83304" lon="4.67638">
        <ele>272.00582</ele>
        <time>2023-04-14T11:53:50.000Z</time>
      </trkpt>
      <trkpt lat="45.83301" lon="4.67637">
        <ele>272.11818</ele>
        <time>2023-04-14T11:53:51.000Z</time>
      </trkpt>
      <trkpt lat="45.83298" lon="4.67636">
        <ele>272.17703</ele>
        <time>2023-04-14T11:53:52.000Z</time>
      </trkpt>
      <trkpt lat="45.83295" lon="4.67635">
        <ele>272.24637</ele>
        <time>2023-04-14T11:53:53.000Z</time>
      </trkpt>
      <trkpt lat="45.83293" lon="4.67634">
        <ele>272.38356</ele>
        <time>2023-04-14T11:53:54.000Z</time>
      </trkpt>
      <trkpt lat="45.83289" lon="4.67634">
        <ele>272.50627</ele>
        <time>2023-04-14T11:53:55.000Z</time>
      </trkpt>
      <trkpt lat="45.83286" lon="4.67633">
        <ele>272.57154</ele>
        <time>2023-04-14T11:53:56.000Z</time>
      </trkpt>
      <trkpt lat="45.83283" lon="4.67632">
        <ele>272.59209</ele>
        <time>2023-04-14T11:53:57.000Z</time>
      </trkpt>
      <trkpt lat="45.83279" lon="4.67632">
        <ele>272.61798</ele>
        <time>2023-04-14T11:53:58.000Z</time>
      </trkpt>
      <trkpt lat="45.83276" lon="4.67631">
        <ele>272.6359</ele>
        <time>2023-04-14T11:53:59.000Z</time>
      </trkpt>
      <trkpt lat="45.83272" lon="4.67631">
        <ele>272.62913</ele>
        <time>2023-04-14T11:54:00.000Z</time>
      </trkpt>
      <trkpt lat="45.83269" lon="4.67631">
        <ele>272.58195</ele>
        <time>2023-04-14T11:54:01.000Z</time>
      </trkpt>
      <trkpt lat="45.83265" lon="4.6763">
        <ele>272.47542</ele>
        <time>2023-04-14T11:54:02.000Z</time>
      </trkpt>
      <trkpt lat="45.83261" lon="4.6763">
        <ele>272.28319</ele>
        <time>2023-04-14T11:54:03.000Z</time>
      </trkpt>
      <trkpt lat="45.83257" lon="4.67628">
        <ele>272.00281</ele>
        <time>2023-04-14T11:54:04.000Z</time>
      </trkpt>
      <trkpt lat="45.83253" lon="4.67626">
        <ele>271.71289</ele>
        <time>2023-04-14T11:54:05.000Z</time>
      </trkpt>
      <trkpt lat="45.83249" lon="4.67623">
        <ele>271.47436</ele>
        <time>2023-04-14T11:54:06.000Z</time>
      </trkpt>
      <trkpt lat="45.83246" lon="4.6762">
        <ele>271.3541</ele>
        <time>2023-04-14T11:54:07.000Z</time>
      </trkpt>
      <trkpt lat="45.83243" lon="4.67616">
        <ele>271.29214</ele>
        <time>2023-04-14T11:54:08.000Z</time>
      </trkpt>
      <trkpt lat="45.83241" lon="4.67611">
        <ele>271.26151</ele>
        <time>2023-04-14T11:54:09.000Z</time>
      </trkpt>
      <trkpt lat="45.83239" lon="4.67606">
        <ele>271.27942</ele>
        <time>2023-04-14T11:54:10.000Z</time>
      </trkpt>
      <trkpt lat="45.83238" lon="4.676">
        <ele>271.34026</ele>
        <time>2023-04-14T11:54:11.000Z</time>
      </trkpt>
      <trkpt lat="45.83238" lon="4.67594">
        <ele>271.41568</ele>
        <time>2023-04-14T11:54:12.000Z</time>
      </trkpt>
      <trkpt lat="45.83239" lon="4.67588">
        <ele>271.45554</ele>
        <time>2023-04-14T11:54:13.000Z</time>
      </trkpt>
      <trkpt lat="45.83239" lon="4.67582">
        <ele>271.44686</ele>
        <time>2023-04-14T11:54:14.000Z</time>
      </trkpt>
      <trkpt lat="45.8324" lon="4.67577">
        <ele>271.39983</ele>
        <time>2023-04-14T11:54:15.000Z</time>
      </trkpt>
      <trkpt lat="45.83241" lon="4.67572">
        <ele>271.32839</ele>
        <time>2023-04-14T11:54:16.000Z</time>
      </trkpt>
      <trkpt lat="45.83242" lon="4.67567">
        <ele>271.27929</ele>
        <time>2023-04-14T11:54:17.000Z</time>
      </trkpt>
      <trkpt lat="45.83243" lon="4.67562">
        <ele>271.31521</ele>
        <time>2023-04-14T11:54:18.000Z</time>
      </trkpt>
      <trkpt lat="45.83243" lon="4.67557">
        <ele>271.41772</ele>
        <time>2023-04-14T11:54:19.000Z</time>
      </trkpt>
      <trkpt lat="45.83243" lon="4.67553">
        <ele>271.53793</ele>
        <time>2023-04-14T11:54:20.000Z</time>
      </trkpt>
      <trkpt lat="45.83243" lon="4.67548">
        <ele>271.64339</ele>
        <time>2023-04-14T11:54:21.000Z</time>
      </trkpt>
      <trkpt lat="45.83242" lon="4.67543">
        <ele>271.78764</ele>
        <time>2023-04-14T11:54:22.000Z</time>
      </trkpt>
      <trkpt lat="45.8324" lon="4.67538">
        <ele>271.94535</ele>
        <time>2023-04-14T11:54:23.000Z</time>
      </trkpt>
      <trkpt lat="45.83237" lon="4.67533">
        <ele>272.046</ele>
        <time>2023-04-14T11:54:24.000Z</time>
      </trkpt>
      <trkpt lat="45.83233" lon="4.6753">
        <ele>272.43981</ele>
        <time>2023-04-14T11:54:25.000Z</time>
      </trkpt>
      <trkpt lat="45.83229" lon="4.67527">
        <ele>272.52026</ele>
        <time>2023-04-14T11:54:26.000Z</time>
      </trkpt>
      <trkpt lat="45.83225" lon="4.67524">
        <ele>272.60936</ele>
        <time>2023-04-14T11:54:27.000Z</time>
      </trkpt>
      <trkpt lat="45.83222" lon="4.67521">
        <ele>272.71621</ele>
        <time>2023-04-14T11:54:28.000Z</time>
      </trkpt>
      <trkpt lat="45.83219" lon="4.67517">
        <ele>272.74897</ele>
        <time>2023-04-14T11:54:29.000Z</time>
      </trkpt>
      <trkpt lat="45.83216" lon="4.67514">
        <ele>273.10247</ele>
        <time>2023-04-14T11:54:30.000Z</time>
      </trkpt>
      <trkpt lat="45.83212" lon="4.67511">
        <ele>273.61552</ele>
        <time>2023-04-14T11:54:31.000Z</time>
      </trkpt>
      <trkpt lat="45.83208" lon="4.67508">
        <ele>274.14982</ele>
        <time>2023-04-14T11:54:32.000Z</time>
      </trkpt>
      <trkpt lat="45.83204" lon="4.67504">
        <ele>274.56289</ele>
        <time>2023-04-14T11:54:33.000Z</time>
      </trkpt>
      <trkpt lat="45.83201" lon="4.67501">
        <ele>274.76414</ele>
        <time>2023-04-14T11:54:34.000Z</time>
      </trkpt>
      <trkpt lat="45.83199" lon="4.67499">
        <ele>274.86801</ele>
        <time>2023-04-14T11:54:35.000Z</time>
      </trkpt>
      <trkpt lat="45.83195" lon="4.67495">
        <ele>274.93956</ele>
        <time>2023-04-14T11:54:36.000Z</time>
      </trkpt>
      <trkpt lat="45.83191" lon="4.6749">
        <ele>274.98013</ele>
        <time>2023-04-14T11:54:37.000Z</time>
      </trkpt>
      <trkpt lat="45.83187" lon="4.67486">
        <ele>275.00516</ele>
        <time>2023-04-14T11:54:38.000Z</time>
      </trkpt>
      <trkpt lat="45.83184" lon="4.67481">
        <ele>275.00934</ele>
        <time>2023-04-14T11:54:39.000Z</time>
      </trkpt>
      <trkpt lat="45.8318" lon="4.67478">
        <ele>275.10951</ele>
        <time>2023-04-14T11:54:40.000Z</time>
      </trkpt>
      <trkpt lat="45.83176" lon="4.67474">
        <ele>275.09807</ele>
        <time>2023-04-14T11:54:41.000Z</time>
      </trkpt>
      <trkpt lat="45.83172" lon="4.67471">
        <ele>275.03518</ele>
        <time>2023-04-14T11:54:42.000Z</time>
      </trkpt>
      <trkpt lat="45.83167" lon="4.6747">
        <ele>275.01163</ele>
        <time>2023-04-14T11:54:43.000Z</time>
      </trkpt>
      <trkpt lat="45.83163" lon="4.6747">
        <ele>275.04791</ele>
        <time>2023-04-14T11:54:44.000Z</time>
      </trkpt>
      <trkpt lat="45.83158" lon="4.6747">
        <ele>275.13853</ele>
        <time>2023-04-14T11:54:45.000Z</time>
      </trkpt>
      <trkpt lat="45.83153" lon="4.6747">
        <ele>275.31701</ele>
        <time>2023-04-14T11:54:46.000Z</time>
      </trkpt>
      <trkpt lat="45.83149" lon="4.67469">
        <ele>275.42121</ele>
        <time>2023-04-14T11:54:47.000Z</time>
      </trkpt>
      <trkpt lat="45.83145" lon="4.67467">
        <ele>275.43747</ele>
        <time>2023-04-14T11:54:48.000Z</time>
      </trkpt>
      <trkpt lat="45.83143" lon="4.67464">
        <ele>275.37372</ele>
        <time>2023-04-14T11:54:49.000Z</time>
      </trkpt>
      <trkpt lat="45.83142" lon="4.6746">
        <ele>275.24797</ele>
        <time>2023-04-14T11:54:50.000Z</time>
      </trkpt>
      <trkpt lat="45.83142" lon="4.67455">
        <ele>275.07055</ele>
        <time>2023-04-14T11:54:51.000Z</time>
      </trkpt>
      <trkpt lat="45.83144" lon="4.67451">
        <ele>274.87789</ele>
        <time>2023-04-14T11:54:52.000Z</time>
      </trkpt>
      <trkpt lat="45.83146" lon="4.67448">
        <ele>274.72571</ele>
        <time>2023-04-14T11:54:53.000Z</time>
      </trkpt>
      <trkpt lat="45.83148" lon="4.67445">
        <ele>274.60852</ele>
        <time>2023-04-14T11:54:54.000Z</time>
      </trkpt>
      <trkpt lat="45.8315" lon="4.67442">
        <ele>274.53597</ele>
        <time>2023-04-14T11:54:55.000Z</time>
      </trkpt>
      <trkpt lat="45.83153" lon="4.6744">
        <ele>274.49037</ele>
        <time>2023-04-14T11:54:56.000Z</time>
      </trkpt>
      <trkpt lat="45.83156" lon="4.67438">
        <ele>274.46013</ele>
        <time>2023-04-14T11:54:57.000Z</time>
      </trkpt>
      <trkpt lat="45.83159" lon="4.67435">
        <ele>274.43563</ele>
        <time>2023-04-14T11:54:58.000Z</time>
      </trkpt>
      <trkpt lat="45.83162" lon="4.67433">
        <ele>274.41927</ele>
        <time>2023-04-14T11:54:59.000Z</time>
      </trkpt>
      <trkpt lat="45.83166" lon="4.67432">
        <ele>274.421</ele>
        <time>2023-04-14T11:55:00.000Z</time>
      </trkpt>
      <trkpt lat="45.83169" lon="4.6743">
        <ele>274.448</ele>
        <time>2023-04-14T11:55:01.000Z</time>
      </trkpt>
      <trkpt lat="45.83172" lon="4.67429">
        <ele>274.5078</ele>
        <time>2023-04-14T11:55:02.000Z</time>
      </trkpt>
      <trkpt lat="45.83175" lon="4.67427">
        <ele>274.58093</ele>
        <time>2023-04-14T11:55:03.000Z</time>
      </trkpt>
      <trkpt lat="45.83179" lon="4.67426">
        <ele>274.68287</ele>
        <time>2023-04-14T11:55:04.000Z</time>
      </trkpt>
      <trkpt lat="45.83182" lon="4.67425">
        <ele>274.80911</ele>
        <time>2023-04-14T11:55:05.000Z</time>
      </trkpt>
      <trkpt lat="45.83185" lon="4.67423">
        <ele>274.96715</ele>
        <time>2023-04-14T11:55:06.000Z</time>
      </trkpt>
      <trkpt lat="45.83187" lon="4.67421">
        <ele>275.17939</ele>
        <time>2023-04-14T11:55:07.000Z</time>
      </trkpt>
      <trkpt lat="45.8319" lon="4.67418">
        <ele>275.47824</ele>
        <time>2023-04-14T11:55:08.000Z</time>
      </trkpt>
      <trkpt lat="45.83193" lon="4.67416">
        <ele>275.8142</ele>
        <time>2023-04-14T11:55:09.000Z</time>
      </trkpt>
      <trkpt lat="45.83196" lon="4.67413">
        <ele>276.24586</ele>
        <time>2023-04-14T11:55:10.000Z</time>
      </trkpt>
      <trkpt lat="45.83199" lon="4.67409">
        <ele>276.81143</ele>
        <time>2023-04-14T11:55:11.000Z</time>
      </trkpt>
      <trkpt lat="45.83202" lon="4.67406">
        <ele>277.43325</ele>
        <time>2023-04-14T11:55:12.000Z</time>
      </trkpt>
      <trkpt lat="45.83205" lon="4.67402">
        <ele>278.12652</ele>
        <time>2023-04-14T11:55:13.000Z</time>
      </trkpt>
      <trkpt lat="45.83208" lon="4.67399">
        <ele>278.76051</ele>
        <time>2023-04-14T11:55:14.000Z</time>
      </trkpt>
      <trkpt lat="45.83211" lon="4.67396">
        <ele>279.45235</ele>
        <time>2023-04-14T11:55:15.000Z</time>
      </trkpt>
      <trkpt lat="45.83214" lon="4.67393">
        <ele>280.12283</ele>
        <time>2023-04-14T11:55:16.000Z</time>
      </trkpt>
      <trkpt lat="45.83217" lon="4.67391">
        <ele>280.73452</ele>
        <time>2023-04-14T11:55:17.000Z</time>
      </trkpt>
      <trkpt lat="45.8322" lon="4.67389">
        <ele>281.30749</ele>
        <time>2023-04-14T11:55:18.000Z</time>
      </trkpt>
      <trkpt lat="45.83224" lon="4.67388">
        <ele>281.84309</ele>
        <time>2023-04-14T11:55:19.000Z</time>
      </trkpt>
      <trkpt lat="45.83227" lon="4.67386">
        <ele>282.34362</ele>
        <time>2023-04-14T11:55:20.000Z</time>
      </trkpt>
      <trkpt lat="45.83229" lon="4.67385">
        <ele>282.82914</ele>
        <time>2023-04-14T11:55:21.000Z</time>
      </trkpt>
      <trkpt lat="45.83232" lon="4.67383">
        <ele>283.34684</ele>
        <time>2023-04-14T11:55:22.000Z</time>
      </trkpt>
      <trkpt lat="45.83234" lon="4.6738">
        <ele>283.9177</ele>
        <time>2023-04-14T11:55:23.000Z</time>
      </trkpt>
      <trkpt lat="45.83236" lon="4.67376">
        <ele>284.49693</ele>
        <time>2023-04-14T11:55:24.000Z</time>
      </trkpt>
      <trkpt lat="45.83238" lon="4.67371">
        <ele>285.1085</ele>
        <time>2023-04-14T11:55:25.000Z</time>
      </trkpt>
      <trkpt lat="45.8324" lon="4.67367">
        <ele>285.6845</ele>
        <time>2023-04-14T11:55:26.000Z</time>
      </trkpt>
      <trkpt lat="45.83242" lon="4.67362">
        <ele>286.16465</ele>
        <time>2023-04-14T11:55:27.000Z</time>
      </trkpt>
      <trkpt lat="45.83243" lon="4.67358">
        <ele>286.64444</ele>
        <time>2023-04-14T11:55:28.000Z</time>
      </trkpt>
      <trkpt lat="45.83246" lon="4.67353">
        <ele>287.14675</ele>
        <time>2023-04-14T11:55:29.000Z</time>
      </trkpt>
      <trkpt lat="45.83248" lon="4.67348">
        <ele>287.60597</ele>
        <time>2023-04-14T11:55:30.000Z</time>
      </trkpt>
      <trkpt lat="45.8325" lon="4.67344">
        <ele>287.94192</ele>
        <time>2023-04-14T11:55:31.000Z</time>
      </trkpt>
      <trkpt lat="45.83252" lon="4.67339">
        <ele>288.32294</ele>
        <time>2023-04-14T11:55:32.000Z</time>
      </trkpt>
      <trkpt lat="45.83253" lon="4.67333">
        <ele>288.70712</ele>
        <time>2023-04-14T11:55:33.000Z</time>
      </trkpt>
      <trkpt lat="45.83255" lon="4.67328">
        <ele>289.03903</ele>
        <time>2023-04-14T11:55:34.000Z</time>
      </trkpt>
      <trkpt lat="45.83256" lon="4.67322">
        <ele>289.36351</ele>
        <time>2023-04-14T11:55:35.000Z</time>
      </trkpt>
      <trkpt lat="45.83257" lon="4.67316">
        <ele>289.64161</ele>
        <time>2023-04-14T11:55:36.000Z</time>
      </trkpt>
      <trkpt lat="45.83258" lon="4.67311">
        <ele>289.87717</ele>
        <time>2023-04-14T11:55:37.000Z</time>
      </trkpt>
      <trkpt lat="45.83259" lon="4.67306">
        <ele>290.03572</ele>
        <time>2023-04-14T11:55:38.000Z</time>
      </trkpt>
      <trkpt lat="45.83259" lon="4.673">
        <ele>290.1698</ele>
        <time>2023-04-14T11:55:39.000Z</time>
      </trkpt>
      <trkpt lat="45.83259" lon="4.67295">
        <ele>290.32885</ele>
        <time>2023-04-14T11:55:40.000Z</time>
      </trkpt>
      <trkpt lat="45.83258" lon="4.6729">
        <ele>290.49937</ele>
        <time>2023-04-14T11:55:41.000Z</time>
      </trkpt>
      <trkpt lat="45.83257" lon="4.67284">
        <ele>290.7527</ele>
        <time>2023-04-14T11:55:42.000Z</time>
      </trkpt>
      <trkpt lat="45.83257" lon="4.67279">
        <ele>291.15309</ele>
        <time>2023-04-14T11:55:43.000Z</time>
      </trkpt>
      <trkpt lat="45.83257" lon="4.67273">
        <ele>291.64539</ele>
        <time>2023-04-14T11:55:44.000Z</time>
      </trkpt>
      <trkpt lat="45.83257" lon="4.67268">
        <ele>292.19091</ele>
        <time>2023-04-14T11:55:45.000Z</time>
      </trkpt>
      <trkpt lat="45.83257" lon="4.67262">
        <ele>292.77204</ele>
        <time>2023-04-14T11:55:46.000Z</time>
      </trkpt>
      <trkpt lat="45.83257" lon="4.67257">
        <ele>293.29525</ele>
        <time>2023-04-14T11:55:47.000Z</time>
      </trkpt>
      <trkpt lat="45.83256" lon="4.67252">
        <ele>293.73791</ele>
        <time>2023-04-14T11:55:48.000Z</time>
      </trkpt>
      <trkpt lat="45.83255" lon="4.67246">
        <ele>294.12348</ele>
        <time>2023-04-14T11:55:49.000Z</time>
      </trkpt>
      <trkpt lat="45.83254" lon="4.67241">
        <ele>294.46741</ele>
        <time>2023-04-14T11:55:50.000Z</time>
      </trkpt>
      <trkpt lat="45.83253" lon="4.67236">
        <ele>294.78584</ele>
        <time>2023-04-14T11:55:51.000Z</time>
      </trkpt>
      <trkpt lat="45.83252" lon="4.67232">
        <ele>295.05167</ele>
        <time>2023-04-14T11:55:52.000Z</time>
      </trkpt>
      <trkpt lat="45.83251" lon="4.67227">
        <ele>295.28568</ele>
        <time>2023-04-14T11:55:53.000Z</time>
      </trkpt>
      <trkpt lat="45.8325" lon="4.67222">
        <ele>295.51504</ele>
        <time>2023-04-14T11:55:54.000Z</time>
      </trkpt>
      <trkpt lat="45.83249" lon="4.67217">
        <ele>295.71999</ele>
        <time>2023-04-14T11:55:55.000Z</time>
      </trkpt>
      <trkpt lat="45.83247" lon="4.67212">
        <ele>295.90125</ele>
        <time>2023-04-14T11:55:56.000Z</time>
      </trkpt>
      <trkpt lat="45.83246" lon="4.67207">
        <ele>296.05139</ele>
        <time>2023-04-14T11:55:57.000Z</time>
      </trkpt>
      <trkpt lat="45.83244" lon="4.67203">
        <ele>296.16245</ele>
        <time>2023-04-14T11:55:58.000Z</time>
      </trkpt>
      <trkpt lat="45.83242" lon="4.67198">
        <ele>296.2442</ele>
        <time>2023-04-14T11:55:59.000Z</time>
      </trkpt>
      <trkpt lat="45.8324" lon="4.67194">
        <ele>296.33964</ele>
        <time>2023-04-14T11:56:00.000Z</time>
      </trkpt>
      <trkpt lat="45.83238" lon="4.6719">
        <ele>296.42056</ele>
        <time>2023-04-14T11:56:01.000Z</time>
      </trkpt>
      <trkpt lat="45.83236" lon="4.67186">
        <ele>296.51962</ele>
        <time>2023-04-14T11:56:02.000Z</time>
      </trkpt>
      <trkpt lat="45.83234" lon="4.67182">
        <ele>296.60657</ele>
        <time>2023-04-14T11:56:03.000Z</time>
      </trkpt>
      <trkpt lat="45.83232" lon="4.67178">
        <ele>296.67354</ele>
        <time>2023-04-14T11:56:04.000Z</time>
      </trkpt>
      <trkpt lat="45.8323" lon="4.67173">
        <ele>296.75215</ele>
        <time>2023-04-14T11:56:05.000Z</time>
      </trkpt>
      <trkpt lat="45.83229" lon="4.67168">
        <ele>296.85765</ele>
        <time>2023-04-14T11:56:06.000Z</time>
      </trkpt>
      <trkpt lat="45.83227" lon="4.67163">
        <ele>296.96072</ele>
        <time>2023-04-14T11:56:07.000Z</time>
      </trkpt>
      <trkpt lat="45.83226" lon="4.67159">
        <ele>297.0737</ele>
        <time>2023-04-14T11:56:08.000Z</time>
      </trkpt>
      <trkpt lat="45.83224" lon="4.67155">
        <ele>297.19377</ele>
        <time>2023-04-14T11:56:09.000Z</time>
      </trkpt>
      <trkpt lat="45.83224" lon="4.6715">
        <ele>297.36763</ele>
        <time>2023-04-14T11:56:10.000Z</time>
      </trkpt>
      <trkpt lat="45.83222" lon="4.67146">
        <ele>297.52663</ele>
        <time>2023-04-14T11:56:11.000Z</time>
      </trkpt>
      <trkpt lat="45.83222" lon="4.67142">
        <ele>297.6984</ele>
        <time>2023-04-14T11:56:12.000Z</time>
      </trkpt>
      <trkpt lat="45.83221" lon="4.67138">
        <ele>297.88431</ele>
        <time>2023-04-14T11:56:13.000Z</time>
      </trkpt>
      <trkpt lat="45.8322" lon="4.67133">
        <ele>298.04839</ele>
        <time>2023-04-14T11:56:14.000Z</time>
      </trkpt>
      <trkpt lat="45.83219" lon="4.67129">
        <ele>298.1982</ele>
        <time>2023-04-14T11:56:15.000Z</time>
      </trkpt>
      <trkpt lat="45.83219" lon="4.67124">
        <ele>298.34287</ele>
        <time>2023-04-14T11:56:16.000Z</time>
      </trkpt>
      <trkpt lat="45.83218" lon="4.6712">
        <ele>298.46729</ele>
        <time>2023-04-14T11:56:17.000Z</time>
      </trkpt>
      <trkpt lat="45.83217" lon="4.67116">
        <ele>298.55265</ele>
        <time>2023-04-14T11:56:18.000Z</time>
      </trkpt>
      <trkpt lat="45.83217" lon="4.67112">
        <ele>298.69212</ele>
        <time>2023-04-14T11:56:19.000Z</time>
      </trkpt>
      <trkpt lat="45.83216" lon="4.67108">
        <ele>298.80459</ele>
        <time>2023-04-14T11:56:20.000Z</time>
      </trkpt>
      <trkpt lat="45.83216" lon="4.67104">
        <ele>298.94295</ele>
        <time>2023-04-14T11:56:21.000Z</time>
      </trkpt>
      <trkpt lat="45.83215" lon="4.671">
        <ele>299.07577</ele>
        <time>2023-04-14T11:56:22.000Z</time>
      </trkpt>
      <trkpt lat="45.83214" lon="4.67095">
        <ele>299.21282</ele>
        <time>2023-04-14T11:56:23.000Z</time>
      </trkpt>
      <trkpt lat="45.83214" lon="4.6709">
        <ele>299.34522</ele>
        <time>2023-04-14T11:56:24.000Z</time>
      </trkpt>
      <trkpt lat="45.83213" lon="4.67086">
        <ele>299.44737</ele>
        <time>2023-04-14T11:56:25.000Z</time>
      </trkpt>
      <trkpt lat="45.83212" lon="4.67082">
        <ele>299.51908</ele>
        <time>2023-04-14T11:56:26.000Z</time>
      </trkpt>
      <trkpt lat="45.83212" lon="4.67079">
        <ele>299.57848</ele>
        <time>2023-04-14T11:56:27.000Z</time>
      </trkpt>
      <trkpt lat="45.83212" lon="4.67076">
        <ele>299.63704</ele>
        <time>2023-04-14T11:56:28.000Z</time>
      </trkpt>
      <trkpt lat="45.83213" lon="4.67072">
        <ele>299.71637</ele>
        <time>2023-04-14T11:56:29.000Z</time>
      </trkpt>
      <trkpt lat="45.83215" lon="4.6707">
        <ele>299.81686</ele>
        <time>2023-04-14T11:56:30.000Z</time>
      </trkpt>
      <trkpt lat="45.83217" lon="4.67067">
        <ele>299.91701</ele>
        <time>2023-04-14T11:56:31.000Z</time>
      </trkpt>
      <trkpt lat="45.83219" lon="4.67064">
        <ele>300.02077</ele>
        <time>2023-04-14T11:56:32.000Z</time>
      </trkpt>
      <trkpt lat="45.83221" lon="4.67061">
        <ele>300.13076</ele>
        <time>2023-04-14T11:56:33.000Z</time>
      </trkpt>
      <trkpt lat="45.83224" lon="4.67058">
        <ele>300.24408</ele>
        <time>2023-04-14T11:56:34.000Z</time>
      </trkpt>
      <trkpt lat="45.83226" lon="4.67055">
        <ele>300.35784</ele>
        <time>2023-04-14T11:56:35.000Z</time>
      </trkpt>
      <trkpt lat="45.83229" lon="4.67052">
        <ele>300.46376</ele>
        <time>2023-04-14T11:56:36.000Z</time>
      </trkpt>
      <trkpt lat="45.83232" lon="4.67049">
        <ele>300.56692</ele>
        <time>2023-04-14T11:56:37.000Z</time>
      </trkpt>
      <trkpt lat="45.83235" lon="4.67045">
        <ele>300.66905</ele>
        <time>2023-04-14T11:56:38.000Z</time>
      </trkpt>
      <trkpt lat="45.83238" lon="4.67042">
        <ele>300.77425</ele>
        <time>2023-04-14T11:56:39.000Z</time>
      </trkpt>
      <trkpt lat="45.83242" lon="4.67039">
        <ele>300.87868</ele>
        <time>2023-04-14T11:56:40.000Z</time>
      </trkpt>
      <trkpt lat="45.83245" lon="4.67036">
        <ele>300.98958</ele>
        <time>2023-04-14T11:56:41.000Z</time>
      </trkpt>
      <trkpt lat="45.83248" lon="4.67032">
        <ele>301.10883</ele>
        <time>2023-04-14T11:56:42.000Z</time>
      </trkpt>
      <trkpt lat="45.83252" lon="4.67029">
        <ele>301.22341</ele>
        <time>2023-04-14T11:56:43.000Z</time>
      </trkpt>
      <trkpt lat="45.83255" lon="4.67025">
        <ele>301.33358</ele>
        <time>2023-04-14T11:56:44.000Z</time>
      </trkpt>
      <trkpt lat="45.83258" lon="4.67021">
        <ele>301.43077</ele>
        <time>2023-04-14T11:56:45.000Z</time>
      </trkpt>
      <trkpt lat="45.83262" lon="4.67018">
        <ele>301.51163</ele>
        <time>2023-04-14T11:56:46.000Z</time>
      </trkpt>
      <trkpt lat="45.83265" lon="4.67015">
        <ele>301.58664</ele>
        <time>2023-04-14T11:56:47.000Z</time>
      </trkpt>
      <trkpt lat="45.83269" lon="4.67011">
        <ele>301.6587</ele>
        <time>2023-04-14T11:56:48.000Z</time>
      </trkpt>
      <trkpt lat="45.83273" lon="4.67007">
        <ele>301.72926</ele>
        <time>2023-04-14T11:56:49.000Z</time>
      </trkpt>
      <trkpt lat="45.83277" lon="4.67003">
        <ele>301.80164</ele>
        <time>2023-04-14T11:56:50.000Z</time>
      </trkpt>
      <trkpt lat="45.8328" lon="4.66998">
        <ele>301.88336</ele>
        <time>2023-04-14T11:56:51.000Z</time>
      </trkpt>
      <trkpt lat="45.83283" lon="4.66993">
        <ele>301.99251</ele>
        <time>2023-04-14T11:56:52.000Z</time>
      </trkpt>
      <trkpt lat="45.83287" lon="4.66989">
        <ele>302.11128</ele>
        <time>2023-04-14T11:56:53.000Z</time>
      </trkpt>
      <trkpt lat="45.8329" lon="4.66985">
        <ele>302.2587</ele>
        <time>2023-04-14T11:56:54.000Z</time>
      </trkpt>
      <trkpt lat="45.83293" lon="4.66982">
        <ele>302.4218</ele>
        <time>2023-04-14T11:56:55.000Z</time>
      </trkpt>
      <trkpt lat="45.83296" lon="4.6698">
        <ele>302.56521</ele>
        <time>2023-04-14T11:56:56.000Z</time>
      </trkpt>
      <trkpt lat="45.83299" lon="4.66979">
        <ele>302.7001</ele>
        <time>2023-04-14T11:56:57.000Z</time>
      </trkpt>
      <trkpt lat="45.83302" lon="4.66979">
        <ele>302.78778</ele>
        <time>2023-04-14T11:56:58.000Z</time>
      </trkpt>
      <trkpt lat="45.83305" lon="4.6698">
        <ele>302.82449</ele>
        <time>2023-04-14T11:56:59.000Z</time>
      </trkpt>
      <trkpt lat="45.83307" lon="4.66981">
        <ele>302.84832</ele>
        <time>2023-04-14T11:57:00.000Z</time>
      </trkpt>
      <trkpt lat="45.83307" lon="4.66981">
        <ele>302.84832</ele>
        <time>2023-04-14T11:57:00.000Z</time>
      </trkpt>
      <trkpt lat="45.83309" lon="4.66983">
        <ele>302.85125</ele>
        <time>2023-04-14T11:57:02.000Z</time>
      </trkpt>
      <trkpt lat="45.83311" lon="4.66984">
        <ele>302.83137</ele>
        <time>2023-04-14T11:58:51.000Z</time>
      </trkpt>
      <trkpt lat="45.83313" lon="4.66987">
        <ele>302.81733</ele>
        <time>2023-04-14T11:58:53.000Z</time>
      </trkpt>
      <trkpt lat="45.83316" lon="4.6699">
        <ele>302.78497</ele>
        <time>2023-04-14T11:58:55.000Z</time>
      </trkpt>
      <trkpt lat="45.83318" lon="4.66993">
        <ele>302.76324</ele>
        <time>2023-04-14T11:58:56.000Z</time>
      </trkpt>
      <trkpt lat="45.8332" lon="4.66995">
        <ele>302.77825</ele>
        <time>2023-04-14T11:58:57.000Z</time>
      </trkpt>
      <trkpt lat="45.83321" lon="4.66998">
        <ele>302.79203</ele>
        <time>2023-04-14T11:58:58.000Z</time>
      </trkpt>
      <trkpt lat="45.83323" lon="4.67">
        <ele>302.84052</ele>
        <time>2023-04-14T11:58:59.000Z</time>
      </trkpt>
      <trkpt lat="45.83326" lon="4.67002">
        <ele>302.92529</ele>
        <time>2023-04-14T11:59:00.000Z</time>
      </trkpt>
      <trkpt lat="45.83328" lon="4.67005">
        <ele>303.0439</ele>
        <time>2023-04-14T11:59:01.000Z</time>
      </trkpt>
      <trkpt lat="45.83331" lon="4.67007">
        <ele>303.17387</ele>
        <time>2023-04-14T11:59:02.000Z</time>
      </trkpt>
      <trkpt lat="45.83334" lon="4.67009">
        <ele>303.27653</ele>
        <time>2023-04-14T11:59:03.000Z</time>
      </trkpt>
      <trkpt lat="45.83336" lon="4.67011">
        <ele>303.35816</ele>
        <time>2023-04-14T11:59:04.000Z</time>
      </trkpt>
      <trkpt lat="45.83339" lon="4.67013">
        <ele>303.43224</ele>
        <time>2023-04-14T11:59:05.000Z</time>
      </trkpt>
      <trkpt lat="45.83341" lon="4.67014">
        <ele>303.47324</ele>
        <time>2023-04-14T11:59:13.000Z</time>
      </trkpt>
      <trkpt lat="45.83345" lon="4.67015">
        <ele>303.51236</ele>
        <time>2023-04-14T11:59:15.000Z</time>
      </trkpt>
      <trkpt lat="45.83347" lon="4.67016">
        <ele>303.51148</ele>
        <time>2023-04-14T11:59:16.000Z</time>
      </trkpt>
      <trkpt lat="45.83349" lon="4.67018">
        <ele>303.45649</ele>
        <time>2023-04-14T11:59:17.000Z</time>
      </trkpt>
      <trkpt lat="45.83352" lon="4.67021">
        <ele>303.36978</ele>
        <time>2023-04-14T11:59:18.000Z</time>
      </trkpt>
      <trkpt lat="45.83354" lon="4.67023">
        <ele>303.2964</ele>
        <time>2023-04-14T11:59:19.000Z</time>
      </trkpt>
      <trkpt lat="45.83357" lon="4.67026">
        <ele>303.19908</ele>
        <time>2023-04-14T11:59:20.000Z</time>
      </trkpt>
      <trkpt lat="45.8336" lon="4.6703">
        <ele>303.09991</ele>
        <time>2023-04-14T11:59:21.000Z</time>
      </trkpt>
      <trkpt lat="45.83363" lon="4.67034">
        <ele>303.04773</ele>
        <time>2023-04-14T11:59:22.000Z</time>
      </trkpt>
      <trkpt lat="45.83367" lon="4.67037">
        <ele>303.04285</ele>
        <time>2023-04-14T11:59:23.000Z</time>
      </trkpt>
      <trkpt lat="45.83371" lon="4.6704">
        <ele>303.09127</ele>
        <time>2023-04-14T11:59:24.000Z</time>
      </trkpt>
      <trkpt lat="45.83375" lon="4.67044">
        <ele>303.115</ele>
        <time>2023-04-14T11:59:25.000Z</time>
      </trkpt>
      <trkpt lat="45.83379" lon="4.67048">
        <ele>303.10979</ele>
        <time>2023-04-14T11:59:26.000Z</time>
      </trkpt>
      <trkpt lat="45.83383" lon="4.67052">
        <ele>303.03795</ele>
        <time>2023-04-14T11:59:27.000Z</time>
      </trkpt>
      <trkpt lat="45.83387" lon="4.67056">
        <ele>302.91688</ele>
        <time>2023-04-14T11:59:28.000Z</time>
      </trkpt>
      <trkpt lat="45.8339" lon="4.6706">
        <ele>302.79102</ele>
        <time>2023-04-14T11:59:29.000Z</time>
      </trkpt>
      <trkpt lat="45.83394" lon="4.67064">
        <ele>302.73867</ele>
        <time>2023-04-14T11:59:30.000Z</time>
      </trkpt>
      <trkpt lat="45.83398" lon="4.67067">
        <ele>302.71542</ele>
        <time>2023-04-14T11:59:31.000Z</time>
      </trkpt>
      <trkpt lat="45.83402" lon="4.67071">
        <ele>302.71005</ele>
        <time>2023-04-14T11:59:32.000Z</time>
      </trkpt>
      <trkpt lat="45.83405" lon="4.67074">
        <ele>302.69901</ele>
        <time>2023-04-14T11:59:33.000Z</time>
      </trkpt>
      <trkpt lat="45.83408" lon="4.67077">
        <ele>302.66201</ele>
        <time>2023-04-14T11:59:34.000Z</time>
      </trkpt>
      <trkpt lat="45.83411" lon="4.6708">
        <ele>302.60771</ele>
        <time>2023-04-14T11:59:35.000Z</time>
      </trkpt>
      <trkpt lat="45.83414" lon="4.67083">
        <ele>302.52629</ele>
        <time>2023-04-14T11:59:36.000Z</time>
      </trkpt>
      <trkpt lat="45.83417" lon="4.67087">
        <ele>302.4279</ele>
        <time>2023-04-14T11:59:37.000Z</time>
      </trkpt>
      <trkpt lat="45.8342" lon="4.6709">
        <ele>302.3224</ele>
        <time>2023-04-14T11:59:38.000Z</time>
      </trkpt>
      <trkpt lat="45.83423" lon="4.67093">
        <ele>302.21051</ele>
        <time>2023-04-14T11:59:39.000Z</time>
      </trkpt>
      <trkpt lat="45.83426" lon="4.67097">
        <ele>302.09793</ele>
        <time>2023-04-14T11:59:40.000Z</time>
      </trkpt>
      <trkpt lat="45.83429" lon="4.671">
        <ele>301.99898</ele>
        <time>2023-04-14T11:59:41.000Z</time>
      </trkpt>
      <trkpt lat="45.83432" lon="4.67104">
        <ele>301.90859</ele>
        <time>2023-04-14T11:59:42.000Z</time>
      </trkpt>
      <trkpt lat="45.83435" lon="4.67108">
        <ele>301.82409</ele>
        <time>2023-04-14T11:59:43.000Z</time>
      </trkpt>
      <trkpt lat="45.83438" lon="4.67112">
        <ele>301.72112</ele>
        <time>2023-04-14T11:59:44.000Z</time>
      </trkpt>
      <trkpt lat="45.83442" lon="4.67116">
        <ele>301.59377</ele>
        <time>2023-04-14T11:59:45.000Z</time>
      </trkpt>
      <trkpt lat="45.83445" lon="4.6712">
        <ele>301.42767</ele>
        <time>2023-04-14T11:59:46.000Z</time>
      </trkpt>
      <trkpt lat="45.83448" lon="4.67125">
        <ele>301.22499</ele>
        <time>2023-04-14T11:59:47.000Z</time>
      </trkpt>
      <trkpt lat="45.83451" lon="4.6713">
        <ele>301.01838</ele>
        <time>2023-04-14T11:59:48.000Z</time>
      </trkpt>
      <trkpt lat="45.83455" lon="4.67134">
        <ele>300.83073</ele>
        <time>2023-04-14T11:59:49.000Z</time>
      </trkpt>
      <trkpt lat="45.83459" lon="4.6714">
        <ele>300.63826</ele>
        <time>2023-04-14T11:59:50.000Z</time>
      </trkpt>
      <trkpt lat="45.83463" lon="4.67145">
        <ele>300.37848</ele>
        <time>2023-04-14T11:59:51.000Z</time>
      </trkpt>
      <trkpt lat="45.83466" lon="4.67151">
        <ele>300.04079</ele>
        <time>2023-04-14T11:59:52.000Z</time>
      </trkpt>
      <trkpt lat="45.8347" lon="4.67156">
        <ele>299.68588</ele>
        <time>2023-04-14T11:59:53.000Z</time>
      </trkpt>
      <trkpt lat="45.83474" lon="4.67162">
        <ele>299.28994</ele>
        <time>2023-04-14T11:59:54.000Z</time>
      </trkpt>
      <trkpt lat="45.83477" lon="4.67167">
        <ele>298.98553</ele>
        <time>2023-04-14T11:59:55.000Z</time>
      </trkpt>
      <trkpt lat="45.83482" lon="4.67174">
        <ele>298.73874</ele>
        <time>2023-04-14T11:59:56.000Z</time>
      </trkpt>
      <trkpt lat="45.83486" lon="4.6718">
        <ele>298.41532</ele>
        <time>2023-04-14T11:59:57.000Z</time>
      </trkpt>
      <trkpt lat="45.83491" lon="4.67186">
        <ele>297.9068</ele>
        <time>2023-04-14T11:59:58.000Z</time>
      </trkpt>
      <trkpt lat="45.83496" lon="4.67193">
        <ele>297.27201</ele>
        <time>2023-04-14T11:59:59.000Z</time>
      </trkpt>
      <trkpt lat="45.83501" lon="4.67199">
        <ele>296.82866</ele>
        <time>2023-04-14T12:00:00.000Z</time>
      </trkpt>
      <trkpt lat="45.83507" lon="4.67205">
        <ele>296.60661</ele>
        <time>2023-04-14T12:00:01.000Z</time>
      </trkpt>
      <trkpt lat="45.83513" lon="4.67211">
        <ele>296.32007</ele>
        <time>2023-04-14T12:00:02.000Z</time>
      </trkpt>
      <trkpt lat="45.83519" lon="4.67217">
        <ele>295.81059</ele>
        <time>2023-04-14T12:00:03.000Z</time>
      </trkpt>
      <trkpt lat="45.83526" lon="4.67223">
        <ele>295.17515</ele>
        <time>2023-04-14T12:00:04.000Z</time>
      </trkpt>
      <trkpt lat="45.83533" lon="4.67229">
        <ele>294.54794</ele>
        <time>2023-04-14T12:00:05.000Z</time>
      </trkpt>
      <trkpt lat="45.8354" lon="4.67236">
        <ele>294.14708</ele>
        <time>2023-04-14T12:00:06.000Z</time>
      </trkpt>
      <trkpt lat="45.83547" lon="4.67242">
        <ele>293.87742</ele>
        <time>2023-04-14T12:00:07.000Z</time>
      </trkpt>
      <trkpt lat="45.83554" lon="4.67248">
        <ele>293.50417</ele>
        <time>2023-04-14T12:00:08.000Z</time>
      </trkpt>
      <trkpt lat="45.83561" lon="4.67254">
        <ele>292.8678</ele>
        <time>2023-04-14T12:00:09.000Z</time>
      </trkpt>
      <trkpt lat="45.83568" lon="4.67261">
        <ele>292.28026</ele>
        <time>2023-04-14T12:00:10.000Z</time>
      </trkpt>
      <trkpt lat="45.83575" lon="4.67267">
        <ele>292.01048</ele>
        <time>2023-04-14T12:00:11.000Z</time>
      </trkpt>
      <trkpt lat="45.83582" lon="4.67274">
        <ele>291.89694</ele>
        <time>2023-04-14T12:00:12.000Z</time>
      </trkpt>
      <trkpt lat="45.83589" lon="4.6728">
        <ele>291.67635</ele>
        <time>2023-04-14T12:00:13.000Z</time>
      </trkpt>
      <trkpt lat="45.83597" lon="4.67285">
        <ele>291.20865</ele>
        <time>2023-04-14T12:00:14.000Z</time>
      </trkpt>
      <trkpt lat="45.83604" lon="4.67291">
        <ele>290.54592</ele>
        <time>2023-04-14T12:00:15.000Z</time>
      </trkpt>
      <trkpt lat="45.83612" lon="4.67297">
        <ele>289.97089</ele>
        <time>2023-04-14T12:00:16.000Z</time>
      </trkpt>
      <trkpt lat="45.8362" lon="4.67302">
        <ele>289.67503</ele>
        <time>2023-04-14T12:00:17.000Z</time>
      </trkpt>
      <trkpt lat="45.83628" lon="4.67307">
        <ele>289.52052</ele>
        <time>2023-04-14T12:00:18.000Z</time>
      </trkpt>
      <trkpt lat="45.83636" lon="4.67313">
        <ele>289.33131</ele>
        <time>2023-04-14T12:00:19.000Z</time>
      </trkpt>
      <trkpt lat="45.83644" lon="4.67319">
        <ele>289.03437</ele>
        <time>2023-04-14T12:00:20.000Z</time>
      </trkpt>
      <trkpt lat="45.83653" lon="4.67324">
        <ele>288.59904</ele>
        <time>2023-04-14T12:00:21.000Z</time>
      </trkpt>
      <trkpt lat="45.83661" lon="4.6733">
        <ele>288.17126</ele>
        <time>2023-04-14T12:00:22.000Z</time>
      </trkpt>
      <trkpt lat="45.83668" lon="4.67336">
        <ele>287.80279</ele>
        <time>2023-04-14T12:00:23.000Z</time>
      </trkpt>
      <trkpt lat="45.83676" lon="4.67341">
        <ele>287.53019</ele>
        <time>2023-04-14T12:00:24.000Z</time>
      </trkpt>
      <trkpt lat="45.83684" lon="4.67347">
        <ele>287.29202</ele>
        <time>2023-04-14T12:00:25.000Z</time>
      </trkpt>
      <trkpt lat="45.83692" lon="4.67352">
        <ele>287.02185</ele>
        <time>2023-04-14T12:00:26.000Z</time>
      </trkpt>
      <trkpt lat="45.83699" lon="4.67357">
        <ele>286.66968</ele>
        <time>2023-04-14T12:00:27.000Z</time>
      </trkpt>
      <trkpt lat="45.83707" lon="4.67362">
        <ele>286.29415</ele>
        <time>2023-04-14T12:00:28.000Z</time>
      </trkpt>
      <trkpt lat="45.83714" lon="4.67366">
        <ele>285.92316</ele>
        <time>2023-04-14T12:00:29.000Z</time>
      </trkpt>
      <trkpt lat="45.83722" lon="4.67372">
        <ele>285.6264</ele>
        <time>2023-04-14T12:00:30.000Z</time>
      </trkpt>
      <trkpt lat="45.8373" lon="4.67377">
        <ele>285.4127</ele>
        <time>2023-04-14T12:00:31.000Z</time>
      </trkpt>
      <trkpt lat="45.83737" lon="4.67382">
        <ele>285.2088</ele>
        <time>2023-04-14T12:00:32.000Z</time>
      </trkpt>
      <trkpt lat="45.83744" lon="4.67387">
        <ele>284.95997</ele>
        <time>2023-04-14T12:00:33.000Z</time>
      </trkpt>
      <trkpt lat="45.83751" lon="4.67392">
        <ele>284.61603</ele>
        <time>2023-04-14T12:00:34.000Z</time>
      </trkpt>
      <trkpt lat="45.83758" lon="4.67396">
        <ele>284.20008</ele>
        <time>2023-04-14T12:00:35.000Z</time>
      </trkpt>
      <trkpt lat="45.83765" lon="4.674">
        <ele>283.82555</ele>
        <time>2023-04-14T12:00:36.000Z</time>
      </trkpt>
      <trkpt lat="45.83773" lon="4.67404">
        <ele>283.60344</ele>
        <time>2023-04-14T12:00:37.000Z</time>
      </trkpt>
      <trkpt lat="45.83781" lon="4.67407">
        <ele>283.49702</ele>
        <time>2023-04-14T12:00:38.000Z</time>
      </trkpt>
      <trkpt lat="45.83788" lon="4.6741">
        <ele>283.37157</ele>
        <time>2023-04-14T12:00:39.000Z</time>
      </trkpt>
      <trkpt lat="45.83796" lon="4.67413">
        <ele>283.19994</ele>
        <time>2023-04-14T12:00:40.000Z</time>
      </trkpt>
      <trkpt lat="45.83804" lon="4.67416">
        <ele>283.02542</ele>
        <time>2023-04-14T12:00:41.000Z</time>
      </trkpt>
      <trkpt lat="45.83811" lon="4.67418">
        <ele>282.84881</ele>
        <time>2023-04-14T12:00:42.000Z</time>
      </trkpt>
      <trkpt lat="45.83819" lon="4.6742">
        <ele>282.64091</ele>
        <time>2023-04-14T12:00:43.000Z</time>
      </trkpt>
      <trkpt lat="45.83826" lon="4.67422">
        <ele>282.40189</ele>
        <time>2023-04-14T12:00:44.000Z</time>
      </trkpt>
      <trkpt lat="45.83833" lon="4.67425">
        <ele>282.1398</ele>
        <time>2023-04-14T12:00:45.000Z</time>
      </trkpt>
      <trkpt lat="45.83841" lon="4.67428">
        <ele>281.84351</ele>
        <time>2023-04-14T12:00:46.000Z</time>
      </trkpt>
      <trkpt lat="45.83848" lon="4.67431">
        <ele>281.53798</ele>
        <time>2023-04-14T12:00:47.000Z</time>
      </trkpt>
      <trkpt lat="45.83855" lon="4.67434">
        <ele>281.32703</ele>
        <time>2023-04-14T12:00:48.000Z</time>
      </trkpt>
      <trkpt lat="45.83862" lon="4.67438">
        <ele>281.24812</ele>
        <time>2023-04-14T12:00:49.000Z</time>
      </trkpt>
      <trkpt lat="45.8387" lon="4.67441">
        <ele>281.26719</ele>
        <time>2023-04-14T12:00:50.000Z</time>
      </trkpt>
      <trkpt lat="45.83877" lon="4.67444">
        <ele>281.2472</ele>
        <time>2023-04-14T12:00:51.000Z</time>
      </trkpt>
      <trkpt lat="45.83884" lon="4.67448">
        <ele>281.15502</ele>
        <time>2023-04-14T12:00:52.000Z</time>
      </trkpt>
      <trkpt lat="45.83891" lon="4.67451">
        <ele>281.02778</ele>
        <time>2023-04-14T12:00:53.000Z</time>
      </trkpt>
      <trkpt lat="45.83898" lon="4.67453">
        <ele>280.83836</ele>
        <time>2023-04-14T12:00:54.000Z</time>
      </trkpt>
      <trkpt lat="45.83906" lon="4.67456">
        <ele>280.50102</ele>
        <time>2023-04-14T12:00:55.000Z</time>
      </trkpt>
      <trkpt lat="45.83914" lon="4.67459">
        <ele>280.04026</ele>
        <time>2023-04-14T12:00:56.000Z</time>
      </trkpt>
      <trkpt lat="45.83922" lon="4.67461">
        <ele>279.53917</ele>
        <time>2023-04-14T12:00:57.000Z</time>
      </trkpt>
      <trkpt lat="45.8393" lon="4.67463">
        <ele>279.11357</ele>
        <time>2023-04-14T12:00:58.000Z</time>
      </trkpt>
      <trkpt lat="45.83937" lon="4.67466">
        <ele>278.72238</ele>
        <time>2023-04-14T12:00:59.000Z</time>
      </trkpt>
      <trkpt lat="45.83944" lon="4.67468">
        <ele>278.42177</ele>
        <time>2023-04-14T12:01:00.000Z</time>
      </trkpt>
      <trkpt lat="45.83952" lon="4.67471">
        <ele>278.2296</ele>
        <time>2023-04-14T12:01:01.000Z</time>
      </trkpt>
      <trkpt lat="45.8396" lon="4.67473">
        <ele>278.09927</ele>
        <time>2023-04-14T12:01:02.000Z</time>
      </trkpt>
      <trkpt lat="45.83968" lon="4.67475">
        <ele>278.04397</ele>
        <time>2023-04-14T12:01:03.000Z</time>
      </trkpt>
      <trkpt lat="45.83976" lon="4.67477">
        <ele>277.9385</ele>
        <time>2023-04-14T12:01:04.000Z</time>
      </trkpt>
      <trkpt lat="45.83984" lon="4.67479">
        <ele>277.85979</ele>
        <time>2023-04-14T12:01:05.000Z</time>
      </trkpt>
      <trkpt lat="45.83992" lon="4.67481">
        <ele>277.74089</ele>
        <time>2023-04-14T12:01:06.000Z</time>
      </trkpt>
      <trkpt lat="45.83999" lon="4.67483">
        <ele>277.57843</ele>
        <time>2023-04-14T12:01:07.000Z</time>
      </trkpt>
      <trkpt lat="45.84007" lon="4.67485">
        <ele>277.41515</ele>
        <time>2023-04-14T12:01:08.000Z</time>
      </trkpt>
      <trkpt lat="45.84015" lon="4.67488">
        <ele>277.26905</ele>
        <time>2023-04-14T12:01:09.000Z</time>
      </trkpt>
      <trkpt lat="45.84023" lon="4.67489">
        <ele>277.03782</ele>
        <time>2023-04-14T12:01:10.000Z</time>
      </trkpt>
      <trkpt lat="45.84031" lon="4.67492">
        <ele>276.8101</ele>
        <time>2023-04-14T12:01:11.000Z</time>
      </trkpt>
      <trkpt lat="45.84039" lon="4.67493">
        <ele>276.59001</ele>
        <time>2023-04-14T12:01:12.000Z</time>
      </trkpt>
      <trkpt lat="45.84047" lon="4.67495">
        <ele>276.45391</ele>
        <time>2023-04-14T12:01:13.000Z</time>
      </trkpt>
      <trkpt lat="45.84054" lon="4.67496">
        <ele>276.36025</ele>
        <time>2023-04-14T12:01:14.000Z</time>
      </trkpt>
      <trkpt lat="45.84062" lon="4.67498">
        <ele>276.23335</ele>
        <time>2023-04-14T12:01:15.000Z</time>
      </trkpt>
      <trkpt lat="45.84069" lon="4.675">
        <ele>276.07393</ele>
        <time>2023-04-14T12:01:16.000Z</time>
      </trkpt>
      <trkpt lat="45.84076" lon="4.67503">
        <ele>276.01709</ele>
        <time>2023-04-14T12:01:17.000Z</time>
      </trkpt>
      <trkpt lat="45.84084" lon="4.67505">
        <ele>276.01821</ele>
        <time>2023-04-14T12:01:18.000Z</time>
      </trkpt>
      <trkpt lat="45.84091" lon="4.67508">
        <ele>276.07158</ele>
        <time>2023-04-14T12:01:19.000Z</time>
      </trkpt>
      <trkpt lat="45.84098" lon="4.67512">
        <ele>276.09084</ele>
        <time>2023-04-14T12:01:20.000Z</time>
      </trkpt>
      <trkpt lat="45.84105" lon="4.67517">
        <ele>275.9702</ele>
        <time>2023-04-14T12:01:21.000Z</time>
      </trkpt>
      <trkpt lat="45.84112" lon="4.67522">
        <ele>275.75542</ele>
        <time>2023-04-14T12:01:22.000Z</time>
      </trkpt>
      <trkpt lat="45.84119" lon="4.67527">
        <ele>275.6036</ele>
        <time>2023-04-14T12:01:23.000Z</time>
      </trkpt>
      <trkpt lat="45.84125" lon="4.67533">
        <ele>275.53503</ele>
        <time>2023-04-14T12:01:24.000Z</time>
      </trkpt>
      <trkpt lat="45.84131" lon="4.67539">
        <ele>275.4196</ele>
        <time>2023-04-14T12:01:25.000Z</time>
      </trkpt>
      <trkpt lat="45.84138" lon="4.67546">
        <ele>275.43571</ele>
        <time>2023-04-14T12:01:26.000Z</time>
      </trkpt>
      <trkpt lat="45.84144" lon="4.67552">
        <ele>275.50933</ele>
        <time>2023-04-14T12:01:27.000Z</time>
      </trkpt>
      <trkpt lat="45.8415" lon="4.67559">
        <ele>274.98917</ele>
        <time>2023-04-14T12:01:28.000Z</time>
      </trkpt>
      <trkpt lat="45.84157" lon="4.67566">
        <ele>273.11395</ele>
        <time>2023-04-14T12:01:29.000Z</time>
      </trkpt>
      <trkpt lat="45.84163" lon="4.67572">
        <ele>270.39379</ele>
        <time>2023-04-14T12:01:30.000Z</time>
      </trkpt>
      <trkpt lat="45.84169" lon="4.67579">
        <ele>268.36121</ele>
        <time>2023-04-14T12:01:31.000Z</time>
      </trkpt>
      <trkpt lat="45.84176" lon="4.67586">
        <ele>267.56788</ele>
        <time>2023-04-14T12:01:32.000Z</time>
      </trkpt>
      <trkpt lat="45.84182" lon="4.67593">
        <ele>267.28602</ele>
        <time>2023-04-14T12:01:33.000Z</time>
      </trkpt>
      <trkpt lat="45.84188" lon="4.676">
        <ele>267.33916</ele>
        <time>2023-04-14T12:01:34.000Z</time>
      </trkpt>
      <trkpt lat="45.84194" lon="4.67606">
        <ele>268.28674</ele>
        <time>2023-04-14T12:01:35.000Z</time>
      </trkpt>
      <trkpt lat="45.842" lon="4.67613">
        <ele>270.22583</ele>
        <time>2023-04-14T12:01:36.000Z</time>
      </trkpt>
      <trkpt lat="45.84207" lon="4.6762">
        <ele>272.17924</ele>
        <time>2023-04-14T12:01:37.000Z</time>
      </trkpt>
      <trkpt lat="45.84213" lon="4.67627">
        <ele>273.45693</ele>
        <time>2023-04-14T12:01:38.000Z</time>
      </trkpt>
      <trkpt lat="45.84219" lon="4.67633">
        <ele>273.93511</ele>
        <time>2023-04-14T12:01:39.000Z</time>
      </trkpt>
      <trkpt lat="45.84227" lon="4.67638">
        <ele>273.78196</ele>
        <time>2023-04-14T12:01:40.000Z</time>
      </trkpt>
      <trkpt lat="45.84234" lon="4.67642">
        <ele>273.46647</ele>
        <time>2023-04-14T12:01:41.000Z</time>
      </trkpt>
      <trkpt lat="45.84242" lon="4.67644">
        <ele>273.31287</ele>
        <time>2023-04-14T12:01:42.000Z</time>
      </trkpt>
      <trkpt lat="45.8425" lon="4.67647">
        <ele>273.25882</ele>
        <time>2023-04-14T12:01:43.000Z</time>
      </trkpt>
      <trkpt lat="45.84258" lon="4.67649">
        <ele>273.1878</ele>
        <time>2023-04-14T12:01:44.000Z</time>
      </trkpt>
      <trkpt lat="45.84267" lon="4.67649">
        <ele>272.98715</ele>
        <time>2023-04-14T12:01:45.000Z</time>
      </trkpt>
      <trkpt lat="45.84276" lon="4.67649">
        <ele>272.73656</ele>
        <time>2023-04-14T12:01:46.000Z</time>
      </trkpt>
      <trkpt lat="45.84284" lon="4.67647">
        <ele>272.56411</ele>
        <time>2023-04-14T12:01:47.000Z</time>
      </trkpt>
      <trkpt lat="45.84292" lon="4.67644">
        <ele>272.4525</ele>
        <time>2023-04-14T12:01:48.000Z</time>
      </trkpt>
      <trkpt lat="45.843" lon="4.67641">
        <ele>272.37061</ele>
        <time>2023-04-14T12:01:49.000Z</time>
      </trkpt>
      <trkpt lat="45.84308" lon="4.67637">
        <ele>272.45381</ele>
        <time>2023-04-14T12:01:50.000Z</time>
      </trkpt>
      <trkpt lat="45.84316" lon="4.67633">
        <ele>272.7757</ele>
        <time>2023-04-14T12:01:51.000Z</time>
      </trkpt>
      <trkpt lat="45.84322" lon="4.67628">
        <ele>273.0313</ele>
        <time>2023-04-14T12:01:52.000Z</time>
      </trkpt>
      <trkpt lat="45.8433" lon="4.67623">
        <ele>273.04102</ele>
        <time>2023-04-14T12:01:53.000Z</time>
      </trkpt>
      <trkpt lat="45.84337" lon="4.67618">
        <ele>272.86339</ele>
        <time>2023-04-14T12:01:54.000Z</time>
      </trkpt>
      <trkpt lat="45.84344" lon="4.67614">
        <ele>272.69721</ele>
        <time>2023-04-14T12:01:55.000Z</time>
      </trkpt>
      <trkpt lat="45.84351" lon="4.67611">
        <ele>272.65518</ele>
        <time>2023-04-14T12:01:56.000Z</time>
      </trkpt>
      <trkpt lat="45.84358" lon="4.67607">
        <ele>272.79147</ele>
        <time>2023-04-14T12:01:57.000Z</time>
      </trkpt>
      <trkpt lat="45.84364" lon="4.67604">
        <ele>273.01475</ele>
        <time>2023-04-14T12:01:58.000Z</time>
      </trkpt>
      <trkpt lat="45.84371" lon="4.67601">
        <ele>273.20622</ele>
        <time>2023-04-14T12:01:59.000Z</time>
      </trkpt>
      <trkpt lat="45.84378" lon="4.67599">
        <ele>273.31324</ele>
        <time>2023-04-14T12:02:00.000Z</time>
      </trkpt>
      <trkpt lat="45.84385" lon="4.67598">
        <ele>273.39421</ele>
        <time>2023-04-14T12:02:01.000Z</time>
      </trkpt>
      <trkpt lat="45.84392" lon="4.67597">
        <ele>273.46603</ele>
        <time>2023-04-14T12:02:02.000Z</time>
      </trkpt>
      <trkpt lat="45.84399" lon="4.67597">
        <ele>273.52743</ele>
        <time>2023-04-14T12:02:03.000Z</time>
      </trkpt>
      <trkpt lat="45.84405" lon="4.67597">
        <ele>273.5721</ele>
        <time>2023-04-14T12:02:04.000Z</time>
      </trkpt>
      <trkpt lat="45.84412" lon="4.67598">
        <ele>273.60749</ele>
        <time>2023-04-14T12:02:05.000Z</time>
      </trkpt>
      <trkpt lat="45.84418" lon="4.67601">
        <ele>273.63486</ele>
        <time>2023-04-14T12:02:06.000Z</time>
      </trkpt>
      <trkpt lat="45.84424" lon="4.67603">
        <ele>273.60634</ele>
        <time>2023-04-14T12:02:07.000Z</time>
      </trkpt>
      <trkpt lat="45.8443" lon="4.67606">
        <ele>273.52255</ele>
        <time>2023-04-14T12:02:08.000Z</time>
      </trkpt>
      <trkpt lat="45.84435" lon="4.67609">
        <ele>273.42356</ele>
        <time>2023-04-14T12:02:09.000Z</time>
      </trkpt>
      <trkpt lat="45.84441" lon="4.67613">
        <ele>273.35655</ele>
        <time>2023-04-14T12:02:10.000Z</time>
      </trkpt>
      <trkpt lat="45.84447" lon="4.67616">
        <ele>273.3303</ele>
        <time>2023-04-14T12:02:11.000Z</time>
      </trkpt>
      <trkpt lat="45.84453" lon="4.67619">
        <ele>273.30632</ele>
        <time>2023-04-14T12:02:12.000Z</time>
      </trkpt>
      <trkpt lat="45.8446" lon="4.67623">
        <ele>273.27028</ele>
        <time>2023-04-14T12:02:13.000Z</time>
      </trkpt>
      <trkpt lat="45.84465" lon="4.67627">
        <ele>273.23327</ele>
        <time>2023-04-14T12:02:14.000Z</time>
      </trkpt>
      <trkpt lat="45.84471" lon="4.67631">
        <ele>273.21792</ele>
        <time>2023-04-14T12:02:15.000Z</time>
      </trkpt>
      <trkpt lat="45.84477" lon="4.67634">
        <ele>273.22066</ele>
        <time>2023-04-14T12:02:16.000Z</time>
      </trkpt>
      <trkpt lat="45.84483" lon="4.67637">
        <ele>273.2123</ele>
        <time>2023-04-14T12:02:17.000Z</time>
      </trkpt>
      <trkpt lat="45.84489" lon="4.67641">
        <ele>273.17055</ele>
        <time>2023-04-14T12:02:18.000Z</time>
      </trkpt>
      <trkpt lat="45.84495" lon="4.67645">
        <ele>273.11508</ele>
        <time>2023-04-14T12:02:19.000Z</time>
      </trkpt>
      <trkpt lat="45.84501" lon="4.67649">
        <ele>273.06899</ele>
        <time>2023-04-14T12:02:20.000Z</time>
      </trkpt>
      <trkpt lat="45.84508" lon="4.67652">
        <ele>273.05071</ele>
        <time>2023-04-14T12:02:21.000Z</time>
      </trkpt>
      <trkpt lat="45.84513" lon="4.67656">
        <ele>273.04055</ele>
        <time>2023-04-14T12:02:22.000Z</time>
      </trkpt>
      <trkpt lat="45.84519" lon="4.67659">
        <ele>273.02042</ele>
        <time>2023-04-14T12:02:23.000Z</time>
      </trkpt>
      <trkpt lat="45.84525" lon="4.67663">
        <ele>272.9963</ele>
        <time>2023-04-14T12:02:24.000Z</time>
      </trkpt>
      <trkpt lat="45.84531" lon="4.67667">
        <ele>272.99419</ele>
        <time>2023-04-14T12:02:25.000Z</time>
      </trkpt>
      <trkpt lat="45.84537" lon="4.67671">
        <ele>273.02717</ele>
        <time>2023-04-14T12:02:26.000Z</time>
      </trkpt>
      <trkpt lat="45.84543" lon="4.67675">
        <ele>273.07879</ele>
        <time>2023-04-14T12:02:27.000Z</time>
      </trkpt>
      <trkpt lat="45.84549" lon="4.67679">
        <ele>273.1262</ele>
        <time>2023-04-14T12:02:28.000Z</time>
      </trkpt>
      <trkpt lat="45.84555" lon="4.67683">
        <ele>273.15461</ele>
        <time>2023-04-14T12:02:29.000Z</time>
      </trkpt>
      <trkpt lat="45.8456" lon="4.67688">
        <ele>273.16935</ele>
        <time>2023-04-14T12:02:30.000Z</time>
      </trkpt>
      <trkpt lat="45.84565" lon="4.67694">
        <ele>273.17294</ele>
        <time>2023-04-14T12:02:31.000Z</time>
      </trkpt>
      <trkpt lat="45.84569" lon="4.677">
        <ele>273.17617</ele>
        <time>2023-04-14T12:02:32.000Z</time>
      </trkpt>
      <trkpt lat="45.84573" lon="4.67707">
        <ele>273.17558</ele>
        <time>2023-04-14T12:02:33.000Z</time>
      </trkpt>
      <trkpt lat="45.84577" lon="4.67715">
        <ele>273.18066</ele>
        <time>2023-04-14T12:02:34.000Z</time>
      </trkpt>
      <trkpt lat="45.8458" lon="4.67723">
        <ele>273.18555</ele>
        <time>2023-04-14T12:02:35.000Z</time>
      </trkpt>
      <trkpt lat="45.84582" lon="4.67731">
        <ele>273.15428</ele>
        <time>2023-04-14T12:02:36.000Z</time>
      </trkpt>
      <trkpt lat="45.84585" lon="4.67739">
        <ele>273.1061</ele>
        <time>2023-04-14T12:02:37.000Z</time>
      </trkpt>
      <trkpt lat="45.84586" lon="4.67747">
        <ele>273.07276</ele>
        <time>2023-04-14T12:02:38.000Z</time>
      </trkpt>
      <trkpt lat="45.84587" lon="4.67755">
        <ele>273.07299</ele>
        <time>2023-04-14T12:02:39.000Z</time>
      </trkpt>
      <trkpt lat="45.84589" lon="4.67763">
        <ele>273.09502</ele>
        <time>2023-04-14T12:02:40.000Z</time>
      </trkpt>
      <trkpt lat="45.84591" lon="4.67771">
        <ele>273.11361</ele>
        <time>2023-04-14T12:02:41.000Z</time>
      </trkpt>
      <trkpt lat="45.84593" lon="4.67779">
        <ele>273.09672</ele>
        <time>2023-04-14T12:02:42.000Z</time>
      </trkpt>
      <trkpt lat="45.84594" lon="4.67787">
        <ele>273.05669</ele>
        <time>2023-04-14T12:02:43.000Z</time>
      </trkpt>
      <trkpt lat="45.84595" lon="4.67794">
        <ele>272.98445</ele>
        <time>2023-04-14T12:02:44.000Z</time>
      </trkpt>
      <trkpt lat="45.84596" lon="4.67802">
        <ele>272.8794</ele>
        <time>2023-04-14T12:02:45.000Z</time>
      </trkpt>
      <trkpt lat="45.84597" lon="4.6781">
        <ele>272.75799</ele>
        <time>2023-04-14T12:02:46.000Z</time>
      </trkpt>
      <trkpt lat="45.84598" lon="4.67817">
        <ele>272.62013</ele>
        <time>2023-04-14T12:02:47.000Z</time>
      </trkpt>
      <trkpt lat="45.84599" lon="4.67825">
        <ele>272.45046</ele>
        <time>2023-04-14T12:02:48.000Z</time>
      </trkpt>
      <trkpt lat="45.846" lon="4.67833">
        <ele>272.24639</ele>
        <time>2023-04-14T12:02:49.000Z</time>
      </trkpt>
      <trkpt lat="45.84602" lon="4.67841">
        <ele>272.01518</ele>
        <time>2023-04-14T12:02:50.000Z</time>
      </trkpt>
      <trkpt lat="45.84603" lon="4.6785">
        <ele>271.73798</ele>
        <time>2023-04-14T12:02:51.000Z</time>
      </trkpt>
      <trkpt lat="45.84605" lon="4.67858">
        <ele>271.47523</ele>
        <time>2023-04-14T12:02:52.000Z</time>
      </trkpt>
      <trkpt lat="45.84607" lon="4.67867">
        <ele>271.27895</ele>
        <time>2023-04-14T12:02:53.000Z</time>
      </trkpt>
      <trkpt lat="45.8461" lon="4.67876">
        <ele>270.96436</ele>
        <time>2023-04-14T12:02:54.000Z</time>
      </trkpt>
      <trkpt lat="45.84613" lon="4.67885">
        <ele>270.54983</ele>
        <time>2023-04-14T12:02:55.000Z</time>
      </trkpt>
      <trkpt lat="45.84616" lon="4.67895">
        <ele>270.00341</ele>
        <time>2023-04-14T12:02:56.000Z</time>
      </trkpt>
      <trkpt lat="45.84619" lon="4.67905">
        <ele>269.45751</ele>
        <time>2023-04-14T12:02:57.000Z</time>
      </trkpt>
      <trkpt lat="45.84623" lon="4.67915">
        <ele>268.9221</ele>
        <time>2023-04-14T12:02:58.000Z</time>
      </trkpt>
      <trkpt lat="45.84626" lon="4.67925">
        <ele>268.41025</ele>
        <time>2023-04-14T12:02:59.000Z</time>
      </trkpt>
      <trkpt lat="45.84629" lon="4.67936">
        <ele>267.88413</ele>
        <time>2023-04-14T12:03:00.000Z</time>
      </trkpt>
      <trkpt lat="45.84633" lon="4.67947">
        <ele>267.39644</ele>
        <time>2023-04-14T12:03:01.000Z</time>
      </trkpt>
      <trkpt lat="45.84637" lon="4.67958">
        <ele>266.82619</ele>
        <time>2023-04-14T12:03:02.000Z</time>
      </trkpt>
      <trkpt lat="45.84641" lon="4.67969">
        <ele>266.32705</ele>
        <time>2023-04-14T12:03:03.000Z</time>
      </trkpt>
      <trkpt lat="45.84645" lon="4.6798">
        <ele>265.90018</ele>
        <time>2023-04-14T12:03:04.000Z</time>
      </trkpt>
      <trkpt lat="45.8465" lon="4.6799">
        <ele>265.53302</ele>
        <time>2023-04-14T12:03:05.000Z</time>
      </trkpt>
      <trkpt lat="45.84655" lon="4.68001">
        <ele>265.14932</ele>
        <time>2023-04-14T12:03:06.000Z</time>
      </trkpt>
      <trkpt lat="45.84661" lon="4.68012">
        <ele>264.81447</ele>
        <time>2023-04-14T12:03:07.000Z</time>
      </trkpt>
      <trkpt lat="45.84667" lon="4.68022">
        <ele>264.43225</ele>
        <time>2023-04-14T12:03:08.000Z</time>
      </trkpt>
      <trkpt lat="45.84673" lon="4.68033">
        <ele>263.90783</ele>
        <time>2023-04-14T12:03:09.000Z</time>
      </trkpt>
      <trkpt lat="45.8468" lon="4.68041">
        <ele>263.37989</ele>
        <time>2023-04-14T12:03:10.000Z</time>
      </trkpt>
      <trkpt lat="45.84687" lon="4.68049">
        <ele>262.95595</ele>
        <time>2023-04-14T12:03:11.000Z</time>
      </trkpt>
      <trkpt lat="45.84695" lon="4.68056">
        <ele>262.53771</ele>
        <time>2023-04-14T12:03:12.000Z</time>
      </trkpt>
      <trkpt lat="45.84703" lon="4.68063">
        <ele>262.01919</ele>
        <time>2023-04-14T12:03:13.000Z</time>
      </trkpt>
      <trkpt lat="45.8471" lon="4.6807">
        <ele>261.35613</ele>
        <time>2023-04-14T12:03:14.000Z</time>
      </trkpt>
      <trkpt lat="45.84718" lon="4.68075">
        <ele>260.72817</ele>
        <time>2023-04-14T12:03:15.000Z</time>
      </trkpt>
      <trkpt lat="45.84725" lon="4.68081">
        <ele>260.10152</ele>
        <time>2023-04-14T12:03:16.000Z</time>
      </trkpt>
      <trkpt lat="45.84732" lon="4.68086">
        <ele>259.51709</ele>
        <time>2023-04-14T12:03:17.000Z</time>
      </trkpt>
      <trkpt lat="45.84739" lon="4.68091">
        <ele>259.01241</ele>
        <time>2023-04-14T12:03:18.000Z</time>
      </trkpt>
      <trkpt lat="45.84746" lon="4.68097">
        <ele>258.51381</ele>
        <time>2023-04-14T12:03:19.000Z</time>
      </trkpt>
      <trkpt lat="45.84753" lon="4.68102">
        <ele>257.88285</ele>
        <time>2023-04-14T12:03:20.000Z</time>
      </trkpt>
      <trkpt lat="45.8476" lon="4.68107">
        <ele>257.14066</ele>
        <time>2023-04-14T12:03:21.000Z</time>
      </trkpt>
      <trkpt lat="45.84768" lon="4.68113">
        <ele>256.45157</ele>
        <time>2023-04-14T12:03:22.000Z</time>
      </trkpt>
      <trkpt lat="45.84776" lon="4.68119">
        <ele>255.88628</ele>
        <time>2023-04-14T12:03:23.000Z</time>
      </trkpt>
      <trkpt lat="45.84784" lon="4.68126">
        <ele>255.31425</ele>
        <time>2023-04-14T12:03:24.000Z</time>
      </trkpt>
      <trkpt lat="45.84792" lon="4.68132">
        <ele>254.72794</ele>
        <time>2023-04-14T12:03:25.000Z</time>
      </trkpt>
      <trkpt lat="45.84801" lon="4.68139">
        <ele>254.26046</ele>
        <time>2023-04-14T12:03:26.000Z</time>
      </trkpt>
      <trkpt lat="45.84809" lon="4.68145">
        <ele>253.8254</ele>
        <time>2023-04-14T12:03:27.000Z</time>
      </trkpt>
      <trkpt lat="45.84817" lon="4.6815">
        <ele>253.25325</ele>
        <time>2023-04-14T12:03:28.000Z</time>
      </trkpt>
      <trkpt lat="45.84826" lon="4.68155">
        <ele>252.60609</ele>
        <time>2023-04-14T12:03:29.000Z</time>
      </trkpt>
      <trkpt lat="45.84834" lon="4.68157">
        <ele>251.89216</ele>
        <time>2023-04-14T12:03:30.000Z</time>
      </trkpt>
      <trkpt lat="45.84843" lon="4.68156">
        <ele>250.96286</ele>
        <time>2023-04-14T12:03:31.000Z</time>
      </trkpt>
      <trkpt lat="45.84851" lon="4.68152">
        <ele>249.83803</ele>
        <time>2023-04-14T12:03:32.000Z</time>
      </trkpt>
      <trkpt lat="45.8486" lon="4.68145">
        <ele>248.84546</ele>
        <time>2023-04-14T12:03:33.000Z</time>
      </trkpt>
      <trkpt lat="45.84867" lon="4.68138">
        <ele>247.94583</ele>
        <time>2023-04-14T12:03:34.000Z</time>
      </trkpt>
      <trkpt lat="45.84875" lon="4.68129">
        <ele>247.0885</ele>
        <time>2023-04-14T12:03:35.000Z</time>
      </trkpt>
      <trkpt lat="45.84883" lon="4.6812">
        <ele>246.34225</ele>
        <time>2023-04-14T12:03:36.000Z</time>
      </trkpt>
      <trkpt lat="45.8489" lon="4.68112">
        <ele>245.64583</ele>
        <time>2023-04-14T12:03:37.000Z</time>
      </trkpt>
      <trkpt lat="45.84899" lon="4.68106">
        <ele>244.82317</ele>
        <time>2023-04-14T12:03:38.000Z</time>
      </trkpt>
      <trkpt lat="45.84907" lon="4.68101">
        <ele>243.9827</ele>
        <time>2023-04-14T12:03:39.000Z</time>
      </trkpt>
      <trkpt lat="45.84917" lon="4.68096">
        <ele>243.19333</ele>
        <time>2023-04-14T12:03:40.000Z</time>
      </trkpt>
      <trkpt lat="45.84926" lon="4.68091">
        <ele>242.67731</ele>
        <time>2023-04-14T12:03:41.000Z</time>
      </trkpt>
      <trkpt lat="45.84935" lon="4.68089">
        <ele>242.06809</ele>
        <time>2023-04-14T12:03:42.000Z</time>
      </trkpt>
      <trkpt lat="45.84945" lon="4.68086">
        <ele>241.39312</ele>
        <time>2023-04-14T12:03:43.000Z</time>
      </trkpt>
      <trkpt lat="45.84954" lon="4.68083">
        <ele>240.72326</ele>
        <time>2023-04-14T12:03:44.000Z</time>
      </trkpt>
      <trkpt lat="45.84964" lon="4.6808">
        <ele>240.12901</ele>
        <time>2023-04-14T12:03:45.000Z</time>
      </trkpt>
      <trkpt lat="45.84974" lon="4.68078">
        <ele>239.49653</ele>
        <time>2023-04-14T12:03:46.000Z</time>
      </trkpt>
      <trkpt lat="45.84984" lon="4.68076">
        <ele>238.72688</ele>
        <time>2023-04-14T12:03:47.000Z</time>
      </trkpt>
      <trkpt lat="45.84994" lon="4.68075">
        <ele>237.91293</ele>
        <time>2023-04-14T12:03:48.000Z</time>
      </trkpt>
      <trkpt lat="45.85005" lon="4.68075">
        <ele>237.21236</ele>
        <time>2023-04-14T12:03:49.000Z</time>
      </trkpt>
      <trkpt lat="45.85015" lon="4.68074">
        <ele>236.60123</ele>
        <time>2023-04-14T12:03:50.000Z</time>
      </trkpt>
      <trkpt lat="45.85024" lon="4.68074">
        <ele>235.99642</ele>
        <time>2023-04-14T12:03:51.000Z</time>
      </trkpt>
      <trkpt lat="45.85034" lon="4.68074">
        <ele>235.3832</ele>
        <time>2023-04-14T12:03:52.000Z</time>
      </trkpt>
      <trkpt lat="45.85043" lon="4.68074">
        <ele>234.74165</ele>
        <time>2023-04-14T12:03:53.000Z</time>
      </trkpt>
      <trkpt lat="45.85052" lon="4.68073">
        <ele>233.97004</ele>
        <time>2023-04-14T12:03:54.000Z</time>
      </trkpt>
      <trkpt lat="45.85061" lon="4.68073">
        <ele>233.18096</ele>
        <time>2023-04-14T12:03:55.000Z</time>
      </trkpt>
      <trkpt lat="45.85069" lon="4.68073">
        <ele>232.46034</ele>
        <time>2023-04-14T12:03:56.000Z</time>
      </trkpt>
      <trkpt lat="45.85076" lon="4.68073">
        <ele>231.81845</ele>
        <time>2023-04-14T12:03:57.000Z</time>
      </trkpt>
      <trkpt lat="45.85081" lon="4.68075">
        <ele>231.25322</ele>
        <time>2023-04-14T12:03:58.000Z</time>
      </trkpt>
      <trkpt lat="45.85086" lon="4.68077">
        <ele>230.7326</ele>
        <time>2023-04-14T12:03:59.000Z</time>
      </trkpt>
      <trkpt lat="45.85092" lon="4.6808">
        <ele>230.15005</ele>
        <time>2023-04-14T12:04:00.000Z</time>
      </trkpt>
      <trkpt lat="45.85098" lon="4.68082">
        <ele>229.63131</ele>
        <time>2023-04-14T12:04:01.000Z</time>
      </trkpt>
      <trkpt lat="45.85104" lon="4.68082">
        <ele>229.1574</ele>
        <time>2023-04-14T12:04:02.000Z</time>
      </trkpt>
      <trkpt lat="45.85111" lon="4.68081">
        <ele>228.78389</ele>
        <time>2023-04-14T12:04:03.000Z</time>
      </trkpt>
      <trkpt lat="45.85118" lon="4.68081">
        <ele>228.33259</ele>
        <time>2023-04-14T12:04:04.000Z</time>
      </trkpt>
      <trkpt lat="45.85125" lon="4.68085">
        <ele>227.74982</ele>
        <time>2023-04-14T12:04:05.000Z</time>
      </trkpt>
      <trkpt lat="45.85131" lon="4.68089">
        <ele>227.10961</ele>
        <time>2023-04-14T12:04:06.000Z</time>
      </trkpt>
      <trkpt lat="45.85137" lon="4.68093">
        <ele>226.3958</ele>
        <time>2023-04-14T12:04:07.000Z</time>
      </trkpt>
      <trkpt lat="45.85143" lon="4.68097">
        <ele>225.64091</ele>
        <time>2023-04-14T12:04:08.000Z</time>
      </trkpt>
      <trkpt lat="45.8515" lon="4.681">
        <ele>224.99449</ele>
        <time>2023-04-14T12:04:09.000Z</time>
      </trkpt>
      <trkpt lat="45.85156" lon="4.68103">
        <ele>224.50661</ele>
        <time>2023-04-14T12:04:10.000Z</time>
      </trkpt>
      <trkpt lat="45.85161" lon="4.68108">
        <ele>224.13223</ele>
        <time>2023-04-14T12:04:11.000Z</time>
      </trkpt>
      <trkpt lat="45.85167" lon="4.68113">
        <ele>223.85282</ele>
        <time>2023-04-14T12:04:12.000Z</time>
      </trkpt>
      <trkpt lat="45.85173" lon="4.68117">
        <ele>223.57723</ele>
        <time>2023-04-14T12:04:13.000Z</time>
      </trkpt>
      <trkpt lat="45.85179" lon="4.68121">
        <ele>223.20913</ele>
        <time>2023-04-14T12:04:14.000Z</time>
      </trkpt>
      <trkpt lat="45.85185" lon="4.68124">
        <ele>222.77485</ele>
        <time>2023-04-14T12:04:15.000Z</time>
      </trkpt>
      <trkpt lat="45.85191" lon="4.68128">
        <ele>222.30644</ele>
        <time>2023-04-14T12:04:16.000Z</time>
      </trkpt>
      <trkpt lat="45.85198" lon="4.68131">
        <ele>221.84655</ele>
        <time>2023-04-14T12:04:17.000Z</time>
      </trkpt>
      <trkpt lat="45.85204" lon="4.68135">
        <ele>221.42489</ele>
        <time>2023-04-14T12:04:18.000Z</time>
      </trkpt>
      <trkpt lat="45.8521" lon="4.68139">
        <ele>221.08387</ele>
        <time>2023-04-14T12:04:19.000Z</time>
      </trkpt>
      <trkpt lat="45.85217" lon="4.68144">
        <ele>220.78825</ele>
        <time>2023-04-14T12:04:20.000Z</time>
      </trkpt>
      <trkpt lat="45.85223" lon="4.68148">
        <ele>220.48374</ele>
        <time>2023-04-14T12:04:21.000Z</time>
      </trkpt>
      <trkpt lat="45.85229" lon="4.68151">
        <ele>220.1147</ele>
        <time>2023-04-14T12:04:22.000Z</time>
      </trkpt>
      <trkpt lat="45.85235" lon="4.68155">
        <ele>219.73149</ele>
        <time>2023-04-14T12:04:23.000Z</time>
      </trkpt>
      <trkpt lat="45.85241" lon="4.68159">
        <ele>219.43761</ele>
        <time>2023-04-14T12:04:24.000Z</time>
      </trkpt>
      <trkpt lat="45.85246" lon="4.68162">
        <ele>219.25403</ele>
        <time>2023-04-14T12:04:25.000Z</time>
      </trkpt>
      <trkpt lat="45.85251" lon="4.68165">
        <ele>219.15069</ele>
        <time>2023-04-14T12:04:26.000Z</time>
      </trkpt>
      <trkpt lat="45.85256" lon="4.68169">
        <ele>219.09185</ele>
        <time>2023-04-14T12:04:27.000Z</time>
      </trkpt>
      <trkpt lat="45.85261" lon="4.68172">
        <ele>219.00414</ele>
        <time>2023-04-14T12:04:28.000Z</time>
      </trkpt>
      <trkpt lat="45.85265" lon="4.68175">
        <ele>218.78015</ele>
        <time>2023-04-14T12:04:29.000Z</time>
      </trkpt>
      <trkpt lat="45.8527" lon="4.68178">
        <ele>218.35857</ele>
        <time>2023-04-14T12:04:30.000Z</time>
      </trkpt>
      <trkpt lat="45.85275" lon="4.68182">
        <ele>217.70373</ele>
        <time>2023-04-14T12:04:31.000Z</time>
      </trkpt>
      <trkpt lat="45.85279" lon="4.68185">
        <ele>217.17259</ele>
        <time>2023-04-14T12:04:32.000Z</time>
      </trkpt>
      <trkpt lat="45.85283" lon="4.68187">
        <ele>216.69108</ele>
        <time>2023-04-14T12:04:33.000Z</time>
      </trkpt>
      <trkpt lat="45.85286" lon="4.6819">
        <ele>216.43316</ele>
        <time>2023-04-14T12:04:34.000Z</time>
      </trkpt>
      <trkpt lat="45.85288" lon="4.68194">
        <ele>216.30429</ele>
        <time>2023-04-14T12:04:35.000Z</time>
      </trkpt>
      <trkpt lat="45.8529" lon="4.68197">
        <ele>216.26815</ele>
        <time>2023-04-14T12:04:36.000Z</time>
      </trkpt>
      <trkpt lat="45.85292" lon="4.682">
        <ele>216.26256</ele>
        <time>2023-04-14T12:04:37.000Z</time>
      </trkpt>
      <trkpt lat="45.85293" lon="4.68203">
        <ele>216.30858</ele>
        <time>2023-04-14T12:04:38.000Z</time>
      </trkpt>
      <trkpt lat="45.85294" lon="4.68205">
        <ele>216.33039</ele>
        <time>2023-04-14T12:04:40.000Z</time>
      </trkpt>
      <trkpt lat="45.85297" lon="4.68209">
        <ele>216.31545</ele>
        <time>2023-04-14T12:05:11.000Z</time>
      </trkpt>
      <trkpt lat="45.85299" lon="4.6821">
        <ele>216.27479</ele>
        <time>2023-04-14T12:05:12.000Z</time>
      </trkpt>
      <trkpt lat="45.85302" lon="4.68209">
        <ele>216.16185</ele>
        <time>2023-04-14T12:05:13.000Z</time>
      </trkpt>
      <trkpt lat="45.85304" lon="4.68207">
        <ele>216.03147</ele>
        <time>2023-04-14T12:05:14.000Z</time>
      </trkpt>
      <trkpt lat="45.85307" lon="4.68205">
        <ele>215.89342</ele>
        <time>2023-04-14T12:05:15.000Z</time>
      </trkpt>
      <trkpt lat="45.8531" lon="4.68201">
        <ele>215.74418</ele>
        <time>2023-04-14T12:05:16.000Z</time>
      </trkpt>
      <trkpt lat="45.85313" lon="4.68198">
        <ele>215.56008</ele>
        <time>2023-04-14T12:05:17.000Z</time>
      </trkpt>
      <trkpt lat="45.85316" lon="4.68195">
        <ele>215.37516</ele>
        <time>2023-04-14T12:05:18.000Z</time>
      </trkpt>
      <trkpt lat="45.85319" lon="4.6819">
        <ele>215.19192</ele>
        <time>2023-04-14T12:05:19.000Z</time>
      </trkpt>
      <trkpt lat="45.85323" lon="4.68186">
        <ele>215.02408</ele>
        <time>2023-04-14T12:05:20.000Z</time>
      </trkpt>
      <trkpt lat="45.85326" lon="4.6818">
        <ele>214.95654</ele>
        <time>2023-04-14T12:05:21.000Z</time>
      </trkpt>
      <trkpt lat="45.8533" lon="4.68176">
        <ele>214.8352</ele>
        <time>2023-04-14T12:05:22.000Z</time>
      </trkpt>
      <trkpt lat="45.85333" lon="4.68171">
        <ele>214.70705</ele>
        <time>2023-04-14T12:05:23.000Z</time>
      </trkpt>
      <trkpt lat="45.85337" lon="4.68167">
        <ele>214.54407</ele>
        <time>2023-04-14T12:05:24.000Z</time>
      </trkpt>
      <trkpt lat="45.85341" lon="4.68162">
        <ele>214.2828</ele>
        <time>2023-04-14T12:05:25.000Z</time>
      </trkpt>
      <trkpt lat="45.85345" lon="4.68156">
        <ele>213.8975</ele>
        <time>2023-04-14T12:05:26.000Z</time>
      </trkpt>
      <trkpt lat="45.85349" lon="4.68151">
        <ele>213.54669</ele>
        <time>2023-04-14T12:05:27.000Z</time>
      </trkpt>
      <trkpt lat="45.85354" lon="4.68145">
        <ele>213.37316</ele>
        <time>2023-04-14T12:05:28.000Z</time>
      </trkpt>
      <trkpt lat="45.85359" lon="4.6814">
        <ele>213.27218</ele>
        <time>2023-04-14T12:05:29.000Z</time>
      </trkpt>
      <trkpt lat="45.85363" lon="4.68134">
        <ele>213.23248</ele>
        <time>2023-04-14T12:05:30.000Z</time>
      </trkpt>
      <trkpt lat="45.85368" lon="4.68128">
        <ele>212.98543</ele>
        <time>2023-04-14T12:05:31.000Z</time>
      </trkpt>
      <trkpt lat="45.85373" lon="4.68122">
        <ele>212.62301</ele>
        <time>2023-04-14T12:05:32.000Z</time>
      </trkpt>
      <trkpt lat="45.85378" lon="4.68116">
        <ele>211.93978</ele>
        <time>2023-04-14T12:05:33.000Z</time>
      </trkpt>
      <trkpt lat="45.85384" lon="4.68109">
        <ele>210.62325</ele>
        <time>2023-04-14T12:05:34.000Z</time>
      </trkpt>
      <trkpt lat="45.85389" lon="4.68103">
        <ele>208.13055</ele>
        <time>2023-04-14T12:05:35.000Z</time>
      </trkpt>
      <trkpt lat="45.85395" lon="4.68097">
        <ele>205.12395</ele>
        <time>2023-04-14T12:05:36.000Z</time>
      </trkpt>
      <trkpt lat="45.85401" lon="4.68093">
        <ele>202.48591</ele>
        <time>2023-04-14T12:05:37.000Z</time>
      </trkpt>
      <trkpt lat="45.85407" lon="4.68087">
        <ele>201.62835</ele>
        <time>2023-04-14T12:05:38.000Z</time>
      </trkpt>
      <trkpt lat="45.85413" lon="4.68081">
        <ele>202.39465</ele>
        <time>2023-04-14T12:05:39.000Z</time>
      </trkpt>
      <trkpt lat="45.85418" lon="4.68075">
        <ele>204.3346</ele>
        <time>2023-04-14T12:05:40.000Z</time>
      </trkpt>
      <trkpt lat="45.85424" lon="4.6807">
        <ele>206.18657</ele>
        <time>2023-04-14T12:05:41.000Z</time>
      </trkpt>
      <trkpt lat="45.85429" lon="4.68065">
        <ele>207.21502</ele>
        <time>2023-04-14T12:05:42.000Z</time>
      </trkpt>
      <trkpt lat="45.85434" lon="4.68061">
        <ele>207.58491</ele>
        <time>2023-04-14T12:05:43.000Z</time>
      </trkpt>
      <trkpt lat="45.85439" lon="4.68056">
        <ele>207.31323</ele>
        <time>2023-04-14T12:05:44.000Z</time>
      </trkpt>
      <trkpt lat="45.85443" lon="4.68052">
        <ele>206.68959</ele>
        <time>2023-04-14T12:05:45.000Z</time>
      </trkpt>
      <trkpt lat="45.85447" lon="4.68048">
        <ele>206.13946</ele>
        <time>2023-04-14T12:05:46.000Z</time>
      </trkpt>
      <trkpt lat="45.85451" lon="4.68043">
        <ele>205.59359</ele>
        <time>2023-04-14T12:05:47.000Z</time>
      </trkpt>
      <trkpt lat="45.85455" lon="4.68039">
        <ele>205.23573</ele>
        <time>2023-04-14T12:05:48.000Z</time>
      </trkpt>
      <trkpt lat="45.8546" lon="4.68035">
        <ele>205.071</ele>
        <time>2023-04-14T12:05:49.000Z</time>
      </trkpt>
      <trkpt lat="45.85464" lon="4.68032">
        <ele>205.06638</ele>
        <time>2023-04-14T12:05:50.000Z</time>
      </trkpt>
      <trkpt lat="45.85468" lon="4.68028">
        <ele>205.10317</ele>
        <time>2023-04-14T12:05:51.000Z</time>
      </trkpt>
      <trkpt lat="45.85471" lon="4.68025">
        <ele>205.01052</ele>
        <time>2023-04-14T12:05:52.000Z</time>
      </trkpt>
      <trkpt lat="45.85476" lon="4.68024">
        <ele>204.74258</ele>
        <time>2023-04-14T12:05:53.000Z</time>
      </trkpt>
      <trkpt lat="45.85481" lon="4.68024">
        <ele>204.37322</ele>
        <time>2023-04-14T12:05:54.000Z</time>
      </trkpt>
      <trkpt lat="45.85486" lon="4.68022">
        <ele>204.06925</ele>
        <time>2023-04-14T12:05:55.000Z</time>
      </trkpt>
      <trkpt lat="45.8549" lon="4.6802">
        <ele>203.83016</ele>
        <time>2023-04-14T12:05:56.000Z</time>
      </trkpt>
      <trkpt lat="45.85493" lon="4.68019">
        <ele>203.67247</ele>
        <time>2023-04-14T12:05:57.000Z</time>
      </trkpt>
      <trkpt lat="45.85496" lon="4.68016">
        <ele>203.52473</ele>
        <time>2023-04-14T12:05:58.000Z</time>
      </trkpt>
      <trkpt lat="45.85499" lon="4.68013">
        <ele>203.36832</ele>
        <time>2023-04-14T12:05:59.000Z</time>
      </trkpt>
      <trkpt lat="45.85503" lon="4.6801">
        <ele>203.10754</ele>
        <time>2023-04-14T12:06:00.000Z</time>
      </trkpt>
      <trkpt lat="45.85507" lon="4.68007">
        <ele>202.73081</ele>
        <time>2023-04-14T12:06:01.000Z</time>
      </trkpt>
      <trkpt lat="45.85512" lon="4.68004">
        <ele>202.31978</ele>
        <time>2023-04-14T12:06:02.000Z</time>
      </trkpt>
      <trkpt lat="45.85516" lon="4.68002">
        <ele>201.89202</ele>
        <time>2023-04-14T12:06:03.000Z</time>
      </trkpt>
      <trkpt lat="45.85521" lon="4.68">
        <ele>201.60645</ele>
        <time>2023-04-14T12:06:04.000Z</time>
      </trkpt>
      <trkpt lat="45.85525" lon="4.67999">
        <ele>201.44265</ele>
        <time>2023-04-14T12:06:05.000Z</time>
      </trkpt>
      <trkpt lat="45.85528" lon="4.67998">
        <ele>201.33417</ele>
        <time>2023-04-14T12:06:06.000Z</time>
      </trkpt>
      <trkpt lat="45.8553" lon="4.67997">
        <ele>201.27246</ele>
        <time>2023-04-14T12:06:07.000Z</time>
      </trkpt>
      <trkpt lat="45.85532" lon="4.68">
        <ele>201.08135</ele>
        <time>2023-04-14T12:06:08.000Z</time>
      </trkpt>
      <trkpt lat="45.85534" lon="4.68005">
        <ele>200.83717</ele>
        <time>2023-04-14T12:06:09.000Z</time>
      </trkpt>
      <trkpt lat="45.85534" lon="4.68005">
        <ele>200.83717</ele>
        <time>2023-04-14T12:06:09.000Z</time>
      </trkpt>
      <trkpt lat="45.85536" lon="4.6801">
        <ele>200.58797</ele>
        <time>2023-04-14T12:06:10.000Z</time>
      </trkpt>
      <trkpt lat="45.85537" lon="4.68015">
        <ele>200.33008</ele>
        <time>2023-04-14T12:06:11.000Z</time>
      </trkpt>
      <trkpt lat="45.85539" lon="4.68019">
        <ele>200.13142</ele>
        <time>2023-04-14T12:06:12.000Z</time>
      </trkpt>
      <trkpt lat="45.85541" lon="4.68022">
        <ele>199.96491</ele>
        <time>2023-04-14T12:06:13.000Z</time>
      </trkpt>
      <trkpt lat="45.85543" lon="4.68022">
        <ele>199.84075</ele>
        <time>2023-04-14T12:06:14.000Z</time>
      </trkpt>
      <trkpt lat="45.85545" lon="4.68021">
        <ele>199.70854</ele>
        <time>2023-04-14T12:06:15.000Z</time>
      </trkpt>
      <trkpt lat="45.85548" lon="4.68023">
        <ele>199.62877</ele>
        <time>2023-04-14T12:06:16.000Z</time>
      </trkpt>
      <trkpt lat="45.85551" lon="4.68026">
        <ele>199.71174</ele>
        <time>2023-04-14T12:06:17.000Z</time>
      </trkpt>
      <trkpt lat="45.85554" lon="4.68031">
        <ele>199.86688</ele>
        <time>2023-04-14T12:06:18.000Z</time>
      </trkpt>
      <trkpt lat="45.85557" lon="4.68037">
        <ele>199.89498</ele>
        <time>2023-04-14T12:06:19.000Z</time>
      </trkpt>
      <trkpt lat="45.85557" lon="4.68047">
        <ele>199.81213</ele>
        <time>2023-04-14T12:06:20.000Z</time>
      </trkpt>
      <trkpt lat="45.85559" lon="4.68053">
        <ele>199.57932</ele>
        <time>2023-04-14T12:06:21.000Z</time>
      </trkpt>
      <trkpt lat="45.85561" lon="4.6806">
        <ele>199.25918</ele>
        <time>2023-04-14T12:06:22.000Z</time>
      </trkpt>
      <trkpt lat="45.85564" lon="4.68067">
        <ele>198.99682</ele>
        <time>2023-04-14T12:06:23.000Z</time>
      </trkpt>
      <trkpt lat="45.85566" lon="4.68074">
        <ele>198.96512</ele>
        <time>2023-04-14T12:06:24.000Z</time>
      </trkpt>
      <trkpt lat="45.85568" lon="4.68081">
        <ele>199.09672</ele>
        <time>2023-04-14T12:06:25.000Z</time>
      </trkpt>
      <trkpt lat="45.85571" lon="4.68088">
        <ele>199.3533</ele>
        <time>2023-04-14T12:06:26.000Z</time>
      </trkpt>
      <trkpt lat="45.85573" lon="4.68095">
        <ele>199.59135</ele>
        <time>2023-04-14T12:06:27.000Z</time>
      </trkpt>
      <trkpt lat="45.85576" lon="4.68102">
        <ele>199.61756</ele>
        <time>2023-04-14T12:06:28.000Z</time>
      </trkpt>
      <trkpt lat="45.85578" lon="4.68109">
        <ele>199.47899</ele>
        <time>2023-04-14T12:06:29.000Z</time>
      </trkpt>
      <trkpt lat="45.85581" lon="4.68116">
        <ele>199.26777</ele>
        <time>2023-04-14T12:06:30.000Z</time>
      </trkpt>
      <trkpt lat="45.85584" lon="4.68122">
        <ele>199.12531</ele>
        <time>2023-04-14T12:06:31.000Z</time>
      </trkpt>
      <trkpt lat="45.85587" lon="4.68128">
        <ele>199.08591</ele>
        <time>2023-04-14T12:06:32.000Z</time>
      </trkpt>
      <trkpt lat="45.8559" lon="4.68134">
        <ele>199.16311</ele>
        <time>2023-04-14T12:06:33.000Z</time>
      </trkpt>
      <trkpt lat="45.85593" lon="4.68139">
        <ele>199.28027</ele>
        <time>2023-04-14T12:06:34.000Z</time>
      </trkpt>
      <trkpt lat="45.85596" lon="4.68143">
        <ele>199.35514</ele>
        <time>2023-04-14T12:06:35.000Z</time>
      </trkpt>
      <trkpt lat="45.85598" lon="4.68148">
        <ele>199.41996</ele>
        <time>2023-04-14T12:06:36.000Z</time>
      </trkpt>
      <trkpt lat="45.85601" lon="4.68153">
        <ele>199.45137</ele>
        <time>2023-04-14T12:06:37.000Z</time>
      </trkpt>
      <trkpt lat="45.85603" lon="4.68158">
        <ele>199.39996</ele>
        <time>2023-04-14T12:06:38.000Z</time>
      </trkpt>
      <trkpt lat="45.85606" lon="4.68163">
        <ele>199.31874</ele>
        <time>2023-04-14T12:06:39.000Z</time>
      </trkpt>
      <trkpt lat="45.85609" lon="4.68168">
        <ele>199.25598</ele>
        <time>2023-04-14T12:06:40.000Z</time>
      </trkpt>
      <trkpt lat="45.85611" lon="4.68173">
        <ele>199.31178</ele>
        <time>2023-04-14T12:06:41.000Z</time>
      </trkpt>
      <trkpt lat="45.85613" lon="4.68178">
        <ele>199.51839</ele>
        <time>2023-04-14T12:06:42.000Z</time>
      </trkpt>
      <trkpt lat="45.85615" lon="4.68183">
        <ele>199.70915</ele>
        <time>2023-04-14T12:06:43.000Z</time>
      </trkpt>
      <trkpt lat="45.85617" lon="4.68188">
        <ele>199.80862</ele>
        <time>2023-04-14T12:06:44.000Z</time>
      </trkpt>
      <trkpt lat="45.8562" lon="4.68193">
        <ele>199.80466</ele>
        <time>2023-04-14T12:06:45.000Z</time>
      </trkpt>
      <trkpt lat="45.85624" lon="4.68197">
        <ele>199.55556</ele>
        <time>2023-04-14T12:06:46.000Z</time>
      </trkpt>
      <trkpt lat="45.85626" lon="4.68203">
        <ele>199.39639</ele>
        <time>2023-04-14T12:06:47.000Z</time>
      </trkpt>
      <trkpt lat="45.8563" lon="4.68207">
        <ele>199.14051</ele>
        <time>2023-04-14T12:06:48.000Z</time>
      </trkpt>
      <trkpt lat="45.85633" lon="4.68211">
        <ele>198.94044</ele>
        <time>2023-04-14T12:06:49.000Z</time>
      </trkpt>
      <trkpt lat="45.85637" lon="4.68215">
        <ele>198.97003</ele>
        <time>2023-04-14T12:06:50.000Z</time>
      </trkpt>
      <trkpt lat="45.85641" lon="4.68219">
        <ele>199.07422</ele>
        <time>2023-04-14T12:06:51.000Z</time>
      </trkpt>
      <trkpt lat="45.85645" lon="4.68224">
        <ele>199.22093</ele>
        <time>2023-04-14T12:06:52.000Z</time>
      </trkpt>
      <trkpt lat="45.85649" lon="4.68229">
        <ele>199.14658</ele>
        <time>2023-04-14T12:06:53.000Z</time>
      </trkpt>
      <trkpt lat="45.85653" lon="4.68233">
        <ele>198.81783</ele>
        <time>2023-04-14T12:06:54.000Z</time>
      </trkpt>
      <trkpt lat="45.85657" lon="4.68238">
        <ele>198.48972</ele>
        <time>2023-04-14T12:06:55.000Z</time>
      </trkpt>
      <trkpt lat="45.8566" lon="4.68242">
        <ele>198.37732</ele>
        <time>2023-04-14T12:06:56.000Z</time>
      </trkpt>
      <trkpt lat="45.85664" lon="4.68246">
        <ele>198.49358</ele>
        <time>2023-04-14T12:06:57.000Z</time>
      </trkpt>
      <trkpt lat="45.85668" lon="4.68251">
        <ele>198.80992</ele>
        <time>2023-04-14T12:06:58.000Z</time>
      </trkpt>
      <trkpt lat="45.85671" lon="4.68256">
        <ele>199.14349</ele>
        <time>2023-04-14T12:06:59.000Z</time>
      </trkpt>
      <trkpt lat="45.85674" lon="4.6826">
        <ele>199.08374</ele>
        <time>2023-04-14T12:07:00.000Z</time>
      </trkpt>
      <trkpt lat="45.85678" lon="4.68264">
        <ele>198.83651</ele>
        <time>2023-04-14T12:07:01.000Z</time>
      </trkpt>
      <trkpt lat="45.85682" lon="4.68268">
        <ele>198.54619</ele>
        <time>2023-04-14T12:07:02.000Z</time>
      </trkpt>
      <trkpt lat="45.85686" lon="4.68272">
        <ele>198.32811</ele>
        <time>2023-04-14T12:07:03.000Z</time>
      </trkpt>
      <trkpt lat="45.85689" lon="4.68276">
        <ele>198.30515</ele>
        <time>2023-04-14T12:07:04.000Z</time>
      </trkpt>
      <trkpt lat="45.85693" lon="4.6828">
        <ele>198.45548</ele>
        <time>2023-04-14T12:07:05.000Z</time>
      </trkpt>
      <trkpt lat="45.85697" lon="4.68285">
        <ele>198.77253</ele>
        <time>2023-04-14T12:07:06.000Z</time>
      </trkpt>
      <trkpt lat="45.857" lon="4.68289">
        <ele>199.04434</ele>
        <time>2023-04-14T12:07:07.000Z</time>
      </trkpt>
      <trkpt lat="45.85704" lon="4.68294">
        <ele>199.24669</ele>
        <time>2023-04-14T12:07:08.000Z</time>
      </trkpt>
      <trkpt lat="45.85708" lon="4.68299">
        <ele>199.30046</ele>
        <time>2023-04-14T12:07:09.000Z</time>
      </trkpt>
      <trkpt lat="45.85712" lon="4.68304">
        <ele>199.21063</ele>
        <time>2023-04-14T12:07:10.000Z</time>
      </trkpt>
      <trkpt lat="45.85716" lon="4.68309">
        <ele>199.04407</ele>
        <time>2023-04-14T12:07:11.000Z</time>
      </trkpt>
      <trkpt lat="45.8572" lon="4.68314">
        <ele>199.03006</ele>
        <time>2023-04-14T12:07:12.000Z</time>
      </trkpt>
      <trkpt lat="45.85723" lon="4.6832">
        <ele>199.30264</ele>
        <time>2023-04-14T12:07:13.000Z</time>
      </trkpt>
      <trkpt lat="45.85727" lon="4.68325">
        <ele>199.67481</ele>
        <time>2023-04-14T12:07:14.000Z</time>
      </trkpt>
      <trkpt lat="45.8573" lon="4.68332">
        <ele>199.84173</ele>
        <time>2023-04-14T12:07:15.000Z</time>
      </trkpt>
      <trkpt lat="45.85733" lon="4.68338">
        <ele>199.78945</ele>
        <time>2023-04-14T12:07:16.000Z</time>
      </trkpt>
      <trkpt lat="45.85736" lon="4.68344">
        <ele>199.60789</ele>
        <time>2023-04-14T12:07:17.000Z</time>
      </trkpt>
      <trkpt lat="45.85738" lon="4.68351">
        <ele>199.52407</ele>
        <time>2023-04-14T12:07:18.000Z</time>
      </trkpt>
      <trkpt lat="45.8574" lon="4.68358">
        <ele>199.64149</ele>
        <time>2023-04-14T12:07:19.000Z</time>
      </trkpt>
      <trkpt lat="45.85743" lon="4.68365">
        <ele>199.79816</ele>
        <time>2023-04-14T12:07:20.000Z</time>
      </trkpt>
      <trkpt lat="45.85745" lon="4.68372">
        <ele>199.8098</ele>
        <time>2023-04-14T12:07:21.000Z</time>
      </trkpt>
      <trkpt lat="45.85747" lon="4.68379">
        <ele>199.67412</ele>
        <time>2023-04-14T12:07:22.000Z</time>
      </trkpt>
      <trkpt lat="45.8575" lon="4.68385">
        <ele>199.44401</ele>
        <time>2023-04-14T12:07:23.000Z</time>
      </trkpt>
      <trkpt lat="45.85752" lon="4.68392">
        <ele>199.27197</ele>
        <time>2023-04-14T12:07:24.000Z</time>
      </trkpt>
      <trkpt lat="45.85755" lon="4.68399">
        <ele>199.20041</ele>
        <time>2023-04-14T12:07:25.000Z</time>
      </trkpt>
      <trkpt lat="45.85758" lon="4.68405">
        <ele>199.20393</ele>
        <time>2023-04-14T12:07:26.000Z</time>
      </trkpt>
      <trkpt lat="45.8576" lon="4.68412">
        <ele>199.32941</ele>
        <time>2023-04-14T12:07:27.000Z</time>
      </trkpt>
      <trkpt lat="45.85763" lon="4.68419">
        <ele>199.54583</ele>
        <time>2023-04-14T12:07:28.000Z</time>
      </trkpt>
      <trkpt lat="45.85766" lon="4.68427">
        <ele>199.72085</ele>
        <time>2023-04-14T12:07:29.000Z</time>
      </trkpt>
      <trkpt lat="45.85768" lon="4.68435">
        <ele>199.6298</ele>
        <time>2023-04-14T12:07:30.000Z</time>
      </trkpt>
      <trkpt lat="45.8577" lon="4.68443">
        <ele>199.28162</ele>
        <time>2023-04-14T12:07:31.000Z</time>
      </trkpt>
      <trkpt lat="45.85772" lon="4.6845">
        <ele>198.84848</ele>
        <time>2023-04-14T12:07:32.000Z</time>
      </trkpt>
      <trkpt lat="45.85774" lon="4.68459">
        <ele>198.53273</ele>
        <time>2023-04-14T12:07:33.000Z</time>
      </trkpt>
      <trkpt lat="45.85776" lon="4.68466">
        <ele>198.42936</ele>
        <time>2023-04-14T12:07:34.000Z</time>
      </trkpt>
      <trkpt lat="45.85778" lon="4.68474">
        <ele>198.46262</ele>
        <time>2023-04-14T12:07:35.000Z</time>
      </trkpt>
      <trkpt lat="45.8578" lon="4.68483">
        <ele>198.57704</ele>
        <time>2023-04-14T12:07:36.000Z</time>
      </trkpt>
      <trkpt lat="45.85781" lon="4.6849">
        <ele>198.66848</ele>
        <time>2023-04-14T12:07:37.000Z</time>
      </trkpt>
      <trkpt lat="45.85783" lon="4.68498">
        <ele>198.77315</ele>
        <time>2023-04-14T12:07:38.000Z</time>
      </trkpt>
      <trkpt lat="45.85784" lon="4.68505">
        <ele>198.86938</ele>
        <time>2023-04-14T12:07:39.000Z</time>
      </trkpt>
      <trkpt lat="45.85786" lon="4.68512">
        <ele>198.92516</ele>
        <time>2023-04-14T12:07:40.000Z</time>
      </trkpt>
      <trkpt lat="45.85787" lon="4.6852">
        <ele>198.91403</ele>
        <time>2023-04-14T12:07:41.000Z</time>
      </trkpt>
      <trkpt lat="45.85788" lon="4.68527">
        <ele>198.80097</ele>
        <time>2023-04-14T12:07:42.000Z</time>
      </trkpt>
      <trkpt lat="45.8579" lon="4.68534">
        <ele>198.62524</ele>
        <time>2023-04-14T12:07:43.000Z</time>
      </trkpt>
      <trkpt lat="45.85793" lon="4.68541">
        <ele>198.43593</ele>
        <time>2023-04-14T12:07:44.000Z</time>
      </trkpt>
      <trkpt lat="45.85795" lon="4.68548">
        <ele>198.29867</ele>
        <time>2023-04-14T12:07:45.000Z</time>
      </trkpt>
      <trkpt lat="45.85797" lon="4.68555">
        <ele>198.22724</ele>
        <time>2023-04-14T12:07:46.000Z</time>
      </trkpt>
      <trkpt lat="45.858" lon="4.68562">
        <ele>198.18722</ele>
        <time>2023-04-14T12:07:47.000Z</time>
      </trkpt>
      <trkpt lat="45.85803" lon="4.68569">
        <ele>198.21038</ele>
        <time>2023-04-14T12:07:48.000Z</time>
      </trkpt>
      <trkpt lat="45.85805" lon="4.68576">
        <ele>198.25999</ele>
        <time>2023-04-14T12:07:49.000Z</time>
      </trkpt>
      <trkpt lat="45.85807" lon="4.68584">
        <ele>198.29702</ele>
        <time>2023-04-14T12:07:50.000Z</time>
      </trkpt>
      <trkpt lat="45.85809" lon="4.68591">
        <ele>198.3087</ele>
        <time>2023-04-14T12:07:51.000Z</time>
      </trkpt>
      <trkpt lat="45.85811" lon="4.68599">
        <ele>198.31959</ele>
        <time>2023-04-14T12:07:52.000Z</time>
      </trkpt>
      <trkpt lat="45.85812" lon="4.68606">
        <ele>198.30839</ele>
        <time>2023-04-14T12:07:53.000Z</time>
      </trkpt>
      <trkpt lat="45.85813" lon="4.68614">
        <ele>198.30085</ele>
        <time>2023-04-14T12:07:54.000Z</time>
      </trkpt>
      <trkpt lat="45.85814" lon="4.68621">
        <ele>198.30921</ele>
        <time>2023-04-14T12:07:55.000Z</time>
      </trkpt>
      <trkpt lat="45.85815" lon="4.68628">
        <ele>198.35898</ele>
        <time>2023-04-14T12:07:56.000Z</time>
      </trkpt>
      <trkpt lat="45.85816" lon="4.68635">
        <ele>198.42795</ele>
        <time>2023-04-14T12:07:57.000Z</time>
      </trkpt>
      <trkpt lat="45.85816" lon="4.68642">
        <ele>198.50353</ele>
        <time>2023-04-14T12:07:58.000Z</time>
      </trkpt>
      <trkpt lat="45.85817" lon="4.68649">
        <ele>198.55795</ele>
        <time>2023-04-14T12:07:59.000Z</time>
      </trkpt>
      <trkpt lat="45.85817" lon="4.68657">
        <ele>198.557</ele>
        <time>2023-04-14T12:08:00.000Z</time>
      </trkpt>
      <trkpt lat="45.85817" lon="4.68664">
        <ele>198.50146</ele>
        <time>2023-04-14T12:08:01.000Z</time>
      </trkpt>
      <trkpt lat="45.85816" lon="4.68671">
        <ele>198.45203</ele>
        <time>2023-04-14T12:08:02.000Z</time>
      </trkpt>
      <trkpt lat="45.85815" lon="4.68679">
        <ele>198.46132</ele>
        <time>2023-04-14T12:08:03.000Z</time>
      </trkpt>
      <trkpt lat="45.85814" lon="4.68686">
        <ele>198.55451</ele>
        <time>2023-04-14T12:08:04.000Z</time>
      </trkpt>
      <trkpt lat="45.85814" lon="4.68694">
        <ele>198.75809</ele>
        <time>2023-04-14T12:08:05.000Z</time>
      </trkpt>
      <trkpt lat="45.85813" lon="4.68702">
        <ele>199.00988</ele>
        <time>2023-04-14T12:08:06.000Z</time>
      </trkpt>
      <trkpt lat="45.85812" lon="4.6871">
        <ele>199.1452</ele>
        <time>2023-04-14T12:08:07.000Z</time>
      </trkpt>
      <trkpt lat="45.85811" lon="4.68717">
        <ele>199.0809</ele>
        <time>2023-04-14T12:08:08.000Z</time>
      </trkpt>
      <trkpt lat="45.8581" lon="4.68726">
        <ele>198.83522</ele>
        <time>2023-04-14T12:08:09.000Z</time>
      </trkpt>
      <trkpt lat="45.8581" lon="4.68733">
        <ele>198.55456</ele>
        <time>2023-04-14T12:08:10.000Z</time>
      </trkpt>
      <trkpt lat="45.85809" lon="4.6874">
        <ele>198.27334</ele>
        <time>2023-04-14T12:08:11.000Z</time>
      </trkpt>
      <trkpt lat="45.85809" lon="4.68748">
        <ele>198.09158</ele>
        <time>2023-04-14T12:08:12.000Z</time>
      </trkpt>
      <trkpt lat="45.85808" lon="4.68755">
        <ele>197.99856</ele>
        <time>2023-04-14T12:08:13.000Z</time>
      </trkpt>
      <trkpt lat="45.85808" lon="4.68762">
        <ele>197.9465</ele>
        <time>2023-04-14T12:08:14.000Z</time>
      </trkpt>
      <trkpt lat="45.85807" lon="4.68768">
        <ele>197.93192</ele>
        <time>2023-04-14T12:08:15.000Z</time>
      </trkpt>
      <trkpt lat="45.85807" lon="4.68775">
        <ele>197.90955</ele>
        <time>2023-04-14T12:08:16.000Z</time>
      </trkpt>
      <trkpt lat="45.85808" lon="4.68781">
        <ele>197.86875</ele>
        <time>2023-04-14T12:08:17.000Z</time>
      </trkpt>
      <trkpt lat="45.85808" lon="4.68787">
        <ele>197.83864</ele>
        <time>2023-04-14T12:08:18.000Z</time>
      </trkpt>
      <trkpt lat="45.85809" lon="4.68794">
        <ele>197.83985</ele>
        <time>2023-04-14T12:08:19.000Z</time>
      </trkpt>
      <trkpt lat="45.85809" lon="4.68799">
        <ele>197.84857</ele>
        <time>2023-04-14T12:08:20.000Z</time>
      </trkpt>
      <trkpt lat="45.8581" lon="4.68805">
        <ele>197.86442</ele>
        <time>2023-04-14T12:08:21.000Z</time>
      </trkpt>
      <trkpt lat="45.8581" lon="4.6881">
        <ele>197.88057</ele>
        <time>2023-04-14T12:08:22.000Z</time>
      </trkpt>
      <trkpt lat="45.85811" lon="4.68815">
        <ele>197.90403</ele>
        <time>2023-04-14T12:08:23.000Z</time>
      </trkpt>
      <trkpt lat="45.85811" lon="4.68821">
        <ele>197.94157</ele>
        <time>2023-04-14T12:08:24.000Z</time>
      </trkpt>
      <trkpt lat="45.85812" lon="4.68825">
        <ele>197.96923</ele>
        <time>2023-04-14T12:08:25.000Z</time>
      </trkpt>
      <trkpt lat="45.85813" lon="4.68829">
        <ele>197.96932</ele>
        <time>2023-04-14T12:08:26.000Z</time>
      </trkpt>
      <trkpt lat="45.85815" lon="4.68833">
        <ele>197.91383</ele>
        <time>2023-04-14T12:08:27.000Z</time>
      </trkpt>
      <trkpt lat="45.85817" lon="4.68835">
        <ele>197.82018</ele>
        <time>2023-04-14T12:08:28.000Z</time>
      </trkpt>
      <trkpt lat="45.85818" lon="4.68838">
        <ele>197.79303</ele>
        <time>2023-04-14T12:08:29.000Z</time>
      </trkpt>
      <trkpt lat="45.85818" lon="4.68841">
        <ele>197.78857</ele>
        <time>2023-04-14T12:08:30.000Z</time>
      </trkpt>
      <trkpt lat="45.85819" lon="4.68845">
        <ele>197.70754</ele>
        <time>2023-04-14T12:08:31.000Z</time>
      </trkpt>
      <trkpt lat="45.85819" lon="4.68849">
        <ele>197.67677</ele>
        <time>2023-04-14T12:08:32.000Z</time>
      </trkpt>
      <trkpt lat="45.85818" lon="4.68852">
        <ele>197.72863</ele>
        <time>2023-04-14T12:08:33.000Z</time>
      </trkpt>
      <trkpt lat="45.85817" lon="4.68855">
        <ele>197.79141</ele>
        <time>2023-04-14T12:08:34.000Z</time>
      </trkpt>
      <trkpt lat="45.85815" lon="4.68858">
        <ele>197.86566</ele>
        <time>2023-04-14T12:08:35.000Z</time>
      </trkpt>
      <trkpt lat="45.85813" lon="4.68861">
        <ele>197.90874</ele>
        <time>2023-04-14T12:08:36.000Z</time>
      </trkpt>
      <trkpt lat="45.85811" lon="4.68866">
        <ele>197.86133</ele>
        <time>2023-04-14T12:08:37.000Z</time>
      </trkpt>
      <trkpt lat="45.85811" lon="4.68873">
        <ele>197.78429</ele>
        <time>2023-04-14T12:08:38.000Z</time>
      </trkpt>
      <trkpt lat="45.85811" lon="4.68879">
        <ele>197.71438</ele>
        <time>2023-04-14T12:08:39.000Z</time>
      </trkpt>
      <trkpt lat="45.85811" lon="4.68885">
        <ele>197.67897</ele>
        <time>2023-04-14T12:08:40.000Z</time>
      </trkpt>
      <trkpt lat="45.85809" lon="4.68893">
        <ele>197.63103</ele>
        <time>2023-04-14T12:08:41.000Z</time>
      </trkpt>
      <trkpt lat="45.85808" lon="4.689">
        <ele>197.54516</ele>
        <time>2023-04-14T12:08:42.000Z</time>
      </trkpt>
      <trkpt lat="45.85808" lon="4.68907">
        <ele>197.37019</ele>
        <time>2023-04-14T12:08:43.000Z</time>
      </trkpt>
      <trkpt lat="45.85808" lon="4.68912">
        <ele>197.1108</ele>
        <time>2023-04-14T12:08:44.000Z</time>
      </trkpt>
      <trkpt lat="45.85807" lon="4.68919">
        <ele>196.66997</ele>
        <time>2023-04-14T12:08:45.000Z</time>
      </trkpt>
      <trkpt lat="45.85806" lon="4.68926">
        <ele>196.24301</ele>
        <time>2023-04-14T12:08:46.000Z</time>
      </trkpt>
      <trkpt lat="45.85806" lon="4.68932">
        <ele>195.91013</ele>
        <time>2023-04-14T12:08:47.000Z</time>
      </trkpt>
      <trkpt lat="45.85805" lon="4.68939">
        <ele>195.66871</ele>
        <time>2023-04-14T12:08:48.000Z</time>
      </trkpt>
      <trkpt lat="45.85805" lon="4.68946">
        <ele>195.52334</ele>
        <time>2023-04-14T12:08:49.000Z</time>
      </trkpt>
      <trkpt lat="45.85804" lon="4.68952">
        <ele>195.5852</ele>
        <time>2023-04-14T12:08:50.000Z</time>
      </trkpt>
      <trkpt lat="45.85803" lon="4.68959">
        <ele>195.67002</ele>
        <time>2023-04-14T12:08:51.000Z</time>
      </trkpt>
      <trkpt lat="45.85803" lon="4.68966">
        <ele>195.75268</ele>
        <time>2023-04-14T12:08:52.000Z</time>
      </trkpt>
      <trkpt lat="45.85802" lon="4.68973">
        <ele>195.81896</ele>
        <time>2023-04-14T12:08:53.000Z</time>
      </trkpt>
      <trkpt lat="45.85802" lon="4.6898">
        <ele>195.85083</ele>
        <time>2023-04-14T12:08:54.000Z</time>
      </trkpt>
      <trkpt lat="45.85801" lon="4.68987">
        <ele>195.86369</ele>
        <time>2023-04-14T12:08:55.000Z</time>
      </trkpt>
      <trkpt lat="45.85801" lon="4.68994">
        <ele>195.88235</ele>
        <time>2023-04-14T12:08:56.000Z</time>
      </trkpt>
      <trkpt lat="45.85801" lon="4.69">
        <ele>195.96816</ele>
        <time>2023-04-14T12:08:57.000Z</time>
      </trkpt>
      <trkpt lat="45.858" lon="4.69006">
        <ele>196.0385</ele>
        <time>2023-04-14T12:08:58.000Z</time>
      </trkpt>
      <trkpt lat="45.85799" lon="4.69013">
        <ele>196.16829</ele>
        <time>2023-04-14T12:08:59.000Z</time>
      </trkpt>
      <trkpt lat="45.85798" lon="4.69019">
        <ele>196.23017</ele>
        <time>2023-04-14T12:09:00.000Z</time>
      </trkpt>
      <trkpt lat="45.85797" lon="4.69026">
        <ele>196.37394</ele>
        <time>2023-04-14T12:09:01.000Z</time>
      </trkpt>
      <trkpt lat="45.85796" lon="4.69032">
        <ele>196.51268</ele>
        <time>2023-04-14T12:09:02.000Z</time>
      </trkpt>
      <trkpt lat="45.85796" lon="4.69039">
        <ele>196.6668</ele>
        <time>2023-04-14T12:09:03.000Z</time>
      </trkpt>
      <trkpt lat="45.85794" lon="4.69046">
        <ele>196.98668</ele>
        <time>2023-04-14T12:09:04.000Z</time>
      </trkpt>
      <trkpt lat="45.85794" lon="4.69052">
        <ele>197.26356</ele>
        <time>2023-04-14T12:09:05.000Z</time>
      </trkpt>
      <trkpt lat="45.85792" lon="4.69058">
        <ele>197.53618</ele>
        <time>2023-04-14T12:09:06.000Z</time>
      </trkpt>
      <trkpt lat="45.85791" lon="4.69065">
        <ele>197.78098</ele>
        <time>2023-04-14T12:09:07.000Z</time>
      </trkpt>
      <trkpt lat="45.8579" lon="4.69071">
        <ele>197.87282</ele>
        <time>2023-04-14T12:09:08.000Z</time>
      </trkpt>
      <trkpt lat="45.85789" lon="4.69078">
        <ele>197.90625</ele>
        <time>2023-04-14T12:09:09.000Z</time>
      </trkpt>
      <trkpt lat="45.85788" lon="4.69084">
        <ele>197.87821</ele>
        <time>2023-04-14T12:09:10.000Z</time>
      </trkpt>
      <trkpt lat="45.85787" lon="4.69091">
        <ele>197.79784</ele>
        <time>2023-04-14T12:09:11.000Z</time>
      </trkpt>
      <trkpt lat="45.85786" lon="4.69097">
        <ele>197.66369</ele>
        <time>2023-04-14T12:09:12.000Z</time>
      </trkpt>
      <trkpt lat="45.85785" lon="4.69104">
        <ele>197.50041</ele>
        <time>2023-04-14T12:09:13.000Z</time>
      </trkpt>
      <trkpt lat="45.85784" lon="4.69109">
        <ele>197.31926</ele>
        <time>2023-04-14T12:09:14.000Z</time>
      </trkpt>
      <trkpt lat="45.85783" lon="4.69114">
        <ele>197.16889</ele>
        <time>2023-04-14T12:09:15.000Z</time>
      </trkpt>
      <trkpt lat="45.85782" lon="4.69119">
        <ele>196.9795</ele>
        <time>2023-04-14T12:09:16.000Z</time>
      </trkpt>
      <trkpt lat="45.85781" lon="4.69124">
        <ele>196.79739</ele>
        <time>2023-04-14T12:09:17.000Z</time>
      </trkpt>
      <trkpt lat="45.8578" lon="4.69129">
        <ele>196.62164</ele>
        <time>2023-04-14T12:09:18.000Z</time>
      </trkpt>
      <trkpt lat="45.8578" lon="4.69136">
        <ele>196.40041</ele>
        <time>2023-04-14T12:09:19.000Z</time>
      </trkpt>
      <trkpt lat="45.85778" lon="4.69142">
        <ele>196.17097</ele>
        <time>2023-04-14T12:09:20.000Z</time>
      </trkpt>
      <trkpt lat="45.85777" lon="4.69148">
        <ele>195.98501</ele>
        <time>2023-04-14T12:09:21.000Z</time>
      </trkpt>
      <trkpt lat="45.85776" lon="4.69154">
        <ele>195.83697</ele>
        <time>2023-04-14T12:09:22.000Z</time>
      </trkpt>
      <trkpt lat="45.85775" lon="4.6916">
        <ele>195.75782</ele>
        <time>2023-04-14T12:09:23.000Z</time>
      </trkpt>
      <trkpt lat="45.85774" lon="4.69167">
        <ele>195.74303</ele>
        <time>2023-04-14T12:09:24.000Z</time>
      </trkpt>
      <trkpt lat="45.85773" lon="4.69173">
        <ele>195.78804</ele>
        <time>2023-04-14T12:09:25.000Z</time>
      </trkpt>
      <trkpt lat="45.85772" lon="4.69179">
        <ele>195.86876</ele>
        <time>2023-04-14T12:09:26.000Z</time>
      </trkpt>
      <trkpt lat="45.85771" lon="4.69184">
        <ele>195.95007</ele>
        <time>2023-04-14T12:09:27.000Z</time>
      </trkpt>
      <trkpt lat="45.8577" lon="4.6919">
        <ele>196.01563</ele>
        <time>2023-04-14T12:09:28.000Z</time>
      </trkpt>
      <trkpt lat="45.85769" lon="4.69194">
        <ele>196.11526</ele>
        <time>2023-04-14T12:09:29.000Z</time>
      </trkpt>
      <trkpt lat="45.85769" lon="4.69198">
        <ele>196.2116</ele>
        <time>2023-04-14T12:09:30.000Z</time>
      </trkpt>
      <trkpt lat="45.85768" lon="4.69202">
        <ele>196.32166</ele>
        <time>2023-04-14T12:09:31.000Z</time>
      </trkpt>
      <trkpt lat="45.85768" lon="4.69206">
        <ele>196.42473</ele>
        <time>2023-04-14T12:09:32.000Z</time>
      </trkpt>
      <trkpt lat="45.85767" lon="4.69209">
        <ele>196.54088</ele>
        <time>2023-04-14T12:09:33.000Z</time>
      </trkpt>
      <trkpt lat="45.85766" lon="4.69213">
        <ele>196.66281</ele>
        <time>2023-04-14T12:09:34.000Z</time>
      </trkpt>
      <trkpt lat="45.85766" lon="4.69216">
        <ele>196.74176</ele>
        <time>2023-04-14T12:09:35.000Z</time>
      </trkpt>
      <trkpt lat="45.85767" lon="4.69219">
        <ele>196.79211</ele>
        <time>2023-04-14T12:09:36.000Z</time>
      </trkpt>
      <trkpt lat="45.85768" lon="4.69222">
        <ele>196.81664</ele>
        <time>2023-04-14T12:09:37.000Z</time>
      </trkpt>
      <trkpt lat="45.85769" lon="4.69224">
        <ele>196.81722</ele>
        <time>2023-04-14T12:09:38.000Z</time>
      </trkpt>
      <trkpt lat="45.85769" lon="4.69227">
        <ele>196.80031</ele>
        <time>2023-04-14T12:09:39.000Z</time>
      </trkpt>
      <trkpt lat="45.8577" lon="4.6923">
        <ele>196.80233</ele>
        <time>2023-04-14T12:09:41.000Z</time>
      </trkpt>
      <trkpt lat="45.85769" lon="4.69233">
        <ele>196.90046</ele>
        <time>2023-04-14T12:09:42.000Z</time>
      </trkpt>
      <trkpt lat="45.85767" lon="4.69235">
        <ele>196.99581</ele>
        <time>2023-04-14T12:09:43.000Z</time>
      </trkpt>
      <trkpt lat="45.85765" lon="4.69238">
        <ele>197.00013</ele>
        <time>2023-04-14T12:09:44.000Z</time>
      </trkpt>
      <trkpt lat="45.85764" lon="4.69243">
        <ele>196.97589</ele>
        <time>2023-04-14T12:09:45.000Z</time>
      </trkpt>
      <trkpt lat="45.85764" lon="4.69248">
        <ele>196.95413</ele>
        <time>2023-04-14T12:09:46.000Z</time>
      </trkpt>
      <trkpt lat="45.85764" lon="4.69253">
        <ele>196.9272</ele>
        <time>2023-04-14T12:09:47.000Z</time>
      </trkpt>
      <trkpt lat="45.85764" lon="4.69259">
        <ele>196.91687</ele>
        <time>2023-04-14T12:09:48.000Z</time>
      </trkpt>
      <trkpt lat="45.85764" lon="4.69264">
        <ele>196.94664</ele>
        <time>2023-04-14T12:09:49.000Z</time>
      </trkpt>
      <trkpt lat="45.85764" lon="4.6927">
        <ele>197.03517</ele>
        <time>2023-04-14T12:09:50.000Z</time>
      </trkpt>
      <trkpt lat="45.85763" lon="4.69276">
        <ele>197.1418</ele>
        <time>2023-04-14T12:09:51.000Z</time>
      </trkpt>
      <trkpt lat="45.85763" lon="4.69282">
        <ele>197.23356</ele>
        <time>2023-04-14T12:09:52.000Z</time>
      </trkpt>
      <trkpt lat="45.85763" lon="4.69288">
        <ele>197.28328</ele>
        <time>2023-04-14T12:09:53.000Z</time>
      </trkpt>
      <trkpt lat="45.85762" lon="4.69293">
        <ele>197.27875</ele>
        <time>2023-04-14T12:09:54.000Z</time>
      </trkpt>
      <trkpt lat="45.85762" lon="4.69298">
        <ele>197.20558</ele>
        <time>2023-04-14T12:09:55.000Z</time>
      </trkpt>
      <trkpt lat="45.85762" lon="4.69304">
        <ele>197.05747</ele>
        <time>2023-04-14T12:09:56.000Z</time>
      </trkpt>
      <trkpt lat="45.85762" lon="4.69309">
        <ele>196.88228</ele>
        <time>2023-04-14T12:09:57.000Z</time>
      </trkpt>
      <trkpt lat="45.85761" lon="4.69315">
        <ele>196.69352</ele>
        <time>2023-04-14T12:09:58.000Z</time>
      </trkpt>
      <trkpt lat="45.85761" lon="4.69321">
        <ele>196.55332</ele>
        <time>2023-04-14T12:09:59.000Z</time>
      </trkpt>
      <trkpt lat="45.85761" lon="4.69327">
        <ele>196.50726</ele>
        <time>2023-04-14T12:10:00.000Z</time>
      </trkpt>
      <trkpt lat="45.8576" lon="4.69333">
        <ele>196.56838</ele>
        <time>2023-04-14T12:10:01.000Z</time>
      </trkpt>
      <trkpt lat="45.8576" lon="4.69339">
        <ele>196.68572</ele>
        <time>2023-04-14T12:10:02.000Z</time>
      </trkpt>
      <trkpt lat="45.8576" lon="4.69345">
        <ele>196.83232</ele>
        <time>2023-04-14T12:10:03.000Z</time>
      </trkpt>
      <trkpt lat="45.85761" lon="4.69351">
        <ele>196.96428</ele>
        <time>2023-04-14T12:10:04.000Z</time>
      </trkpt>
      <trkpt lat="45.8576" lon="4.69357">
        <ele>197.06968</ele>
        <time>2023-04-14T12:10:05.000Z</time>
      </trkpt>
      <trkpt lat="45.8576" lon="4.69363">
        <ele>197.12529</ele>
        <time>2023-04-14T12:10:06.000Z</time>
      </trkpt>
      <trkpt lat="45.8576" lon="4.69369">
        <ele>197.14244</ele>
        <time>2023-04-14T12:10:07.000Z</time>
      </trkpt>
      <trkpt lat="45.85759" lon="4.69375">
        <ele>197.14474</ele>
        <time>2023-04-14T12:10:08.000Z</time>
      </trkpt>
      <trkpt lat="45.85759" lon="4.69381">
        <ele>197.1391</ele>
        <time>2023-04-14T12:10:09.000Z</time>
      </trkpt>
      <trkpt lat="45.85759" lon="4.69388">
        <ele>197.14499</ele>
        <time>2023-04-14T12:10:10.000Z</time>
      </trkpt>
      <trkpt lat="45.8576" lon="4.69394">
        <ele>197.18098</ele>
        <time>2023-04-14T12:10:11.000Z</time>
      </trkpt>
      <trkpt lat="45.8576" lon="4.694">
        <ele>197.2716</ele>
        <time>2023-04-14T12:10:12.000Z</time>
      </trkpt>
      <trkpt lat="45.85761" lon="4.69406">
        <ele>197.37222</ele>
        <time>2023-04-14T12:10:13.000Z</time>
      </trkpt>
      <trkpt lat="45.85762" lon="4.69412">
        <ele>197.44751</ele>
        <time>2023-04-14T12:10:14.000Z</time>
      </trkpt>
      <trkpt lat="45.85762" lon="4.69418">
        <ele>197.46653</ele>
        <time>2023-04-14T12:10:15.000Z</time>
      </trkpt>
      <trkpt lat="45.85763" lon="4.69423">
        <ele>197.4108</ele>
        <time>2023-04-14T12:10:16.000Z</time>
      </trkpt>
      <trkpt lat="45.85764" lon="4.69429">
        <ele>197.23368</ele>
        <time>2023-04-14T12:10:17.000Z</time>
      </trkpt>
      <trkpt lat="45.85764" lon="4.69435">
        <ele>197.01128</ele>
        <time>2023-04-14T12:10:18.000Z</time>
      </trkpt>
      <trkpt lat="45.85765" lon="4.6944">
        <ele>196.74435</ele>
        <time>2023-04-14T12:10:19.000Z</time>
      </trkpt>
      <trkpt lat="45.85765" lon="4.69446">
        <ele>196.50896</ele>
        <time>2023-04-14T12:10:20.000Z</time>
      </trkpt>
      <trkpt lat="45.85766" lon="4.69451">
        <ele>196.31267</ele>
        <time>2023-04-14T12:10:21.000Z</time>
      </trkpt>
      <trkpt lat="45.85767" lon="4.69457">
        <ele>196.18501</ele>
        <time>2023-04-14T12:10:22.000Z</time>
      </trkpt>
      <trkpt lat="45.85768" lon="4.69462">
        <ele>196.11636</ele>
        <time>2023-04-14T12:10:23.000Z</time>
      </trkpt>
      <trkpt lat="45.85768" lon="4.69468">
        <ele>196.09314</ele>
        <time>2023-04-14T12:10:24.000Z</time>
      </trkpt>
      <trkpt lat="45.85769" lon="4.69473">
        <ele>196.10422</ele>
        <time>2023-04-14T12:10:25.000Z</time>
      </trkpt>
      <trkpt lat="45.8577" lon="4.69479">
        <ele>196.11208</ele>
        <time>2023-04-14T12:10:26.000Z</time>
      </trkpt>
      <trkpt lat="45.85771" lon="4.69484">
        <ele>196.11261</ele>
        <time>2023-04-14T12:10:27.000Z</time>
      </trkpt>
      <trkpt lat="45.85772" lon="4.6949">
        <ele>196.08947</ele>
        <time>2023-04-14T12:10:28.000Z</time>
      </trkpt>
      <trkpt lat="45.85773" lon="4.69495">
        <ele>196.07131</ele>
        <time>2023-04-14T12:10:29.000Z</time>
      </trkpt>
      <trkpt lat="45.85774" lon="4.695">
        <ele>196.05339</ele>
        <time>2023-04-14T12:10:30.000Z</time>
      </trkpt>
      <trkpt lat="45.85775" lon="4.69506">
        <ele>196.03337</ele>
        <time>2023-04-14T12:10:31.000Z</time>
      </trkpt>
      <trkpt lat="45.85775" lon="4.6951">
        <ele>196.02942</ele>
        <time>2023-04-14T12:10:32.000Z</time>
      </trkpt>
      <trkpt lat="45.85776" lon="4.69516">
        <ele>196.0457</ele>
        <time>2023-04-14T12:10:33.000Z</time>
      </trkpt>
      <trkpt lat="45.85777" lon="4.69521">
        <ele>196.08363</ele>
        <time>2023-04-14T12:10:34.000Z</time>
      </trkpt>
      <trkpt lat="45.85777" lon="4.69526">
        <ele>196.15796</ele>
        <time>2023-04-14T12:10:35.000Z</time>
      </trkpt>
      <trkpt lat="45.85778" lon="4.69531">
        <ele>196.25645</ele>
        <time>2023-04-14T12:10:36.000Z</time>
      </trkpt>
      <trkpt lat="45.85779" lon="4.69537">
        <ele>196.37236</ele>
        <time>2023-04-14T12:10:37.000Z</time>
      </trkpt>
      <trkpt lat="45.8578" lon="4.69543">
        <ele>196.48917</ele>
        <time>2023-04-14T12:10:38.000Z</time>
      </trkpt>
      <trkpt lat="45.85781" lon="4.69548">
        <ele>196.58122</ele>
        <time>2023-04-14T12:10:39.000Z</time>
      </trkpt>
      <trkpt lat="45.85782" lon="4.69554">
        <ele>196.61909</ele>
        <time>2023-04-14T12:10:40.000Z</time>
      </trkpt>
      <trkpt lat="45.85782" lon="4.6956">
        <ele>196.59082</ele>
        <time>2023-04-14T12:10:41.000Z</time>
      </trkpt>
      <trkpt lat="45.85783" lon="4.69566">
        <ele>196.496</ele>
        <time>2023-04-14T12:10:42.000Z</time>
      </trkpt>
      <trkpt lat="45.85784" lon="4.69572">
        <ele>196.36329</ele>
        <time>2023-04-14T12:10:43.000Z</time>
      </trkpt>
      <trkpt lat="45.85785" lon="4.69578">
        <ele>196.19818</ele>
        <time>2023-04-14T12:10:44.000Z</time>
      </trkpt>
      <trkpt lat="45.85787" lon="4.69584">
        <ele>196.02977</ele>
        <time>2023-04-14T12:10:45.000Z</time>
      </trkpt>
      <trkpt lat="45.85788" lon="4.6959">
        <ele>195.89991</ele>
        <time>2023-04-14T12:10:46.000Z</time>
      </trkpt>
      <trkpt lat="45.85789" lon="4.69595">
        <ele>195.7346</ele>
        <time>2023-04-14T12:10:47.000Z</time>
      </trkpt>
      <trkpt lat="45.85791" lon="4.69601">
        <ele>195.49139</ele>
        <time>2023-04-14T12:10:48.000Z</time>
      </trkpt>
      <trkpt lat="45.85793" lon="4.69607">
        <ele>195.23616</ele>
        <time>2023-04-14T12:10:49.000Z</time>
      </trkpt>
      <trkpt lat="45.85794" lon="4.69613">
        <ele>194.99764</ele>
        <time>2023-04-14T12:10:50.000Z</time>
      </trkpt>
      <trkpt lat="45.85796" lon="4.69619">
        <ele>194.86884</ele>
        <time>2023-04-14T12:10:51.000Z</time>
      </trkpt>
      <trkpt lat="45.85797" lon="4.69624">
        <ele>194.90735</ele>
        <time>2023-04-14T12:10:52.000Z</time>
      </trkpt>
      <trkpt lat="45.85799" lon="4.6963">
        <ele>195.17822</ele>
        <time>2023-04-14T12:10:53.000Z</time>
      </trkpt>
      <trkpt lat="45.858" lon="4.69635">
        <ele>195.52555</ele>
        <time>2023-04-14T12:10:54.000Z</time>
      </trkpt>
      <trkpt lat="45.85801" lon="4.6964">
        <ele>195.90403</ele>
        <time>2023-04-14T12:10:55.000Z</time>
      </trkpt>
      <trkpt lat="45.85803" lon="4.69645">
        <ele>196.22639</ele>
        <time>2023-04-14T12:10:56.000Z</time>
      </trkpt>
      <trkpt lat="45.85804" lon="4.69649">
        <ele>196.42381</ele>
        <time>2023-04-14T12:10:57.000Z</time>
      </trkpt>
      <trkpt lat="45.85806" lon="4.69654">
        <ele>196.48271</ele>
        <time>2023-04-14T12:10:58.000Z</time>
      </trkpt>
      <trkpt lat="45.85807" lon="4.69659">
        <ele>196.41669</ele>
        <time>2023-04-14T12:10:59.000Z</time>
      </trkpt>
      <trkpt lat="45.85809" lon="4.69664">
        <ele>196.22169</ele>
        <time>2023-04-14T12:11:00.000Z</time>
      </trkpt>
      <trkpt lat="45.85811" lon="4.69669">
        <ele>195.89285</ele>
        <time>2023-04-14T12:11:01.000Z</time>
      </trkpt>
      <trkpt lat="45.85813" lon="4.69675">
        <ele>195.55689</ele>
        <time>2023-04-14T12:11:02.000Z</time>
      </trkpt>
      <trkpt lat="45.85814" lon="4.6968">
        <ele>195.33498</ele>
        <time>2023-04-14T12:11:03.000Z</time>
      </trkpt>
      <trkpt lat="45.85816" lon="4.69686">
        <ele>195.29836</ele>
        <time>2023-04-14T12:11:04.000Z</time>
      </trkpt>
      <trkpt lat="45.85816" lon="4.69693">
        <ele>195.58494</ele>
        <time>2023-04-14T12:11:05.000Z</time>
      </trkpt>
      <trkpt lat="45.85817" lon="4.697">
        <ele>196.04466</ele>
        <time>2023-04-14T12:11:06.000Z</time>
      </trkpt>
      <trkpt lat="45.85819" lon="4.69707">
        <ele>196.56883</ele>
        <time>2023-04-14T12:11:07.000Z</time>
      </trkpt>
      <trkpt lat="45.85819" lon="4.69715">
        <ele>196.92661</ele>
        <time>2023-04-14T12:11:08.000Z</time>
      </trkpt>
      <trkpt lat="45.8582" lon="4.69722">
        <ele>197.00864</ele>
        <time>2023-04-14T12:11:09.000Z</time>
      </trkpt>
      <trkpt lat="45.85821" lon="4.69729">
        <ele>196.89057</ele>
        <time>2023-04-14T12:11:10.000Z</time>
      </trkpt>
      <trkpt lat="45.85822" lon="4.69737">
        <ele>196.66922</ele>
        <time>2023-04-14T12:11:11.000Z</time>
      </trkpt>
      <trkpt lat="45.85822" lon="4.69743">
        <ele>196.50869</ele>
        <time>2023-04-14T12:11:12.000Z</time>
      </trkpt>
      <trkpt lat="45.85823" lon="4.6975">
        <ele>196.44048</ele>
        <time>2023-04-14T12:11:13.000Z</time>
      </trkpt>
      <trkpt lat="45.85824" lon="4.69756">
        <ele>196.41487</ele>
        <time>2023-04-14T12:11:14.000Z</time>
      </trkpt>
      <trkpt lat="45.85825" lon="4.69763">
        <ele>196.40271</ele>
        <time>2023-04-14T12:11:15.000Z</time>
      </trkpt>
      <trkpt lat="45.85826" lon="4.6977">
        <ele>196.39088</ele>
        <time>2023-04-14T12:11:16.000Z</time>
      </trkpt>
      <trkpt lat="45.85827" lon="4.69777">
        <ele>196.36495</ele>
        <time>2023-04-14T12:11:17.000Z</time>
      </trkpt>
      <trkpt lat="45.85828" lon="4.69783">
        <ele>196.32523</ele>
        <time>2023-04-14T12:11:18.000Z</time>
      </trkpt>
      <trkpt lat="45.85828" lon="4.69788">
        <ele>196.25696</ele>
        <time>2023-04-14T12:11:19.000Z</time>
      </trkpt>
      <trkpt lat="45.85829" lon="4.69794">
        <ele>196.17446</ele>
        <time>2023-04-14T12:11:20.000Z</time>
      </trkpt>
      <trkpt lat="45.85829" lon="4.698">
        <ele>196.087</ele>
        <time>2023-04-14T12:11:21.000Z</time>
      </trkpt>
      <trkpt lat="45.85829" lon="4.69807">
        <ele>196.0146</ele>
        <time>2023-04-14T12:11:22.000Z</time>
      </trkpt>
      <trkpt lat="45.8583" lon="4.69814">
        <ele>195.99576</ele>
        <time>2023-04-14T12:11:23.000Z</time>
      </trkpt>
      <trkpt lat="45.8583" lon="4.69821">
        <ele>196.0227</ele>
        <time>2023-04-14T12:11:24.000Z</time>
      </trkpt>
      <trkpt lat="45.8583" lon="4.69829">
        <ele>196.07897</ele>
        <time>2023-04-14T12:11:25.000Z</time>
      </trkpt>
      <trkpt lat="45.85829" lon="4.69836">
        <ele>196.13296</ele>
        <time>2023-04-14T12:11:26.000Z</time>
      </trkpt>
      <trkpt lat="45.8583" lon="4.69844">
        <ele>196.15255</ele>
        <time>2023-04-14T12:11:27.000Z</time>
      </trkpt>
      <trkpt lat="45.85829" lon="4.69852">
        <ele>196.1333</ele>
        <time>2023-04-14T12:11:28.000Z</time>
      </trkpt>
      <trkpt lat="45.8583" lon="4.69859">
        <ele>196.07536</ele>
        <time>2023-04-14T12:11:29.000Z</time>
      </trkpt>
      <trkpt lat="45.8583" lon="4.69868">
        <ele>195.99169</ele>
        <time>2023-04-14T12:11:30.000Z</time>
      </trkpt>
      <trkpt lat="45.85831" lon="4.69875">
        <ele>195.88047</ele>
        <time>2023-04-14T12:11:31.000Z</time>
      </trkpt>
      <trkpt lat="45.85831" lon="4.69883">
        <ele>195.77843</ele>
        <time>2023-04-14T12:11:32.000Z</time>
      </trkpt>
      <trkpt lat="45.85832" lon="4.6989">
        <ele>195.64273</ele>
        <time>2023-04-14T12:11:33.000Z</time>
      </trkpt>
      <trkpt lat="45.85832" lon="4.69897">
        <ele>195.55817</ele>
        <time>2023-04-14T12:11:34.000Z</time>
      </trkpt>
      <trkpt lat="45.85832" lon="4.69903">
        <ele>195.52137</ele>
        <time>2023-04-14T12:11:35.000Z</time>
      </trkpt>
      <trkpt lat="45.85832" lon="4.6991">
        <ele>195.51289</ele>
        <time>2023-04-14T12:11:36.000Z</time>
      </trkpt>
      <trkpt lat="45.85832" lon="4.69916">
        <ele>195.61171</ele>
        <time>2023-04-14T12:11:37.000Z</time>
      </trkpt>
      <trkpt lat="45.85832" lon="4.69923">
        <ele>195.73605</ele>
        <time>2023-04-14T12:11:38.000Z</time>
      </trkpt>
      <trkpt lat="45.85832" lon="4.6993">
        <ele>195.89949</ele>
        <time>2023-04-14T12:11:39.000Z</time>
      </trkpt>
      <trkpt lat="45.85833" lon="4.69937">
        <ele>196.02902</ele>
        <time>2023-04-14T12:11:40.000Z</time>
      </trkpt>
      <trkpt lat="45.85832" lon="4.69944">
        <ele>196.09308</ele>
        <time>2023-04-14T12:11:41.000Z</time>
      </trkpt>
      <trkpt lat="45.85832" lon="4.69951">
        <ele>196.10047</ele>
        <time>2023-04-14T12:11:42.000Z</time>
      </trkpt>
      <trkpt lat="45.85831" lon="4.69958">
        <ele>196.07946</ele>
        <time>2023-04-14T12:11:43.000Z</time>
      </trkpt>
      <trkpt lat="45.85831" lon="4.69965">
        <ele>196.03621</ele>
        <time>2023-04-14T12:11:44.000Z</time>
      </trkpt>
      <trkpt lat="45.85831" lon="4.69972">
        <ele>195.98134</ele>
        <time>2023-04-14T12:11:45.000Z</time>
      </trkpt>
      <trkpt lat="45.85831" lon="4.69979">
        <ele>195.91898</ele>
        <time>2023-04-14T12:11:46.000Z</time>
      </trkpt>
      <trkpt lat="45.85831" lon="4.69986">
        <ele>195.83349</ele>
        <time>2023-04-14T12:11:47.000Z</time>
      </trkpt>
      <trkpt lat="45.85832" lon="4.69994">
        <ele>195.75029</ele>
        <time>2023-04-14T12:11:48.000Z</time>
      </trkpt>
      <trkpt lat="45.85832" lon="4.70001">
        <ele>195.68936</ele>
        <time>2023-04-14T12:11:49.000Z</time>
      </trkpt>
      <trkpt lat="45.85832" lon="4.70009">
        <ele>195.6714</ele>
        <time>2023-04-14T12:11:50.000Z</time>
      </trkpt>
      <trkpt lat="45.85833" lon="4.70017">
        <ele>195.6948</ele>
        <time>2023-04-14T12:11:51.000Z</time>
      </trkpt>
      <trkpt lat="45.85833" lon="4.70024">
        <ele>195.72941</ele>
        <time>2023-04-14T12:11:52.000Z</time>
      </trkpt>
      <trkpt lat="45.85834" lon="4.70031">
        <ele>195.75147</ele>
        <time>2023-04-14T12:11:53.000Z</time>
      </trkpt>
      <trkpt lat="45.85834" lon="4.70038">
        <ele>195.74221</ele>
        <time>2023-04-14T12:11:54.000Z</time>
      </trkpt>
      <trkpt lat="45.85834" lon="4.70046">
        <ele>195.68399</ele>
        <time>2023-04-14T12:11:55.000Z</time>
      </trkpt>
      <trkpt lat="45.85834" lon="4.70053">
        <ele>195.61466</ele>
        <time>2023-04-14T12:11:56.000Z</time>
      </trkpt>
      <trkpt lat="45.85835" lon="4.7006">
        <ele>195.54439</ele>
        <time>2023-04-14T12:11:57.000Z</time>
      </trkpt>
      <trkpt lat="45.85835" lon="4.70067">
        <ele>195.4927</ele>
        <time>2023-04-14T12:11:58.000Z</time>
      </trkpt>
      <trkpt lat="45.85835" lon="4.70075">
        <ele>195.49256</ele>
        <time>2023-04-14T12:11:59.000Z</time>
      </trkpt>
      <trkpt lat="45.85836" lon="4.70083">
        <ele>195.52535</ele>
        <time>2023-04-14T12:12:00.000Z</time>
      </trkpt>
      <trkpt lat="45.85836" lon="4.70091">
        <ele>195.56224</ele>
        <time>2023-04-14T12:12:01.000Z</time>
      </trkpt>
      <trkpt lat="45.85837" lon="4.70098">
        <ele>195.57647</ele>
        <time>2023-04-14T12:12:02.000Z</time>
      </trkpt>
      <trkpt lat="45.85837" lon="4.70106">
        <ele>195.55209</ele>
        <time>2023-04-14T12:12:03.000Z</time>
      </trkpt>
      <trkpt lat="45.85837" lon="4.70114">
        <ele>195.48658</ele>
        <time>2023-04-14T12:12:04.000Z</time>
      </trkpt>
      <trkpt lat="45.85837" lon="4.70121">
        <ele>195.41898</ele>
        <time>2023-04-14T12:12:05.000Z</time>
      </trkpt>
      <trkpt lat="45.85838" lon="4.70129">
        <ele>195.36658</ele>
        <time>2023-04-14T12:12:06.000Z</time>
      </trkpt>
      <trkpt lat="45.85838" lon="4.70137">
        <ele>195.35529</ele>
        <time>2023-04-14T12:12:07.000Z</time>
      </trkpt>
      <trkpt lat="45.85838" lon="4.70145">
        <ele>195.38687</ele>
        <time>2023-04-14T12:12:08.000Z</time>
      </trkpt>
      <trkpt lat="45.85837" lon="4.70153">
        <ele>195.43201</ele>
        <time>2023-04-14T12:12:09.000Z</time>
      </trkpt>
      <trkpt lat="45.85837" lon="4.70161">
        <ele>195.47374</ele>
        <time>2023-04-14T12:12:10.000Z</time>
      </trkpt>
      <trkpt lat="45.85838" lon="4.70168">
        <ele>195.47597</ele>
        <time>2023-04-14T12:12:11.000Z</time>
      </trkpt>
      <trkpt lat="45.85838" lon="4.70176">
        <ele>195.42756</ele>
        <time>2023-04-14T12:12:12.000Z</time>
      </trkpt>
      <trkpt lat="45.85839" lon="4.70183">
        <ele>195.35807</ele>
        <time>2023-04-14T12:12:13.000Z</time>
      </trkpt>
      <trkpt lat="45.85841" lon="4.7019">
        <ele>195.29827</ele>
        <time>2023-04-14T12:12:14.000Z</time>
      </trkpt>
      <trkpt lat="45.85842" lon="4.70197">
        <ele>195.25634</ele>
        <time>2023-04-14T12:12:15.000Z</time>
      </trkpt>
      <trkpt lat="45.85845" lon="4.70203">
        <ele>195.23661</ele>
        <time>2023-04-14T12:12:16.000Z</time>
      </trkpt>
      <trkpt lat="45.85847" lon="4.70209">
        <ele>195.2249</ele>
        <time>2023-04-14T12:12:17.000Z</time>
      </trkpt>
      <trkpt lat="45.85849" lon="4.70215">
        <ele>195.213</ele>
        <time>2023-04-14T12:12:18.000Z</time>
      </trkpt>
      <trkpt lat="45.85852" lon="4.70222">
        <ele>195.19634</ele>
        <time>2023-04-14T12:12:19.000Z</time>
      </trkpt>
      <trkpt lat="45.85854" lon="4.70229">
        <ele>195.17086</ele>
        <time>2023-04-14T12:12:20.000Z</time>
      </trkpt>
      <trkpt lat="45.85855" lon="4.70236">
        <ele>195.13154</ele>
        <time>2023-04-14T12:12:21.000Z</time>
      </trkpt>
      <trkpt lat="45.85858" lon="4.70243">
        <ele>195.0792</ele>
        <time>2023-04-14T12:12:22.000Z</time>
      </trkpt>
      <trkpt lat="45.8586" lon="4.7025">
        <ele>195.03629</ele>
        <time>2023-04-14T12:12:23.000Z</time>
      </trkpt>
      <trkpt lat="45.85863" lon="4.70257">
        <ele>195.01733</ele>
        <time>2023-04-14T12:12:24.000Z</time>
      </trkpt>
      <trkpt lat="45.85865" lon="4.70265">
        <ele>195.04177</ele>
        <time>2023-04-14T12:12:25.000Z</time>
      </trkpt>
      <trkpt lat="45.85868" lon="4.70271">
        <ele>195.11929</ele>
        <time>2023-04-14T12:12:26.000Z</time>
      </trkpt>
      <trkpt lat="45.8587" lon="4.70278">
        <ele>195.20503</ele>
        <time>2023-04-14T12:12:27.000Z</time>
      </trkpt>
      <trkpt lat="45.85872" lon="4.70285">
        <ele>195.25858</ele>
        <time>2023-04-14T12:12:28.000Z</time>
      </trkpt>
      <trkpt lat="45.85875" lon="4.70292">
        <ele>195.24654</ele>
        <time>2023-04-14T12:12:29.000Z</time>
      </trkpt>
      <trkpt lat="45.85877" lon="4.70299">
        <ele>195.18634</ele>
        <time>2023-04-14T12:12:30.000Z</time>
      </trkpt>
      <trkpt lat="45.8588" lon="4.70305">
        <ele>195.09432</ele>
        <time>2023-04-14T12:12:31.000Z</time>
      </trkpt>
      <trkpt lat="45.85883" lon="4.70312">
        <ele>195.01701</ele>
        <time>2023-04-14T12:12:32.000Z</time>
      </trkpt>
      <trkpt lat="45.85885" lon="4.70319">
        <ele>194.96965</ele>
        <time>2023-04-14T12:12:33.000Z</time>
      </trkpt>
      <trkpt lat="45.85887" lon="4.70325">
        <ele>194.94898</ele>
        <time>2023-04-14T12:12:34.000Z</time>
      </trkpt>
      <trkpt lat="45.85889" lon="4.70329">
        <ele>194.94052</ele>
        <time>2023-04-14T12:12:35.000Z</time>
      </trkpt>
      <trkpt lat="45.85892" lon="4.70333">
        <ele>194.93652</ele>
        <time>2023-04-14T12:12:36.000Z</time>
      </trkpt>
      <trkpt lat="45.85896" lon="4.70335">
        <ele>194.92801</ele>
        <time>2023-04-14T12:12:37.000Z</time>
      </trkpt>
      <trkpt lat="45.859" lon="4.70336">
        <ele>194.91609</ele>
        <time>2023-04-14T12:12:38.000Z</time>
      </trkpt>
      <trkpt lat="45.85905" lon="4.70337">
        <ele>194.90014</ele>
        <time>2023-04-14T12:12:39.000Z</time>
      </trkpt>
      <trkpt lat="45.8591" lon="4.70337">
        <ele>194.88582</ele>
        <time>2023-04-14T12:12:40.000Z</time>
      </trkpt>
      <trkpt lat="45.85915" lon="4.70338">
        <ele>194.86809</ele>
        <time>2023-04-14T12:12:41.000Z</time>
      </trkpt>
      <trkpt lat="45.8592" lon="4.7034">
        <ele>194.84195</ele>
        <time>2023-04-14T12:12:42.000Z</time>
      </trkpt>
      <trkpt lat="45.85925" lon="4.70341">
        <ele>194.81439</ele>
        <time>2023-04-14T12:12:43.000Z</time>
      </trkpt>
      <trkpt lat="45.8593" lon="4.70342">
        <ele>194.79771</ele>
        <time>2023-04-14T12:12:44.000Z</time>
      </trkpt>
      <trkpt lat="45.85935" lon="4.70343">
        <ele>194.76999</ele>
        <time>2023-04-14T12:12:45.000Z</time>
      </trkpt>
      <trkpt lat="45.85941" lon="4.70344">
        <ele>194.75166</ele>
        <time>2023-04-14T12:12:46.000Z</time>
      </trkpt>
      <trkpt lat="45.85946" lon="4.70345">
        <ele>194.72617</ele>
        <time>2023-04-14T12:12:47.000Z</time>
      </trkpt>
      <trkpt lat="45.85951" lon="4.70347">
        <ele>194.70958</ele>
        <time>2023-04-14T12:12:48.000Z</time>
      </trkpt>
      <trkpt lat="45.85956" lon="4.70348">
        <ele>194.71013</ele>
        <time>2023-04-14T12:12:49.000Z</time>
      </trkpt>
      <trkpt lat="45.85962" lon="4.70349">
        <ele>194.73222</ele>
        <time>2023-04-14T12:12:50.000Z</time>
      </trkpt>
      <trkpt lat="45.85966" lon="4.7035">
        <ele>194.75967</ele>
        <time>2023-04-14T12:12:51.000Z</time>
      </trkpt>
      <trkpt lat="45.85971" lon="4.70351">
        <ele>194.7795</ele>
        <time>2023-04-14T12:12:52.000Z</time>
      </trkpt>
      <trkpt lat="45.85976" lon="4.70352">
        <ele>194.77911</ele>
        <time>2023-04-14T12:12:53.000Z</time>
      </trkpt>
      <trkpt lat="45.85981" lon="4.70353">
        <ele>194.75065</ele>
        <time>2023-04-14T12:12:54.000Z</time>
      </trkpt>
      <trkpt lat="45.85986" lon="4.70353">
        <ele>194.70325</ele>
        <time>2023-04-14T12:12:55.000Z</time>
      </trkpt>
      <trkpt lat="45.85991" lon="4.70354">
        <ele>194.64372</ele>
        <time>2023-04-14T12:12:56.000Z</time>
      </trkpt>
      <trkpt lat="45.85996" lon="4.70355">
        <ele>194.57224</ele>
        <time>2023-04-14T12:12:57.000Z</time>
      </trkpt>
      <trkpt lat="45.86001" lon="4.70355">
        <ele>194.49816</ele>
        <time>2023-04-14T12:12:58.000Z</time>
      </trkpt>
      <trkpt lat="45.86005" lon="4.70355">
        <ele>194.42804</ele>
        <time>2023-04-14T12:12:59.000Z</time>
      </trkpt>
      <trkpt lat="45.8601" lon="4.70356">
        <ele>194.33813</ele>
        <time>2023-04-14T12:13:00.000Z</time>
      </trkpt>
      <trkpt lat="45.86015" lon="4.70356">
        <ele>194.26612</ele>
        <time>2023-04-14T12:13:01.000Z</time>
      </trkpt>
      <trkpt lat="45.86019" lon="4.70357">
        <ele>194.20397</ele>
        <time>2023-04-14T12:13:02.000Z</time>
      </trkpt>
      <trkpt lat="45.86023" lon="4.70357">
        <ele>194.16524</ele>
        <time>2023-04-14T12:13:03.000Z</time>
      </trkpt>
      <trkpt lat="45.86027" lon="4.70357">
        <ele>194.13012</ele>
        <time>2023-04-14T12:13:04.000Z</time>
      </trkpt>
      <trkpt lat="45.86032" lon="4.70357">
        <ele>194.11104</ele>
        <time>2023-04-14T12:13:05.000Z</time>
      </trkpt>
      <trkpt lat="45.86035" lon="4.70358">
        <ele>194.0975</ele>
        <time>2023-04-14T12:13:06.000Z</time>
      </trkpt>
      <trkpt lat="45.86039" lon="4.70358">
        <ele>194.08715</ele>
        <time>2023-04-14T12:13:07.000Z</time>
      </trkpt>
      <trkpt lat="45.86042" lon="4.70358">
        <ele>194.07721</ele>
        <time>2023-04-14T12:13:08.000Z</time>
      </trkpt>
      <trkpt lat="45.86046" lon="4.70358">
        <ele>194.07351</ele>
        <time>2023-04-14T12:13:09.000Z</time>
      </trkpt>
      <trkpt lat="45.86049" lon="4.70359">
        <ele>194.07323</ele>
        <time>2023-04-14T12:13:10.000Z</time>
      </trkpt>
      <trkpt lat="45.86053" lon="4.70359">
        <ele>194.0784</ele>
        <time>2023-04-14T12:13:11.000Z</time>
      </trkpt>
      <trkpt lat="45.86056" lon="4.70359">
        <ele>194.08509</ele>
        <time>2023-04-14T12:13:12.000Z</time>
      </trkpt>
      <trkpt lat="45.86059" lon="4.7036">
        <ele>194.08891</ele>
        <time>2023-04-14T12:13:13.000Z</time>
      </trkpt>
      <trkpt lat="45.86062" lon="4.7036">
        <ele>194.08399</ele>
        <time>2023-04-14T12:13:14.000Z</time>
      </trkpt>
      <trkpt lat="45.86065" lon="4.7036">
        <ele>194.07006</ele>
        <time>2023-04-14T12:13:15.000Z</time>
      </trkpt>
      <trkpt lat="45.86067" lon="4.70361">
        <ele>194.04881</ele>
        <time>2023-04-14T12:13:16.000Z</time>
      </trkpt>
      <trkpt lat="45.8607" lon="4.70361">
        <ele>194.01936</ele>
        <time>2023-04-14T12:13:17.000Z</time>
      </trkpt>
      <trkpt lat="45.86073" lon="4.70361">
        <ele>193.98303</ele>
        <time>2023-04-14T12:13:18.000Z</time>
      </trkpt>
      <trkpt lat="45.86075" lon="4.70361">
        <ele>193.94891</ele>
        <time>2023-04-14T12:13:19.000Z</time>
      </trkpt>
      <trkpt lat="45.86077" lon="4.7036">
        <ele>193.92427</ele>
        <time>2023-04-14T12:13:20.000Z</time>
      </trkpt>
      <trkpt lat="45.86079" lon="4.70359">
        <ele>193.90783</ele>
        <time>2023-04-14T12:13:21.000Z</time>
      </trkpt>
      <trkpt lat="45.86082" lon="4.7036">
        <ele>193.84227</ele>
        <time>2023-04-14T12:13:23.000Z</time>
      </trkpt>
      <trkpt lat="45.86085" lon="4.70361">
        <ele>193.77584</ele>
        <time>2023-04-14T12:13:25.000Z</time>
      </trkpt>
      <trkpt lat="45.86087" lon="4.70362">
        <ele>193.71828</ele>
        <time>2023-04-14T12:13:27.000Z</time>
      </trkpt>
      <trkpt lat="45.86089" lon="4.70364">
        <ele>193.67515</ele>
        <time>2023-04-14T12:13:42.000Z</time>
      </trkpt>
      <trkpt lat="45.86091" lon="4.70366">
        <ele>193.64891</ele>
        <time>2023-04-14T12:13:47.000Z</time>
      </trkpt>
      <trkpt lat="45.86093" lon="4.70365">
        <ele>193.61577</ele>
        <time>2023-04-14T12:13:54.000Z</time>
      </trkpt>
      <trkpt lat="45.86095" lon="4.70364">
        <ele>193.57908</ele>
        <time>2023-04-14T12:13:56.000Z</time>
      </trkpt>
      <trkpt lat="45.86098" lon="4.70364">
        <ele>193.52387</ele>
        <time>2023-04-14T12:13:58.000Z</time>
      </trkpt>
      <trkpt lat="45.861" lon="4.70365">
        <ele>193.50249</ele>
        <time>2023-04-14T12:13:59.000Z</time>
      </trkpt>
      <trkpt lat="45.86102" lon="4.70365">
        <ele>193.48827</ele>
        <time>2023-04-14T12:14:00.000Z</time>
      </trkpt>
      <trkpt lat="45.86104" lon="4.70365">
        <ele>193.46868</ele>
        <time>2023-04-14T12:14:01.000Z</time>
      </trkpt>
      <trkpt lat="45.86106" lon="4.70366">
        <ele>193.44822</ele>
        <time>2023-04-14T12:14:02.000Z</time>
      </trkpt>
      <trkpt lat="45.86108" lon="4.70366">
        <ele>193.43785</ele>
        <time>2023-04-14T12:14:03.000Z</time>
      </trkpt>
      <trkpt lat="45.8611" lon="4.70366">
        <ele>193.42598</ele>
        <time>2023-04-14T12:14:04.000Z</time>
      </trkpt>
      <trkpt lat="45.86113" lon="4.70366">
        <ele>193.42179</ele>
        <time>2023-04-14T12:14:05.000Z</time>
      </trkpt>
      <trkpt lat="45.86116" lon="4.70366">
        <ele>193.42566</ele>
        <time>2023-04-14T12:14:06.000Z</time>
      </trkpt>
      <trkpt lat="45.86118" lon="4.70367">
        <ele>193.45076</ele>
        <time>2023-04-14T12:14:07.000Z</time>
      </trkpt>
      <trkpt lat="45.86121" lon="4.70367">
        <ele>193.46153</ele>
        <time>2023-04-14T12:14:08.000Z</time>
      </trkpt>
      <trkpt lat="45.86123" lon="4.70367">
        <ele>193.47622</ele>
        <time>2023-04-14T12:14:09.000Z</time>
      </trkpt>
      <trkpt lat="45.86126" lon="4.70368">
        <ele>193.49492</ele>
        <time>2023-04-14T12:14:10.000Z</time>
      </trkpt>
      <trkpt lat="45.86129" lon="4.70369">
        <ele>193.50622</ele>
        <time>2023-04-14T12:14:11.000Z</time>
      </trkpt>
      <trkpt lat="45.86133" lon="4.70369">
        <ele>193.50002</ele>
        <time>2023-04-14T12:14:12.000Z</time>
      </trkpt>
      <trkpt lat="45.86136" lon="4.7037">
        <ele>193.47964</ele>
        <time>2023-04-14T12:14:13.000Z</time>
      </trkpt>
      <trkpt lat="45.86139" lon="4.70371">
        <ele>193.432</ele>
        <time>2023-04-14T12:14:14.000Z</time>
      </trkpt>
      <trkpt lat="45.86143" lon="4.70371">
        <ele>193.3563</ele>
        <time>2023-04-14T12:14:15.000Z</time>
      </trkpt>
      <trkpt lat="45.86146" lon="4.70371">
        <ele>193.26581</ele>
        <time>2023-04-14T12:14:16.000Z</time>
      </trkpt>
      <trkpt lat="45.8615" lon="4.70371">
        <ele>193.19018</ele>
        <time>2023-04-14T12:14:17.000Z</time>
      </trkpt>
      <trkpt lat="45.86153" lon="4.70371">
        <ele>193.14706</ele>
        <time>2023-04-14T12:14:18.000Z</time>
      </trkpt>
      <trkpt lat="45.86157" lon="4.70371">
        <ele>193.14761</ele>
        <time>2023-04-14T12:14:19.000Z</time>
      </trkpt>
      <trkpt lat="45.8616" lon="4.70371">
        <ele>193.1987</ele>
        <time>2023-04-14T12:14:20.000Z</time>
      </trkpt>
      <trkpt lat="45.86163" lon="4.70371">
        <ele>193.27836</ele>
        <time>2023-04-14T12:14:21.000Z</time>
      </trkpt>
      <trkpt lat="45.86167" lon="4.70372">
        <ele>193.38011</ele>
        <time>2023-04-14T12:14:22.000Z</time>
      </trkpt>
      <trkpt lat="45.8617" lon="4.70373">
        <ele>193.48098</ele>
        <time>2023-04-14T12:14:23.000Z</time>
      </trkpt>
      <trkpt lat="45.86173" lon="4.70374">
        <ele>193.57535</ele>
        <time>2023-04-14T12:14:24.000Z</time>
      </trkpt>
      <trkpt lat="45.86176" lon="4.70376">
        <ele>193.63799</ele>
        <time>2023-04-14T12:14:25.000Z</time>
      </trkpt>
      <trkpt lat="45.86179" lon="4.70378">
        <ele>193.6519</ele>
        <time>2023-04-14T12:14:26.000Z</time>
      </trkpt>
      <trkpt lat="45.86182" lon="4.70379">
        <ele>193.6512</ele>
        <time>2023-04-14T12:14:27.000Z</time>
      </trkpt>
      <trkpt lat="45.86184" lon="4.7038">
        <ele>193.63968</ele>
        <time>2023-04-14T12:14:28.000Z</time>
      </trkpt>
      <trkpt lat="45.86187" lon="4.70381">
        <ele>193.61027</ele>
        <time>2023-04-14T12:14:29.000Z</time>
      </trkpt>
      <trkpt lat="45.8619" lon="4.70382">
        <ele>193.55749</ele>
        <time>2023-04-14T12:14:30.000Z</time>
      </trkpt>
      <trkpt lat="45.86192" lon="4.70382">
        <ele>193.48153</ele>
        <time>2023-04-14T12:14:31.000Z</time>
      </trkpt>
      <trkpt lat="45.86195" lon="4.70383">
        <ele>193.37015</ele>
        <time>2023-04-14T12:14:32.000Z</time>
      </trkpt>
      <trkpt lat="45.86197" lon="4.70386">
        <ele>193.23974</ele>
        <time>2023-04-14T12:14:33.000Z</time>
      </trkpt>
      <trkpt lat="45.86199" lon="4.70389">
        <ele>193.12168</ele>
        <time>2023-04-14T12:14:34.000Z</time>
      </trkpt>
      <trkpt lat="45.862" lon="4.70393">
        <ele>193.05278</ele>
        <time>2023-04-14T12:14:35.000Z</time>
      </trkpt>
      <trkpt lat="45.862" lon="4.70397">
        <ele>193.03463</ele>
        <time>2023-04-14T12:14:36.000Z</time>
      </trkpt>
      <trkpt lat="45.86201" lon="4.70402">
        <ele>193.01275</ele>
        <time>2023-04-14T12:14:37.000Z</time>
      </trkpt>
      <trkpt lat="45.86201" lon="4.70407">
        <ele>192.94401</ele>
        <time>2023-04-14T12:14:38.000Z</time>
      </trkpt>
      <trkpt lat="45.86201" lon="4.70413">
        <ele>192.88601</ele>
        <time>2023-04-14T12:14:39.000Z</time>
      </trkpt>
      <trkpt lat="45.86201" lon="4.70419">
        <ele>192.84526</ele>
        <time>2023-04-14T12:14:40.000Z</time>
      </trkpt>
      <trkpt lat="45.86201" lon="4.70425">
        <ele>192.80069</ele>
        <time>2023-04-14T12:14:41.000Z</time>
      </trkpt>
      <trkpt lat="45.86201" lon="4.70431">
        <ele>192.74601</ele>
        <time>2023-04-14T12:14:42.000Z</time>
      </trkpt>
      <trkpt lat="45.86201" lon="4.70437">
        <ele>192.7522</ele>
        <time>2023-04-14T12:14:43.000Z</time>
      </trkpt>
      <trkpt lat="45.86201" lon="4.70443">
        <ele>192.73352</ele>
        <time>2023-04-14T12:14:44.000Z</time>
      </trkpt>
      <trkpt lat="45.86201" lon="4.70448">
        <ele>192.6521</ele>
        <time>2023-04-14T12:14:45.000Z</time>
      </trkpt>
      <trkpt lat="45.86202" lon="4.70454">
        <ele>192.55811</ele>
        <time>2023-04-14T12:14:46.000Z</time>
      </trkpt>
      <trkpt lat="45.86202" lon="4.70459">
        <ele>192.49828</ele>
        <time>2023-04-14T12:14:47.000Z</time>
      </trkpt>
      <trkpt lat="45.86202" lon="4.70464">
        <ele>192.46526</ele>
        <time>2023-04-14T12:14:48.000Z</time>
      </trkpt>
      <trkpt lat="45.86203" lon="4.70469">
        <ele>192.4064</ele>
        <time>2023-04-14T12:14:49.000Z</time>
      </trkpt>
      <trkpt lat="45.86204" lon="4.70473">
        <ele>192.28882</ele>
        <time>2023-04-14T12:14:50.000Z</time>
      </trkpt>
      <trkpt lat="45.86205" lon="4.70478">
        <ele>192.17193</ele>
        <time>2023-04-14T12:14:51.000Z</time>
      </trkpt>
      <trkpt lat="45.86207" lon="4.70483">
        <ele>192.06599</ele>
        <time>2023-04-14T12:14:52.000Z</time>
      </trkpt>
      <trkpt lat="45.86209" lon="4.70487">
        <ele>191.9276</ele>
        <time>2023-04-14T12:14:53.000Z</time>
      </trkpt>
      <trkpt lat="45.86211" lon="4.70491">
        <ele>191.82931</ele>
        <time>2023-04-14T12:14:54.000Z</time>
      </trkpt>
      <trkpt lat="45.86213" lon="4.70495">
        <ele>191.77244</ele>
        <time>2023-04-14T12:14:55.000Z</time>
      </trkpt>
      <trkpt lat="45.86215" lon="4.70499">
        <ele>191.7667</ele>
        <time>2023-04-14T12:14:56.000Z</time>
      </trkpt>
      <trkpt lat="45.86216" lon="4.70503">
        <ele>191.82027</ele>
        <time>2023-04-14T12:14:57.000Z</time>
      </trkpt>
      <trkpt lat="45.86218" lon="4.70508">
        <ele>191.91414</ele>
        <time>2023-04-14T12:14:58.000Z</time>
      </trkpt>
      <trkpt lat="45.86219" lon="4.70512">
        <ele>192.00615</ele>
        <time>2023-04-14T12:14:59.000Z</time>
      </trkpt>
      <trkpt lat="45.8622" lon="4.70514">
        <ele>192.04275</ele>
        <time>2023-04-14T12:15:00.000Z</time>
      </trkpt>
      <trkpt lat="45.86223" lon="4.70518">
        <ele>192.03087</ele>
        <time>2023-04-14T12:15:02.000Z</time>
      </trkpt>
      <trkpt lat="45.86223" lon="4.70521">
        <ele>192.02502</ele>
        <time>2023-04-14T12:15:03.000Z</time>
      </trkpt>
      <trkpt lat="45.86224" lon="4.70523">
        <ele>192.00178</ele>
        <time>2023-04-14T12:15:04.000Z</time>
      </trkpt>
      <trkpt lat="45.86225" lon="4.70525">
        <ele>191.9088</ele>
        <time>2023-04-14T12:15:05.000Z</time>
      </trkpt>
      <trkpt lat="45.86227" lon="4.70528">
        <ele>191.74715</ele>
        <time>2023-04-14T12:15:06.000Z</time>
      </trkpt>
      <trkpt lat="45.86229" lon="4.70532">
        <ele>191.50327</ele>
        <time>2023-04-14T12:15:07.000Z</time>
      </trkpt>
      <trkpt lat="45.8623" lon="4.70536">
        <ele>191.32178</ele>
        <time>2023-04-14T12:15:08.000Z</time>
      </trkpt>
      <trkpt lat="45.86232" lon="4.7054">
        <ele>191.31487</ele>
        <time>2023-04-14T12:15:09.000Z</time>
      </trkpt>
      <trkpt lat="45.86233" lon="4.70544">
        <ele>191.38126</ele>
        <time>2023-04-14T12:15:10.000Z</time>
      </trkpt>
      <trkpt lat="45.86234" lon="4.70548">
        <ele>191.52247</ele>
        <time>2023-04-14T12:15:11.000Z</time>
      </trkpt>
      <trkpt lat="45.86235" lon="4.70552">
        <ele>191.74696</ele>
        <time>2023-04-14T12:15:12.000Z</time>
      </trkpt>
      <trkpt lat="45.86237" lon="4.70555">
        <ele>192.01116</ele>
        <time>2023-04-14T12:15:13.000Z</time>
      </trkpt>
      <trkpt lat="45.86239" lon="4.70559">
        <ele>192.30871</ele>
        <time>2023-04-14T12:15:14.000Z</time>
      </trkpt>
      <trkpt lat="45.8624" lon="4.70563">
        <ele>192.624</ele>
        <time>2023-04-14T12:15:15.000Z</time>
      </trkpt>
      <trkpt lat="45.86243" lon="4.70567">
        <ele>192.78322</ele>
        <time>2023-04-14T12:15:16.000Z</time>
      </trkpt>
      <trkpt lat="45.86245" lon="4.70571">
        <ele>192.79466</ele>
        <time>2023-04-14T12:15:17.000Z</time>
      </trkpt>
      <trkpt lat="45.86247" lon="4.70575">
        <ele>192.71928</ele>
        <time>2023-04-14T12:15:18.000Z</time>
      </trkpt>
      <trkpt lat="45.86249" lon="4.70579">
        <ele>192.5902</ele>
        <time>2023-04-14T12:15:19.000Z</time>
      </trkpt>
      <trkpt lat="45.86251" lon="4.70583">
        <ele>192.47201</ele>
        <time>2023-04-14T12:15:20.000Z</time>
      </trkpt>
      <trkpt lat="45.86254" lon="4.70587">
        <ele>192.36853</ele>
        <time>2023-04-14T12:15:21.000Z</time>
      </trkpt>
      <trkpt lat="45.86256" lon="4.70591">
        <ele>192.2758</ele>
        <time>2023-04-14T12:15:22.000Z</time>
      </trkpt>
      <trkpt lat="45.86258" lon="4.70596">
        <ele>192.27664</ele>
        <time>2023-04-14T12:15:23.000Z</time>
      </trkpt>
      <trkpt lat="45.8626" lon="4.706">
        <ele>192.29525</ele>
        <time>2023-04-14T12:15:24.000Z</time>
      </trkpt>
      <trkpt lat="45.86263" lon="4.70604">
        <ele>192.31344</ele>
        <time>2023-04-14T12:15:25.000Z</time>
      </trkpt>
      <trkpt lat="45.86265" lon="4.70608">
        <ele>192.3769</ele>
        <time>2023-04-14T12:15:26.000Z</time>
      </trkpt>
      <trkpt lat="45.86267" lon="4.70613">
        <ele>192.40891</ele>
        <time>2023-04-14T12:15:27.000Z</time>
      </trkpt>
      <trkpt lat="45.8627" lon="4.70617">
        <ele>192.43453</ele>
        <time>2023-04-14T12:15:28.000Z</time>
      </trkpt>
      <trkpt lat="45.86272" lon="4.70621">
        <ele>192.4245</ele>
        <time>2023-04-14T12:15:29.000Z</time>
      </trkpt>
      <trkpt lat="45.86275" lon="4.70625">
        <ele>192.35835</ele>
        <time>2023-04-14T12:15:30.000Z</time>
      </trkpt>
      <trkpt lat="45.86277" lon="4.70629">
        <ele>192.28421</ele>
        <time>2023-04-14T12:15:31.000Z</time>
      </trkpt>
      <trkpt lat="45.8628" lon="4.70634">
        <ele>192.2154</ele>
        <time>2023-04-14T12:15:32.000Z</time>
      </trkpt>
      <trkpt lat="45.86283" lon="4.70638">
        <ele>192.13748</ele>
        <time>2023-04-14T12:15:33.000Z</time>
      </trkpt>
      <trkpt lat="45.86286" lon="4.70642">
        <ele>192.13081</ele>
        <time>2023-04-14T12:15:34.000Z</time>
      </trkpt>
      <trkpt lat="45.86289" lon="4.70646">
        <ele>192.18273</ele>
        <time>2023-04-14T12:15:35.000Z</time>
      </trkpt>
      <trkpt lat="45.86292" lon="4.7065">
        <ele>192.31111</ele>
        <time>2023-04-14T12:15:36.000Z</time>
      </trkpt>
      <trkpt lat="45.86295" lon="4.70654">
        <ele>192.57893</ele>
        <time>2023-04-14T12:15:37.000Z</time>
      </trkpt>
      <trkpt lat="45.86298" lon="4.70658">
        <ele>192.88484</ele>
        <time>2023-04-14T12:15:38.000Z</time>
      </trkpt>
      <trkpt lat="45.86301" lon="4.70662">
        <ele>193.14745</ele>
        <time>2023-04-14T12:15:39.000Z</time>
      </trkpt>
      <trkpt lat="45.86305" lon="4.70667">
        <ele>193.24541</ele>
        <time>2023-04-14T12:15:40.000Z</time>
      </trkpt>
      <trkpt lat="45.86308" lon="4.70671">
        <ele>193.19686</ele>
        <time>2023-04-14T12:15:41.000Z</time>
      </trkpt>
      <trkpt lat="45.86311" lon="4.70675">
        <ele>193.02745</ele>
        <time>2023-04-14T12:15:42.000Z</time>
      </trkpt>
      <trkpt lat="45.86314" lon="4.7068">
        <ele>192.83142</ele>
        <time>2023-04-14T12:15:43.000Z</time>
      </trkpt>
      <trkpt lat="45.86317" lon="4.70684">
        <ele>192.71946</ele>
        <time>2023-04-14T12:15:44.000Z</time>
      </trkpt>
      <trkpt lat="45.8632" lon="4.70688">
        <ele>192.75703</ele>
        <time>2023-04-14T12:15:45.000Z</time>
      </trkpt>
      <trkpt lat="45.86323" lon="4.70692">
        <ele>192.90674</ele>
        <time>2023-04-14T12:15:46.000Z</time>
      </trkpt>
      <trkpt lat="45.86327" lon="4.70697">
        <ele>193.02882</ele>
        <time>2023-04-14T12:15:47.000Z</time>
      </trkpt>
      <trkpt lat="45.8633" lon="4.70701">
        <ele>193.02516</ele>
        <time>2023-04-14T12:15:48.000Z</time>
      </trkpt>
      <trkpt lat="45.86333" lon="4.70705">
        <ele>192.87701</ele>
        <time>2023-04-14T12:15:49.000Z</time>
      </trkpt>
      <trkpt lat="45.86337" lon="4.70709">
        <ele>192.69369</ele>
        <time>2023-04-14T12:15:50.000Z</time>
      </trkpt>
      <trkpt lat="45.8634" lon="4.70714">
        <ele>192.56312</ele>
        <time>2023-04-14T12:15:51.000Z</time>
      </trkpt>
      <trkpt lat="45.86344" lon="4.70718">
        <ele>192.55311</ele>
        <time>2023-04-14T12:15:52.000Z</time>
      </trkpt>
      <trkpt lat="45.86347" lon="4.70722">
        <ele>192.64724</ele>
        <time>2023-04-14T12:15:53.000Z</time>
      </trkpt>
      <trkpt lat="45.86351" lon="4.70725">
        <ele>192.74306</ele>
        <time>2023-04-14T12:15:54.000Z</time>
      </trkpt>
      <trkpt lat="45.86354" lon="4.70729">
        <ele>192.66874</ele>
        <time>2023-04-14T12:15:55.000Z</time>
      </trkpt>
      <trkpt lat="45.86358" lon="4.70734">
        <ele>192.36357</ele>
        <time>2023-04-14T12:15:56.000Z</time>
      </trkpt>
      <trkpt lat="45.86361" lon="4.70738">
        <ele>191.96887</ele>
        <time>2023-04-14T12:15:57.000Z</time>
      </trkpt>
      <trkpt lat="45.86365" lon="4.70742">
        <ele>191.67894</ele>
        <time>2023-04-14T12:15:58.000Z</time>
      </trkpt>
      <trkpt lat="45.86369" lon="4.70746">
        <ele>191.66051</ele>
        <time>2023-04-14T12:15:59.000Z</time>
      </trkpt>
      <trkpt lat="45.86373" lon="4.7075">
        <ele>191.94895</ele>
        <time>2023-04-14T12:16:00.000Z</time>
      </trkpt>
      <trkpt lat="45.86377" lon="4.70755">
        <ele>192.25026</ele>
        <time>2023-04-14T12:16:01.000Z</time>
      </trkpt>
      <trkpt lat="45.8638" lon="4.70759">
        <ele>192.3635</ele>
        <time>2023-04-14T12:16:02.000Z</time>
      </trkpt>
      <trkpt lat="45.86384" lon="4.70764">
        <ele>192.23392</ele>
        <time>2023-04-14T12:16:03.000Z</time>
      </trkpt>
      <trkpt lat="45.86387" lon="4.70768">
        <ele>191.82204</ele>
        <time>2023-04-14T12:16:04.000Z</time>
      </trkpt>
      <trkpt lat="45.86391" lon="4.70773">
        <ele>191.33873</ele>
        <time>2023-04-14T12:16:05.000Z</time>
      </trkpt>
      <trkpt lat="45.86395" lon="4.70777">
        <ele>190.97207</ele>
        <time>2023-04-14T12:16:06.000Z</time>
      </trkpt>
      <trkpt lat="45.86399" lon="4.70781">
        <ele>190.83492</ele>
        <time>2023-04-14T12:16:07.000Z</time>
      </trkpt>
      <trkpt lat="45.86404" lon="4.70784">
        <ele>191.00072</ele>
        <time>2023-04-14T12:16:08.000Z</time>
      </trkpt>
      <trkpt lat="45.86409" lon="4.70788">
        <ele>191.46282</ele>
        <time>2023-04-14T12:16:09.000Z</time>
      </trkpt>
      <trkpt lat="45.86413" lon="4.70792">
        <ele>191.97051</ele>
        <time>2023-04-14T12:16:10.000Z</time>
      </trkpt>
      <trkpt lat="45.86418" lon="4.70796">
        <ele>192.26508</ele>
        <time>2023-04-14T12:16:11.000Z</time>
      </trkpt>
      <trkpt lat="45.86422" lon="4.708">
        <ele>192.02236</ele>
        <time>2023-04-14T12:16:12.000Z</time>
      </trkpt>
      <trkpt lat="45.86427" lon="4.70803">
        <ele>191.29309</ele>
        <time>2023-04-14T12:16:13.000Z</time>
      </trkpt>
      <trkpt lat="45.86432" lon="4.70807">
        <ele>190.48208</ele>
        <time>2023-04-14T12:16:14.000Z</time>
      </trkpt>
      <trkpt lat="45.86437" lon="4.70811">
        <ele>189.94</ele>
        <time>2023-04-14T12:16:15.000Z</time>
      </trkpt>
      <trkpt lat="45.86441" lon="4.70815">
        <ele>189.82357</ele>
        <time>2023-04-14T12:16:16.000Z</time>
      </trkpt>
      <trkpt lat="45.86446" lon="4.70818">
        <ele>190.06418</ele>
        <time>2023-04-14T12:16:17.000Z</time>
      </trkpt>
      <trkpt lat="45.86451" lon="4.70821">
        <ele>190.53988</ele>
        <time>2023-04-14T12:16:18.000Z</time>
      </trkpt>
      <trkpt lat="45.86455" lon="4.70823">
        <ele>191.03795</ele>
        <time>2023-04-14T12:16:19.000Z</time>
      </trkpt>
      <trkpt lat="45.8646" lon="4.70826">
        <ele>191.50064</ele>
        <time>2023-04-14T12:16:20.000Z</time>
      </trkpt>
      <trkpt lat="45.86464" lon="4.70829">
        <ele>191.78696</ele>
        <time>2023-04-14T12:16:21.000Z</time>
      </trkpt>
      <trkpt lat="45.86469" lon="4.70831">
        <ele>191.90576</ele>
        <time>2023-04-14T12:16:22.000Z</time>
      </trkpt>
      <trkpt lat="45.86473" lon="4.70833">
        <ele>191.92424</ele>
        <time>2023-04-14T12:16:23.000Z</time>
      </trkpt>
      <trkpt lat="45.86477" lon="4.70835">
        <ele>191.84282</ele>
        <time>2023-04-14T12:16:24.000Z</time>
      </trkpt>
      <trkpt lat="45.86481" lon="4.70837">
        <ele>191.68483</ele>
        <time>2023-04-14T12:16:25.000Z</time>
      </trkpt>
      <trkpt lat="45.86484" lon="4.70839">
        <ele>191.47019</ele>
        <time>2023-04-14T12:16:26.000Z</time>
      </trkpt>
      <trkpt lat="45.86488" lon="4.70841">
        <ele>191.23116</ele>
        <time>2023-04-14T12:16:27.000Z</time>
      </trkpt>
      <trkpt lat="45.86491" lon="4.70843">
        <ele>190.96434</ele>
        <time>2023-04-14T12:16:28.000Z</time>
      </trkpt>
      <trkpt lat="45.86493" lon="4.70845">
        <ele>190.77664</ele>
        <time>2023-04-14T12:16:29.000Z</time>
      </trkpt>
      <trkpt lat="45.86495" lon="4.70849">
        <ele>190.67846</ele>
        <time>2023-04-14T12:16:30.000Z</time>
      </trkpt>
      <trkpt lat="45.86497" lon="4.70851">
        <ele>190.65688</ele>
        <time>2023-04-14T12:16:31.000Z</time>
      </trkpt>
      <trkpt lat="45.86499" lon="4.70855">
        <ele>190.7458</ele>
        <time>2023-04-14T12:16:32.000Z</time>
      </trkpt>
      <trkpt lat="45.86501" lon="4.70858">
        <ele>190.95483</ele>
        <time>2023-04-14T12:16:33.000Z</time>
      </trkpt>
      <trkpt lat="45.86503" lon="4.70863">
        <ele>191.23604</ele>
        <time>2023-04-14T12:16:34.000Z</time>
      </trkpt>
      <trkpt lat="45.86504" lon="4.70867">
        <ele>191.51762</ele>
        <time>2023-04-14T12:16:35.000Z</time>
      </trkpt>
      <trkpt lat="45.86506" lon="4.70872">
        <ele>191.76109</ele>
        <time>2023-04-14T12:16:36.000Z</time>
      </trkpt>
      <trkpt lat="45.86507" lon="4.70876">
        <ele>191.92857</ele>
        <time>2023-04-14T12:16:37.000Z</time>
      </trkpt>
      <trkpt lat="45.86509" lon="4.70879">
        <ele>192.03579</ele>
        <time>2023-04-14T12:16:38.000Z</time>
      </trkpt>
      <trkpt lat="45.86509" lon="4.70879">
        <ele>192.03579</ele>
        <time>2023-04-14T12:16:38.000Z</time>
      </trkpt>
      <trkpt lat="45.8651" lon="4.70882">
        <ele>192.10409</ele>
        <time>2023-04-14T12:16:39.000Z</time>
      </trkpt>
      <trkpt lat="45.86511" lon="4.70884">
        <ele>192.15961</ele>
        <time>2023-04-14T12:16:40.000Z</time>
      </trkpt>
      <trkpt lat="45.86512" lon="4.70887">
        <ele>192.19552</ele>
        <time>2023-04-14T12:16:41.000Z</time>
      </trkpt>
      <trkpt lat="45.86513" lon="4.70891">
        <ele>192.22089</ele>
        <time>2023-04-14T12:16:42.000Z</time>
      </trkpt>
      <trkpt lat="45.86513" lon="4.70894">
        <ele>192.24334</ele>
        <time>2023-04-14T12:16:43.000Z</time>
      </trkpt>
      <trkpt lat="45.86513" lon="4.70897">
        <ele>192.27364</ele>
        <time>2023-04-14T12:16:44.000Z</time>
      </trkpt>
      <trkpt lat="45.86512" lon="4.709">
        <ele>192.30698</ele>
        <time>2023-04-14T12:16:45.000Z</time>
      </trkpt>
      <trkpt lat="45.8651" lon="4.70904">
        <ele>192.33667</ele>
        <time>2023-04-14T12:16:46.000Z</time>
      </trkpt>
      <trkpt lat="45.86507" lon="4.70908">
        <ele>192.35953</ele>
        <time>2023-04-14T12:16:47.000Z</time>
      </trkpt>
      <trkpt lat="45.86504" lon="4.70911">
        <ele>192.38177</ele>
        <time>2023-04-14T12:16:48.000Z</time>
      </trkpt>
      <trkpt lat="45.865" lon="4.70914">
        <ele>192.40048</ele>
        <time>2023-04-14T12:16:49.000Z</time>
      </trkpt>
      <trkpt lat="45.86497" lon="4.70918">
        <ele>192.40975</ele>
        <time>2023-04-14T12:16:50.000Z</time>
      </trkpt>
      <trkpt lat="45.86495" lon="4.70922">
        <ele>192.40309</ele>
        <time>2023-04-14T12:16:51.000Z</time>
      </trkpt>
      <trkpt lat="45.86492" lon="4.70926">
        <ele>192.386</ele>
        <time>2023-04-14T12:16:52.000Z</time>
      </trkpt>
      <trkpt lat="45.8649" lon="4.70931">
        <ele>192.35744</ele>
        <time>2023-04-14T12:16:53.000Z</time>
      </trkpt>
      <trkpt lat="45.86489" lon="4.70937">
        <ele>192.3007</ele>
        <time>2023-04-14T12:16:54.000Z</time>
      </trkpt>
      <trkpt lat="45.86489" lon="4.70942">
        <ele>192.2393</ele>
        <time>2023-04-14T12:16:55.000Z</time>
      </trkpt>
      <trkpt lat="45.86489" lon="4.70948">
        <ele>192.18303</ele>
        <time>2023-04-14T12:16:56.000Z</time>
      </trkpt>
      <trkpt lat="45.8649" lon="4.70954">
        <ele>192.13947</ele>
        <time>2023-04-14T12:16:57.000Z</time>
      </trkpt>
      <trkpt lat="45.8649" lon="4.70959">
        <ele>192.1287</ele>
        <time>2023-04-14T12:16:58.000Z</time>
      </trkpt>
      <trkpt lat="45.8649" lon="4.70963">
        <ele>192.14777</ele>
        <time>2023-04-14T12:16:59.000Z</time>
      </trkpt>
      <trkpt lat="45.86489" lon="4.70968">
        <ele>192.18263</ele>
        <time>2023-04-14T12:17:00.000Z</time>
      </trkpt>
      <trkpt lat="45.86489" lon="4.70972">
        <ele>192.22919</ele>
        <time>2023-04-14T12:17:01.000Z</time>
      </trkpt>
      <trkpt lat="45.86487" lon="4.70976">
        <ele>192.27079</ele>
        <time>2023-04-14T12:17:02.000Z</time>
      </trkpt>
      <trkpt lat="45.86484" lon="4.70979">
        <ele>192.29676</ele>
        <time>2023-04-14T12:17:03.000Z</time>
      </trkpt>
      <trkpt lat="45.86482" lon="4.70982">
        <ele>192.28923</ele>
        <time>2023-04-14T12:17:04.000Z</time>
      </trkpt>
      <trkpt lat="45.86479" lon="4.70983">
        <ele>192.22177</ele>
        <time>2023-04-14T12:17:05.000Z</time>
      </trkpt>
      <trkpt lat="45.86475" lon="4.70983">
        <ele>192.12073</ele>
        <time>2023-04-14T12:17:06.000Z</time>
      </trkpt>
      <trkpt lat="45.86472" lon="4.70982">
        <ele>191.99175</ele>
        <time>2023-04-14T12:17:07.000Z</time>
      </trkpt>
      <trkpt lat="45.86468" lon="4.70981">
        <ele>191.85512</ele>
        <time>2023-04-14T12:17:08.000Z</time>
      </trkpt>
      <trkpt lat="45.86464" lon="4.70981">
        <ele>191.74556</ele>
        <time>2023-04-14T12:17:09.000Z</time>
      </trkpt>
      <trkpt lat="45.86459" lon="4.70981">
        <ele>191.68478</ele>
        <time>2023-04-14T12:17:10.000Z</time>
      </trkpt>
      <trkpt lat="45.86455" lon="4.70982">
        <ele>191.65657</ele>
        <time>2023-04-14T12:17:11.000Z</time>
      </trkpt>
      <trkpt lat="45.86451" lon="4.70983">
        <ele>191.65109</ele>
        <time>2023-04-14T12:17:12.000Z</time>
      </trkpt>
      <trkpt lat="45.86447" lon="4.70984">
        <ele>191.66761</ele>
        <time>2023-04-14T12:17:13.000Z</time>
      </trkpt>
      <trkpt lat="45.86443" lon="4.70984">
        <ele>191.69693</ele>
        <time>2023-04-14T12:17:14.000Z</time>
      </trkpt>
      <trkpt lat="45.86439" lon="4.70985">
        <ele>191.73614</ele>
        <time>2023-04-14T12:17:15.000Z</time>
      </trkpt>
      <trkpt lat="45.86435" lon="4.70987">
        <ele>191.78843</ele>
        <time>2023-04-14T12:17:16.000Z</time>
      </trkpt>
      <trkpt lat="45.86431" lon="4.70989">
        <ele>191.86669</ele>
        <time>2023-04-14T12:17:17.000Z</time>
      </trkpt>
      <trkpt lat="45.86427" lon="4.70991">
        <ele>191.96133</ele>
        <time>2023-04-14T12:17:18.000Z</time>
      </trkpt>
      <trkpt lat="45.86423" lon="4.70993">
        <ele>192.04088</ele>
        <time>2023-04-14T12:17:19.000Z</time>
      </trkpt>
      <trkpt lat="45.86419" lon="4.70995">
        <ele>192.08718</ele>
        <time>2023-04-14T12:17:20.000Z</time>
      </trkpt>
      <trkpt lat="45.86415" lon="4.70997">
        <ele>192.10497</ele>
        <time>2023-04-14T12:17:21.000Z</time>
      </trkpt>
      <trkpt lat="45.86412" lon="4.70999">
        <ele>192.07817</ele>
        <time>2023-04-14T12:17:22.000Z</time>
      </trkpt>
      <trkpt lat="45.86408" lon="4.71001">
        <ele>192.02617</ele>
        <time>2023-04-14T12:17:23.000Z</time>
      </trkpt>
      <trkpt lat="45.86404" lon="4.71004">
        <ele>191.96192</ele>
        <time>2023-04-14T12:17:24.000Z</time>
      </trkpt>
      <trkpt lat="45.864" lon="4.71007">
        <ele>191.91423</ele>
        <time>2023-04-14T12:17:25.000Z</time>
      </trkpt>
      <trkpt lat="45.86396" lon="4.7101">
        <ele>191.89977</ele>
        <time>2023-04-14T12:17:26.000Z</time>
      </trkpt>
      <trkpt lat="45.86392" lon="4.71012">
        <ele>191.93604</ele>
        <time>2023-04-14T12:17:27.000Z</time>
      </trkpt>
      <trkpt lat="45.86388" lon="4.71015">
        <ele>192.02884</ele>
        <time>2023-04-14T12:17:28.000Z</time>
      </trkpt>
      <trkpt lat="45.86384" lon="4.71017">
        <ele>192.16416</ele>
        <time>2023-04-14T12:17:29.000Z</time>
      </trkpt>
      <trkpt lat="45.8638" lon="4.71018">
        <ele>192.30194</ele>
        <time>2023-04-14T12:17:30.000Z</time>
      </trkpt>
      <trkpt lat="45.86376" lon="4.71021">
        <ele>192.42598</ele>
        <time>2023-04-14T12:17:31.000Z</time>
      </trkpt>
      <trkpt lat="45.86372" lon="4.71022">
        <ele>192.49475</ele>
        <time>2023-04-14T12:17:32.000Z</time>
      </trkpt>
      <trkpt lat="45.86368" lon="4.71024">
        <ele>192.49883</ele>
        <time>2023-04-14T12:17:33.000Z</time>
      </trkpt>
      <trkpt lat="45.86364" lon="4.71026">
        <ele>192.45665</ele>
        <time>2023-04-14T12:17:34.000Z</time>
      </trkpt>
      <trkpt lat="45.8636" lon="4.71027">
        <ele>192.38657</ele>
        <time>2023-04-14T12:17:35.000Z</time>
      </trkpt>
      <trkpt lat="45.86355" lon="4.71028">
        <ele>192.31374</ele>
        <time>2023-04-14T12:17:36.000Z</time>
      </trkpt>
      <trkpt lat="45.86351" lon="4.71028">
        <ele>192.25688</ele>
        <time>2023-04-14T12:17:37.000Z</time>
      </trkpt>
      <trkpt lat="45.86347" lon="4.71028">
        <ele>192.22765</ele>
        <time>2023-04-14T12:17:38.000Z</time>
      </trkpt>
      <trkpt lat="45.86342" lon="4.71028">
        <ele>192.22845</ele>
        <time>2023-04-14T12:17:39.000Z</time>
      </trkpt>
      <trkpt lat="45.86338" lon="4.71028">
        <ele>192.22614</ele>
        <time>2023-04-14T12:17:40.000Z</time>
      </trkpt>
      <trkpt lat="45.86334" lon="4.71027">
        <ele>192.22905</ele>
        <time>2023-04-14T12:17:41.000Z</time>
      </trkpt>
      <trkpt lat="45.86331" lon="4.71027">
        <ele>192.25122</ele>
        <time>2023-04-14T12:17:42.000Z</time>
      </trkpt>
      <trkpt lat="45.86327" lon="4.71026">
        <ele>192.27587</ele>
        <time>2023-04-14T12:17:43.000Z</time>
      </trkpt>
      <trkpt lat="45.86324" lon="4.71026">
        <ele>192.29742</ele>
        <time>2023-04-14T12:17:44.000Z</time>
      </trkpt>
      <trkpt lat="45.86321" lon="4.71025">
        <ele>192.33502</ele>
        <time>2023-04-14T12:17:45.000Z</time>
      </trkpt>
      <trkpt lat="45.86318" lon="4.71024">
        <ele>192.4035</ele>
        <time>2023-04-14T12:17:46.000Z</time>
      </trkpt>
      <trkpt lat="45.86314" lon="4.71025">
        <ele>192.49293</ele>
        <time>2023-04-14T12:17:47.000Z</time>
      </trkpt>
      <trkpt lat="45.8631" lon="4.71025">
        <ele>192.57549</ele>
        <time>2023-04-14T12:17:48.000Z</time>
      </trkpt>
      <trkpt lat="45.86306" lon="4.71026">
        <ele>192.64686</ele>
        <time>2023-04-14T12:17:49.000Z</time>
      </trkpt>
      <trkpt lat="45.86302" lon="4.71026">
        <ele>192.69272</ele>
        <time>2023-04-14T12:17:50.000Z</time>
      </trkpt>
      <trkpt lat="45.86298" lon="4.71027">
        <ele>192.67878</ele>
        <time>2023-04-14T12:17:51.000Z</time>
      </trkpt>
      <trkpt lat="45.86294" lon="4.71027">
        <ele>192.62709</ele>
        <time>2023-04-14T12:17:52.000Z</time>
      </trkpt>
      <trkpt lat="45.8629" lon="4.71028">
        <ele>192.57907</ele>
        <time>2023-04-14T12:17:53.000Z</time>
      </trkpt>
      <trkpt lat="45.86286" lon="4.71029">
        <ele>192.57047</ele>
        <time>2023-04-14T12:17:54.000Z</time>
      </trkpt>
      <trkpt lat="45.86282" lon="4.71029">
        <ele>192.6299</ele>
        <time>2023-04-14T12:17:55.000Z</time>
      </trkpt>
      <trkpt lat="45.86278" lon="4.7103">
        <ele>192.77392</ele>
        <time>2023-04-14T12:17:56.000Z</time>
      </trkpt>
      <trkpt lat="45.86274" lon="4.7103">
        <ele>192.9975</ele>
        <time>2023-04-14T12:17:57.000Z</time>
      </trkpt>
      <trkpt lat="45.86271" lon="4.7103">
        <ele>193.26786</ele>
        <time>2023-04-14T12:17:58.000Z</time>
      </trkpt>
      <trkpt lat="45.86267" lon="4.7103">
        <ele>193.55775</ele>
        <time>2023-04-14T12:17:59.000Z</time>
      </trkpt>
      <trkpt lat="45.86264" lon="4.71028">
        <ele>193.80897</ele>
        <time>2023-04-14T12:18:00.000Z</time>
      </trkpt>
      <trkpt lat="45.86261" lon="4.71024">
        <ele>193.99327</ele>
        <time>2023-04-14T12:18:01.000Z</time>
      </trkpt>
      <trkpt lat="45.86258" lon="4.71021">
        <ele>194.11084</ele>
        <time>2023-04-14T12:18:02.000Z</time>
      </trkpt>
      <trkpt lat="45.86255" lon="4.71018">
        <ele>194.19504</ele>
        <time>2023-04-14T12:18:03.000Z</time>
      </trkpt>
      <trkpt lat="45.86252" lon="4.71014">
        <ele>194.23637</ele>
        <time>2023-04-14T12:18:04.000Z</time>
      </trkpt>
      <trkpt lat="45.86249" lon="4.71011">
        <ele>194.22972</ele>
        <time>2023-04-14T12:18:05.000Z</time>
      </trkpt>
      <trkpt lat="45.86246" lon="4.71007">
        <ele>194.17887</ele>
        <time>2023-04-14T12:18:06.000Z</time>
      </trkpt>
      <trkpt lat="45.86243" lon="4.71003">
        <ele>194.08931</ele>
        <time>2023-04-14T12:18:07.000Z</time>
      </trkpt>
      <trkpt lat="45.8624" lon="4.70999">
        <ele>193.98935</ele>
        <time>2023-04-14T12:18:08.000Z</time>
      </trkpt>
      <trkpt lat="45.86236" lon="4.70996">
        <ele>193.94192</ele>
        <time>2023-04-14T12:18:09.000Z</time>
      </trkpt>
      <trkpt lat="45.86233" lon="4.70995">
        <ele>193.98868</ele>
        <time>2023-04-14T12:18:10.000Z</time>
      </trkpt>
      <trkpt lat="45.86229" lon="4.70995">
        <ele>194.14399</ele>
        <time>2023-04-14T12:18:11.000Z</time>
      </trkpt>
      <trkpt lat="45.86226" lon="4.70997">
        <ele>194.32259</ele>
        <time>2023-04-14T12:18:12.000Z</time>
      </trkpt>
      <trkpt lat="45.86223" lon="4.70999">
        <ele>194.48471</ele>
        <time>2023-04-14T12:18:13.000Z</time>
      </trkpt>
      <trkpt lat="45.8622" lon="4.71003">
        <ele>194.61055</ele>
        <time>2023-04-14T12:18:14.000Z</time>
      </trkpt>
      <trkpt lat="45.86218" lon="4.71006">
        <ele>194.67139</ele>
        <time>2023-04-14T12:18:15.000Z</time>
      </trkpt>
      <trkpt lat="45.86215" lon="4.7101">
        <ele>194.67322</ele>
        <time>2023-04-14T12:18:16.000Z</time>
      </trkpt>
      <trkpt lat="45.86212" lon="4.71014">
        <ele>194.62065</ele>
        <time>2023-04-14T12:18:17.000Z</time>
      </trkpt>
      <trkpt lat="45.86209" lon="4.71017">
        <ele>194.51905</ele>
        <time>2023-04-14T12:18:18.000Z</time>
      </trkpt>
      <trkpt lat="45.86205" lon="4.71021">
        <ele>194.36376</ele>
        <time>2023-04-14T12:18:19.000Z</time>
      </trkpt>
      <trkpt lat="45.86201" lon="4.71025">
        <ele>194.19776</ele>
        <time>2023-04-14T12:18:20.000Z</time>
      </trkpt>
      <trkpt lat="45.86197" lon="4.71029">
        <ele>194.09374</ele>
        <time>2023-04-14T12:18:21.000Z</time>
      </trkpt>
      <trkpt lat="45.86194" lon="4.71033">
        <ele>194.04951</ele>
        <time>2023-04-14T12:18:22.000Z</time>
      </trkpt>
      <trkpt lat="45.8619" lon="4.71035">
        <ele>194.03554</ele>
        <time>2023-04-14T12:18:23.000Z</time>
      </trkpt>
      <trkpt lat="45.86187" lon="4.71038">
        <ele>194.01199</ele>
        <time>2023-04-14T12:18:24.000Z</time>
      </trkpt>
      <trkpt lat="45.86183" lon="4.7104">
        <ele>193.98406</ele>
        <time>2023-04-14T12:18:25.000Z</time>
      </trkpt>
      <trkpt lat="45.8618" lon="4.71042">
        <ele>193.95356</ele>
        <time>2023-04-14T12:18:26.000Z</time>
      </trkpt>
      <trkpt lat="45.86176" lon="4.71043">
        <ele>193.91826</ele>
        <time>2023-04-14T12:18:27.000Z</time>
      </trkpt>
      <trkpt lat="45.86172" lon="4.71045">
        <ele>193.89018</ele>
        <time>2023-04-14T12:18:28.000Z</time>
      </trkpt>
      <trkpt lat="45.86168" lon="4.71046">
        <ele>193.88082</ele>
        <time>2023-04-14T12:18:29.000Z</time>
      </trkpt>
      <trkpt lat="45.86164" lon="4.71046">
        <ele>193.88309</ele>
        <time>2023-04-14T12:18:30.000Z</time>
      </trkpt>
      <trkpt lat="45.8616" lon="4.71047">
        <ele>193.88172</ele>
        <time>2023-04-14T12:18:31.000Z</time>
      </trkpt>
      <trkpt lat="45.86156" lon="4.71048">
        <ele>193.88058</ele>
        <time>2023-04-14T12:18:32.000Z</time>
      </trkpt>
      <trkpt lat="45.86152" lon="4.7105">
        <ele>193.8848</ele>
        <time>2023-04-14T12:18:33.000Z</time>
      </trkpt>
      <trkpt lat="45.86149" lon="4.71052">
        <ele>193.90653</ele>
        <time>2023-04-14T12:18:34.000Z</time>
      </trkpt>
      <trkpt lat="45.86145" lon="4.71055">
        <ele>193.96091</ele>
        <time>2023-04-14T12:18:35.000Z</time>
      </trkpt>
      <trkpt lat="45.86141" lon="4.71058">
        <ele>194.05916</ele>
        <time>2023-04-14T12:18:36.000Z</time>
      </trkpt>
      <trkpt lat="45.86138" lon="4.71062">
        <ele>194.19654</ele>
        <time>2023-04-14T12:18:37.000Z</time>
      </trkpt>
      <trkpt lat="45.86135" lon="4.71068">
        <ele>194.33612</ele>
        <time>2023-04-14T12:18:38.000Z</time>
      </trkpt>
      <trkpt lat="45.86133" lon="4.71074">
        <ele>194.47037</ele>
        <time>2023-04-14T12:18:39.000Z</time>
      </trkpt>
      <trkpt lat="45.8613" lon="4.7108">
        <ele>194.55314</ele>
        <time>2023-04-14T12:18:40.000Z</time>
      </trkpt>
      <trkpt lat="45.86128" lon="4.71086">
        <ele>194.60811</ele>
        <time>2023-04-14T12:18:41.000Z</time>
      </trkpt>
      <trkpt lat="45.86126" lon="4.71092">
        <ele>194.62918</ele>
        <time>2023-04-14T12:18:42.000Z</time>
      </trkpt>
      <trkpt lat="45.86124" lon="4.71097">
        <ele>194.6157</ele>
        <time>2023-04-14T12:18:43.000Z</time>
      </trkpt>
      <trkpt lat="45.86121" lon="4.71103">
        <ele>194.58856</ele>
        <time>2023-04-14T12:18:44.000Z</time>
      </trkpt>
      <trkpt lat="45.86119" lon="4.71108">
        <ele>194.54594</ele>
        <time>2023-04-14T12:18:45.000Z</time>
      </trkpt>
      <trkpt lat="45.86117" lon="4.71114">
        <ele>194.51579</ele>
        <time>2023-04-14T12:18:46.000Z</time>
      </trkpt>
      <trkpt lat="45.86114" lon="4.7112">
        <ele>194.49784</ele>
        <time>2023-04-14T12:18:47.000Z</time>
      </trkpt>
      <trkpt lat="45.86111" lon="4.71125">
        <ele>194.48744</ele>
        <time>2023-04-14T12:18:48.000Z</time>
      </trkpt>
      <trkpt lat="45.86108" lon="4.7113">
        <ele>194.49033</ele>
        <time>2023-04-14T12:18:49.000Z</time>
      </trkpt>
      <trkpt lat="45.86105" lon="4.71134">
        <ele>194.50369</ele>
        <time>2023-04-14T12:18:50.000Z</time>
      </trkpt>
      <trkpt lat="45.86102" lon="4.71138">
        <ele>194.53288</ele>
        <time>2023-04-14T12:18:51.000Z</time>
      </trkpt>
      <trkpt lat="45.86099" lon="4.71141">
        <ele>194.57406</ele>
        <time>2023-04-14T12:18:52.000Z</time>
      </trkpt>
      <trkpt lat="45.86097" lon="4.71143">
        <ele>194.62402</ele>
        <time>2023-04-14T12:18:53.000Z</time>
      </trkpt>
      <trkpt lat="45.86093" lon="4.71142">
        <ele>194.69766</ele>
        <time>2023-04-14T12:18:54.000Z</time>
      </trkpt>
      <trkpt lat="45.8609" lon="4.71141">
        <ele>194.79548</ele>
        <time>2023-04-14T12:18:55.000Z</time>
      </trkpt>
      <trkpt lat="45.86086" lon="4.71138">
        <ele>194.89142</ele>
        <time>2023-04-14T12:18:56.000Z</time>
      </trkpt>
      <trkpt lat="45.86082" lon="4.71136">
        <ele>195.00212</ele>
        <time>2023-04-14T12:18:57.000Z</time>
      </trkpt>
      <trkpt lat="45.86079" lon="4.71133">
        <ele>195.1045</ele>
        <time>2023-04-14T12:18:58.000Z</time>
      </trkpt>
      <trkpt lat="45.86075" lon="4.7113">
        <ele>195.19337</ele>
        <time>2023-04-14T12:18:59.000Z</time>
      </trkpt>
      <trkpt lat="45.86072" lon="4.71127">
        <ele>195.24801</ele>
        <time>2023-04-14T12:19:00.000Z</time>
      </trkpt>
      <trkpt lat="45.86068" lon="4.71124">
        <ele>195.25955</ele>
        <time>2023-04-14T12:19:01.000Z</time>
      </trkpt>
      <trkpt lat="45.86064" lon="4.7112">
        <ele>195.21668</ele>
        <time>2023-04-14T12:19:02.000Z</time>
      </trkpt>
      <trkpt lat="45.86061" lon="4.71115">
        <ele>195.13287</ele>
        <time>2023-04-14T12:19:03.000Z</time>
      </trkpt>
      <trkpt lat="45.86057" lon="4.71111">
        <ele>195.04791</ele>
        <time>2023-04-14T12:19:04.000Z</time>
      </trkpt>
      <trkpt lat="45.86054" lon="4.71106">
        <ele>195.01693</ele>
        <time>2023-04-14T12:19:05.000Z</time>
      </trkpt>
      <trkpt lat="45.86051" lon="4.71101">
        <ele>195.0628</ele>
        <time>2023-04-14T12:19:06.000Z</time>
      </trkpt>
      <trkpt lat="45.86048" lon="4.71096">
        <ele>195.14107</ele>
        <time>2023-04-14T12:19:07.000Z</time>
      </trkpt>
      <trkpt lat="45.86046" lon="4.7109">
        <ele>195.20684</ele>
        <time>2023-04-14T12:19:08.000Z</time>
      </trkpt>
      <trkpt lat="45.86043" lon="4.71085">
        <ele>195.24893</ele>
        <time>2023-04-14T12:19:09.000Z</time>
      </trkpt>
      <trkpt lat="45.86041" lon="4.7108">
        <ele>195.2567</ele>
        <time>2023-04-14T12:19:10.000Z</time>
      </trkpt>
      <trkpt lat="45.8604" lon="4.71074">
        <ele>195.24606</ele>
        <time>2023-04-14T12:19:11.000Z</time>
      </trkpt>
      <trkpt lat="45.86039" lon="4.71067">
        <ele>195.24398</ele>
        <time>2023-04-14T12:19:12.000Z</time>
      </trkpt>
      <trkpt lat="45.86038" lon="4.71061">
        <ele>195.26175</ele>
        <time>2023-04-14T12:19:13.000Z</time>
      </trkpt>
      <trkpt lat="45.86037" lon="4.71055">
        <ele>195.30133</ele>
        <time>2023-04-14T12:19:14.000Z</time>
      </trkpt>
      <trkpt lat="45.86036" lon="4.71049">
        <ele>195.35604</ele>
        <time>2023-04-14T12:19:15.000Z</time>
      </trkpt>
      <trkpt lat="45.86035" lon="4.71043">
        <ele>195.41388</ele>
        <time>2023-04-14T12:19:16.000Z</time>
      </trkpt>
      <trkpt lat="45.86034" lon="4.71037">
        <ele>195.4669</ele>
        <time>2023-04-14T12:19:17.000Z</time>
      </trkpt>
      <trkpt lat="45.86032" lon="4.71031">
        <ele>195.51238</ele>
        <time>2023-04-14T12:19:18.000Z</time>
      </trkpt>
      <trkpt lat="45.8603" lon="4.71026">
        <ele>195.54626</ele>
        <time>2023-04-14T12:19:19.000Z</time>
      </trkpt>
      <trkpt lat="45.86027" lon="4.71022">
        <ele>195.57493</ele>
        <time>2023-04-14T12:19:20.000Z</time>
      </trkpt>
      <trkpt lat="45.86024" lon="4.71018">
        <ele>195.60535</ele>
        <time>2023-04-14T12:19:21.000Z</time>
      </trkpt>
      <trkpt lat="45.86021" lon="4.71013">
        <ele>195.63224</ele>
        <time>2023-04-14T12:19:22.000Z</time>
      </trkpt>
      <trkpt lat="45.86019" lon="4.71008">
        <ele>195.66321</ele>
        <time>2023-04-14T12:19:23.000Z</time>
      </trkpt>
      <trkpt lat="45.86015" lon="4.71003">
        <ele>195.69179</ele>
        <time>2023-04-14T12:19:24.000Z</time>
      </trkpt>
      <trkpt lat="45.86012" lon="4.70998">
        <ele>195.7053</ele>
        <time>2023-04-14T12:19:25.000Z</time>
      </trkpt>
      <trkpt lat="45.86009" lon="4.70994">
        <ele>195.6985</ele>
        <time>2023-04-14T12:19:26.000Z</time>
      </trkpt>
      <trkpt lat="45.86005" lon="4.70989">
        <ele>195.6755</ele>
        <time>2023-04-14T12:19:27.000Z</time>
      </trkpt>
      <trkpt lat="45.86001" lon="4.70986">
        <ele>195.63788</ele>
        <time>2023-04-14T12:19:28.000Z</time>
      </trkpt>
      <trkpt lat="45.85996" lon="4.70982">
        <ele>195.59322</ele>
        <time>2023-04-14T12:19:29.000Z</time>
      </trkpt>
      <trkpt lat="45.85992" lon="4.70979">
        <ele>195.55195</ele>
        <time>2023-04-14T12:19:30.000Z</time>
      </trkpt>
      <trkpt lat="45.85988" lon="4.70977">
        <ele>195.5306</ele>
        <time>2023-04-14T12:19:31.000Z</time>
      </trkpt>
      <trkpt lat="45.85985" lon="4.70975">
        <ele>195.52324</ele>
        <time>2023-04-14T12:19:32.000Z</time>
      </trkpt>
      <trkpt lat="45.85981" lon="4.70973">
        <ele>195.54832</ele>
        <time>2023-04-14T12:19:33.000Z</time>
      </trkpt>
      <trkpt lat="45.85977" lon="4.70972">
        <ele>195.60499</ele>
        <time>2023-04-14T12:19:34.000Z</time>
      </trkpt>
      <trkpt lat="45.85972" lon="4.70971">
        <ele>195.66613</ele>
        <time>2023-04-14T12:19:35.000Z</time>
      </trkpt>
      <trkpt lat="45.85967" lon="4.7097">
        <ele>195.71308</ele>
        <time>2023-04-14T12:19:36.000Z</time>
      </trkpt>
      <trkpt lat="45.85963" lon="4.7097">
        <ele>195.72858</ele>
        <time>2023-04-14T12:19:37.000Z</time>
      </trkpt>
      <trkpt lat="45.85958" lon="4.70969">
        <ele>195.71719</ele>
        <time>2023-04-14T12:19:38.000Z</time>
      </trkpt>
      <trkpt lat="45.85953" lon="4.70968">
        <ele>195.69432</ele>
        <time>2023-04-14T12:19:39.000Z</time>
      </trkpt>
      <trkpt lat="45.85948" lon="4.70968">
        <ele>195.67063</ele>
        <time>2023-04-14T12:19:40.000Z</time>
      </trkpt>
      <trkpt lat="45.85944" lon="4.70968">
        <ele>195.65951</ele>
        <time>2023-04-14T12:19:41.000Z</time>
      </trkpt>
      <trkpt lat="45.85939" lon="4.70968">
        <ele>195.65621</ele>
        <time>2023-04-14T12:19:42.000Z</time>
      </trkpt>
      <trkpt lat="45.85935" lon="4.70969">
        <ele>195.65593</ele>
        <time>2023-04-14T12:19:43.000Z</time>
      </trkpt>
      <trkpt lat="45.8593" lon="4.70971">
        <ele>195.67377</ele>
        <time>2023-04-14T12:19:44.000Z</time>
      </trkpt>
      <trkpt lat="45.85926" lon="4.70974">
        <ele>195.71995</ele>
        <time>2023-04-14T12:19:45.000Z</time>
      </trkpt>
      <trkpt lat="45.85923" lon="4.70977">
        <ele>195.78843</ele>
        <time>2023-04-14T12:19:46.000Z</time>
      </trkpt>
      <trkpt lat="45.85919" lon="4.70981">
        <ele>195.8895</ele>
        <time>2023-04-14T12:19:47.000Z</time>
      </trkpt>
      <trkpt lat="45.85915" lon="4.70985">
        <ele>196.0182</ele>
        <time>2023-04-14T12:19:48.000Z</time>
      </trkpt>
      <trkpt lat="45.85912" lon="4.70989">
        <ele>196.1441</ele>
        <time>2023-04-14T12:19:49.000Z</time>
      </trkpt>
      <trkpt lat="45.85908" lon="4.70993">
        <ele>196.27771</ele>
        <time>2023-04-14T12:19:50.000Z</time>
      </trkpt>
      <trkpt lat="45.85905" lon="4.70996">
        <ele>196.38763</ele>
        <time>2023-04-14T12:19:51.000Z</time>
      </trkpt>
      <trkpt lat="45.85902" lon="4.70999">
        <ele>196.47134</ele>
        <time>2023-04-14T12:19:52.000Z</time>
      </trkpt>
      <trkpt lat="45.85898" lon="4.71003">
        <ele>196.52717</ele>
        <time>2023-04-14T12:19:53.000Z</time>
      </trkpt>
      <trkpt lat="45.85894" lon="4.71005">
        <ele>196.53275</ele>
        <time>2023-04-14T12:19:54.000Z</time>
      </trkpt>
      <trkpt lat="45.85891" lon="4.71008">
        <ele>196.50467</ele>
        <time>2023-04-14T12:19:55.000Z</time>
      </trkpt>
      <trkpt lat="45.85887" lon="4.71012">
        <ele>196.47835</ele>
        <time>2023-04-14T12:19:56.000Z</time>
      </trkpt>
      <trkpt lat="45.85884" lon="4.71016">
        <ele>196.47804</ele>
        <time>2023-04-14T12:19:57.000Z</time>
      </trkpt>
      <trkpt lat="45.85881" lon="4.7102">
        <ele>196.51406</ele>
        <time>2023-04-14T12:19:58.000Z</time>
      </trkpt>
      <trkpt lat="45.85878" lon="4.71024">
        <ele>196.5802</ele>
        <time>2023-04-14T12:19:59.000Z</time>
      </trkpt>
      <trkpt lat="45.85875" lon="4.71028">
        <ele>196.67188</ele>
        <time>2023-04-14T12:20:00.000Z</time>
      </trkpt>
      <trkpt lat="45.85873" lon="4.71032">
        <ele>196.78074</ele>
        <time>2023-04-14T12:20:01.000Z</time>
      </trkpt>
      <trkpt lat="45.8587" lon="4.71035">
        <ele>196.87259</ele>
        <time>2023-04-14T12:20:02.000Z</time>
      </trkpt>
      <trkpt lat="45.85868" lon="4.71037">
        <ele>196.92986</ele>
        <time>2023-04-14T12:20:03.000Z</time>
      </trkpt>
      <trkpt lat="45.85867" lon="4.71039">
        <ele>196.96498</ele>
        <time>2023-04-14T12:20:04.000Z</time>
      </trkpt>
      <trkpt lat="45.85865" lon="4.71041">
        <ele>196.99866</ele>
        <time>2023-04-14T12:20:05.000Z</time>
      </trkpt>
      <trkpt lat="45.85863" lon="4.71043">
        <ele>197.02619</ele>
        <time>2023-04-14T12:20:06.000Z</time>
      </trkpt>
      <trkpt lat="45.8586" lon="4.71047">
        <ele>197.03178</ele>
        <time>2023-04-14T12:20:07.000Z</time>
      </trkpt>
      <trkpt lat="45.85858" lon="4.7105">
        <ele>197.00873</ele>
        <time>2023-04-14T12:20:08.000Z</time>
      </trkpt>
      <trkpt lat="45.85855" lon="4.71054">
        <ele>196.96075</ele>
        <time>2023-04-14T12:20:09.000Z</time>
      </trkpt>
      <trkpt lat="45.85853" lon="4.71059">
        <ele>196.90703</ele>
        <time>2023-04-14T12:20:10.000Z</time>
      </trkpt>
      <trkpt lat="45.8585" lon="4.71064">
        <ele>196.88564</ele>
        <time>2023-04-14T12:20:11.000Z</time>
      </trkpt>
      <trkpt lat="45.85847" lon="4.71068">
        <ele>196.91346</ele>
        <time>2023-04-14T12:20:12.000Z</time>
      </trkpt>
      <trkpt lat="45.85843" lon="4.71073">
        <ele>196.98672</ele>
        <time>2023-04-14T12:20:13.000Z</time>
      </trkpt>
      <trkpt lat="45.8584" lon="4.71078">
        <ele>197.06291</ele>
        <time>2023-04-14T12:20:14.000Z</time>
      </trkpt>
      <trkpt lat="45.85837" lon="4.71082">
        <ele>197.11591</ele>
        <time>2023-04-14T12:20:15.000Z</time>
      </trkpt>
      <trkpt lat="45.85834" lon="4.71087">
        <ele>197.14483</ele>
        <time>2023-04-14T12:20:16.000Z</time>
      </trkpt>
      <trkpt lat="45.85831" lon="4.71093">
        <ele>197.1783</ele>
        <time>2023-04-14T12:20:17.000Z</time>
      </trkpt>
      <trkpt lat="45.85828" lon="4.71099">
        <ele>197.23336</ele>
        <time>2023-04-14T12:20:18.000Z</time>
      </trkpt>
      <trkpt lat="45.85825" lon="4.71104">
        <ele>197.35327</ele>
        <time>2023-04-14T12:20:19.000Z</time>
      </trkpt>
      <trkpt lat="45.85822" lon="4.7111">
        <ele>197.57499</ele>
        <time>2023-04-14T12:20:20.000Z</time>
      </trkpt>
      <trkpt lat="45.8582" lon="4.71115">
        <ele>197.79537</ele>
        <time>2023-04-14T12:20:21.000Z</time>
      </trkpt>
      <trkpt lat="45.85817" lon="4.71119">
        <ele>198.00583</ele>
        <time>2023-04-14T12:20:22.000Z</time>
      </trkpt>
      <trkpt lat="45.85814" lon="4.71124">
        <ele>198.15411</ele>
        <time>2023-04-14T12:20:23.000Z</time>
      </trkpt>
      <trkpt lat="45.85812" lon="4.71128">
        <ele>198.31808</ele>
        <time>2023-04-14T12:20:24.000Z</time>
      </trkpt>
      <trkpt lat="45.85809" lon="4.71132">
        <ele>198.45261</ele>
        <time>2023-04-14T12:20:25.000Z</time>
      </trkpt>
      <trkpt lat="45.85806" lon="4.71136">
        <ele>198.62447</ele>
        <time>2023-04-14T12:20:26.000Z</time>
      </trkpt>
      <trkpt lat="45.85804" lon="4.71139">
        <ele>198.78898</ele>
        <time>2023-04-14T12:20:27.000Z</time>
      </trkpt>
      <trkpt lat="45.85802" lon="4.71142">
        <ele>198.90515</ele>
        <time>2023-04-14T12:20:28.000Z</time>
      </trkpt>
      <trkpt lat="45.858" lon="4.71143">
        <ele>198.97457</ele>
        <time>2023-04-14T12:20:29.000Z</time>
      </trkpt>
      <trkpt lat="45.85798" lon="4.71145">
        <ele>199.04931</ele>
        <time>2023-04-14T12:20:31.000Z</time>
      </trkpt>
      <trkpt lat="45.85796" lon="4.71146">
        <ele>199.10998</ele>
        <time>2023-04-14T12:20:37.000Z</time>
      </trkpt>
      <trkpt lat="45.85794" lon="4.71147">
        <ele>199.16493</ele>
        <time>2023-04-14T12:21:43.000Z</time>
      </trkpt>
      <trkpt lat="45.85792" lon="4.71149">
        <ele>199.23618</ele>
        <time>2023-04-14T12:21:44.000Z</time>
      </trkpt>
      <trkpt lat="45.85791" lon="4.71152">
        <ele>199.33136</ele>
        <time>2023-04-14T12:21:45.000Z</time>
      </trkpt>
      <trkpt lat="45.8579" lon="4.71154">
        <ele>199.41194</ele>
        <time>2023-04-14T12:21:46.000Z</time>
      </trkpt>
      <trkpt lat="45.85789" lon="4.71158">
        <ele>199.48934</ele>
        <time>2023-04-14T12:21:47.000Z</time>
      </trkpt>
      <trkpt lat="45.85789" lon="4.71162">
        <ele>199.54518</ele>
        <time>2023-04-14T12:21:48.000Z</time>
      </trkpt>
      <trkpt lat="45.8579" lon="4.71167">
        <ele>199.57872</ele>
        <time>2023-04-14T12:21:49.000Z</time>
      </trkpt>
      <trkpt lat="45.85791" lon="4.71172">
        <ele>199.61344</ele>
        <time>2023-04-14T12:21:50.000Z</time>
      </trkpt>
      <trkpt lat="45.85792" lon="4.71177">
        <ele>199.64255</ele>
        <time>2023-04-14T12:21:51.000Z</time>
      </trkpt>
      <trkpt lat="45.85791" lon="4.71181">
        <ele>199.655</ele>
        <time>2023-04-14T12:21:52.000Z</time>
      </trkpt>
      <trkpt lat="45.8579" lon="4.71185">
        <ele>199.65714</ele>
        <time>2023-04-14T12:21:53.000Z</time>
      </trkpt>
      <trkpt lat="45.85789" lon="4.7119">
        <ele>199.65787</ele>
        <time>2023-04-14T12:21:54.000Z</time>
      </trkpt>
      <trkpt lat="45.85788" lon="4.71193">
        <ele>199.65967</ele>
        <time>2023-04-14T12:21:55.000Z</time>
      </trkpt>
      <trkpt lat="45.85787" lon="4.71198">
        <ele>199.66457</ele>
        <time>2023-04-14T12:21:56.000Z</time>
      </trkpt>
      <trkpt lat="45.85785" lon="4.71202">
        <ele>199.67104</ele>
        <time>2023-04-14T12:21:57.000Z</time>
      </trkpt>
      <trkpt lat="45.85784" lon="4.71208">
        <ele>199.67758</ele>
        <time>2023-04-14T12:21:58.000Z</time>
      </trkpt>
      <trkpt lat="45.85783" lon="4.71212">
        <ele>199.67817</ele>
        <time>2023-04-14T12:21:59.000Z</time>
      </trkpt>
      <trkpt lat="45.85782" lon="4.71216">
        <ele>199.66753</ele>
        <time>2023-04-14T12:22:00.000Z</time>
      </trkpt>
      <trkpt lat="45.85783" lon="4.71219">
        <ele>199.64457</ele>
        <time>2023-04-14T12:22:01.000Z</time>
      </trkpt>
      <trkpt lat="45.85784" lon="4.71222">
        <ele>199.61447</ele>
        <time>2023-04-14T12:22:02.000Z</time>
      </trkpt>
      <trkpt lat="45.85785" lon="4.71225">
        <ele>199.58519</ele>
        <time>2023-04-14T12:22:03.000Z</time>
      </trkpt>
      <trkpt lat="45.85787" lon="4.71227">
        <ele>199.54555</ele>
        <time>2023-04-14T12:22:04.000Z</time>
      </trkpt>
      <trkpt lat="45.85789" lon="4.71228">
        <ele>199.49695</ele>
        <time>2023-04-14T12:22:05.000Z</time>
      </trkpt>
      <trkpt lat="45.85792" lon="4.71228">
        <ele>199.46056</ele>
        <time>2023-04-14T12:22:06.000Z</time>
      </trkpt>
      <trkpt lat="45.85794" lon="4.71226">
        <ele>199.46924</ele>
        <time>2023-04-14T12:22:07.000Z</time>
      </trkpt>
      <trkpt lat="45.85796" lon="4.71221">
        <ele>199.51501</ele>
        <time>2023-04-14T12:22:08.000Z</time>
      </trkpt>
      <trkpt lat="45.85798" lon="4.71216">
        <ele>199.57985</ele>
        <time>2023-04-14T12:22:09.000Z</time>
      </trkpt>
      <trkpt lat="45.85799" lon="4.7121">
        <ele>199.64254</ele>
        <time>2023-04-14T12:22:10.000Z</time>
      </trkpt>
      <trkpt lat="45.85798" lon="4.71204">
        <ele>199.68174</ele>
        <time>2023-04-14T12:22:11.000Z</time>
      </trkpt>
      <trkpt lat="45.85797" lon="4.71199">
        <ele>199.69433</ele>
        <time>2023-04-14T12:22:12.000Z</time>
      </trkpt>
      <trkpt lat="45.85794" lon="4.71194">
        <ele>199.68343</ele>
        <time>2023-04-14T12:22:13.000Z</time>
      </trkpt>
      <trkpt lat="45.85792" lon="4.71189">
        <ele>199.6671</ele>
        <time>2023-04-14T12:22:14.000Z</time>
      </trkpt>
      <trkpt lat="45.8579" lon="4.71184">
        <ele>199.65476</ele>
        <time>2023-04-14T12:22:15.000Z</time>
      </trkpt>
      <trkpt lat="45.85786" lon="4.71179">
        <ele>199.69995</ele>
        <time>2023-04-14T12:22:16.000Z</time>
      </trkpt>
      <trkpt lat="45.85781" lon="4.71175">
        <ele>199.99983</ele>
        <time>2023-04-14T12:22:17.000Z</time>
      </trkpt>
      <trkpt lat="45.85777" lon="4.7117">
        <ele>200.53911</ele>
        <time>2023-04-14T12:22:18.000Z</time>
      </trkpt>
      <trkpt lat="45.85774" lon="4.71164">
        <ele>201.15924</ele>
        <time>2023-04-14T12:22:19.000Z</time>
      </trkpt>
      <trkpt lat="45.85772" lon="4.71158">
        <ele>201.69706</ele>
        <time>2023-04-14T12:22:20.000Z</time>
      </trkpt>
      <trkpt lat="45.8577" lon="4.71152">
        <ele>202.2465</ele>
        <time>2023-04-14T12:22:21.000Z</time>
      </trkpt>
      <trkpt lat="45.85768" lon="4.71146">
        <ele>202.70072</ele>
        <time>2023-04-14T12:22:22.000Z</time>
      </trkpt>
      <trkpt lat="45.85765" lon="4.71141">
        <ele>203.3304</ele>
        <time>2023-04-14T12:22:23.000Z</time>
      </trkpt>
      <trkpt lat="45.85764" lon="4.71137">
        <ele>203.57332</ele>
        <time>2023-04-14T12:22:24.000Z</time>
      </trkpt>
      <trkpt lat="45.85762" lon="4.71133">
        <ele>204.07188</ele>
        <time>2023-04-14T12:22:25.000Z</time>
      </trkpt>
      <trkpt lat="45.85758" lon="4.71131">
        <ele>204.57675</ele>
        <time>2023-04-14T12:22:26.000Z</time>
      </trkpt>
      <trkpt lat="45.85755" lon="4.71128">
        <ele>205.08839</ele>
        <time>2023-04-14T12:22:27.000Z</time>
      </trkpt>
      <trkpt lat="45.85751" lon="4.71124">
        <ele>205.60532</ele>
        <time>2023-04-14T12:22:28.000Z</time>
      </trkpt>
      <trkpt lat="45.85748" lon="4.71122">
        <ele>206.13798</ele>
        <time>2023-04-14T12:22:29.000Z</time>
      </trkpt>
      <trkpt lat="45.85744" lon="4.71119">
        <ele>206.70477</ele>
        <time>2023-04-14T12:22:30.000Z</time>
      </trkpt>
      <trkpt lat="45.8574" lon="4.71115">
        <ele>207.20974</ele>
        <time>2023-04-14T12:22:31.000Z</time>
      </trkpt>
      <trkpt lat="45.85737" lon="4.71112">
        <ele>207.66192</ele>
        <time>2023-04-14T12:22:32.000Z</time>
      </trkpt>
      <trkpt lat="45.85733" lon="4.7111">
        <ele>208.04611</ele>
        <time>2023-04-14T12:22:33.000Z</time>
      </trkpt>
      <trkpt lat="45.85728" lon="4.71107">
        <ele>208.39512</ele>
        <time>2023-04-14T12:22:34.000Z</time>
      </trkpt>
      <trkpt lat="45.85724" lon="4.71104">
        <ele>208.69445</ele>
        <time>2023-04-14T12:22:35.000Z</time>
      </trkpt>
      <trkpt lat="45.85721" lon="4.71101">
        <ele>209.02616</ele>
        <time>2023-04-14T12:22:36.000Z</time>
      </trkpt>
      <trkpt lat="45.85717" lon="4.71097">
        <ele>209.43113</ele>
        <time>2023-04-14T12:22:37.000Z</time>
      </trkpt>
      <trkpt lat="45.85713" lon="4.71094">
        <ele>209.92842</ele>
        <time>2023-04-14T12:22:38.000Z</time>
      </trkpt>
      <trkpt lat="45.8571" lon="4.7109">
        <ele>210.49782</ele>
        <time>2023-04-14T12:22:39.000Z</time>
      </trkpt>
      <trkpt lat="45.85706" lon="4.71087">
        <ele>211.04254</ele>
        <time>2023-04-14T12:22:40.000Z</time>
      </trkpt>
      <trkpt lat="45.85702" lon="4.71083">
        <ele>211.56336</ele>
        <time>2023-04-14T12:22:41.000Z</time>
      </trkpt>
      <trkpt lat="45.85698" lon="4.71081">
        <ele>211.95794</ele>
        <time>2023-04-14T12:22:42.000Z</time>
      </trkpt>
      <trkpt lat="45.85694" lon="4.71077">
        <ele>212.42632</ele>
        <time>2023-04-14T12:22:43.000Z</time>
      </trkpt>
      <trkpt lat="45.85691" lon="4.71073">
        <ele>212.89408</ele>
        <time>2023-04-14T12:22:44.000Z</time>
      </trkpt>
      <trkpt lat="45.85687" lon="4.71071">
        <ele>213.34637</ele>
        <time>2023-04-14T12:22:45.000Z</time>
      </trkpt>
      <trkpt lat="45.85683" lon="4.71068">
        <ele>213.8065</ele>
        <time>2023-04-14T12:22:46.000Z</time>
      </trkpt>
      <trkpt lat="45.8568" lon="4.71066">
        <ele>214.22727</ele>
        <time>2023-04-14T12:22:47.000Z</time>
      </trkpt>
      <trkpt lat="45.85676" lon="4.71063">
        <ele>214.61452</ele>
        <time>2023-04-14T12:22:48.000Z</time>
      </trkpt>
      <trkpt lat="45.85672" lon="4.71061">
        <ele>214.92789</ele>
        <time>2023-04-14T12:22:49.000Z</time>
      </trkpt>
      <trkpt lat="45.85668" lon="4.71058">
        <ele>215.17251</ele>
        <time>2023-04-14T12:22:50.000Z</time>
      </trkpt>
      <trkpt lat="45.85665" lon="4.71055">
        <ele>215.33127</ele>
        <time>2023-04-14T12:22:51.000Z</time>
      </trkpt>
      <trkpt lat="45.85661" lon="4.71053">
        <ele>215.42639</ele>
        <time>2023-04-14T12:22:52.000Z</time>
      </trkpt>
      <trkpt lat="45.85657" lon="4.71051">
        <ele>215.49708</ele>
        <time>2023-04-14T12:22:53.000Z</time>
      </trkpt>
      <trkpt lat="45.85654" lon="4.71049">
        <ele>215.57392</ele>
        <time>2023-04-14T12:22:54.000Z</time>
      </trkpt>
      <trkpt lat="45.85651" lon="4.71047">
        <ele>215.6721</ele>
        <time>2023-04-14T12:22:55.000Z</time>
      </trkpt>
      <trkpt lat="45.85649" lon="4.71044">
        <ele>215.81409</ele>
        <time>2023-04-14T12:22:56.000Z</time>
      </trkpt>
      <trkpt lat="45.85646" lon="4.71042">
        <ele>215.9931</ele>
        <time>2023-04-14T12:22:57.000Z</time>
      </trkpt>
      <trkpt lat="45.85643" lon="4.71039">
        <ele>216.24142</ele>
        <time>2023-04-14T12:22:58.000Z</time>
      </trkpt>
      <trkpt lat="45.8564" lon="4.71036">
        <ele>216.59999</ele>
        <time>2023-04-14T12:22:59.000Z</time>
      </trkpt>
      <trkpt lat="45.85637" lon="4.71033">
        <ele>217.02397</ele>
        <time>2023-04-14T12:23:00.000Z</time>
      </trkpt>
      <trkpt lat="45.85633" lon="4.71029">
        <ele>217.43623</ele>
        <time>2023-04-14T12:23:01.000Z</time>
      </trkpt>
      <trkpt lat="45.85629" lon="4.71026">
        <ele>217.75123</ele>
        <time>2023-04-14T12:23:02.000Z</time>
      </trkpt>
      <trkpt lat="45.85626" lon="4.71021">
        <ele>217.82955</ele>
        <time>2023-04-14T12:23:03.000Z</time>
      </trkpt>
      <trkpt lat="45.85623" lon="4.71017">
        <ele>217.88835</ele>
        <time>2023-04-14T12:23:04.000Z</time>
      </trkpt>
      <trkpt lat="45.85619" lon="4.71013">
        <ele>217.90616</ele>
        <time>2023-04-14T12:23:05.000Z</time>
      </trkpt>
      <trkpt lat="45.85616" lon="4.71008">
        <ele>217.94078</ele>
        <time>2023-04-14T12:23:06.000Z</time>
      </trkpt>
      <trkpt lat="45.85613" lon="4.71004">
        <ele>217.95431</ele>
        <time>2023-04-14T12:23:07.000Z</time>
      </trkpt>
      <trkpt lat="45.8561" lon="4.70999">
        <ele>217.95402</ele>
        <time>2023-04-14T12:23:08.000Z</time>
      </trkpt>
      <trkpt lat="45.85607" lon="4.70994">
        <ele>218.0302</ele>
        <time>2023-04-14T12:23:09.000Z</time>
      </trkpt>
      <trkpt lat="45.85604" lon="4.7099">
        <ele>218.1121</ele>
        <time>2023-04-14T12:23:10.000Z</time>
      </trkpt>
      <trkpt lat="45.85601" lon="4.70987">
        <ele>218.26512</ele>
        <time>2023-04-14T12:23:11.000Z</time>
      </trkpt>
      <trkpt lat="45.85597" lon="4.70984">
        <ele>218.46604</ele>
        <time>2023-04-14T12:23:12.000Z</time>
      </trkpt>
      <trkpt lat="45.85593" lon="4.7098">
        <ele>218.6306</ele>
        <time>2023-04-14T12:23:13.000Z</time>
      </trkpt>
      <trkpt lat="45.85589" lon="4.70976">
        <ele>218.78119</ele>
        <time>2023-04-14T12:23:14.000Z</time>
      </trkpt>
      <trkpt lat="45.85585" lon="4.70972">
        <ele>218.9252</ele>
        <time>2023-04-14T12:23:15.000Z</time>
      </trkpt>
      <trkpt lat="45.85581" lon="4.70968">
        <ele>219.0966</ele>
        <time>2023-04-14T12:23:16.000Z</time>
      </trkpt>
      <trkpt lat="45.85578" lon="4.70964">
        <ele>219.19637</ele>
        <time>2023-04-14T12:23:17.000Z</time>
      </trkpt>
      <trkpt lat="45.85574" lon="4.70961">
        <ele>219.36901</ele>
        <time>2023-04-14T12:23:18.000Z</time>
      </trkpt>
      <trkpt lat="45.8557" lon="4.70957">
        <ele>219.51181</ele>
        <time>2023-04-14T12:23:19.000Z</time>
      </trkpt>
      <trkpt lat="45.85566" lon="4.70954">
        <ele>219.64781</ele>
        <time>2023-04-14T12:23:20.000Z</time>
      </trkpt>
      <trkpt lat="45.85561" lon="4.70951">
        <ele>219.80893</ele>
        <time>2023-04-14T12:23:21.000Z</time>
      </trkpt>
      <trkpt lat="45.85557" lon="4.70948">
        <ele>219.92267</ele>
        <time>2023-04-14T12:23:22.000Z</time>
      </trkpt>
      <trkpt lat="45.85553" lon="4.70945">
        <ele>219.99001</ele>
        <time>2023-04-14T12:23:23.000Z</time>
      </trkpt>
      <trkpt lat="45.85549" lon="4.70943">
        <ele>220.0943</ele>
        <time>2023-04-14T12:23:24.000Z</time>
      </trkpt>
      <trkpt lat="45.85545" lon="4.70941">
        <ele>220.21619</ele>
        <time>2023-04-14T12:23:25.000Z</time>
      </trkpt>
      <trkpt lat="45.8554" lon="4.7094">
        <ele>220.39109</ele>
        <time>2023-04-14T12:23:26.000Z</time>
      </trkpt>
      <trkpt lat="45.85536" lon="4.70938">
        <ele>220.55238</ele>
        <time>2023-04-14T12:23:27.000Z</time>
      </trkpt>
      <trkpt lat="45.85532" lon="4.70937">
        <ele>220.70865</ele>
        <time>2023-04-14T12:23:28.000Z</time>
      </trkpt>
      <trkpt lat="45.85527" lon="4.70936">
        <ele>220.85807</ele>
        <time>2023-04-14T12:23:29.000Z</time>
      </trkpt>
      <trkpt lat="45.85523" lon="4.70935">
        <ele>220.97845</ele>
        <time>2023-04-14T12:23:30.000Z</time>
      </trkpt>
      <trkpt lat="45.85519" lon="4.70935">
        <ele>221.09825</ele>
        <time>2023-04-14T12:23:31.000Z</time>
      </trkpt>
      <trkpt lat="45.85515" lon="4.70934">
        <ele>221.21866</ele>
        <time>2023-04-14T12:23:32.000Z</time>
      </trkpt>
      <trkpt lat="45.8551" lon="4.70933">
        <ele>221.33494</ele>
        <time>2023-04-14T12:23:33.000Z</time>
      </trkpt>
      <trkpt lat="45.85506" lon="4.70932">
        <ele>221.44927</ele>
        <time>2023-04-14T12:23:34.000Z</time>
      </trkpt>
      <trkpt lat="45.85502" lon="4.70931">
        <ele>221.55527</ele>
        <time>2023-04-14T12:23:35.000Z</time>
      </trkpt>
      <trkpt lat="45.85498" lon="4.70929">
        <ele>221.65116</ele>
        <time>2023-04-14T12:23:36.000Z</time>
      </trkpt>
      <trkpt lat="45.85494" lon="4.70926">
        <ele>221.76487</ele>
        <time>2023-04-14T12:23:37.000Z</time>
      </trkpt>
      <trkpt lat="45.85489" lon="4.70925">
        <ele>221.87377</ele>
        <time>2023-04-14T12:23:38.000Z</time>
      </trkpt>
      <trkpt lat="45.85485" lon="4.70923">
        <ele>221.98241</ele>
        <time>2023-04-14T12:23:39.000Z</time>
      </trkpt>
      <trkpt lat="45.8548" lon="4.70923">
        <ele>222.0812</ele>
        <time>2023-04-14T12:23:40.000Z</time>
      </trkpt>
      <trkpt lat="45.85476" lon="4.70922">
        <ele>222.16538</ele>
        <time>2023-04-14T12:23:41.000Z</time>
      </trkpt>
      <trkpt lat="45.85471" lon="4.70921">
        <ele>222.25025</ele>
        <time>2023-04-14T12:23:42.000Z</time>
      </trkpt>
      <trkpt lat="45.85466" lon="4.7092">
        <ele>222.33474</ele>
        <time>2023-04-14T12:23:43.000Z</time>
      </trkpt>
      <trkpt lat="45.85462" lon="4.70918">
        <ele>222.41252</ele>
        <time>2023-04-14T12:23:44.000Z</time>
      </trkpt>
      <trkpt lat="45.85457" lon="4.70917">
        <ele>222.48376</ele>
        <time>2023-04-14T12:23:45.000Z</time>
      </trkpt>
      <trkpt lat="45.85452" lon="4.70916">
        <ele>222.55903</ele>
        <time>2023-04-14T12:23:46.000Z</time>
      </trkpt>
      <trkpt lat="45.85448" lon="4.70914">
        <ele>222.64946</ele>
        <time>2023-04-14T12:23:47.000Z</time>
      </trkpt>
      <trkpt lat="45.85443" lon="4.70913">
        <ele>222.75808</ele>
        <time>2023-04-14T12:23:48.000Z</time>
      </trkpt>
      <trkpt lat="45.85439" lon="4.7091">
        <ele>222.88385</ele>
        <time>2023-04-14T12:23:49.000Z</time>
      </trkpt>
      <trkpt lat="45.85434" lon="4.70908">
        <ele>222.99492</ele>
        <time>2023-04-14T12:23:50.000Z</time>
      </trkpt>
      <trkpt lat="45.85429" lon="4.70907">
        <ele>223.09372</ele>
        <time>2023-04-14T12:23:51.000Z</time>
      </trkpt>
      <trkpt lat="45.85425" lon="4.70905">
        <ele>223.19978</ele>
        <time>2023-04-14T12:23:52.000Z</time>
      </trkpt>
      <trkpt lat="45.8542" lon="4.70902">
        <ele>223.32847</ele>
        <time>2023-04-14T12:23:53.000Z</time>
      </trkpt>
      <trkpt lat="45.85415" lon="4.70901">
        <ele>223.46441</ele>
        <time>2023-04-14T12:23:54.000Z</time>
      </trkpt>
      <trkpt lat="45.85411" lon="4.70898">
        <ele>223.62342</ele>
        <time>2023-04-14T12:23:55.000Z</time>
      </trkpt>
      <trkpt lat="45.85406" lon="4.70896">
        <ele>223.74703</ele>
        <time>2023-04-14T12:23:56.000Z</time>
      </trkpt>
      <trkpt lat="45.85402" lon="4.70894">
        <ele>223.86173</ele>
        <time>2023-04-14T12:23:57.000Z</time>
      </trkpt>
      <trkpt lat="45.85398" lon="4.70892">
        <ele>223.9783</ele>
        <time>2023-04-14T12:23:58.000Z</time>
      </trkpt>
      <trkpt lat="45.85393" lon="4.7089">
        <ele>224.09915</ele>
        <time>2023-04-14T12:23:59.000Z</time>
      </trkpt>
      <trkpt lat="45.85389" lon="4.70888">
        <ele>224.20378</ele>
        <time>2023-04-14T12:24:00.000Z</time>
      </trkpt>
      <trkpt lat="45.85385" lon="4.70886">
        <ele>224.31776</ele>
        <time>2023-04-14T12:24:01.000Z</time>
      </trkpt>
      <trkpt lat="45.85381" lon="4.70883">
        <ele>224.41344</ele>
        <time>2023-04-14T12:24:02.000Z</time>
      </trkpt>
      <trkpt lat="45.85377" lon="4.70882">
        <ele>224.49206</ele>
        <time>2023-04-14T12:24:03.000Z</time>
      </trkpt>
      <trkpt lat="45.85373" lon="4.7088">
        <ele>224.57405</ele>
        <time>2023-04-14T12:24:04.000Z</time>
      </trkpt>
      <trkpt lat="45.8537" lon="4.70878">
        <ele>224.63241</ele>
        <time>2023-04-14T12:24:05.000Z</time>
      </trkpt>
      <trkpt lat="45.85366" lon="4.70877">
        <ele>224.66442</ele>
        <time>2023-04-14T12:24:06.000Z</time>
      </trkpt>
      <trkpt lat="45.85363" lon="4.70876">
        <ele>224.69739</ele>
        <time>2023-04-14T12:24:07.000Z</time>
      </trkpt>
      <trkpt lat="45.8536" lon="4.70875">
        <ele>224.7123</ele>
        <time>2023-04-14T12:24:08.000Z</time>
      </trkpt>
      <trkpt lat="45.85357" lon="4.70874">
        <ele>224.74038</ele>
        <time>2023-04-14T12:24:09.000Z</time>
      </trkpt>
      <trkpt lat="45.85355" lon="4.70872">
        <ele>224.7838</ele>
        <time>2023-04-14T12:24:10.000Z</time>
      </trkpt>
      <trkpt lat="45.85353" lon="4.7087">
        <ele>224.82064</ele>
        <time>2023-04-14T12:24:11.000Z</time>
      </trkpt>
      <trkpt lat="45.85352" lon="4.70869">
        <ele>224.84632</ele>
        <time>2023-04-14T12:24:12.000Z</time>
      </trkpt>
      <trkpt lat="45.8535" lon="4.70867">
        <ele>224.89609</ele>
        <time>2023-04-14T12:24:14.000Z</time>
      </trkpt>
      <trkpt lat="45.85349" lon="4.70865">
        <ele>224.992</ele>
        <time>2023-04-14T12:26:27.000Z</time>
      </trkpt>
      <trkpt lat="45.85347" lon="4.70864">
        <ele>225.02395</ele>
        <time>2023-04-14T12:26:28.000Z</time>
      </trkpt>
      <trkpt lat="45.85345" lon="4.70863">
        <ele>225.04955</ele>
        <time>2023-04-14T12:26:29.000Z</time>
      </trkpt>
      <trkpt lat="45.85343" lon="4.70862">
        <ele>225.10444</ele>
        <time>2023-04-14T12:26:30.000Z</time>
      </trkpt>
      <trkpt lat="45.8534" lon="4.70861">
        <ele>225.1906</ele>
        <time>2023-04-14T12:26:31.000Z</time>
      </trkpt>
      <trkpt lat="45.85337" lon="4.7086">
        <ele>225.31854</ele>
        <time>2023-04-14T12:26:32.000Z</time>
      </trkpt>
      <trkpt lat="45.85334" lon="4.70858">
        <ele>225.49829</ele>
        <time>2023-04-14T12:26:33.000Z</time>
      </trkpt>
      <trkpt lat="45.85331" lon="4.70856">
        <ele>225.73461</ele>
        <time>2023-04-14T12:26:34.000Z</time>
      </trkpt>
      <trkpt lat="45.85327" lon="4.70853">
        <ele>226.02634</ele>
        <time>2023-04-14T12:26:35.000Z</time>
      </trkpt>
      <trkpt lat="45.85324" lon="4.7085">
        <ele>226.33189</ele>
        <time>2023-04-14T12:26:36.000Z</time>
      </trkpt>
      <trkpt lat="45.85321" lon="4.70847">
        <ele>226.65311</ele>
        <time>2023-04-14T12:26:37.000Z</time>
      </trkpt>
      <trkpt lat="45.85318" lon="4.70843">
        <ele>226.91752</ele>
        <time>2023-04-14T12:26:38.000Z</time>
      </trkpt>
      <trkpt lat="45.85315" lon="4.7084">
        <ele>227.10751</ele>
        <time>2023-04-14T12:26:39.000Z</time>
      </trkpt>
      <trkpt lat="45.85312" lon="4.70836">
        <ele>227.19233</ele>
        <time>2023-04-14T12:26:40.000Z</time>
      </trkpt>
      <trkpt lat="45.85309" lon="4.70832">
        <ele>227.126</ele>
        <time>2023-04-14T12:26:41.000Z</time>
      </trkpt>
      <trkpt lat="45.85306" lon="4.70827">
        <ele>226.83892</ele>
        <time>2023-04-14T12:26:42.000Z</time>
      </trkpt>
      <trkpt lat="45.85303" lon="4.70823">
        <ele>226.27659</ele>
        <time>2023-04-14T12:26:43.000Z</time>
      </trkpt>
      <trkpt lat="45.853" lon="4.7082">
        <ele>225.3533</ele>
        <time>2023-04-14T12:26:44.000Z</time>
      </trkpt>
      <trkpt lat="45.85296" lon="4.70816">
        <ele>224.2085</ele>
        <time>2023-04-14T12:26:45.000Z</time>
      </trkpt>
      <trkpt lat="45.85293" lon="4.70812">
        <ele>223.06145</ele>
        <time>2023-04-14T12:26:46.000Z</time>
      </trkpt>
      <trkpt lat="45.85289" lon="4.70808">
        <ele>222.47561</ele>
        <time>2023-04-14T12:26:47.000Z</time>
      </trkpt>
      <trkpt lat="45.85286" lon="4.70804">
        <ele>222.81281</ele>
        <time>2023-04-14T12:26:48.000Z</time>
      </trkpt>
      <trkpt lat="45.85282" lon="4.708">
        <ele>224.09824</ele>
        <time>2023-04-14T12:26:49.000Z</time>
      </trkpt>
      <trkpt lat="45.85279" lon="4.70796">
        <ele>226.04912</ele>
        <time>2023-04-14T12:26:50.000Z</time>
      </trkpt>
      <trkpt lat="45.85275" lon="4.70792">
        <ele>228.17342</ele>
        <time>2023-04-14T12:26:51.000Z</time>
      </trkpt>
      <trkpt lat="45.85271" lon="4.7079">
        <ele>229.83658</ele>
        <time>2023-04-14T12:26:52.000Z</time>
      </trkpt>
      <trkpt lat="45.85267" lon="4.70789">
        <ele>230.73076</ele>
        <time>2023-04-14T12:26:53.000Z</time>
      </trkpt>
      <trkpt lat="45.85262" lon="4.70789">
        <ele>231.12705</ele>
        <time>2023-04-14T12:26:54.000Z</time>
      </trkpt>
      <trkpt lat="45.85258" lon="4.70791">
        <ele>231.20452</ele>
        <time>2023-04-14T12:26:55.000Z</time>
      </trkpt>
      <trkpt lat="45.85253" lon="4.70794">
        <ele>231.19246</ele>
        <time>2023-04-14T12:26:56.000Z</time>
      </trkpt>
      <trkpt lat="45.85249" lon="4.70797">
        <ele>231.4352</ele>
        <time>2023-04-14T12:26:57.000Z</time>
      </trkpt>
      <trkpt lat="45.85245" lon="4.70801">
        <ele>231.93456</ele>
        <time>2023-04-14T12:26:58.000Z</time>
      </trkpt>
      <trkpt lat="45.85241" lon="4.70804">
        <ele>232.40996</ele>
        <time>2023-04-14T12:26:59.000Z</time>
      </trkpt>
      <trkpt lat="45.85237" lon="4.70807">
        <ele>232.75528</ele>
        <time>2023-04-14T12:27:00.000Z</time>
      </trkpt>
      <trkpt lat="45.85233" lon="4.70811">
        <ele>232.94082</ele>
        <time>2023-04-14T12:27:01.000Z</time>
      </trkpt>
      <trkpt lat="45.85228" lon="4.70814">
        <ele>233.08749</ele>
        <time>2023-04-14T12:27:02.000Z</time>
      </trkpt>
      <trkpt lat="45.85224" lon="4.70818">
        <ele>233.31331</ele>
        <time>2023-04-14T12:27:03.000Z</time>
      </trkpt>
      <trkpt lat="45.85219" lon="4.70821">
        <ele>233.69495</ele>
        <time>2023-04-14T12:27:04.000Z</time>
      </trkpt>
      <trkpt lat="45.85215" lon="4.70824">
        <ele>234.01233</ele>
        <time>2023-04-14T12:27:05.000Z</time>
      </trkpt>
      <trkpt lat="45.8521" lon="4.70827">
        <ele>234.41535</ele>
        <time>2023-04-14T12:27:06.000Z</time>
      </trkpt>
      <trkpt lat="45.85206" lon="4.7083">
        <ele>234.73796</ele>
        <time>2023-04-14T12:27:07.000Z</time>
      </trkpt>
      <trkpt lat="45.85201" lon="4.70832">
        <ele>234.96491</ele>
        <time>2023-04-14T12:27:08.000Z</time>
      </trkpt>
      <trkpt lat="45.85197" lon="4.70834">
        <ele>235.16393</ele>
        <time>2023-04-14T12:27:09.000Z</time>
      </trkpt>
      <trkpt lat="45.85192" lon="4.70836">
        <ele>235.33224</ele>
        <time>2023-04-14T12:27:10.000Z</time>
      </trkpt>
      <trkpt lat="45.85187" lon="4.70837">
        <ele>235.54353</ele>
        <time>2023-04-14T12:27:11.000Z</time>
      </trkpt>
      <trkpt lat="45.85182" lon="4.70837">
        <ele>235.78038</ele>
        <time>2023-04-14T12:27:12.000Z</time>
      </trkpt>
      <trkpt lat="45.85178" lon="4.70837">
        <ele>236.07376</ele>
        <time>2023-04-14T12:27:13.000Z</time>
      </trkpt>
      <trkpt lat="45.85172" lon="4.70837">
        <ele>236.35098</ele>
        <time>2023-04-14T12:27:14.000Z</time>
      </trkpt>
      <trkpt lat="45.85167" lon="4.70836">
        <ele>236.63454</ele>
        <time>2023-04-14T12:27:15.000Z</time>
      </trkpt>
      <trkpt lat="45.85162" lon="4.70835">
        <ele>236.93796</ele>
        <time>2023-04-14T12:27:16.000Z</time>
      </trkpt>
      <trkpt lat="45.85158" lon="4.70833">
        <ele>237.48954</ele>
        <time>2023-04-14T12:27:17.000Z</time>
      </trkpt>
      <trkpt lat="45.85154" lon="4.70829">
        <ele>238.13947</ele>
        <time>2023-04-14T12:27:18.000Z</time>
      </trkpt>
      <trkpt lat="45.85149" lon="4.70826">
        <ele>238.73934</ele>
        <time>2023-04-14T12:27:19.000Z</time>
      </trkpt>
      <trkpt lat="45.85144" lon="4.70823">
        <ele>239.33681</ele>
        <time>2023-04-14T12:27:20.000Z</time>
      </trkpt>
      <trkpt lat="45.8514" lon="4.70821">
        <ele>239.93334</ele>
        <time>2023-04-14T12:27:21.000Z</time>
      </trkpt>
      <trkpt lat="45.85135" lon="4.70819">
        <ele>240.48546</ele>
        <time>2023-04-14T12:27:22.000Z</time>
      </trkpt>
      <trkpt lat="45.85131" lon="4.70817">
        <ele>241.154</ele>
        <time>2023-04-14T12:27:23.000Z</time>
      </trkpt>
      <trkpt lat="45.85126" lon="4.70817">
        <ele>241.77627</ele>
        <time>2023-04-14T12:27:24.000Z</time>
      </trkpt>
      <trkpt lat="45.85122" lon="4.70816">
        <ele>242.36435</ele>
        <time>2023-04-14T12:27:25.000Z</time>
      </trkpt>
      <trkpt lat="45.85118" lon="4.70815">
        <ele>242.99004</ele>
        <time>2023-04-14T12:27:26.000Z</time>
      </trkpt>
      <trkpt lat="45.85114" lon="4.70815">
        <ele>243.63505</ele>
        <time>2023-04-14T12:27:27.000Z</time>
      </trkpt>
      <trkpt lat="45.8511" lon="4.70815">
        <ele>244.23231</ele>
        <time>2023-04-14T12:27:28.000Z</time>
      </trkpt>
      <trkpt lat="45.85106" lon="4.70814">
        <ele>244.93742</ele>
        <time>2023-04-14T12:27:29.000Z</time>
      </trkpt>
      <trkpt lat="45.85102" lon="4.70813">
        <ele>245.75418</ele>
        <time>2023-04-14T12:27:30.000Z</time>
      </trkpt>
      <trkpt lat="45.85098" lon="4.70813">
        <ele>246.43623</ele>
        <time>2023-04-14T12:27:31.000Z</time>
      </trkpt>
      <trkpt lat="45.85095" lon="4.70813">
        <ele>247.14559</ele>
        <time>2023-04-14T12:27:32.000Z</time>
      </trkpt>
      <trkpt lat="45.85091" lon="4.70812">
        <ele>247.88244</ele>
        <time>2023-04-14T12:27:33.000Z</time>
      </trkpt>
      <trkpt lat="45.85087" lon="4.70811">
        <ele>248.67223</ele>
        <time>2023-04-14T12:27:34.000Z</time>
      </trkpt>
      <trkpt lat="45.85083" lon="4.7081">
        <ele>249.44383</ele>
        <time>2023-04-14T12:27:35.000Z</time>
      </trkpt>
      <trkpt lat="45.8508" lon="4.70809">
        <ele>250.19426</ele>
        <time>2023-04-14T12:27:36.000Z</time>
      </trkpt>
      <trkpt lat="45.85076" lon="4.70809">
        <ele>250.92587</ele>
        <time>2023-04-14T12:27:37.000Z</time>
      </trkpt>
      <trkpt lat="45.85072" lon="4.70808">
        <ele>251.66205</ele>
        <time>2023-04-14T12:27:38.000Z</time>
      </trkpt>
      <trkpt lat="45.85068" lon="4.70808">
        <ele>252.33653</ele>
        <time>2023-04-14T12:27:39.000Z</time>
      </trkpt>
      <trkpt lat="45.85064" lon="4.70808">
        <ele>252.93694</ele>
        <time>2023-04-14T12:27:40.000Z</time>
      </trkpt>
      <trkpt lat="45.8506" lon="4.70807">
        <ele>253.57187</ele>
        <time>2023-04-14T12:27:41.000Z</time>
      </trkpt>
      <trkpt lat="45.85057" lon="4.70806">
        <ele>254.11545</ele>
        <time>2023-04-14T12:27:42.000Z</time>
      </trkpt>
      <trkpt lat="45.85053" lon="4.70806">
        <ele>254.67187</ele>
        <time>2023-04-14T12:27:43.000Z</time>
      </trkpt>
      <trkpt lat="45.85049" lon="4.70805">
        <ele>255.22632</ele>
        <time>2023-04-14T12:27:44.000Z</time>
      </trkpt>
      <trkpt lat="45.85046" lon="4.70803">
        <ele>255.76406</ele>
        <time>2023-04-14T12:27:45.000Z</time>
      </trkpt>
      <trkpt lat="45.85043" lon="4.70802">
        <ele>256.21684</ele>
        <time>2023-04-14T12:27:46.000Z</time>
      </trkpt>
      <trkpt lat="45.8504" lon="4.70801">
        <ele>256.66266</ele>
        <time>2023-04-14T12:27:47.000Z</time>
      </trkpt>
      <trkpt lat="45.85036" lon="4.708">
        <ele>257.12242</ele>
        <time>2023-04-14T12:27:48.000Z</time>
      </trkpt>
      <trkpt lat="45.85033" lon="4.70798">
        <ele>257.60152</ele>
        <time>2023-04-14T12:27:49.000Z</time>
      </trkpt>
      <trkpt lat="45.85029" lon="4.70797">
        <ele>258.04127</ele>
        <time>2023-04-14T12:27:50.000Z</time>
      </trkpt>
      <trkpt lat="45.85026" lon="4.70796">
        <ele>258.43536</ele>
        <time>2023-04-14T12:27:51.000Z</time>
      </trkpt>
      <trkpt lat="45.85023" lon="4.70794">
        <ele>258.80287</ele>
        <time>2023-04-14T12:27:52.000Z</time>
      </trkpt>
      <trkpt lat="45.8502" lon="4.70792">
        <ele>259.17446</ele>
        <time>2023-04-14T12:27:53.000Z</time>
      </trkpt>
      <trkpt lat="45.85016" lon="4.70791">
        <ele>259.51631</ele>
        <time>2023-04-14T12:27:54.000Z</time>
      </trkpt>
      <trkpt lat="45.85013" lon="4.70789">
        <ele>259.85515</ele>
        <time>2023-04-14T12:27:55.000Z</time>
      </trkpt>
      <trkpt lat="45.8501" lon="4.70788">
        <ele>260.21952</ele>
        <time>2023-04-14T12:27:56.000Z</time>
      </trkpt>
      <trkpt lat="45.85006" lon="4.70787">
        <ele>260.55852</ele>
        <time>2023-04-14T12:27:57.000Z</time>
      </trkpt>
      <trkpt lat="45.85003" lon="4.70786">
        <ele>260.89674</ele>
        <time>2023-04-14T12:27:58.000Z</time>
      </trkpt>
      <trkpt lat="45.85" lon="4.70785">
        <ele>261.25843</ele>
        <time>2023-04-14T12:27:59.000Z</time>
      </trkpt>
      <trkpt lat="45.84996" lon="4.70783">
        <ele>261.64138</ele>
        <time>2023-04-14T12:28:00.000Z</time>
      </trkpt>
      <trkpt lat="45.84993" lon="4.70783">
        <ele>262.0032</ele>
        <time>2023-04-14T12:28:01.000Z</time>
      </trkpt>
      <trkpt lat="45.8499" lon="4.70782">
        <ele>262.40712</ele>
        <time>2023-04-14T12:28:02.000Z</time>
      </trkpt>
      <trkpt lat="45.84986" lon="4.70781">
        <ele>262.82152</ele>
        <time>2023-04-14T12:28:03.000Z</time>
      </trkpt>
      <trkpt lat="45.84983" lon="4.7078">
        <ele>263.20845</ele>
        <time>2023-04-14T12:28:04.000Z</time>
      </trkpt>
      <trkpt lat="45.8498" lon="4.7078">
        <ele>263.59639</ele>
        <time>2023-04-14T12:28:05.000Z</time>
      </trkpt>
      <trkpt lat="45.84976" lon="4.7078">
        <ele>264.01105</ele>
        <time>2023-04-14T12:28:06.000Z</time>
      </trkpt>
      <trkpt lat="45.84973" lon="4.70779">
        <ele>264.38995</ele>
        <time>2023-04-14T12:28:07.000Z</time>
      </trkpt>
      <trkpt lat="45.84971" lon="4.70779">
        <ele>264.72267</ele>
        <time>2023-04-14T12:28:08.000Z</time>
      </trkpt>
      <trkpt lat="45.84968" lon="4.70778">
        <ele>265.01281</ele>
        <time>2023-04-14T12:28:09.000Z</time>
      </trkpt>
      <trkpt lat="45.84965" lon="4.70777">
        <ele>265.38576</ele>
        <time>2023-04-14T12:28:10.000Z</time>
      </trkpt>
      <trkpt lat="45.84961" lon="4.70777">
        <ele>265.76503</ele>
        <time>2023-04-14T12:28:11.000Z</time>
      </trkpt>
      <trkpt lat="45.84959" lon="4.70776">
        <ele>266.08002</ele>
        <time>2023-04-14T12:28:12.000Z</time>
      </trkpt>
      <trkpt lat="45.84956" lon="4.70776">
        <ele>266.34813</ele>
        <time>2023-04-14T12:28:13.000Z</time>
      </trkpt>
      <trkpt lat="45.84953" lon="4.70775">
        <ele>266.6276</ele>
        <time>2023-04-14T12:28:14.000Z</time>
      </trkpt>
      <trkpt lat="45.8495" lon="4.70774">
        <ele>266.87307</ele>
        <time>2023-04-14T12:28:15.000Z</time>
      </trkpt>
      <trkpt lat="45.84947" lon="4.70773">
        <ele>267.12443</ele>
        <time>2023-04-14T12:28:16.000Z</time>
      </trkpt>
      <trkpt lat="45.84944" lon="4.70773">
        <ele>267.36277</ele>
        <time>2023-04-14T12:28:17.000Z</time>
      </trkpt>
      <trkpt lat="45.84941" lon="4.70772">
        <ele>267.57425</ele>
        <time>2023-04-14T12:28:18.000Z</time>
      </trkpt>
      <trkpt lat="45.84938" lon="4.70771">
        <ele>267.73175</ele>
        <time>2023-04-14T12:28:19.000Z</time>
      </trkpt>
      <trkpt lat="45.84936" lon="4.70769">
        <ele>267.87298</ele>
        <time>2023-04-14T12:28:20.000Z</time>
      </trkpt>
      <trkpt lat="45.84933" lon="4.70768">
        <ele>267.98764</ele>
        <time>2023-04-14T12:28:21.000Z</time>
      </trkpt>
      <trkpt lat="45.8493" lon="4.70767">
        <ele>268.12243</ele>
        <time>2023-04-14T12:28:22.000Z</time>
      </trkpt>
      <trkpt lat="45.84927" lon="4.70766">
        <ele>268.20108</ele>
        <time>2023-04-14T12:28:23.000Z</time>
      </trkpt>
      <trkpt lat="45.84923" lon="4.70764">
        <ele>268.24546</ele>
        <time>2023-04-14T12:28:24.000Z</time>
      </trkpt>
      <trkpt lat="45.8492" lon="4.70763">
        <ele>268.3061</ele>
        <time>2023-04-14T12:28:25.000Z</time>
      </trkpt>
      <trkpt lat="45.84916" lon="4.70762">
        <ele>268.36334</ele>
        <time>2023-04-14T12:28:26.000Z</time>
      </trkpt>
      <trkpt lat="45.84913" lon="4.70761">
        <ele>268.39384</ele>
        <time>2023-04-14T12:28:27.000Z</time>
      </trkpt>
      <trkpt lat="45.84911" lon="4.7076">
        <ele>268.42067</ele>
        <time>2023-04-14T12:28:28.000Z</time>
      </trkpt>
      <trkpt lat="45.84908" lon="4.70759">
        <ele>268.45108</ele>
        <time>2023-04-14T12:28:29.000Z</time>
      </trkpt>
      <trkpt lat="45.84905" lon="4.70758">
        <ele>268.47756</ele>
        <time>2023-04-14T12:28:30.000Z</time>
      </trkpt>
      <trkpt lat="45.84902" lon="4.70757">
        <ele>268.50254</ele>
        <time>2023-04-14T12:28:31.000Z</time>
      </trkpt>
      <trkpt lat="45.84899" lon="4.70755">
        <ele>268.50511</ele>
        <time>2023-04-14T12:28:32.000Z</time>
      </trkpt>
      <trkpt lat="45.84897" lon="4.70754">
        <ele>268.50777</ele>
        <time>2023-04-14T12:28:33.000Z</time>
      </trkpt>
      <trkpt lat="45.84894" lon="4.70753">
        <ele>268.50986</ele>
        <time>2023-04-14T12:28:34.000Z</time>
      </trkpt>
      <trkpt lat="45.84892" lon="4.70751">
        <ele>268.4939</ele>
        <time>2023-04-14T12:28:35.000Z</time>
      </trkpt>
      <trkpt lat="45.84889" lon="4.70749">
        <ele>268.45904</ele>
        <time>2023-04-14T12:28:36.000Z</time>
      </trkpt>
      <trkpt lat="45.84886" lon="4.70748">
        <ele>268.42249</ele>
        <time>2023-04-14T12:28:37.000Z</time>
      </trkpt>
      <trkpt lat="45.84883" lon="4.70746">
        <ele>268.38173</ele>
        <time>2023-04-14T12:28:38.000Z</time>
      </trkpt>
      <trkpt lat="45.8488" lon="4.70744">
        <ele>268.32572</ele>
        <time>2023-04-14T12:28:39.000Z</time>
      </trkpt>
      <trkpt lat="45.84878" lon="4.70741">
        <ele>268.26978</ele>
        <time>2023-04-14T12:28:40.000Z</time>
      </trkpt>
      <trkpt lat="45.84875" lon="4.70738">
        <ele>268.22431</ele>
        <time>2023-04-14T12:28:41.000Z</time>
      </trkpt>
      <trkpt lat="45.84872" lon="4.70734">
        <ele>268.18566</ele>
        <time>2023-04-14T12:28:42.000Z</time>
      </trkpt>
      <trkpt lat="45.8487" lon="4.70731">
        <ele>268.16662</ele>
        <time>2023-04-14T12:28:43.000Z</time>
      </trkpt>
      <trkpt lat="45.84867" lon="4.70727">
        <ele>268.1612</ele>
        <time>2023-04-14T12:28:44.000Z</time>
      </trkpt>
      <trkpt lat="45.84864" lon="4.70724">
        <ele>268.17059</ele>
        <time>2023-04-14T12:28:45.000Z</time>
      </trkpt>
      <trkpt lat="45.84861" lon="4.7072">
        <ele>268.21207</ele>
        <time>2023-04-14T12:28:46.000Z</time>
      </trkpt>
      <trkpt lat="45.84858" lon="4.70717">
        <ele>268.27847</ele>
        <time>2023-04-14T12:28:47.000Z</time>
      </trkpt>
      <trkpt lat="45.84855" lon="4.70713">
        <ele>268.38123</ele>
        <time>2023-04-14T12:28:48.000Z</time>
      </trkpt>
      <trkpt lat="45.84853" lon="4.70709">
        <ele>268.50326</ele>
        <time>2023-04-14T12:28:49.000Z</time>
      </trkpt>
      <trkpt lat="45.8485" lon="4.70705">
        <ele>268.63135</ele>
        <time>2023-04-14T12:28:50.000Z</time>
      </trkpt>
      <trkpt lat="45.84847" lon="4.70701">
        <ele>268.76113</ele>
        <time>2023-04-14T12:28:51.000Z</time>
      </trkpt>
      <trkpt lat="45.84845" lon="4.70697">
        <ele>268.89128</ele>
        <time>2023-04-14T12:28:52.000Z</time>
      </trkpt>
      <trkpt lat="45.84842" lon="4.70693">
        <ele>269.02999</ele>
        <time>2023-04-14T12:28:53.000Z</time>
      </trkpt>
      <trkpt lat="45.8484" lon="4.70689">
        <ele>269.14159</ele>
        <time>2023-04-14T12:28:54.000Z</time>
      </trkpt>
      <trkpt lat="45.84837" lon="4.70686">
        <ele>269.24793</ele>
        <time>2023-04-14T12:28:55.000Z</time>
      </trkpt>
      <trkpt lat="45.84834" lon="4.70682">
        <ele>269.39319</ele>
        <time>2023-04-14T12:28:56.000Z</time>
      </trkpt>
      <trkpt lat="45.84832" lon="4.70678">
        <ele>269.55084</ele>
        <time>2023-04-14T12:28:57.000Z</time>
      </trkpt>
      <trkpt lat="45.84829" lon="4.70674">
        <ele>269.7228</ele>
        <time>2023-04-14T12:28:58.000Z</time>
      </trkpt>
      <trkpt lat="45.84826" lon="4.70669">
        <ele>269.91073</ele>
        <time>2023-04-14T12:28:59.000Z</time>
      </trkpt>
      <trkpt lat="45.84824" lon="4.70665">
        <ele>270.09505</ele>
        <time>2023-04-14T12:29:00.000Z</time>
      </trkpt>
      <trkpt lat="45.84821" lon="4.70661">
        <ele>270.21838</ele>
        <time>2023-04-14T12:29:01.000Z</time>
      </trkpt>
      <trkpt lat="45.84819" lon="4.70657">
        <ele>270.2782</ele>
        <time>2023-04-14T12:29:02.000Z</time>
      </trkpt>
      <trkpt lat="45.84816" lon="4.70653">
        <ele>270.32511</ele>
        <time>2023-04-14T12:29:03.000Z</time>
      </trkpt>
      <trkpt lat="45.84813" lon="4.70649">
        <ele>270.4036</ele>
        <time>2023-04-14T12:29:04.000Z</time>
      </trkpt>
      <trkpt lat="45.84811" lon="4.70645">
        <ele>270.47053</ele>
        <time>2023-04-14T12:29:05.000Z</time>
      </trkpt>
      <trkpt lat="45.84809" lon="4.7064">
        <ele>270.54961</ele>
        <time>2023-04-14T12:29:06.000Z</time>
      </trkpt>
      <trkpt lat="45.84806" lon="4.70636">
        <ele>270.6607</ele>
        <time>2023-04-14T12:29:07.000Z</time>
      </trkpt>
      <trkpt lat="45.84803" lon="4.70631">
        <ele>270.8216</ele>
        <time>2023-04-14T12:29:08.000Z</time>
      </trkpt>
      <trkpt lat="45.848" lon="4.70626">
        <ele>271.03527</ele>
        <time>2023-04-14T12:29:09.000Z</time>
      </trkpt>
      <trkpt lat="45.84798" lon="4.70622">
        <ele>271.2302</ele>
        <time>2023-04-14T12:29:10.000Z</time>
      </trkpt>
      <trkpt lat="45.84795" lon="4.70617">
        <ele>271.40376</ele>
        <time>2023-04-14T12:29:11.000Z</time>
      </trkpt>
      <trkpt lat="45.84792" lon="4.70612">
        <ele>271.57644</ele>
        <time>2023-04-14T12:29:12.000Z</time>
      </trkpt>
      <trkpt lat="45.84789" lon="4.70608">
        <ele>271.68433</ele>
        <time>2023-04-14T12:29:13.000Z</time>
      </trkpt>
      <trkpt lat="45.84786" lon="4.70604">
        <ele>271.75079</ele>
        <time>2023-04-14T12:29:14.000Z</time>
      </trkpt>
      <trkpt lat="45.84783" lon="4.70599">
        <ele>271.81267</ele>
        <time>2023-04-14T12:29:15.000Z</time>
      </trkpt>
      <trkpt lat="45.84779" lon="4.70595">
        <ele>271.88429</ele>
        <time>2023-04-14T12:29:16.000Z</time>
      </trkpt>
      <trkpt lat="45.84776" lon="4.7059">
        <ele>271.97939</ele>
        <time>2023-04-14T12:29:17.000Z</time>
      </trkpt>
      <trkpt lat="45.84773" lon="4.70586">
        <ele>272.0562</ele>
        <time>2023-04-14T12:29:18.000Z</time>
      </trkpt>
      <trkpt lat="45.8477" lon="4.70582">
        <ele>272.14103</ele>
        <time>2023-04-14T12:29:19.000Z</time>
      </trkpt>
      <trkpt lat="45.84767" lon="4.70577">
        <ele>272.24832</ele>
        <time>2023-04-14T12:29:20.000Z</time>
      </trkpt>
      <trkpt lat="45.84764" lon="4.70572">
        <ele>272.33447</ele>
        <time>2023-04-14T12:29:21.000Z</time>
      </trkpt>
      <trkpt lat="45.84761" lon="4.70568">
        <ele>272.41669</ele>
        <time>2023-04-14T12:29:22.000Z</time>
      </trkpt>
      <trkpt lat="45.84758" lon="4.70564">
        <ele>272.49386</ele>
        <time>2023-04-14T12:29:23.000Z</time>
      </trkpt>
      <trkpt lat="45.84754" lon="4.70559">
        <ele>272.57203</ele>
        <time>2023-04-14T12:29:24.000Z</time>
      </trkpt>
      <trkpt lat="45.84751" lon="4.70555">
        <ele>272.64383</ele>
        <time>2023-04-14T12:29:25.000Z</time>
      </trkpt>
      <trkpt lat="45.84748" lon="4.70552">
        <ele>272.71623</ele>
        <time>2023-04-14T12:29:26.000Z</time>
      </trkpt>
      <trkpt lat="45.84744" lon="4.70547">
        <ele>272.80038</ele>
        <time>2023-04-14T12:29:27.000Z</time>
      </trkpt>
      <trkpt lat="45.84741" lon="4.70543">
        <ele>272.88107</ele>
        <time>2023-04-14T12:29:28.000Z</time>
      </trkpt>
      <trkpt lat="45.84738" lon="4.70539">
        <ele>272.95219</ele>
        <time>2023-04-14T12:29:29.000Z</time>
      </trkpt>
      <trkpt lat="45.84734" lon="4.70536">
        <ele>273.00996</ele>
        <time>2023-04-14T12:29:30.000Z</time>
      </trkpt>
      <trkpt lat="45.84731" lon="4.70533">
        <ele>273.06598</ele>
        <time>2023-04-14T12:29:31.000Z</time>
      </trkpt>
      <trkpt lat="45.84728" lon="4.70528">
        <ele>273.13296</ele>
        <time>2023-04-14T12:29:32.000Z</time>
      </trkpt>
      <trkpt lat="45.84725" lon="4.70524">
        <ele>273.19988</ele>
        <time>2023-04-14T12:29:33.000Z</time>
      </trkpt>
      <trkpt lat="45.84722" lon="4.70519">
        <ele>273.27003</ele>
        <time>2023-04-14T12:29:34.000Z</time>
      </trkpt>
      <trkpt lat="45.84718" lon="4.70514">
        <ele>273.3431</ele>
        <time>2023-04-14T12:29:35.000Z</time>
      </trkpt>
      <trkpt lat="45.84715" lon="4.70511">
        <ele>273.40224</ele>
        <time>2023-04-14T12:29:36.000Z</time>
      </trkpt>
      <trkpt lat="45.84712" lon="4.70506">
        <ele>273.48297</ele>
        <time>2023-04-14T12:29:37.000Z</time>
      </trkpt>
      <trkpt lat="45.84709" lon="4.70501">
        <ele>273.55728</ele>
        <time>2023-04-14T12:29:38.000Z</time>
      </trkpt>
      <trkpt lat="45.84706" lon="4.70497">
        <ele>273.60611</ele>
        <time>2023-04-14T12:29:39.000Z</time>
      </trkpt>
      <trkpt lat="45.84702" lon="4.70492">
        <ele>273.64046</ele>
        <time>2023-04-14T12:29:40.000Z</time>
      </trkpt>
      <trkpt lat="45.84698" lon="4.70489">
        <ele>273.66115</ele>
        <time>2023-04-14T12:29:41.000Z</time>
      </trkpt>
      <trkpt lat="45.84694" lon="4.70486">
        <ele>273.66686</ele>
        <time>2023-04-14T12:29:42.000Z</time>
      </trkpt>
      <trkpt lat="45.8469" lon="4.70483">
        <ele>273.67233</ele>
        <time>2023-04-14T12:29:43.000Z</time>
      </trkpt>
      <trkpt lat="45.84685" lon="4.70482">
        <ele>273.67322</ele>
        <time>2023-04-14T12:29:44.000Z</time>
      </trkpt>
      <trkpt lat="45.84681" lon="4.7048">
        <ele>273.65945</ele>
        <time>2023-04-14T12:29:45.000Z</time>
      </trkpt>
      <trkpt lat="45.84676" lon="4.70479">
        <ele>273.64916</ele>
        <time>2023-04-14T12:29:46.000Z</time>
      </trkpt>
      <trkpt lat="45.84672" lon="4.70479">
        <ele>273.63515</ele>
        <time>2023-04-14T12:29:47.000Z</time>
      </trkpt>
      <trkpt lat="45.84668" lon="4.70478">
        <ele>273.6448</ele>
        <time>2023-04-14T12:29:48.000Z</time>
      </trkpt>
      <trkpt lat="45.84664" lon="4.70478">
        <ele>273.68629</ele>
        <time>2023-04-14T12:29:49.000Z</time>
      </trkpt>
      <trkpt lat="45.84659" lon="4.70478">
        <ele>273.75956</ele>
        <time>2023-04-14T12:29:50.000Z</time>
      </trkpt>
      <trkpt lat="45.84655" lon="4.70477">
        <ele>273.85449</ele>
        <time>2023-04-14T12:29:51.000Z</time>
      </trkpt>
      <trkpt lat="45.84651" lon="4.70477">
        <ele>273.95717</ele>
        <time>2023-04-14T12:29:52.000Z</time>
      </trkpt>
      <trkpt lat="45.84646" lon="4.70477">
        <ele>274.06247</ele>
        <time>2023-04-14T12:29:53.000Z</time>
      </trkpt>
      <trkpt lat="45.84642" lon="4.70478">
        <ele>274.17338</ele>
        <time>2023-04-14T12:29:54.000Z</time>
      </trkpt>
      <trkpt lat="45.84637" lon="4.70479">
        <ele>274.32125</ele>
        <time>2023-04-14T12:29:55.000Z</time>
      </trkpt>
      <trkpt lat="45.84633" lon="4.7048">
        <ele>274.48152</ele>
        <time>2023-04-14T12:29:56.000Z</time>
      </trkpt>
      <trkpt lat="45.84629" lon="4.70479">
        <ele>274.63177</ele>
        <time>2023-04-14T12:29:57.000Z</time>
      </trkpt>
      <trkpt lat="45.84625" lon="4.70479">
        <ele>274.76447</ele>
        <time>2023-04-14T12:29:58.000Z</time>
      </trkpt>
      <trkpt lat="45.8462" lon="4.70479">
        <ele>274.83704</ele>
        <time>2023-04-14T12:29:59.000Z</time>
      </trkpt>
      <trkpt lat="45.84616" lon="4.70481">
        <ele>274.83587</ele>
        <time>2023-04-14T12:30:00.000Z</time>
      </trkpt>
      <trkpt lat="45.84611" lon="4.70481">
        <ele>274.79899</ele>
        <time>2023-04-14T12:30:01.000Z</time>
      </trkpt>
      <trkpt lat="45.84607" lon="4.70481">
        <ele>274.75266</ele>
        <time>2023-04-14T12:30:02.000Z</time>
      </trkpt>
      <trkpt lat="45.84602" lon="4.7048">
        <ele>274.7042</ele>
        <time>2023-04-14T12:30:03.000Z</time>
      </trkpt>
      <trkpt lat="45.84597" lon="4.7048">
        <ele>274.68007</ele>
        <time>2023-04-14T12:30:04.000Z</time>
      </trkpt>
      <trkpt lat="45.84593" lon="4.70479">
        <ele>274.67121</ele>
        <time>2023-04-14T12:30:05.000Z</time>
      </trkpt>
      <trkpt lat="45.84588" lon="4.70478">
        <ele>274.65514</ele>
        <time>2023-04-14T12:30:06.000Z</time>
      </trkpt>
      <trkpt lat="45.84583" lon="4.70479">
        <ele>274.61151</ele>
        <time>2023-04-14T12:30:07.000Z</time>
      </trkpt>
      <trkpt lat="45.84579" lon="4.70478">
        <ele>274.54795</ele>
        <time>2023-04-14T12:30:08.000Z</time>
      </trkpt>
      <trkpt lat="45.84574" lon="4.70476">
        <ele>274.46411</ele>
        <time>2023-04-14T12:30:09.000Z</time>
      </trkpt>
      <trkpt lat="45.8457" lon="4.70475">
        <ele>274.36156</ele>
        <time>2023-04-14T12:30:10.000Z</time>
      </trkpt>
      <trkpt lat="45.84566" lon="4.70474">
        <ele>274.25639</ele>
        <time>2023-04-14T12:30:11.000Z</time>
      </trkpt>
      <trkpt lat="45.84561" lon="4.70473">
        <ele>274.12113</ele>
        <time>2023-04-14T12:30:12.000Z</time>
      </trkpt>
      <trkpt lat="45.84557" lon="4.70472">
        <ele>274.00782</ele>
        <time>2023-04-14T12:30:13.000Z</time>
      </trkpt>
      <trkpt lat="45.84553" lon="4.70471">
        <ele>273.885</ele>
        <time>2023-04-14T12:30:14.000Z</time>
      </trkpt>
      <trkpt lat="45.84549" lon="4.70471">
        <ele>273.67332</ele>
        <time>2023-04-14T12:30:15.000Z</time>
      </trkpt>
      <trkpt lat="45.84545" lon="4.70471">
        <ele>273.48364</ele>
        <time>2023-04-14T12:30:16.000Z</time>
      </trkpt>
      <trkpt lat="45.8454" lon="4.70471">
        <ele>273.24462</ele>
        <time>2023-04-14T12:30:17.000Z</time>
      </trkpt>
      <trkpt lat="45.84536" lon="4.7047">
        <ele>273.06804</ele>
        <time>2023-04-14T12:30:18.000Z</time>
      </trkpt>
      <trkpt lat="45.84532" lon="4.7047">
        <ele>272.93899</ele>
        <time>2023-04-14T12:30:19.000Z</time>
      </trkpt>
      <trkpt lat="45.84527" lon="4.70469">
        <ele>272.83386</ele>
        <time>2023-04-14T12:30:20.000Z</time>
      </trkpt>
      <trkpt lat="45.84523" lon="4.70469">
        <ele>272.73465</ele>
        <time>2023-04-14T12:30:21.000Z</time>
      </trkpt>
      <trkpt lat="45.84519" lon="4.70468">
        <ele>272.65803</ele>
        <time>2023-04-14T12:30:22.000Z</time>
      </trkpt>
      <trkpt lat="45.84514" lon="4.70467">
        <ele>272.64662</ele>
        <time>2023-04-14T12:30:23.000Z</time>
      </trkpt>
      <trkpt lat="45.84509" lon="4.70466">
        <ele>272.70054</ele>
        <time>2023-04-14T12:30:24.000Z</time>
      </trkpt>
      <trkpt lat="45.84505" lon="4.70464">
        <ele>272.82267</ele>
        <time>2023-04-14T12:30:25.000Z</time>
      </trkpt>
      <trkpt lat="45.84501" lon="4.70463">
        <ele>273.00938</ele>
        <time>2023-04-14T12:30:26.000Z</time>
      </trkpt>
      <trkpt lat="45.84497" lon="4.70462">
        <ele>273.07149</ele>
        <time>2023-04-14T12:30:27.000Z</time>
      </trkpt>
      <trkpt lat="45.84492" lon="4.70462">
        <ele>273.19662</ele>
        <time>2023-04-14T12:30:28.000Z</time>
      </trkpt>
      <trkpt lat="45.84488" lon="4.7046">
        <ele>273.39581</ele>
        <time>2023-04-14T12:30:29.000Z</time>
      </trkpt>
      <trkpt lat="45.84483" lon="4.70459">
        <ele>273.58914</ele>
        <time>2023-04-14T12:30:30.000Z</time>
      </trkpt>
      <trkpt lat="45.84478" lon="4.70458">
        <ele>273.79362</ele>
        <time>2023-04-14T12:30:31.000Z</time>
      </trkpt>
      <trkpt lat="45.84473" lon="4.70457">
        <ele>273.97014</ele>
        <time>2023-04-14T12:30:32.000Z</time>
      </trkpt>
      <trkpt lat="45.84468" lon="4.70455">
        <ele>274.21052</ele>
        <time>2023-04-14T12:30:33.000Z</time>
      </trkpt>
      <trkpt lat="45.84463" lon="4.70453">
        <ele>274.48161</ele>
        <time>2023-04-14T12:30:34.000Z</time>
      </trkpt>
      <trkpt lat="45.84458" lon="4.70451">
        <ele>274.70991</ele>
        <time>2023-04-14T12:30:35.000Z</time>
      </trkpt>
      <trkpt lat="45.84454" lon="4.7045">
        <ele>274.87381</ele>
        <time>2023-04-14T12:30:36.000Z</time>
      </trkpt>
      <trkpt lat="45.8445" lon="4.70449">
        <ele>275.03777</ele>
        <time>2023-04-14T12:30:37.000Z</time>
      </trkpt>
      <trkpt lat="45.84446" lon="4.70447">
        <ele>275.22345</ele>
        <time>2023-04-14T12:30:38.000Z</time>
      </trkpt>
      <trkpt lat="45.84441" lon="4.70446">
        <ele>275.34483</ele>
        <time>2023-04-14T12:30:39.000Z</time>
      </trkpt>
      <trkpt lat="45.84438" lon="4.70446">
        <ele>275.47465</ele>
        <time>2023-04-14T12:30:40.000Z</time>
      </trkpt>
      <trkpt lat="45.84434" lon="4.70445">
        <ele>275.60398</ele>
        <time>2023-04-14T12:30:41.000Z</time>
      </trkpt>
      <trkpt lat="45.8443" lon="4.70444">
        <ele>275.69824</ele>
        <time>2023-04-14T12:30:42.000Z</time>
      </trkpt>
      <trkpt lat="45.84425" lon="4.70444">
        <ele>275.81453</ele>
        <time>2023-04-14T12:30:43.000Z</time>
      </trkpt>
      <trkpt lat="45.84421" lon="4.70444">
        <ele>275.98788</ele>
        <time>2023-04-14T12:30:44.000Z</time>
      </trkpt>
      <trkpt lat="45.84416" lon="4.70443">
        <ele>276.19735</ele>
        <time>2023-04-14T12:30:45.000Z</time>
      </trkpt>
      <trkpt lat="45.84412" lon="4.70443">
        <ele>276.42472</ele>
        <time>2023-04-14T12:30:46.000Z</time>
      </trkpt>
      <trkpt lat="45.84408" lon="4.70442">
        <ele>276.69429</ele>
        <time>2023-04-14T12:30:47.000Z</time>
      </trkpt>
      <trkpt lat="45.84404" lon="4.70441">
        <ele>277.05599</ele>
        <time>2023-04-14T12:30:48.000Z</time>
      </trkpt>
      <trkpt lat="45.844" lon="4.70439">
        <ele>277.44342</ele>
        <time>2023-04-14T12:30:49.000Z</time>
      </trkpt>
      <trkpt lat="45.84396" lon="4.70438">
        <ele>277.78613</ele>
        <time>2023-04-14T12:30:50.000Z</time>
      </trkpt>
      <trkpt lat="45.84392" lon="4.70437">
        <ele>278.16432</ele>
        <time>2023-04-14T12:30:51.000Z</time>
      </trkpt>
      <trkpt lat="45.84388" lon="4.70436">
        <ele>278.62664</ele>
        <time>2023-04-14T12:30:52.000Z</time>
      </trkpt>
      <trkpt lat="45.84384" lon="4.70434">
        <ele>279.02944</ele>
        <time>2023-04-14T12:30:53.000Z</time>
      </trkpt>
      <trkpt lat="45.84381" lon="4.70433">
        <ele>279.35159</ele>
        <time>2023-04-14T12:30:54.000Z</time>
      </trkpt>
      <trkpt lat="45.84378" lon="4.70432">
        <ele>279.6331</ele>
        <time>2023-04-14T12:30:55.000Z</time>
      </trkpt>
      <trkpt lat="45.84375" lon="4.70431">
        <ele>279.86131</ele>
        <time>2023-04-14T12:30:56.000Z</time>
      </trkpt>
      <trkpt lat="45.84372" lon="4.70431">
        <ele>280.04921</ele>
        <time>2023-04-14T12:30:57.000Z</time>
      </trkpt>
      <trkpt lat="45.84368" lon="4.70431">
        <ele>280.24581</ele>
        <time>2023-04-14T12:30:58.000Z</time>
      </trkpt>
      <trkpt lat="45.84365" lon="4.7043">
        <ele>280.45753</ele>
        <time>2023-04-14T12:30:59.000Z</time>
      </trkpt>
      <trkpt lat="45.84361" lon="4.70429">
        <ele>280.65968</ele>
        <time>2023-04-14T12:31:00.000Z</time>
      </trkpt>
      <trkpt lat="45.84358" lon="4.70427">
        <ele>280.87848</ele>
        <time>2023-04-14T12:31:01.000Z</time>
      </trkpt>
      <trkpt lat="45.84354" lon="4.70424">
        <ele>281.13399</ele>
        <time>2023-04-14T12:31:02.000Z</time>
      </trkpt>
      <trkpt lat="45.84351" lon="4.70423">
        <ele>281.29022</ele>
        <time>2023-04-14T12:31:03.000Z</time>
      </trkpt>
      <trkpt lat="45.84348" lon="4.70421">
        <ele>281.41973</ele>
        <time>2023-04-14T12:31:04.000Z</time>
      </trkpt>
      <trkpt lat="45.84345" lon="4.70419">
        <ele>281.56932</ele>
        <time>2023-04-14T12:31:05.000Z</time>
      </trkpt>
      <trkpt lat="45.84341" lon="4.70416">
        <ele>281.71729</ele>
        <time>2023-04-14T12:31:06.000Z</time>
      </trkpt>
      <trkpt lat="45.84338" lon="4.70414">
        <ele>281.83755</ele>
        <time>2023-04-14T12:31:07.000Z</time>
      </trkpt>
      <trkpt lat="45.84335" lon="4.70412">
        <ele>281.92083</ele>
        <time>2023-04-14T12:31:08.000Z</time>
      </trkpt>
      <trkpt lat="45.84331" lon="4.7041">
        <ele>282.01759</ele>
        <time>2023-04-14T12:31:09.000Z</time>
      </trkpt>
      <trkpt lat="45.84328" lon="4.70408">
        <ele>282.11697</ele>
        <time>2023-04-14T12:31:10.000Z</time>
      </trkpt>
      <trkpt lat="45.84324" lon="4.70406">
        <ele>282.1971</ele>
        <time>2023-04-14T12:31:11.000Z</time>
      </trkpt>
      <trkpt lat="45.84321" lon="4.70404">
        <ele>282.30252</ele>
        <time>2023-04-14T12:31:12.000Z</time>
      </trkpt>
      <trkpt lat="45.84317" lon="4.70401">
        <ele>282.41964</ele>
        <time>2023-04-14T12:31:13.000Z</time>
      </trkpt>
      <trkpt lat="45.84314" lon="4.70397">
        <ele>282.52427</ele>
        <time>2023-04-14T12:31:14.000Z</time>
      </trkpt>
      <trkpt lat="45.84311" lon="4.70395">
        <ele>282.59756</ele>
        <time>2023-04-14T12:31:15.000Z</time>
      </trkpt>
      <trkpt lat="45.84307" lon="4.70393">
        <ele>282.65565</ele>
        <time>2023-04-14T12:31:16.000Z</time>
      </trkpt>
      <trkpt lat="45.84304" lon="4.7039">
        <ele>282.71961</ele>
        <time>2023-04-14T12:31:17.000Z</time>
      </trkpt>
      <trkpt lat="45.84301" lon="4.70387">
        <ele>282.77193</ele>
        <time>2023-04-14T12:31:18.000Z</time>
      </trkpt>
      <trkpt lat="45.84298" lon="4.70385">
        <ele>282.82039</ele>
        <time>2023-04-14T12:31:19.000Z</time>
      </trkpt>
      <trkpt lat="45.84294" lon="4.70382">
        <ele>282.86754</ele>
        <time>2023-04-14T12:31:20.000Z</time>
      </trkpt>
      <trkpt lat="45.84291" lon="4.70379">
        <ele>282.91257</ele>
        <time>2023-04-14T12:31:21.000Z</time>
      </trkpt>
      <trkpt lat="45.84287" lon="4.70376">
        <ele>282.95175</ele>
        <time>2023-04-14T12:31:22.000Z</time>
      </trkpt>
      <trkpt lat="45.84283" lon="4.70374">
        <ele>282.98052</ele>
        <time>2023-04-14T12:31:23.000Z</time>
      </trkpt>
      <trkpt lat="45.8428" lon="4.70372">
        <ele>283.0049</ele>
        <time>2023-04-14T12:31:24.000Z</time>
      </trkpt>
      <trkpt lat="45.84277" lon="4.70369">
        <ele>283.03456</ele>
        <time>2023-04-14T12:31:25.000Z</time>
      </trkpt>
      <trkpt lat="45.84273" lon="4.70367">
        <ele>283.08402</ele>
        <time>2023-04-14T12:31:26.000Z</time>
      </trkpt>
      <trkpt lat="45.8427" lon="4.70364">
        <ele>283.14318</ele>
        <time>2023-04-14T12:31:27.000Z</time>
      </trkpt>
      <trkpt lat="45.84267" lon="4.70362">
        <ele>283.20528</ele>
        <time>2023-04-14T12:31:28.000Z</time>
      </trkpt>
      <trkpt lat="45.84264" lon="4.70359">
        <ele>283.27871</ele>
        <time>2023-04-14T12:31:29.000Z</time>
      </trkpt>
      <trkpt lat="45.8426" lon="4.70357">
        <ele>283.36579</ele>
        <time>2023-04-14T12:31:30.000Z</time>
      </trkpt>
      <trkpt lat="45.84257" lon="4.70355">
        <ele>283.44683</ele>
        <time>2023-04-14T12:31:31.000Z</time>
      </trkpt>
      <trkpt lat="45.84254" lon="4.70353">
        <ele>283.51801</ele>
        <time>2023-04-14T12:31:32.000Z</time>
      </trkpt>
      <trkpt lat="45.84251" lon="4.70351">
        <ele>283.58443</ele>
        <time>2023-04-14T12:31:33.000Z</time>
      </trkpt>
      <trkpt lat="45.84247" lon="4.70348">
        <ele>283.64768</ele>
        <time>2023-04-14T12:31:34.000Z</time>
      </trkpt>
      <trkpt lat="45.84244" lon="4.70346">
        <ele>283.70481</ele>
        <time>2023-04-14T12:31:35.000Z</time>
      </trkpt>
      <trkpt lat="45.8424" lon="4.70344">
        <ele>283.74357</ele>
        <time>2023-04-14T12:31:36.000Z</time>
      </trkpt>
      <trkpt lat="45.84236" lon="4.70341">
        <ele>283.75867</ele>
        <time>2023-04-14T12:31:37.000Z</time>
      </trkpt>
      <trkpt lat="45.84232" lon="4.7034">
        <ele>283.75536</ele>
        <time>2023-04-14T12:31:38.000Z</time>
      </trkpt>
      <trkpt lat="45.84228" lon="4.70338">
        <ele>283.73999</ele>
        <time>2023-04-14T12:31:39.000Z</time>
      </trkpt>
      <trkpt lat="45.84223" lon="4.70336">
        <ele>283.72217</ele>
        <time>2023-04-14T12:31:40.000Z</time>
      </trkpt>
      <trkpt lat="45.84219" lon="4.70335">
        <ele>283.71511</ele>
        <time>2023-04-14T12:31:41.000Z</time>
      </trkpt>
      <trkpt lat="45.84215" lon="4.70333">
        <ele>283.71778</ele>
        <time>2023-04-14T12:31:42.000Z</time>
      </trkpt>
      <trkpt lat="45.8421" lon="4.70332">
        <ele>283.73067</ele>
        <time>2023-04-14T12:31:43.000Z</time>
      </trkpt>
      <trkpt lat="45.84205" lon="4.70331">
        <ele>283.743</ele>
        <time>2023-04-14T12:31:44.000Z</time>
      </trkpt>
      <trkpt lat="45.84201" lon="4.7033">
        <ele>283.7653</ele>
        <time>2023-04-14T12:31:45.000Z</time>
      </trkpt>
      <trkpt lat="45.84197" lon="4.70328">
        <ele>283.80443</ele>
        <time>2023-04-14T12:31:46.000Z</time>
      </trkpt>
      <trkpt lat="45.84192" lon="4.70327">
        <ele>283.8326</ele>
        <time>2023-04-14T12:31:47.000Z</time>
      </trkpt>
      <trkpt lat="45.84188" lon="4.70326">
        <ele>283.85921</ele>
        <time>2023-04-14T12:31:48.000Z</time>
      </trkpt>
      <trkpt lat="45.84184" lon="4.70325">
        <ele>283.88756</ele>
        <time>2023-04-14T12:31:49.000Z</time>
      </trkpt>
      <trkpt lat="45.8418" lon="4.70325">
        <ele>283.91885</ele>
        <time>2023-04-14T12:31:50.000Z</time>
      </trkpt>
      <trkpt lat="45.84176" lon="4.70324">
        <ele>283.95682</ele>
        <time>2023-04-14T12:31:51.000Z</time>
      </trkpt>
      <trkpt lat="45.84172" lon="4.70324">
        <ele>283.99802</ele>
        <time>2023-04-14T12:31:52.000Z</time>
      </trkpt>
      <trkpt lat="45.84168" lon="4.70324">
        <ele>284.04506</ele>
        <time>2023-04-14T12:31:53.000Z</time>
      </trkpt>
      <trkpt lat="45.84164" lon="4.70325">
        <ele>284.09504</ele>
        <time>2023-04-14T12:31:54.000Z</time>
      </trkpt>
      <trkpt lat="45.84159" lon="4.70327">
        <ele>284.1384</ele>
        <time>2023-04-14T12:31:55.000Z</time>
      </trkpt>
      <trkpt lat="45.84155" lon="4.70329">
        <ele>284.18827</ele>
        <time>2023-04-14T12:31:56.000Z</time>
      </trkpt>
      <trkpt lat="45.8415" lon="4.70332">
        <ele>284.25802</ele>
        <time>2023-04-14T12:31:57.000Z</time>
      </trkpt>
      <trkpt lat="45.84146" lon="4.70334">
        <ele>284.3628</ele>
        <time>2023-04-14T12:31:58.000Z</time>
      </trkpt>
      <trkpt lat="45.84142" lon="4.70336">
        <ele>284.51325</ele>
        <time>2023-04-14T12:31:59.000Z</time>
      </trkpt>
      <trkpt lat="45.84137" lon="4.7034">
        <ele>284.65181</ele>
        <time>2023-04-14T12:32:00.000Z</time>
      </trkpt>
      <trkpt lat="45.84134" lon="4.70344">
        <ele>284.72029</ele>
        <time>2023-04-14T12:32:01.000Z</time>
      </trkpt>
      <trkpt lat="45.8413" lon="4.70347">
        <ele>284.75104</ele>
        <time>2023-04-14T12:32:02.000Z</time>
      </trkpt>
      <trkpt lat="45.84126" lon="4.7035">
        <ele>284.70337</ele>
        <time>2023-04-14T12:32:03.000Z</time>
      </trkpt>
      <trkpt lat="45.84122" lon="4.70353">
        <ele>284.65296</ele>
        <time>2023-04-14T12:32:04.000Z</time>
      </trkpt>
      <trkpt lat="45.84118" lon="4.70355">
        <ele>284.61628</ele>
        <time>2023-04-14T12:32:05.000Z</time>
      </trkpt>
      <trkpt lat="45.84114" lon="4.70357">
        <ele>284.59324</ele>
        <time>2023-04-14T12:32:06.000Z</time>
      </trkpt>
      <trkpt lat="45.84109" lon="4.70359">
        <ele>284.60506</ele>
        <time>2023-04-14T12:32:07.000Z</time>
      </trkpt>
      <trkpt lat="45.84105" lon="4.70362">
        <ele>284.65313</ele>
        <time>2023-04-14T12:32:08.000Z</time>
      </trkpt>
      <trkpt lat="45.84101" lon="4.70364">
        <ele>284.73373</ele>
        <time>2023-04-14T12:32:09.000Z</time>
      </trkpt>
      <trkpt lat="45.84097" lon="4.70367">
        <ele>284.83049</ele>
        <time>2023-04-14T12:32:10.000Z</time>
      </trkpt>
      <trkpt lat="45.84093" lon="4.7037">
        <ele>284.94355</ele>
        <time>2023-04-14T12:32:11.000Z</time>
      </trkpt>
      <trkpt lat="45.84089" lon="4.70372">
        <ele>285.04502</ele>
        <time>2023-04-14T12:32:12.000Z</time>
      </trkpt>
      <trkpt lat="45.84085" lon="4.70374">
        <ele>285.12522</ele>
        <time>2023-04-14T12:32:13.000Z</time>
      </trkpt>
      <trkpt lat="45.84082" lon="4.70377">
        <ele>285.17115</ele>
        <time>2023-04-14T12:32:14.000Z</time>
      </trkpt>
      <trkpt lat="45.84078" lon="4.7038">
        <ele>285.18266</ele>
        <time>2023-04-14T12:32:15.000Z</time>
      </trkpt>
      <trkpt lat="45.84074" lon="4.70382">
        <ele>285.18416</ele>
        <time>2023-04-14T12:32:16.000Z</time>
      </trkpt>
      <trkpt lat="45.8407" lon="4.70384">
        <ele>285.1895</ele>
        <time>2023-04-14T12:32:17.000Z</time>
      </trkpt>
      <trkpt lat="45.84067" lon="4.70386">
        <ele>285.21339</ele>
        <time>2023-04-14T12:32:18.000Z</time>
      </trkpt>
      <trkpt lat="45.84063" lon="4.70388">
        <ele>285.26573</ele>
        <time>2023-04-14T12:32:19.000Z</time>
      </trkpt>
      <trkpt lat="45.84059" lon="4.7039">
        <ele>285.35281</ele>
        <time>2023-04-14T12:32:20.000Z</time>
      </trkpt>
      <trkpt lat="45.84055" lon="4.70392">
        <ele>285.46541</ele>
        <time>2023-04-14T12:32:21.000Z</time>
      </trkpt>
      <trkpt lat="45.84051" lon="4.70395">
        <ele>285.58916</ele>
        <time>2023-04-14T12:32:22.000Z</time>
      </trkpt>
      <trkpt lat="45.84047" lon="4.70397">
        <ele>285.71787</ele>
        <time>2023-04-14T12:32:23.000Z</time>
      </trkpt>
      <trkpt lat="45.84043" lon="4.70399">
        <ele>285.83577</ele>
        <time>2023-04-14T12:32:24.000Z</time>
      </trkpt>
      <trkpt lat="45.84039" lon="4.70401">
        <ele>285.94546</ele>
        <time>2023-04-14T12:32:25.000Z</time>
      </trkpt>
      <trkpt lat="45.84035" lon="4.70403">
        <ele>286.04281</ele>
        <time>2023-04-14T12:32:26.000Z</time>
      </trkpt>
      <trkpt lat="45.84031" lon="4.70405">
        <ele>286.12756</ele>
        <time>2023-04-14T12:32:27.000Z</time>
      </trkpt>
      <trkpt lat="45.84027" lon="4.70407">
        <ele>286.21227</ele>
        <time>2023-04-14T12:32:28.000Z</time>
      </trkpt>
      <trkpt lat="45.84024" lon="4.70409">
        <ele>286.29937</ele>
        <time>2023-04-14T12:32:29.000Z</time>
      </trkpt>
      <trkpt lat="45.8402" lon="4.70411">
        <ele>286.39329</ele>
        <time>2023-04-14T12:32:30.000Z</time>
      </trkpt>
      <trkpt lat="45.84016" lon="4.70413">
        <ele>286.48786</ele>
        <time>2023-04-14T12:32:31.000Z</time>
      </trkpt>
      <trkpt lat="45.84012" lon="4.70414">
        <ele>286.59064</ele>
        <time>2023-04-14T12:32:32.000Z</time>
      </trkpt>
      <trkpt lat="45.84008" lon="4.70415">
        <ele>286.68579</ele>
        <time>2023-04-14T12:32:33.000Z</time>
      </trkpt>
      <trkpt lat="45.84004" lon="4.70417">
        <ele>286.77055</ele>
        <time>2023-04-14T12:32:34.000Z</time>
      </trkpt>
      <trkpt lat="45.84" lon="4.70418">
        <ele>286.84288</ele>
        <time>2023-04-14T12:32:35.000Z</time>
      </trkpt>
      <trkpt lat="45.83996" lon="4.7042">
        <ele>286.89498</ele>
        <time>2023-04-14T12:32:36.000Z</time>
      </trkpt>
      <trkpt lat="45.83992" lon="4.70421">
        <ele>286.92257</ele>
        <time>2023-04-14T12:32:37.000Z</time>
      </trkpt>
      <trkpt lat="45.83988" lon="4.70423">
        <ele>286.90866</ele>
        <time>2023-04-14T12:32:38.000Z</time>
      </trkpt>
      <trkpt lat="45.83984" lon="4.70425">
        <ele>286.86255</ele>
        <time>2023-04-14T12:32:39.000Z</time>
      </trkpt>
      <trkpt lat="45.8398" lon="4.70426">
        <ele>286.80052</ele>
        <time>2023-04-14T12:32:40.000Z</time>
      </trkpt>
      <trkpt lat="45.83976" lon="4.70428">
        <ele>286.73421</ele>
        <time>2023-04-14T12:32:41.000Z</time>
      </trkpt>
      <trkpt lat="45.83972" lon="4.7043">
        <ele>286.69355</ele>
        <time>2023-04-14T12:32:42.000Z</time>
      </trkpt>
      <trkpt lat="45.83969" lon="4.70432">
        <ele>286.68989</ele>
        <time>2023-04-14T12:32:43.000Z</time>
      </trkpt>
      <trkpt lat="45.83965" lon="4.70435">
        <ele>286.73781</ele>
        <time>2023-04-14T12:32:44.000Z</time>
      </trkpt>
      <trkpt lat="45.83961" lon="4.70437">
        <ele>286.80929</ele>
        <time>2023-04-14T12:32:45.000Z</time>
      </trkpt>
      <trkpt lat="45.83957" lon="4.7044">
        <ele>286.87998</ele>
        <time>2023-04-14T12:32:46.000Z</time>
      </trkpt>
      <trkpt lat="45.83954" lon="4.70443">
        <ele>286.9414</ele>
        <time>2023-04-14T12:32:47.000Z</time>
      </trkpt>
      <trkpt lat="45.8395" lon="4.70446">
        <ele>286.97974</ele>
        <time>2023-04-14T12:32:48.000Z</time>
      </trkpt>
      <trkpt lat="45.83947" lon="4.70449">
        <ele>286.99987</ele>
        <time>2023-04-14T12:32:49.000Z</time>
      </trkpt>
      <trkpt lat="45.83944" lon="4.70452">
        <ele>286.99107</ele>
        <time>2023-04-14T12:32:50.000Z</time>
      </trkpt>
      <trkpt lat="45.83941" lon="4.70454">
        <ele>286.95621</ele>
        <time>2023-04-14T12:32:51.000Z</time>
      </trkpt>
      <trkpt lat="45.83939" lon="4.70455">
        <ele>286.93102</ele>
        <time>2023-04-14T12:32:52.000Z</time>
      </trkpt>
      <trkpt lat="45.83936" lon="4.70456">
        <ele>286.89398</ele>
        <time>2023-04-14T12:32:54.000Z</time>
      </trkpt>
      <trkpt lat="45.83935" lon="4.70459">
        <ele>286.9319</ele>
        <time>2023-04-14T12:32:55.000Z</time>
      </trkpt>
      <trkpt lat="45.83933" lon="4.70462">
        <ele>286.99773</ele>
        <time>2023-04-14T12:32:56.000Z</time>
      </trkpt>
      <trkpt lat="45.83931" lon="4.70466">
        <ele>287.05995</ele>
        <time>2023-04-14T12:32:57.000Z</time>
      </trkpt>
      <trkpt lat="45.83928" lon="4.70469">
        <ele>287.10901</ele>
        <time>2023-04-14T12:32:58.000Z</time>
      </trkpt>
      <trkpt lat="45.83926" lon="4.70472">
        <ele>287.16311</ele>
        <time>2023-04-14T12:32:59.000Z</time>
      </trkpt>
      <trkpt lat="45.83924" lon="4.70476">
        <ele>287.21848</ele>
        <time>2023-04-14T12:33:00.000Z</time>
      </trkpt>
      <trkpt lat="45.83921" lon="4.70478">
        <ele>287.2727</ele>
        <time>2023-04-14T12:33:01.000Z</time>
      </trkpt>
      <trkpt lat="45.83917" lon="4.70479">
        <ele>287.33591</ele>
        <time>2023-04-14T12:33:02.000Z</time>
      </trkpt>
      <trkpt lat="45.83914" lon="4.70481">
        <ele>287.40407</ele>
        <time>2023-04-14T12:33:03.000Z</time>
      </trkpt>
      <trkpt lat="45.83911" lon="4.70482">
        <ele>287.472</ele>
        <time>2023-04-14T12:33:04.000Z</time>
      </trkpt>
      <trkpt lat="45.83907" lon="4.70484">
        <ele>287.54022</ele>
        <time>2023-04-14T12:33:05.000Z</time>
      </trkpt>
      <trkpt lat="45.83904" lon="4.70486">
        <ele>287.60711</ele>
        <time>2023-04-14T12:33:06.000Z</time>
      </trkpt>
      <trkpt lat="45.839" lon="4.70488">
        <ele>287.6757</ele>
        <time>2023-04-14T12:33:07.000Z</time>
      </trkpt>
      <trkpt lat="45.83897" lon="4.7049">
        <ele>287.75474</ele>
        <time>2023-04-14T12:33:08.000Z</time>
      </trkpt>
      <trkpt lat="45.83893" lon="4.70493">
        <ele>287.84672</ele>
        <time>2023-04-14T12:33:09.000Z</time>
      </trkpt>
      <trkpt lat="45.83889" lon="4.70495">
        <ele>287.95687</ele>
        <time>2023-04-14T12:33:10.000Z</time>
      </trkpt>
      <trkpt lat="45.83885" lon="4.70496">
        <ele>288.07549</ele>
        <time>2023-04-14T12:33:11.000Z</time>
      </trkpt>
      <trkpt lat="45.83882" lon="4.70499">
        <ele>288.19546</ele>
        <time>2023-04-14T12:33:12.000Z</time>
      </trkpt>
      <trkpt lat="45.83878" lon="4.70501">
        <ele>288.30588</ele>
        <time>2023-04-14T12:33:13.000Z</time>
      </trkpt>
      <trkpt lat="45.83874" lon="4.70503">
        <ele>288.4089</ele>
        <time>2023-04-14T12:33:14.000Z</time>
      </trkpt>
      <trkpt lat="45.8387" lon="4.70506">
        <ele>288.49824</ele>
        <time>2023-04-14T12:33:15.000Z</time>
      </trkpt>
      <trkpt lat="45.83867" lon="4.70508">
        <ele>288.58352</ele>
        <time>2023-04-14T12:33:16.000Z</time>
      </trkpt>
      <trkpt lat="45.83863" lon="4.70511">
        <ele>288.65764</ele>
        <time>2023-04-14T12:33:17.000Z</time>
      </trkpt>
      <trkpt lat="45.83859" lon="4.70513">
        <ele>288.72891</ele>
        <time>2023-04-14T12:33:18.000Z</time>
      </trkpt>
      <trkpt lat="45.83855" lon="4.70516">
        <ele>288.80027</ele>
        <time>2023-04-14T12:33:19.000Z</time>
      </trkpt>
      <trkpt lat="45.83852" lon="4.70518">
        <ele>288.86254</ele>
        <time>2023-04-14T12:33:20.000Z</time>
      </trkpt>
      <trkpt lat="45.83848" lon="4.7052">
        <ele>288.92084</ele>
        <time>2023-04-14T12:33:21.000Z</time>
      </trkpt>
      <trkpt lat="45.83844" lon="4.70522">
        <ele>288.9882</ele>
        <time>2023-04-14T12:33:22.000Z</time>
      </trkpt>
      <trkpt lat="45.8384" lon="4.70524">
        <ele>289.07953</ele>
        <time>2023-04-14T12:33:23.000Z</time>
      </trkpt>
      <trkpt lat="45.83837" lon="4.70527">
        <ele>289.19349</ele>
        <time>2023-04-14T12:33:24.000Z</time>
      </trkpt>
      <trkpt lat="45.83833" lon="4.7053">
        <ele>289.33629</ele>
        <time>2023-04-14T12:33:25.000Z</time>
      </trkpt>
      <trkpt lat="45.83829" lon="4.70533">
        <ele>289.49163</ele>
        <time>2023-04-14T12:33:26.000Z</time>
      </trkpt>
      <trkpt lat="45.83825" lon="4.70536">
        <ele>289.66015</ele>
        <time>2023-04-14T12:33:27.000Z</time>
      </trkpt>
      <trkpt lat="45.83822" lon="4.70538">
        <ele>289.82267</ele>
        <time>2023-04-14T12:33:28.000Z</time>
      </trkpt>
      <trkpt lat="45.83818" lon="4.70541">
        <ele>289.99266</ele>
        <time>2023-04-14T12:33:29.000Z</time>
      </trkpt>
      <trkpt lat="45.83815" lon="4.70544">
        <ele>290.16264</ele>
        <time>2023-04-14T12:33:30.000Z</time>
      </trkpt>
      <trkpt lat="45.83811" lon="4.70546">
        <ele>290.32943</ele>
        <time>2023-04-14T12:33:31.000Z</time>
      </trkpt>
      <trkpt lat="45.83807" lon="4.70549">
        <ele>290.51162</ele>
        <time>2023-04-14T12:33:32.000Z</time>
      </trkpt>
      <trkpt lat="45.83803" lon="4.70552">
        <ele>290.68527</ele>
        <time>2023-04-14T12:33:33.000Z</time>
      </trkpt>
      <trkpt lat="45.83799" lon="4.70555">
        <ele>290.86999</ele>
        <time>2023-04-14T12:33:34.000Z</time>
      </trkpt>
      <trkpt lat="45.83795" lon="4.70557">
        <ele>291.05419</ele>
        <time>2023-04-14T12:33:35.000Z</time>
      </trkpt>
      <trkpt lat="45.83791" lon="4.7056">
        <ele>291.24773</ele>
        <time>2023-04-14T12:33:36.000Z</time>
      </trkpt>
      <trkpt lat="45.83787" lon="4.70563">
        <ele>291.45886</ele>
        <time>2023-04-14T12:33:37.000Z</time>
      </trkpt>
      <trkpt lat="45.83783" lon="4.70566">
        <ele>291.684</ele>
        <time>2023-04-14T12:33:38.000Z</time>
      </trkpt>
      <trkpt lat="45.83779" lon="4.70568">
        <ele>291.86654</ele>
        <time>2023-04-14T12:33:39.000Z</time>
      </trkpt>
      <trkpt lat="45.83775" lon="4.70571">
        <ele>292.05573</ele>
        <time>2023-04-14T12:33:40.000Z</time>
      </trkpt>
      <trkpt lat="45.83771" lon="4.70573">
        <ele>292.2435</ele>
        <time>2023-04-14T12:33:41.000Z</time>
      </trkpt>
      <trkpt lat="45.83767" lon="4.70576">
        <ele>292.45521</ele>
        <time>2023-04-14T12:33:42.000Z</time>
      </trkpt>
      <trkpt lat="45.83762" lon="4.70578">
        <ele>292.71912</ele>
        <time>2023-04-14T12:33:43.000Z</time>
      </trkpt>
      <trkpt lat="45.83758" lon="4.7058">
        <ele>293.09828</ele>
        <time>2023-04-14T12:33:44.000Z</time>
      </trkpt>
      <trkpt lat="45.83753" lon="4.70582">
        <ele>293.53521</ele>
        <time>2023-04-14T12:33:45.000Z</time>
      </trkpt>
      <trkpt lat="45.83749" lon="4.70584">
        <ele>293.96518</ele>
        <time>2023-04-14T12:33:46.000Z</time>
      </trkpt>
      <trkpt lat="45.83745" lon="4.70587">
        <ele>294.34045</ele>
        <time>2023-04-14T12:33:47.000Z</time>
      </trkpt>
      <trkpt lat="45.83741" lon="4.70588">
        <ele>294.60223</ele>
        <time>2023-04-14T12:33:48.000Z</time>
      </trkpt>
      <trkpt lat="45.83737" lon="4.70589">
        <ele>294.77646</ele>
        <time>2023-04-14T12:33:49.000Z</time>
      </trkpt>
      <trkpt lat="45.83732" lon="4.7059">
        <ele>294.9212</ele>
        <time>2023-04-14T12:33:50.000Z</time>
      </trkpt>
      <trkpt lat="45.83728" lon="4.7059">
        <ele>295.02362</ele>
        <time>2023-04-14T12:33:51.000Z</time>
      </trkpt>
      <trkpt lat="45.83724" lon="4.70591">
        <ele>295.11183</ele>
        <time>2023-04-14T12:33:52.000Z</time>
      </trkpt>
      <trkpt lat="45.8372" lon="4.70592">
        <ele>295.19157</ele>
        <time>2023-04-14T12:33:53.000Z</time>
      </trkpt>
      <trkpt lat="45.83716" lon="4.70592">
        <ele>295.24575</ele>
        <time>2023-04-14T12:33:54.000Z</time>
      </trkpt>
      <trkpt lat="45.83712" lon="4.70593">
        <ele>295.28569</ele>
        <time>2023-04-14T12:33:55.000Z</time>
      </trkpt>
      <trkpt lat="45.83708" lon="4.70593">
        <ele>295.29698</ele>
        <time>2023-04-14T12:33:56.000Z</time>
      </trkpt>
      <trkpt lat="45.83704" lon="4.70593">
        <ele>295.29383</ele>
        <time>2023-04-14T12:33:57.000Z</time>
      </trkpt>
      <trkpt lat="45.837" lon="4.70593">
        <ele>295.33081</ele>
        <time>2023-04-14T12:33:58.000Z</time>
      </trkpt>
      <trkpt lat="45.83696" lon="4.70594">
        <ele>295.41938</ele>
        <time>2023-04-14T12:33:59.000Z</time>
      </trkpt>
      <trkpt lat="45.83691" lon="4.70595">
        <ele>295.54944</ele>
        <time>2023-04-14T12:34:00.000Z</time>
      </trkpt>
      <trkpt lat="45.83687" lon="4.70596">
        <ele>295.71934</ele>
        <time>2023-04-14T12:34:01.000Z</time>
      </trkpt>
      <trkpt lat="45.83682" lon="4.70598">
        <ele>295.91823</ele>
        <time>2023-04-14T12:34:02.000Z</time>
      </trkpt>
      <trkpt lat="45.83678" lon="4.706">
        <ele>296.08015</ele>
        <time>2023-04-14T12:34:03.000Z</time>
      </trkpt>
      <trkpt lat="45.83673" lon="4.70602">
        <ele>296.22702</ele>
        <time>2023-04-14T12:34:04.000Z</time>
      </trkpt>
      <trkpt lat="45.83669" lon="4.70604">
        <ele>296.36386</ele>
        <time>2023-04-14T12:34:05.000Z</time>
      </trkpt>
      <trkpt lat="45.83664" lon="4.70606">
        <ele>296.47096</ele>
        <time>2023-04-14T12:34:06.000Z</time>
      </trkpt>
      <trkpt lat="45.8366" lon="4.70608">
        <ele>296.54968</ele>
        <time>2023-04-14T12:34:07.000Z</time>
      </trkpt>
      <trkpt lat="45.83656" lon="4.7061">
        <ele>296.62994</ele>
        <time>2023-04-14T12:34:08.000Z</time>
      </trkpt>
      <trkpt lat="45.83652" lon="4.70612">
        <ele>296.73125</ele>
        <time>2023-04-14T12:34:09.000Z</time>
      </trkpt>
      <trkpt lat="45.83647" lon="4.70615">
        <ele>296.84803</ele>
        <time>2023-04-14T12:34:10.000Z</time>
      </trkpt>
      <trkpt lat="45.83643" lon="4.70618">
        <ele>296.94507</ele>
        <time>2023-04-14T12:34:11.000Z</time>
      </trkpt>
      <trkpt lat="45.83639" lon="4.7062">
        <ele>297.03068</ele>
        <time>2023-04-14T12:34:12.000Z</time>
      </trkpt>
      <trkpt lat="45.83635" lon="4.70622">
        <ele>297.11224</ele>
        <time>2023-04-14T12:34:13.000Z</time>
      </trkpt>
      <trkpt lat="45.8363" lon="4.70623">
        <ele>297.18963</ele>
        <time>2023-04-14T12:34:14.000Z</time>
      </trkpt>
      <trkpt lat="45.83626" lon="4.70624">
        <ele>297.28576</ele>
        <time>2023-04-14T12:34:15.000Z</time>
      </trkpt>
      <trkpt lat="45.83621" lon="4.70625">
        <ele>297.4187</ele>
        <time>2023-04-14T12:34:16.000Z</time>
      </trkpt>
      <trkpt lat="45.83616" lon="4.70625">
        <ele>297.5464</ele>
        <time>2023-04-14T12:34:17.000Z</time>
      </trkpt>
      <trkpt lat="45.83612" lon="4.70624">
        <ele>297.68074</ele>
        <time>2023-04-14T12:34:18.000Z</time>
      </trkpt>
      <trkpt lat="45.83607" lon="4.70622">
        <ele>297.8056</ele>
        <time>2023-04-14T12:34:19.000Z</time>
      </trkpt>
      <trkpt lat="45.83602" lon="4.70621">
        <ele>297.90298</ele>
        <time>2023-04-14T12:34:20.000Z</time>
      </trkpt>
      <trkpt lat="45.83596" lon="4.70619">
        <ele>297.98764</ele>
        <time>2023-04-14T12:34:21.000Z</time>
      </trkpt>
      <trkpt lat="45.83591" lon="4.70617">
        <ele>298.05366</ele>
        <time>2023-04-14T12:34:22.000Z</time>
      </trkpt>
      <trkpt lat="45.83587" lon="4.70616">
        <ele>298.11998</ele>
        <time>2023-04-14T12:34:23.000Z</time>
      </trkpt>
      <trkpt lat="45.83582" lon="4.70614">
        <ele>298.21195</ele>
        <time>2023-04-14T12:34:24.000Z</time>
      </trkpt>
      <trkpt lat="45.83577" lon="4.70614">
        <ele>298.36809</ele>
        <time>2023-04-14T12:34:25.000Z</time>
      </trkpt>
      <trkpt lat="45.83572" lon="4.70613">
        <ele>298.52959</ele>
        <time>2023-04-14T12:34:26.000Z</time>
      </trkpt>
      <trkpt lat="45.83567" lon="4.70612">
        <ele>298.67438</ele>
        <time>2023-04-14T12:34:27.000Z</time>
      </trkpt>
      <trkpt lat="45.83563" lon="4.70612">
        <ele>298.77611</ele>
        <time>2023-04-14T12:34:28.000Z</time>
      </trkpt>
      <trkpt lat="45.83558" lon="4.70611">
        <ele>298.84587</ele>
        <time>2023-04-14T12:34:29.000Z</time>
      </trkpt>
      <trkpt lat="45.83553" lon="4.70611">
        <ele>298.87871</ele>
        <time>2023-04-14T12:34:30.000Z</time>
      </trkpt>
      <trkpt lat="45.83548" lon="4.70611">
        <ele>298.91899</ele>
        <time>2023-04-14T12:34:31.000Z</time>
      </trkpt>
      <trkpt lat="45.83543" lon="4.70611">
        <ele>298.97093</ele>
        <time>2023-04-14T12:34:32.000Z</time>
      </trkpt>
      <trkpt lat="45.83538" lon="4.70612">
        <ele>299.03814</ele>
        <time>2023-04-14T12:34:33.000Z</time>
      </trkpt>
      <trkpt lat="45.83533" lon="4.70612">
        <ele>299.09594</ele>
        <time>2023-04-14T12:34:34.000Z</time>
      </trkpt>
      <trkpt lat="45.83528" lon="4.70612">
        <ele>299.16439</ele>
        <time>2023-04-14T12:34:35.000Z</time>
      </trkpt>
      <trkpt lat="45.83523" lon="4.70613">
        <ele>299.27814</ele>
        <time>2023-04-14T12:34:36.000Z</time>
      </trkpt>
      <trkpt lat="45.83518" lon="4.70613">
        <ele>299.43113</ele>
        <time>2023-04-14T12:34:37.000Z</time>
      </trkpt>
      <trkpt lat="45.83513" lon="4.70614">
        <ele>299.68078</ele>
        <time>2023-04-14T12:34:38.000Z</time>
      </trkpt>
      <trkpt lat="45.83507" lon="4.70614">
        <ele>300.05533</ele>
        <time>2023-04-14T12:34:39.000Z</time>
      </trkpt>
      <trkpt lat="45.83502" lon="4.70614">
        <ele>300.42863</ele>
        <time>2023-04-14T12:34:40.000Z</time>
      </trkpt>
      <trkpt lat="45.83497" lon="4.70614">
        <ele>300.82713</ele>
        <time>2023-04-14T12:34:41.000Z</time>
      </trkpt>
      <trkpt lat="45.83491" lon="4.70615">
        <ele>301.21546</ele>
        <time>2023-04-14T12:34:42.000Z</time>
      </trkpt>
      <trkpt lat="45.83487" lon="4.70615">
        <ele>301.55084</ele>
        <time>2023-04-14T12:34:43.000Z</time>
      </trkpt>
      <trkpt lat="45.83482" lon="4.70616">
        <ele>301.91819</ele>
        <time>2023-04-14T12:34:44.000Z</time>
      </trkpt>
      <trkpt lat="45.83477" lon="4.70617">
        <ele>302.24041</ele>
        <time>2023-04-14T12:34:45.000Z</time>
      </trkpt>
      <trkpt lat="45.83471" lon="4.70617">
        <ele>302.55221</ele>
        <time>2023-04-14T12:34:46.000Z</time>
      </trkpt>
      <trkpt lat="45.83467" lon="4.70618">
        <ele>302.8069</ele>
        <time>2023-04-14T12:34:47.000Z</time>
      </trkpt>
      <trkpt lat="45.83462" lon="4.70617">
        <ele>302.99253</ele>
        <time>2023-04-14T12:34:48.000Z</time>
      </trkpt>
      <trkpt lat="45.83457" lon="4.70618">
        <ele>303.19881</ele>
        <time>2023-04-14T12:34:49.000Z</time>
      </trkpt>
      <trkpt lat="45.83452" lon="4.70617">
        <ele>303.36774</ele>
        <time>2023-04-14T12:34:50.000Z</time>
      </trkpt>
      <trkpt lat="45.83446" lon="4.70617">
        <ele>303.4862</ele>
        <time>2023-04-14T12:34:51.000Z</time>
      </trkpt>
      <trkpt lat="45.83442" lon="4.70616">
        <ele>303.5441</ele>
        <time>2023-04-14T12:34:52.000Z</time>
      </trkpt>
      <trkpt lat="45.83437" lon="4.70615">
        <ele>303.56293</ele>
        <time>2023-04-14T12:34:53.000Z</time>
      </trkpt>
      <trkpt lat="45.83432" lon="4.70615">
        <ele>303.58007</ele>
        <time>2023-04-14T12:34:54.000Z</time>
      </trkpt>
      <trkpt lat="45.83427" lon="4.70613">
        <ele>303.56836</ele>
        <time>2023-04-14T12:34:55.000Z</time>
      </trkpt>
      <trkpt lat="45.83422" lon="4.70612">
        <ele>303.61096</ele>
        <time>2023-04-14T12:34:56.000Z</time>
      </trkpt>
      <trkpt lat="45.83417" lon="4.70612">
        <ele>303.65442</ele>
        <time>2023-04-14T12:34:57.000Z</time>
      </trkpt>
      <trkpt lat="45.83411" lon="4.70612">
        <ele>303.7275</ele>
        <time>2023-04-14T12:34:58.000Z</time>
      </trkpt>
      <trkpt lat="45.83406" lon="4.7061">
        <ele>303.81892</ele>
        <time>2023-04-14T12:34:59.000Z</time>
      </trkpt>
      <trkpt lat="45.83401" lon="4.7061">
        <ele>304.02962</ele>
        <time>2023-04-14T12:35:00.000Z</time>
      </trkpt>
      <trkpt lat="45.83396" lon="4.7061">
        <ele>304.33257</ele>
        <time>2023-04-14T12:35:01.000Z</time>
      </trkpt>
      <trkpt lat="45.83391" lon="4.70609">
        <ele>304.64631</ele>
        <time>2023-04-14T12:35:02.000Z</time>
      </trkpt>
      <trkpt lat="45.83386" lon="4.70607">
        <ele>304.94552</ele>
        <time>2023-04-14T12:35:03.000Z</time>
      </trkpt>
      <trkpt lat="45.83381" lon="4.70606">
        <ele>305.23556</ele>
        <time>2023-04-14T12:35:04.000Z</time>
      </trkpt>
      <trkpt lat="45.83376" lon="4.70605">
        <ele>305.49847</ele>
        <time>2023-04-14T12:35:05.000Z</time>
      </trkpt>
      <trkpt lat="45.83372" lon="4.70605">
        <ele>305.72619</ele>
        <time>2023-04-14T12:35:06.000Z</time>
      </trkpt>
      <trkpt lat="45.83368" lon="4.70605">
        <ele>305.94511</ele>
        <time>2023-04-14T12:35:07.000Z</time>
      </trkpt>
      <trkpt lat="45.83365" lon="4.70604">
        <ele>306.09057</ele>
        <time>2023-04-14T12:35:08.000Z</time>
      </trkpt>
      <trkpt lat="45.83362" lon="4.70603">
        <ele>306.24101</ele>
        <time>2023-04-14T12:35:09.000Z</time>
      </trkpt>
      <trkpt lat="45.83359" lon="4.70603">
        <ele>306.37556</ele>
        <time>2023-04-14T12:35:10.000Z</time>
      </trkpt>
      <trkpt lat="45.83356" lon="4.70604">
        <ele>306.49318</ele>
        <time>2023-04-14T12:35:11.000Z</time>
      </trkpt>
      <trkpt lat="45.83353" lon="4.70606">
        <ele>306.5942</ele>
        <time>2023-04-14T12:35:12.000Z</time>
      </trkpt>
      <trkpt lat="45.83351" lon="4.70611">
        <ele>306.65486</ele>
        <time>2023-04-14T12:35:13.000Z</time>
      </trkpt>
      <trkpt lat="45.8335" lon="4.70619">
        <ele>306.66598</ele>
        <time>2023-04-14T12:35:14.000Z</time>
      </trkpt>
      <trkpt lat="45.83349" lon="4.70627">
        <ele>306.68471</ele>
        <time>2023-04-14T12:35:15.000Z</time>
      </trkpt>
      <trkpt lat="45.8335" lon="4.70634">
        <ele>306.71912</ele>
        <time>2023-04-14T12:35:16.000Z</time>
      </trkpt>
      <trkpt lat="45.83349" lon="4.70642">
        <ele>306.86022</ele>
        <time>2023-04-14T12:35:17.000Z</time>
      </trkpt>
      <trkpt lat="45.83349" lon="4.70649">
        <ele>307.06219</ele>
        <time>2023-04-14T12:35:18.000Z</time>
      </trkpt>
      <trkpt lat="45.83349" lon="4.70656">
        <ele>307.30715</ele>
        <time>2023-04-14T12:35:19.000Z</time>
      </trkpt>
      <trkpt lat="45.83348" lon="4.70664">
        <ele>307.56671</ele>
        <time>2023-04-14T12:35:20.000Z</time>
      </trkpt>
      <trkpt lat="45.83347" lon="4.7067">
        <ele>307.7989</ele>
        <time>2023-04-14T12:35:21.000Z</time>
      </trkpt>
      <trkpt lat="45.83347" lon="4.70677">
        <ele>308.02046</ele>
        <time>2023-04-14T12:35:22.000Z</time>
      </trkpt>
      <trkpt lat="45.83347" lon="4.70683">
        <ele>308.23611</ele>
        <time>2023-04-14T12:35:23.000Z</time>
      </trkpt>
      <trkpt lat="45.83346" lon="4.70689">
        <ele>308.45823</ele>
        <time>2023-04-14T12:35:24.000Z</time>
      </trkpt>
      <trkpt lat="45.83345" lon="4.70694">
        <ele>308.60954</ele>
        <time>2023-04-14T12:35:25.000Z</time>
      </trkpt>
      <trkpt lat="45.83344" lon="4.70698">
        <ele>308.7449</ele>
        <time>2023-04-14T12:35:26.000Z</time>
      </trkpt>
      <trkpt lat="45.83344" lon="4.70702">
        <ele>308.82225</ele>
        <time>2023-04-14T12:35:27.000Z</time>
      </trkpt>
      <trkpt lat="45.83344" lon="4.70704">
        <ele>308.86445</ele>
        <time>2023-04-14T12:35:28.000Z</time>
      </trkpt>
      <trkpt lat="45.83344" lon="4.70708">
        <ele>308.84851</ele>
        <time>2023-04-14T12:35:33.000Z</time>
      </trkpt>
      <trkpt lat="45.83344" lon="4.70713">
        <ele>308.86266</ele>
        <time>2023-04-14T12:35:35.000Z</time>
      </trkpt>
      <trkpt lat="45.83344" lon="4.70717">
        <ele>308.86861</ele>
        <time>2023-04-14T12:35:36.000Z</time>
      </trkpt>
      <trkpt lat="45.83343" lon="4.70722">
        <ele>308.85502</ele>
        <time>2023-04-14T12:35:37.000Z</time>
      </trkpt>
      <trkpt lat="45.83343" lon="4.70727">
        <ele>308.83666</ele>
        <time>2023-04-14T12:35:38.000Z</time>
      </trkpt>
      <trkpt lat="45.83342" lon="4.70732">
        <ele>308.8214</ele>
        <time>2023-04-14T12:35:39.000Z</time>
      </trkpt>
      <trkpt lat="45.83342" lon="4.70738">
        <ele>308.81312</ele>
        <time>2023-04-14T12:35:40.000Z</time>
      </trkpt>
      <trkpt lat="45.83341" lon="4.70743">
        <ele>308.78393</ele>
        <time>2023-04-14T12:35:41.000Z</time>
      </trkpt>
      <trkpt lat="45.83341" lon="4.70748">
        <ele>308.74737</ele>
        <time>2023-04-14T12:35:42.000Z</time>
      </trkpt>
      <trkpt lat="45.83341" lon="4.70753">
        <ele>308.70407</ele>
        <time>2023-04-14T12:35:43.000Z</time>
      </trkpt>
      <trkpt lat="45.8334" lon="4.70757">
        <ele>308.66853</ele>
        <time>2023-04-14T12:35:44.000Z</time>
      </trkpt>
      <trkpt lat="45.8334" lon="4.70762">
        <ele>308.62403</ele>
        <time>2023-04-14T12:35:45.000Z</time>
      </trkpt>
      <trkpt lat="45.8334" lon="4.70767">
        <ele>308.58064</ele>
        <time>2023-04-14T12:35:46.000Z</time>
      </trkpt>
      <trkpt lat="45.83339" lon="4.70772">
        <ele>308.52966</ele>
        <time>2023-04-14T12:35:47.000Z</time>
      </trkpt>
      <trkpt lat="45.83339" lon="4.70777">
        <ele>308.45984</ele>
        <time>2023-04-14T12:35:48.000Z</time>
      </trkpt>
      <trkpt lat="45.83339" lon="4.70782">
        <ele>308.39675</ele>
        <time>2023-04-14T12:35:49.000Z</time>
      </trkpt>
      <trkpt lat="45.83339" lon="4.70787">
        <ele>308.33593</ele>
        <time>2023-04-14T12:35:50.000Z</time>
      </trkpt>
      <trkpt lat="45.83339" lon="4.70792">
        <ele>308.274</ele>
        <time>2023-04-14T12:35:51.000Z</time>
      </trkpt>
      <trkpt lat="45.83339" lon="4.70797">
        <ele>308.20953</ele>
        <time>2023-04-14T12:35:52.000Z</time>
      </trkpt>
      <trkpt lat="45.83338" lon="4.70801">
        <ele>308.15145</ele>
        <time>2023-04-14T12:35:53.000Z</time>
      </trkpt>
      <trkpt lat="45.83338" lon="4.70806">
        <ele>308.0964</ele>
        <time>2023-04-14T12:35:54.000Z</time>
      </trkpt>
      <trkpt lat="45.83337" lon="4.70811">
        <ele>308.03297</ele>
        <time>2023-04-14T12:35:55.000Z</time>
      </trkpt>
      <trkpt lat="45.83337" lon="4.70815">
        <ele>307.97611</ele>
        <time>2023-04-14T12:35:56.000Z</time>
      </trkpt>
      <trkpt lat="45.83336" lon="4.70819">
        <ele>307.95297</ele>
        <time>2023-04-14T12:35:57.000Z</time>
      </trkpt>
      <trkpt lat="45.83337" lon="4.70822">
        <ele>307.89006</ele>
        <time>2023-04-14T12:35:58.000Z</time>
      </trkpt>
      <trkpt lat="45.83336" lon="4.70825">
        <ele>307.84403</ele>
        <time>2023-04-14T12:35:59.000Z</time>
      </trkpt>
      <trkpt lat="45.83336" lon="4.70828">
        <ele>307.80451</ele>
        <time>2023-04-14T12:36:00.000Z</time>
      </trkpt>
      <trkpt lat="45.83336" lon="4.70831">
        <ele>307.75999</ele>
        <time>2023-04-14T12:36:01.000Z</time>
      </trkpt>
      <trkpt lat="45.83336" lon="4.70834">
        <ele>307.70505</ele>
        <time>2023-04-14T12:36:02.000Z</time>
      </trkpt>
      <trkpt lat="45.83336" lon="4.70838">
        <ele>307.64188</ele>
        <time>2023-04-14T12:36:03.000Z</time>
      </trkpt>
      <trkpt lat="45.83336" lon="4.70841">
        <ele>307.57695</ele>
        <time>2023-04-14T12:36:04.000Z</time>
      </trkpt>
      <trkpt lat="45.83336" lon="4.70845">
        <ele>307.51461</ele>
        <time>2023-04-14T12:36:05.000Z</time>
      </trkpt>
      <trkpt lat="45.83335" lon="4.70849">
        <ele>307.45031</ele>
        <time>2023-04-14T12:36:06.000Z</time>
      </trkpt>
      <trkpt lat="45.83335" lon="4.70853">
        <ele>307.38559</ele>
        <time>2023-04-14T12:36:07.000Z</time>
      </trkpt>
      <trkpt lat="45.83335" lon="4.70857">
        <ele>307.31396</ele>
        <time>2023-04-14T12:36:08.000Z</time>
      </trkpt>
      <trkpt lat="45.83335" lon="4.7086">
        <ele>307.25129</ele>
        <time>2023-04-14T12:36:09.000Z</time>
      </trkpt>
      <trkpt lat="45.83334" lon="4.70864">
        <ele>307.17743</ele>
        <time>2023-04-14T12:36:10.000Z</time>
      </trkpt>
      <trkpt lat="45.83334" lon="4.70867">
        <ele>307.11085</ele>
        <time>2023-04-14T12:36:11.000Z</time>
      </trkpt>
      <trkpt lat="45.83332" lon="4.70872">
        <ele>307.06947</ele>
        <time>2023-04-14T12:36:13.000Z</time>
      </trkpt>
      <trkpt lat="45.8333" lon="4.70872">
        <ele>307.16813</ele>
        <time>2023-04-14T12:36:18.000Z</time>
      </trkpt>
    </trkseg>
  </trk>
</gpx>